<?xml version="1.0" encoding="UTF-8" standalone="no" ?>
<gpx xmlns="http://www.topografix.com/GPX/1/1" xmlns:xsi="http://www.w3.org/2001/XMLSchema-instance" xsi:schemaLocation="http://www.topografix.com/GPX/1/1 http://www.topografix.com/GPX/1/1/gpx.xsd" version="1.1" creator="VisuGPX - https://www.visugpx.com">
  <metadata>
    <name>Les Opies</name>
  </metadata>
  <trk>
    <name><![CDATA[Other]]></name>
    <trkseg>
      <trkpt lat="43.69059" lon="5.02296">
        <ele>92.800003051758</ele>
        <time>2021-03-06T07:40:15.000Z</time>
      </trkpt>
      <trkpt lat="43.69059" lon="5.02296">
        <ele>92.800003051758</ele>
        <time>2021-03-06T07:40:15.000Z</time>
      </trkpt>
      <trkpt lat="43.69059" lon="5.02294">
        <ele>92.800003051758</ele>
        <time>2021-03-06T07:40:16.000Z</time>
      </trkpt>
      <trkpt lat="43.6906" lon="5.02292">
        <ele>93</ele>
        <time>2021-03-06T07:40:17.000Z</time>
      </trkpt>
      <trkpt lat="43.69059" lon="5.02289">
        <ele>93</ele>
        <time>2021-03-06T07:40:18.000Z</time>
      </trkpt>
      <trkpt lat="43.69058" lon="5.02284">
        <ele>93</ele>
        <time>2021-03-06T07:40:19.000Z</time>
      </trkpt>
      <trkpt lat="43.69056" lon="5.02276">
        <ele>93.199996948242</ele>
        <time>2021-03-06T07:40:21.000Z</time>
      </trkpt>
      <trkpt lat="43.69055" lon="5.02268">
        <ele>93.199996948242</ele>
        <time>2021-03-06T07:40:23.000Z</time>
      </trkpt>
      <trkpt lat="43.69056" lon="5.02259">
        <ele>93.400001525879</ele>
        <time>2021-03-06T07:40:26.000Z</time>
      </trkpt>
      <trkpt lat="43.69056" lon="5.02251">
        <ele>93.599998474121</ele>
        <time>2021-03-06T07:40:29.000Z</time>
      </trkpt>
      <trkpt lat="43.69057" lon="5.02242">
        <ele>94</ele>
        <time>2021-03-06T07:40:32.000Z</time>
      </trkpt>
      <trkpt lat="43.69058" lon="5.02234">
        <ele>94.400001525879</ele>
        <time>2021-03-06T07:40:35.000Z</time>
      </trkpt>
      <trkpt lat="43.6906" lon="5.02227">
        <ele>94.800003051758</ele>
        <time>2021-03-06T07:40:38.000Z</time>
      </trkpt>
      <trkpt lat="43.69063" lon="5.0222">
        <ele>95.199996948242</ele>
        <time>2021-03-06T07:40:41.000Z</time>
      </trkpt>
      <trkpt lat="43.69065" lon="5.02214">
        <ele>95.599998474121</ele>
        <time>2021-03-06T07:40:44.000Z</time>
      </trkpt>
      <trkpt lat="43.69067" lon="5.02206">
        <ele>96</ele>
        <time>2021-03-06T07:40:48.000Z</time>
      </trkpt>
      <trkpt lat="43.69067" lon="5.02199">
        <ele>96.199996948242</ele>
        <time>2021-03-06T07:40:51.000Z</time>
      </trkpt>
      <trkpt lat="43.69066" lon="5.02191">
        <ele>96.400001525879</ele>
        <time>2021-03-06T07:40:55.000Z</time>
      </trkpt>
      <trkpt lat="43.69067" lon="5.02185">
        <ele>96.800003051758</ele>
        <time>2021-03-06T07:40:58.000Z</time>
      </trkpt>
      <trkpt lat="43.69068" lon="5.02176">
        <ele>97</ele>
        <time>2021-03-06T07:41:02.000Z</time>
      </trkpt>
      <trkpt lat="43.69067" lon="5.02169">
        <ele>97.400001525879</ele>
        <time>2021-03-06T07:41:05.000Z</time>
      </trkpt>
      <trkpt lat="43.69066" lon="5.02161">
        <ele>97.599998474121</ele>
        <time>2021-03-06T07:41:08.000Z</time>
      </trkpt>
      <trkpt lat="43.69064" lon="5.02153">
        <ele>97.800003051758</ele>
        <time>2021-03-06T07:41:11.000Z</time>
      </trkpt>
      <trkpt lat="43.69063" lon="5.02144">
        <ele>98.199996948242</ele>
        <time>2021-03-06T07:41:14.000Z</time>
      </trkpt>
      <trkpt lat="43.69062" lon="5.02135">
        <ele>98.599998474121</ele>
        <time>2021-03-06T07:41:17.000Z</time>
      </trkpt>
      <trkpt lat="43.6906" lon="5.02126">
        <ele>98.800003051758</ele>
        <time>2021-03-06T07:41:20.000Z</time>
      </trkpt>
      <trkpt lat="43.69059" lon="5.02117">
        <ele>99</ele>
        <time>2021-03-06T07:41:23.000Z</time>
      </trkpt>
      <trkpt lat="43.69057" lon="5.02108">
        <ele>99</ele>
        <time>2021-03-06T07:41:26.000Z</time>
      </trkpt>
      <trkpt lat="43.69055" lon="5.02099">
        <ele>99.199996948242</ele>
        <time>2021-03-06T07:41:29.000Z</time>
      </trkpt>
      <trkpt lat="43.69054" lon="5.0209">
        <ele>99.400001525879</ele>
        <time>2021-03-06T07:41:32.000Z</time>
      </trkpt>
      <trkpt lat="43.69053" lon="5.0208">
        <ele>99.599998474121</ele>
        <time>2021-03-06T07:41:35.000Z</time>
      </trkpt>
      <trkpt lat="43.69052" lon="5.02073">
        <ele>99.599998474121</ele>
        <time>2021-03-06T07:41:37.000Z</time>
      </trkpt>
      <trkpt lat="43.69053" lon="5.02065">
        <ele>99.800003051758</ele>
        <time>2021-03-06T07:41:40.000Z</time>
      </trkpt>
      <trkpt lat="43.69057" lon="5.02058">
        <ele>100.40000152588</ele>
        <time>2021-03-06T07:41:43.000Z</time>
      </trkpt>
      <trkpt lat="43.69061" lon="5.02051">
        <ele>100.80000305176</ele>
        <time>2021-03-06T07:41:46.000Z</time>
      </trkpt>
      <trkpt lat="43.69065" lon="5.02044">
        <ele>101.19999694824</ele>
        <time>2021-03-06T07:41:49.000Z</time>
      </trkpt>
      <trkpt lat="43.69068" lon="5.02038">
        <ele>101.40000152588</ele>
        <time>2021-03-06T07:41:52.000Z</time>
      </trkpt>
      <trkpt lat="43.69071" lon="5.02031">
        <ele>101.40000152588</ele>
        <time>2021-03-06T07:41:55.000Z</time>
      </trkpt>
      <trkpt lat="43.69075" lon="5.02024">
        <ele>101.40000152588</ele>
        <time>2021-03-06T07:41:59.000Z</time>
      </trkpt>
      <trkpt lat="43.69079" lon="5.02018">
        <ele>101.40000152588</ele>
        <time>2021-03-06T07:42:03.000Z</time>
      </trkpt>
      <trkpt lat="43.69083" lon="5.02013">
        <ele>102</ele>
        <time>2021-03-06T07:42:06.000Z</time>
      </trkpt>
      <trkpt lat="43.69088" lon="5.02008">
        <ele>102.59999847412</ele>
        <time>2021-03-06T07:42:10.000Z</time>
      </trkpt>
      <trkpt lat="43.69094" lon="5.02003">
        <ele>103.40000152588</ele>
        <time>2021-03-06T07:42:14.000Z</time>
      </trkpt>
      <trkpt lat="43.69098" lon="5.01998">
        <ele>103.80000305176</ele>
        <time>2021-03-06T07:42:17.000Z</time>
      </trkpt>
      <trkpt lat="43.69102" lon="5.01994">
        <ele>104.40000152588</ele>
        <time>2021-03-06T07:42:20.000Z</time>
      </trkpt>
      <trkpt lat="43.69106" lon="5.0199">
        <ele>104.59999847412</ele>
        <time>2021-03-06T07:42:23.000Z</time>
      </trkpt>
      <trkpt lat="43.69112" lon="5.01987">
        <ele>104.40000152588</ele>
        <time>2021-03-06T07:42:26.000Z</time>
      </trkpt>
      <trkpt lat="43.69118" lon="5.01983">
        <ele>104.40000152588</ele>
        <time>2021-03-06T07:42:29.000Z</time>
      </trkpt>
      <trkpt lat="43.69123" lon="5.0198">
        <ele>104.19999694824</ele>
        <time>2021-03-06T07:42:32.000Z</time>
      </trkpt>
      <trkpt lat="43.69127" lon="5.01975">
        <ele>104.59999847412</ele>
        <time>2021-03-06T07:42:35.000Z</time>
      </trkpt>
      <trkpt lat="43.6913" lon="5.01969">
        <ele>105.19999694824</ele>
        <time>2021-03-06T07:42:38.000Z</time>
      </trkpt>
      <trkpt lat="43.69131" lon="5.01961">
        <ele>105.80000305176</ele>
        <time>2021-03-06T07:42:41.000Z</time>
      </trkpt>
      <trkpt lat="43.69133" lon="5.01954">
        <ele>106</ele>
        <time>2021-03-06T07:42:44.000Z</time>
      </trkpt>
      <trkpt lat="43.69135" lon="5.01947">
        <ele>106.19999694824</ele>
        <time>2021-03-06T07:42:47.000Z</time>
      </trkpt>
      <trkpt lat="43.69139" lon="5.01941">
        <ele>106.19999694824</ele>
        <time>2021-03-06T07:42:50.000Z</time>
      </trkpt>
      <trkpt lat="43.69143" lon="5.01934">
        <ele>106.40000152588</ele>
        <time>2021-03-06T07:42:53.000Z</time>
      </trkpt>
      <trkpt lat="43.69146" lon="5.01926">
        <ele>106.59999847412</ele>
        <time>2021-03-06T07:42:56.000Z</time>
      </trkpt>
      <trkpt lat="43.69149" lon="5.01919">
        <ele>107</ele>
        <time>2021-03-06T07:42:59.000Z</time>
      </trkpt>
      <trkpt lat="43.69151" lon="5.01912">
        <ele>108.19999694824</ele>
        <time>2021-03-06T07:43:02.000Z</time>
      </trkpt>
      <trkpt lat="43.69155" lon="5.01906">
        <ele>109.40000152588</ele>
        <time>2021-03-06T07:43:05.000Z</time>
      </trkpt>
      <trkpt lat="43.69159" lon="5.019">
        <ele>110.80000305176</ele>
        <time>2021-03-06T07:43:08.000Z</time>
      </trkpt>
      <trkpt lat="43.69163" lon="5.01896">
        <ele>111.80000305176</ele>
        <time>2021-03-06T07:43:11.000Z</time>
      </trkpt>
      <trkpt lat="43.69168" lon="5.01891">
        <ele>113.40000152588</ele>
        <time>2021-03-06T07:43:15.000Z</time>
      </trkpt>
      <trkpt lat="43.69173" lon="5.01885">
        <ele>114.80000305176</ele>
        <time>2021-03-06T07:43:19.000Z</time>
      </trkpt>
      <trkpt lat="43.69178" lon="5.0188">
        <ele>116</ele>
        <time>2021-03-06T07:43:22.000Z</time>
      </trkpt>
      <trkpt lat="43.69181" lon="5.01873">
        <ele>117</ele>
        <time>2021-03-06T07:43:25.000Z</time>
      </trkpt>
      <trkpt lat="43.69184" lon="5.01865">
        <ele>117.59999847412</ele>
        <time>2021-03-06T07:43:28.000Z</time>
      </trkpt>
      <trkpt lat="43.69188" lon="5.0186">
        <ele>118.19999694824</ele>
        <time>2021-03-06T07:43:31.000Z</time>
      </trkpt>
      <trkpt lat="43.69192" lon="5.01855">
        <ele>118.40000152588</ele>
        <time>2021-03-06T07:43:35.000Z</time>
      </trkpt>
      <trkpt lat="43.69198" lon="5.01851">
        <ele>118.40000152588</ele>
        <time>2021-03-06T07:43:39.000Z</time>
      </trkpt>
      <trkpt lat="43.69204" lon="5.01847">
        <ele>118.59999847412</ele>
        <time>2021-03-06T07:43:43.000Z</time>
      </trkpt>
      <trkpt lat="43.69209" lon="5.01844">
        <ele>118.59999847412</ele>
        <time>2021-03-06T07:43:46.000Z</time>
      </trkpt>
      <trkpt lat="43.69214" lon="5.01841">
        <ele>118.80000305176</ele>
        <time>2021-03-06T07:43:50.000Z</time>
      </trkpt>
      <trkpt lat="43.69219" lon="5.01838">
        <ele>118.80000305176</ele>
        <time>2021-03-06T07:43:54.000Z</time>
      </trkpt>
      <trkpt lat="43.69224" lon="5.01837">
        <ele>119</ele>
        <time>2021-03-06T07:43:58.000Z</time>
      </trkpt>
      <trkpt lat="43.69231" lon="5.01836">
        <ele>119</ele>
        <time>2021-03-06T07:44:03.000Z</time>
      </trkpt>
      <trkpt lat="43.69237" lon="5.01836">
        <ele>119.59999847412</ele>
        <time>2021-03-06T07:44:06.000Z</time>
      </trkpt>
      <trkpt lat="43.69243" lon="5.01836">
        <ele>120.19999694824</ele>
        <time>2021-03-06T07:44:09.000Z</time>
      </trkpt>
      <trkpt lat="43.69248" lon="5.01835">
        <ele>120.80000305176</ele>
        <time>2021-03-06T07:44:12.000Z</time>
      </trkpt>
      <trkpt lat="43.69252" lon="5.01829">
        <ele>121.80000305176</ele>
        <time>2021-03-06T07:44:16.000Z</time>
      </trkpt>
      <trkpt lat="43.69257" lon="5.01823">
        <ele>122.80000305176</ele>
        <time>2021-03-06T07:44:20.000Z</time>
      </trkpt>
      <trkpt lat="43.6926" lon="5.01816">
        <ele>123.80000305176</ele>
        <time>2021-03-06T07:44:24.000Z</time>
      </trkpt>
      <trkpt lat="43.69263" lon="5.01809">
        <ele>124.80000305176</ele>
        <time>2021-03-06T07:44:27.000Z</time>
      </trkpt>
      <trkpt lat="43.69266" lon="5.01801">
        <ele>125.80000305176</ele>
        <time>2021-03-06T07:44:30.000Z</time>
      </trkpt>
      <trkpt lat="43.69267" lon="5.0179">
        <ele>126.59999847412</ele>
        <time>2021-03-06T07:44:33.000Z</time>
      </trkpt>
      <trkpt lat="43.6927" lon="5.01782">
        <ele>126.80000305176</ele>
        <time>2021-03-06T07:44:36.000Z</time>
      </trkpt>
      <trkpt lat="43.69274" lon="5.01774">
        <ele>126.80000305176</ele>
        <time>2021-03-06T07:44:39.000Z</time>
      </trkpt>
      <trkpt lat="43.69278" lon="5.01766">
        <ele>126.59999847412</ele>
        <time>2021-03-06T07:44:42.000Z</time>
      </trkpt>
      <trkpt lat="43.69281" lon="5.01761">
        <ele>126.59999847412</ele>
        <time>2021-03-06T07:44:45.000Z</time>
      </trkpt>
      <trkpt lat="43.69286" lon="5.01756">
        <ele>126.59999847412</ele>
        <time>2021-03-06T07:44:48.000Z</time>
      </trkpt>
      <trkpt lat="43.69291" lon="5.01751">
        <ele>126.59999847412</ele>
        <time>2021-03-06T07:44:51.000Z</time>
      </trkpt>
      <trkpt lat="43.69297" lon="5.01747">
        <ele>126.40000152588</ele>
        <time>2021-03-06T07:44:54.000Z</time>
      </trkpt>
      <trkpt lat="43.69302" lon="5.01743">
        <ele>126.40000152588</ele>
        <time>2021-03-06T07:44:57.000Z</time>
      </trkpt>
      <trkpt lat="43.69307" lon="5.01738">
        <ele>127</ele>
        <time>2021-03-06T07:45:00.000Z</time>
      </trkpt>
      <trkpt lat="43.69311" lon="5.01731">
        <ele>127.59999847412</ele>
        <time>2021-03-06T07:45:04.000Z</time>
      </trkpt>
      <trkpt lat="43.69316" lon="5.01728">
        <ele>128.19999694824</ele>
        <time>2021-03-06T07:45:07.000Z</time>
      </trkpt>
      <trkpt lat="43.69321" lon="5.01724">
        <ele>128.80000305176</ele>
        <time>2021-03-06T07:45:10.000Z</time>
      </trkpt>
      <trkpt lat="43.69326" lon="5.01719">
        <ele>129.39999389648</ele>
        <time>2021-03-06T07:45:13.000Z</time>
      </trkpt>
      <trkpt lat="43.69331" lon="5.01713">
        <ele>130</ele>
        <time>2021-03-06T07:45:16.000Z</time>
      </trkpt>
      <trkpt lat="43.69336" lon="5.01708">
        <ele>130.80000305176</ele>
        <time>2021-03-06T07:45:19.000Z</time>
      </trkpt>
      <trkpt lat="43.69341" lon="5.01705">
        <ele>130.80000305176</ele>
        <time>2021-03-06T07:45:22.000Z</time>
      </trkpt>
      <trkpt lat="43.69346" lon="5.01701">
        <ele>130.80000305176</ele>
        <time>2021-03-06T07:45:25.000Z</time>
      </trkpt>
      <trkpt lat="43.69351" lon="5.01697">
        <ele>131.80000305176</ele>
        <time>2021-03-06T07:45:28.000Z</time>
      </trkpt>
      <trkpt lat="43.69353" lon="5.01692">
        <ele>132.39999389648</ele>
        <time>2021-03-06T07:45:31.000Z</time>
      </trkpt>
      <trkpt lat="43.69357" lon="5.01689">
        <ele>132.39999389648</ele>
        <time>2021-03-06T07:45:36.000Z</time>
      </trkpt>
      <trkpt lat="43.69363" lon="5.01695">
        <ele>132.39999389648</ele>
        <time>2021-03-06T07:45:40.000Z</time>
      </trkpt>
      <trkpt lat="43.69368" lon="5.01699">
        <ele>132.19999694824</ele>
        <time>2021-03-06T07:45:43.000Z</time>
      </trkpt>
      <trkpt lat="43.69374" lon="5.01703">
        <ele>132.19999694824</ele>
        <time>2021-03-06T07:45:46.000Z</time>
      </trkpt>
      <trkpt lat="43.6938" lon="5.01705">
        <ele>132</ele>
        <time>2021-03-06T07:45:49.000Z</time>
      </trkpt>
      <trkpt lat="43.69387" lon="5.01706">
        <ele>132</ele>
        <time>2021-03-06T07:45:52.000Z</time>
      </trkpt>
      <trkpt lat="43.69391" lon="5.01707">
        <ele>132</ele>
        <time>2021-03-06T07:45:54.000Z</time>
      </trkpt>
      <trkpt lat="43.69397" lon="5.01708">
        <ele>132</ele>
        <time>2021-03-06T07:45:57.000Z</time>
      </trkpt>
      <trkpt lat="43.69403" lon="5.01709">
        <ele>132</ele>
        <time>2021-03-06T07:46:00.000Z</time>
      </trkpt>
      <trkpt lat="43.69408" lon="5.01714">
        <ele>131.60000610352</ele>
        <time>2021-03-06T07:46:03.000Z</time>
      </trkpt>
      <trkpt lat="43.6941" lon="5.01719">
        <ele>131.19999694824</ele>
        <time>2021-03-06T07:46:06.000Z</time>
      </trkpt>
      <trkpt lat="43.69414" lon="5.01728">
        <ele>130.39999389648</ele>
        <time>2021-03-06T07:46:10.000Z</time>
      </trkpt>
      <trkpt lat="43.69418" lon="5.01734">
        <ele>129.80000305176</ele>
        <time>2021-03-06T07:46:13.000Z</time>
      </trkpt>
      <trkpt lat="43.69422" lon="5.01739">
        <ele>129.39999389648</ele>
        <time>2021-03-06T07:46:15.000Z</time>
      </trkpt>
      <trkpt lat="43.69425" lon="5.01747">
        <ele>128.80000305176</ele>
        <time>2021-03-06T07:46:18.000Z</time>
      </trkpt>
      <trkpt lat="43.69425" lon="5.01756">
        <ele>128</ele>
        <time>2021-03-06T07:46:21.000Z</time>
      </trkpt>
      <trkpt lat="43.69426" lon="5.01763">
        <ele>127.40000152588</ele>
        <time>2021-03-06T07:46:24.000Z</time>
      </trkpt>
      <trkpt lat="43.69432" lon="5.01766">
        <ele>127.19999694824</ele>
        <time>2021-03-06T07:46:27.000Z</time>
      </trkpt>
      <trkpt lat="43.69439" lon="5.01767">
        <ele>127.19999694824</ele>
        <time>2021-03-06T07:46:30.000Z</time>
      </trkpt>
      <trkpt lat="43.69444" lon="5.01769">
        <ele>127.40000152588</ele>
        <time>2021-03-06T07:46:32.000Z</time>
      </trkpt>
      <trkpt lat="43.6945" lon="5.01771">
        <ele>127.59999847412</ele>
        <time>2021-03-06T07:46:35.000Z</time>
      </trkpt>
      <trkpt lat="43.69458" lon="5.01774">
        <ele>127.80000305176</ele>
        <time>2021-03-06T07:46:38.000Z</time>
      </trkpt>
      <trkpt lat="43.69465" lon="5.01777">
        <ele>128</ele>
        <time>2021-03-06T07:46:41.000Z</time>
      </trkpt>
      <trkpt lat="43.69471" lon="5.01779">
        <ele>128.19999694824</ele>
        <time>2021-03-06T07:46:44.000Z</time>
      </trkpt>
      <trkpt lat="43.69479" lon="5.01781">
        <ele>128.39999389648</ele>
        <time>2021-03-06T07:46:47.000Z</time>
      </trkpt>
      <trkpt lat="43.69485" lon="5.01784">
        <ele>128.60000610352</ele>
        <time>2021-03-06T07:46:50.000Z</time>
      </trkpt>
      <trkpt lat="43.6949" lon="5.01788">
        <ele>128.60000610352</ele>
        <time>2021-03-06T07:46:53.000Z</time>
      </trkpt>
      <trkpt lat="43.69496" lon="5.01792">
        <ele>128.60000610352</ele>
        <time>2021-03-06T07:46:56.000Z</time>
      </trkpt>
      <trkpt lat="43.69502" lon="5.01795">
        <ele>128.80000305176</ele>
        <time>2021-03-06T07:46:59.000Z</time>
      </trkpt>
      <trkpt lat="43.69508" lon="5.01799">
        <ele>129.19999694824</ele>
        <time>2021-03-06T07:47:02.000Z</time>
      </trkpt>
      <trkpt lat="43.69514" lon="5.01803">
        <ele>129.60000610352</ele>
        <time>2021-03-06T07:47:05.000Z</time>
      </trkpt>
      <trkpt lat="43.6952" lon="5.01809">
        <ele>129.80000305176</ele>
        <time>2021-03-06T07:47:08.000Z</time>
      </trkpt>
      <trkpt lat="43.69524" lon="5.01816">
        <ele>129.60000610352</ele>
        <time>2021-03-06T07:47:11.000Z</time>
      </trkpt>
      <trkpt lat="43.6953" lon="5.01821">
        <ele>129.19999694824</ele>
        <time>2021-03-06T07:47:14.000Z</time>
      </trkpt>
      <trkpt lat="43.69533" lon="5.01825">
        <ele>129.19999694824</ele>
        <time>2021-03-06T07:47:16.000Z</time>
      </trkpt>
      <trkpt lat="43.69539" lon="5.01831">
        <ele>128.80000305176</ele>
        <time>2021-03-06T07:47:19.000Z</time>
      </trkpt>
      <trkpt lat="43.69545" lon="5.01836">
        <ele>128.60000610352</ele>
        <time>2021-03-06T07:47:22.000Z</time>
      </trkpt>
      <trkpt lat="43.69551" lon="5.01841">
        <ele>128.39999389648</ele>
        <time>2021-03-06T07:47:25.000Z</time>
      </trkpt>
      <trkpt lat="43.69558" lon="5.01844">
        <ele>128</ele>
        <time>2021-03-06T07:47:28.000Z</time>
      </trkpt>
      <trkpt lat="43.69562" lon="5.01846">
        <ele>127.80000305176</ele>
        <time>2021-03-06T07:47:30.000Z</time>
      </trkpt>
      <trkpt lat="43.69568" lon="5.01852">
        <ele>127.59999847412</ele>
        <time>2021-03-06T07:47:33.000Z</time>
      </trkpt>
      <trkpt lat="43.69573" lon="5.01858">
        <ele>127.19999694824</ele>
        <time>2021-03-06T07:47:36.000Z</time>
      </trkpt>
      <trkpt lat="43.69576" lon="5.01866">
        <ele>127</ele>
        <time>2021-03-06T07:47:39.000Z</time>
      </trkpt>
      <trkpt lat="43.6958" lon="5.01872">
        <ele>126.80000305176</ele>
        <time>2021-03-06T07:47:43.000Z</time>
      </trkpt>
      <trkpt lat="43.69587" lon="5.01874">
        <ele>126.59999847412</ele>
        <time>2021-03-06T07:47:46.000Z</time>
      </trkpt>
      <trkpt lat="43.69593" lon="5.01874">
        <ele>126.40000152588</ele>
        <time>2021-03-06T07:47:49.000Z</time>
      </trkpt>
      <trkpt lat="43.69598" lon="5.01869">
        <ele>126.19999694824</ele>
        <time>2021-03-06T07:47:52.000Z</time>
      </trkpt>
      <trkpt lat="43.69601" lon="5.01863">
        <ele>126.80000305176</ele>
        <time>2021-03-06T07:47:55.000Z</time>
      </trkpt>
      <trkpt lat="43.69605" lon="5.01856">
        <ele>127.40000152588</ele>
        <time>2021-03-06T07:47:58.000Z</time>
      </trkpt>
      <trkpt lat="43.69609" lon="5.01849">
        <ele>128.19999694824</ele>
        <time>2021-03-06T07:48:01.000Z</time>
      </trkpt>
      <trkpt lat="43.69613" lon="5.01844">
        <ele>129</ele>
        <time>2021-03-06T07:48:04.000Z</time>
      </trkpt>
      <trkpt lat="43.69618" lon="5.01838">
        <ele>130</ele>
        <time>2021-03-06T07:48:07.000Z</time>
      </trkpt>
      <trkpt lat="43.69624" lon="5.01831">
        <ele>131.19999694824</ele>
        <time>2021-03-06T07:48:11.000Z</time>
      </trkpt>
      <trkpt lat="43.69628" lon="5.01826">
        <ele>132</ele>
        <time>2021-03-06T07:48:14.000Z</time>
      </trkpt>
      <trkpt lat="43.69634" lon="5.0182">
        <ele>132.80000305176</ele>
        <time>2021-03-06T07:48:17.000Z</time>
      </trkpt>
      <trkpt lat="43.69639" lon="5.01816">
        <ele>133.19999694824</ele>
        <time>2021-03-06T07:48:20.000Z</time>
      </trkpt>
      <trkpt lat="43.69644" lon="5.01812">
        <ele>133.60000610352</ele>
        <time>2021-03-06T07:48:23.000Z</time>
      </trkpt>
      <trkpt lat="43.69649" lon="5.01806">
        <ele>134</ele>
        <time>2021-03-06T07:48:26.000Z</time>
      </trkpt>
      <trkpt lat="43.69654" lon="5.01802">
        <ele>134.60000610352</ele>
        <time>2021-03-06T07:48:29.000Z</time>
      </trkpt>
      <trkpt lat="43.69659" lon="5.01796">
        <ele>135</ele>
        <time>2021-03-06T07:48:32.000Z</time>
      </trkpt>
      <trkpt lat="43.69664" lon="5.01791">
        <ele>135.39999389648</ele>
        <time>2021-03-06T07:48:35.000Z</time>
      </trkpt>
      <trkpt lat="43.69667" lon="5.01784">
        <ele>136.60000610352</ele>
        <time>2021-03-06T07:48:38.000Z</time>
      </trkpt>
      <trkpt lat="43.69672" lon="5.01779">
        <ele>137.39999389648</ele>
        <time>2021-03-06T07:48:41.000Z</time>
      </trkpt>
      <trkpt lat="43.69677" lon="5.01773">
        <ele>137.60000610352</ele>
        <time>2021-03-06T07:48:44.000Z</time>
      </trkpt>
      <trkpt lat="43.69681" lon="5.01767">
        <ele>137.80000305176</ele>
        <time>2021-03-06T07:48:47.000Z</time>
      </trkpt>
      <trkpt lat="43.69686" lon="5.01762">
        <ele>137.80000305176</ele>
        <time>2021-03-06T07:48:50.000Z</time>
      </trkpt>
      <trkpt lat="43.69692" lon="5.01759">
        <ele>138.60000610352</ele>
        <time>2021-03-06T07:48:53.000Z</time>
      </trkpt>
      <trkpt lat="43.69697" lon="5.01755">
        <ele>139.60000610352</ele>
        <time>2021-03-06T07:48:56.000Z</time>
      </trkpt>
      <trkpt lat="43.69702" lon="5.0175">
        <ele>140.39999389648</ele>
        <time>2021-03-06T07:48:59.000Z</time>
      </trkpt>
      <trkpt lat="43.69707" lon="5.01745">
        <ele>141.39999389648</ele>
        <time>2021-03-06T07:49:02.000Z</time>
      </trkpt>
      <trkpt lat="43.69713" lon="5.0174">
        <ele>142.39999389648</ele>
        <time>2021-03-06T07:49:05.000Z</time>
      </trkpt>
      <trkpt lat="43.69719" lon="5.01736">
        <ele>143.19999694824</ele>
        <time>2021-03-06T07:49:08.000Z</time>
      </trkpt>
      <trkpt lat="43.69724" lon="5.01733">
        <ele>143.60000610352</ele>
        <time>2021-03-06T07:49:11.000Z</time>
      </trkpt>
      <trkpt lat="43.6973" lon="5.01731">
        <ele>144.19999694824</ele>
        <time>2021-03-06T07:49:14.000Z</time>
      </trkpt>
      <trkpt lat="43.69736" lon="5.01727">
        <ele>144.80000305176</ele>
        <time>2021-03-06T07:49:18.000Z</time>
      </trkpt>
      <trkpt lat="43.6974" lon="5.01722">
        <ele>145</ele>
        <time>2021-03-06T07:49:21.000Z</time>
      </trkpt>
      <trkpt lat="43.69743" lon="5.01716">
        <ele>145.19999694824</ele>
        <time>2021-03-06T07:49:24.000Z</time>
      </trkpt>
      <trkpt lat="43.69747" lon="5.0171">
        <ele>145.60000610352</ele>
        <time>2021-03-06T07:49:27.000Z</time>
      </trkpt>
      <trkpt lat="43.69752" lon="5.01707">
        <ele>146.39999389648</ele>
        <time>2021-03-06T07:49:30.000Z</time>
      </trkpt>
      <trkpt lat="43.69755" lon="5.01698">
        <ele>148.19999694824</ele>
        <time>2021-03-06T07:49:34.000Z</time>
      </trkpt>
      <trkpt lat="43.69759" lon="5.01692">
        <ele>148.80000305176</ele>
        <time>2021-03-06T07:49:37.000Z</time>
      </trkpt>
      <trkpt lat="43.69763" lon="5.01687">
        <ele>148.39999389648</ele>
        <time>2021-03-06T07:49:40.000Z</time>
      </trkpt>
      <trkpt lat="43.69768" lon="5.01683">
        <ele>147.80000305176</ele>
        <time>2021-03-06T07:49:43.000Z</time>
      </trkpt>
      <trkpt lat="43.69772" lon="5.01677">
        <ele>147.80000305176</ele>
        <time>2021-03-06T07:49:46.000Z</time>
      </trkpt>
      <trkpt lat="43.69773" lon="5.0167">
        <ele>148</ele>
        <time>2021-03-06T07:49:50.000Z</time>
      </trkpt>
      <trkpt lat="43.69773" lon="5.01663">
        <ele>148</ele>
        <time>2021-03-06T07:49:54.000Z</time>
      </trkpt>
      <trkpt lat="43.69776" lon="5.01656">
        <ele>148.39999389648</ele>
        <time>2021-03-06T07:49:57.000Z</time>
      </trkpt>
      <trkpt lat="43.69778" lon="5.01649">
        <ele>148.60000610352</ele>
        <time>2021-03-06T07:50:00.000Z</time>
      </trkpt>
      <trkpt lat="43.6978" lon="5.01643">
        <ele>149</ele>
        <time>2021-03-06T07:50:03.000Z</time>
      </trkpt>
      <trkpt lat="43.69784" lon="5.01638">
        <ele>149.39999389648</ele>
        <time>2021-03-06T07:50:08.000Z</time>
      </trkpt>
      <trkpt lat="43.69789" lon="5.01638">
        <ele>149.80000305176</ele>
        <time>2021-03-06T07:50:12.000Z</time>
      </trkpt>
      <trkpt lat="43.69794" lon="5.01639">
        <ele>150.19999694824</ele>
        <time>2021-03-06T07:50:17.000Z</time>
      </trkpt>
      <trkpt lat="43.69799" lon="5.01639">
        <ele>150.60000610352</ele>
        <time>2021-03-06T07:50:26.000Z</time>
      </trkpt>
      <trkpt lat="43.69819" lon="5.01653">
        <ele>153.60000610352</ele>
        <time>2021-03-06T07:51:40.000Z</time>
      </trkpt>
      <trkpt lat="43.69825" lon="5.01654">
        <ele>154</ele>
        <time>2021-03-06T07:51:43.000Z</time>
      </trkpt>
      <trkpt lat="43.69831" lon="5.01654">
        <ele>154.39999389648</ele>
        <time>2021-03-06T07:51:46.000Z</time>
      </trkpt>
      <trkpt lat="43.69837" lon="5.01652">
        <ele>154.60000610352</ele>
        <time>2021-03-06T07:51:49.000Z</time>
      </trkpt>
      <trkpt lat="43.69842" lon="5.01652">
        <ele>155</ele>
        <time>2021-03-06T07:51:52.000Z</time>
      </trkpt>
      <trkpt lat="43.69848" lon="5.01653">
        <ele>155.60000610352</ele>
        <time>2021-03-06T07:51:55.000Z</time>
      </trkpt>
      <trkpt lat="43.69854" lon="5.01654">
        <ele>156.19999694824</ele>
        <time>2021-03-06T07:51:58.000Z</time>
      </trkpt>
      <trkpt lat="43.6986" lon="5.01656">
        <ele>156.80000305176</ele>
        <time>2021-03-06T07:52:01.000Z</time>
      </trkpt>
      <trkpt lat="43.69866" lon="5.01657">
        <ele>157.39999389648</ele>
        <time>2021-03-06T07:52:04.000Z</time>
      </trkpt>
      <trkpt lat="43.69872" lon="5.01658">
        <ele>157.80000305176</ele>
        <time>2021-03-06T07:52:07.000Z</time>
      </trkpt>
      <trkpt lat="43.69878" lon="5.01658">
        <ele>158.39999389648</ele>
        <time>2021-03-06T07:52:10.000Z</time>
      </trkpt>
      <trkpt lat="43.69884" lon="5.01661">
        <ele>159</ele>
        <time>2021-03-06T07:52:13.000Z</time>
      </trkpt>
      <trkpt lat="43.69889" lon="5.01662">
        <ele>159.60000610352</ele>
        <time>2021-03-06T07:52:16.000Z</time>
      </trkpt>
      <trkpt lat="43.69894" lon="5.01663">
        <ele>160</ele>
        <time>2021-03-06T07:52:19.000Z</time>
      </trkpt>
      <trkpt lat="43.699" lon="5.01664">
        <ele>160.80000305176</ele>
        <time>2021-03-06T07:52:22.000Z</time>
      </trkpt>
      <trkpt lat="43.69906" lon="5.01665">
        <ele>161.39999389648</ele>
        <time>2021-03-06T07:52:25.000Z</time>
      </trkpt>
      <trkpt lat="43.69911" lon="5.01666">
        <ele>162</ele>
        <time>2021-03-06T07:52:28.000Z</time>
      </trkpt>
      <trkpt lat="43.69917" lon="5.01665">
        <ele>162.39999389648</ele>
        <time>2021-03-06T07:52:31.000Z</time>
      </trkpt>
      <trkpt lat="43.69922" lon="5.01664">
        <ele>162.80000305176</ele>
        <time>2021-03-06T07:52:34.000Z</time>
      </trkpt>
      <trkpt lat="43.69927" lon="5.01664">
        <ele>163.39999389648</ele>
        <time>2021-03-06T07:52:37.000Z</time>
      </trkpt>
      <trkpt lat="43.69932" lon="5.01665">
        <ele>163.80000305176</ele>
        <time>2021-03-06T07:52:40.000Z</time>
      </trkpt>
      <trkpt lat="43.69938" lon="5.01666">
        <ele>164.39999389648</ele>
        <time>2021-03-06T07:52:44.000Z</time>
      </trkpt>
      <trkpt lat="43.69945" lon="5.01662">
        <ele>164.39999389648</ele>
        <time>2021-03-06T07:52:49.000Z</time>
      </trkpt>
      <trkpt lat="43.6995" lon="5.01659">
        <ele>164.60000610352</ele>
        <time>2021-03-06T07:52:52.000Z</time>
      </trkpt>
      <trkpt lat="43.69957" lon="5.01658">
        <ele>164.60000610352</ele>
        <time>2021-03-06T07:52:55.000Z</time>
      </trkpt>
      <trkpt lat="43.69961" lon="5.01658">
        <ele>165</ele>
        <time>2021-03-06T07:52:58.000Z</time>
      </trkpt>
      <trkpt lat="43.69968" lon="5.01659">
        <ele>165.39999389648</ele>
        <time>2021-03-06T07:53:03.000Z</time>
      </trkpt>
      <trkpt lat="43.69973" lon="5.01662">
        <ele>165.80000305176</ele>
        <time>2021-03-06T07:53:07.000Z</time>
      </trkpt>
      <trkpt lat="43.69977" lon="5.01668">
        <ele>166.60000610352</ele>
        <time>2021-03-06T07:53:11.000Z</time>
      </trkpt>
      <trkpt lat="43.69982" lon="5.01673">
        <ele>167.19999694824</ele>
        <time>2021-03-06T07:53:15.000Z</time>
      </trkpt>
      <trkpt lat="43.69988" lon="5.01676">
        <ele>167.80000305176</ele>
        <time>2021-03-06T07:53:19.000Z</time>
      </trkpt>
      <trkpt lat="43.69994" lon="5.01678">
        <ele>168.39999389648</ele>
        <time>2021-03-06T07:53:22.000Z</time>
      </trkpt>
      <trkpt lat="43.69999" lon="5.01679">
        <ele>168.80000305176</ele>
        <time>2021-03-06T07:53:25.000Z</time>
      </trkpt>
      <trkpt lat="43.70006" lon="5.01679">
        <ele>169.39999389648</ele>
        <time>2021-03-06T07:53:29.000Z</time>
      </trkpt>
      <trkpt lat="43.70012" lon="5.01678">
        <ele>170</ele>
        <time>2021-03-06T07:53:32.000Z</time>
      </trkpt>
      <trkpt lat="43.70018" lon="5.0168">
        <ele>170.60000610352</ele>
        <time>2021-03-06T07:53:35.000Z</time>
      </trkpt>
      <trkpt lat="43.70024" lon="5.01681">
        <ele>171</ele>
        <time>2021-03-06T07:53:38.000Z</time>
      </trkpt>
      <trkpt lat="43.7003" lon="5.01681">
        <ele>171.19999694824</ele>
        <time>2021-03-06T07:53:41.000Z</time>
      </trkpt>
      <trkpt lat="43.70036" lon="5.01681">
        <ele>171.60000610352</ele>
        <time>2021-03-06T07:53:44.000Z</time>
      </trkpt>
      <trkpt lat="43.70042" lon="5.01683">
        <ele>172.19999694824</ele>
        <time>2021-03-06T07:53:47.000Z</time>
      </trkpt>
      <trkpt lat="43.70048" lon="5.01684">
        <ele>172.60000610352</ele>
        <time>2021-03-06T07:53:50.000Z</time>
      </trkpt>
      <trkpt lat="43.70053" lon="5.01685">
        <ele>172.80000305176</ele>
        <time>2021-03-06T07:53:53.000Z</time>
      </trkpt>
      <trkpt lat="43.7006" lon="5.01684">
        <ele>173.19999694824</ele>
        <time>2021-03-06T07:53:57.000Z</time>
      </trkpt>
      <trkpt lat="43.70066" lon="5.01684">
        <ele>173.60000610352</ele>
        <time>2021-03-06T07:54:00.000Z</time>
      </trkpt>
      <trkpt lat="43.70073" lon="5.01685">
        <ele>174</ele>
        <time>2021-03-06T07:54:03.000Z</time>
      </trkpt>
      <trkpt lat="43.70077" lon="5.01683">
        <ele>174.19999694824</ele>
        <time>2021-03-06T07:54:06.000Z</time>
      </trkpt>
      <trkpt lat="43.70084" lon="5.0168">
        <ele>175</ele>
        <time>2021-03-06T07:54:10.000Z</time>
      </trkpt>
      <trkpt lat="43.70089" lon="5.01676">
        <ele>175.60000610352</ele>
        <time>2021-03-06T07:54:13.000Z</time>
      </trkpt>
      <trkpt lat="43.70095" lon="5.01673">
        <ele>176.39999389648</ele>
        <time>2021-03-06T07:54:16.000Z</time>
      </trkpt>
      <trkpt lat="43.701" lon="5.01669">
        <ele>177.19999694824</ele>
        <time>2021-03-06T07:54:19.000Z</time>
      </trkpt>
      <trkpt lat="43.70105" lon="5.01665">
        <ele>177.60000610352</ele>
        <time>2021-03-06T07:54:22.000Z</time>
      </trkpt>
      <trkpt lat="43.7011" lon="5.01661">
        <ele>177.80000305176</ele>
        <time>2021-03-06T07:54:25.000Z</time>
      </trkpt>
      <trkpt lat="43.70116" lon="5.01658">
        <ele>177.80000305176</ele>
        <time>2021-03-06T07:54:28.000Z</time>
      </trkpt>
      <trkpt lat="43.70121" lon="5.01657">
        <ele>178</ele>
        <time>2021-03-06T07:54:31.000Z</time>
      </trkpt>
      <trkpt lat="43.70127" lon="5.01656">
        <ele>178.19999694824</ele>
        <time>2021-03-06T07:54:34.000Z</time>
      </trkpt>
      <trkpt lat="43.70132" lon="5.01654">
        <ele>178.39999389648</ele>
        <time>2021-03-06T07:54:37.000Z</time>
      </trkpt>
      <trkpt lat="43.70137" lon="5.01652">
        <ele>179</ele>
        <time>2021-03-06T07:54:40.000Z</time>
      </trkpt>
      <trkpt lat="43.70143" lon="5.01649">
        <ele>179.60000610352</ele>
        <time>2021-03-06T07:54:43.000Z</time>
      </trkpt>
      <trkpt lat="43.70148" lon="5.01646">
        <ele>180.39999389648</ele>
        <time>2021-03-06T07:54:46.000Z</time>
      </trkpt>
      <trkpt lat="43.70155" lon="5.01642">
        <ele>181</ele>
        <time>2021-03-06T07:54:49.000Z</time>
      </trkpt>
      <trkpt lat="43.7016" lon="5.01638">
        <ele>181.80000305176</ele>
        <time>2021-03-06T07:54:52.000Z</time>
      </trkpt>
      <trkpt lat="43.70166" lon="5.01635">
        <ele>182.60000610352</ele>
        <time>2021-03-06T07:54:55.000Z</time>
      </trkpt>
      <trkpt lat="43.70171" lon="5.01633">
        <ele>183.19999694824</ele>
        <time>2021-03-06T07:54:58.000Z</time>
      </trkpt>
      <trkpt lat="43.70177" lon="5.01631">
        <ele>183.80000305176</ele>
        <time>2021-03-06T07:55:01.000Z</time>
      </trkpt>
      <trkpt lat="43.70184" lon="5.0163">
        <ele>184.39999389648</ele>
        <time>2021-03-06T07:55:05.000Z</time>
      </trkpt>
      <trkpt lat="43.70188" lon="5.01632">
        <ele>184.39999389648</ele>
        <time>2021-03-06T07:55:09.000Z</time>
      </trkpt>
      <trkpt lat="43.70191" lon="5.01639">
        <ele>184</ele>
        <time>2021-03-06T07:55:13.000Z</time>
      </trkpt>
      <trkpt lat="43.70194" lon="5.01645">
        <ele>183.39999389648</ele>
        <time>2021-03-06T07:55:16.000Z</time>
      </trkpt>
      <trkpt lat="43.70198" lon="5.0165">
        <ele>183</ele>
        <time>2021-03-06T07:55:19.000Z</time>
      </trkpt>
      <trkpt lat="43.70202" lon="5.01656">
        <ele>182.39999389648</ele>
        <time>2021-03-06T07:55:24.000Z</time>
      </trkpt>
      <trkpt lat="43.70207" lon="5.01662">
        <ele>181.80000305176</ele>
        <time>2021-03-06T07:55:28.000Z</time>
      </trkpt>
      <trkpt lat="43.7021" lon="5.01668">
        <ele>181.39999389648</ele>
        <time>2021-03-06T07:55:31.000Z</time>
      </trkpt>
      <trkpt lat="43.70214" lon="5.01674">
        <ele>180.80000305176</ele>
        <time>2021-03-06T07:55:34.000Z</time>
      </trkpt>
      <trkpt lat="43.70219" lon="5.0168">
        <ele>180.19999694824</ele>
        <time>2021-03-06T07:55:37.000Z</time>
      </trkpt>
      <trkpt lat="43.70222" lon="5.01687">
        <ele>179.60000610352</ele>
        <time>2021-03-06T07:55:40.000Z</time>
      </trkpt>
      <trkpt lat="43.70228" lon="5.01694">
        <ele>179</ele>
        <time>2021-03-06T07:55:43.000Z</time>
      </trkpt>
      <trkpt lat="43.70232" lon="5.017">
        <ele>178.60000610352</ele>
        <time>2021-03-06T07:55:46.000Z</time>
      </trkpt>
      <trkpt lat="43.70236" lon="5.01708">
        <ele>177.80000305176</ele>
        <time>2021-03-06T07:55:50.000Z</time>
      </trkpt>
      <trkpt lat="43.70241" lon="5.01715">
        <ele>177.60000610352</ele>
        <time>2021-03-06T07:55:53.000Z</time>
      </trkpt>
      <trkpt lat="43.70247" lon="5.01719">
        <ele>177.39999389648</ele>
        <time>2021-03-06T07:55:56.000Z</time>
      </trkpt>
      <trkpt lat="43.70254" lon="5.0172">
        <ele>177.19999694824</ele>
        <time>2021-03-06T07:55:59.000Z</time>
      </trkpt>
      <trkpt lat="43.70261" lon="5.0172">
        <ele>177</ele>
        <time>2021-03-06T07:56:02.000Z</time>
      </trkpt>
      <trkpt lat="43.70266" lon="5.01719">
        <ele>177</ele>
        <time>2021-03-06T07:56:04.000Z</time>
      </trkpt>
      <trkpt lat="43.70273" lon="5.01716">
        <ele>177</ele>
        <time>2021-03-06T07:56:07.000Z</time>
      </trkpt>
      <trkpt lat="43.7028" lon="5.01714">
        <ele>177.60000610352</ele>
        <time>2021-03-06T07:56:10.000Z</time>
      </trkpt>
      <trkpt lat="43.70286" lon="5.01712">
        <ele>178.19999694824</ele>
        <time>2021-03-06T07:56:13.000Z</time>
      </trkpt>
      <trkpt lat="43.70293" lon="5.01712">
        <ele>178.80000305176</ele>
        <time>2021-03-06T07:56:16.000Z</time>
      </trkpt>
      <trkpt lat="43.70299" lon="5.01711">
        <ele>179.39999389648</ele>
        <time>2021-03-06T07:56:19.000Z</time>
      </trkpt>
      <trkpt lat="43.703" lon="5.01711">
        <ele>179.39999389648</ele>
        <time>2021-03-06T07:56:24.000Z</time>
      </trkpt>
      <trkpt lat="43.70294" lon="5.01712">
        <ele>178.80000305176</ele>
        <time>2021-03-06T07:56:30.000Z</time>
      </trkpt>
      <trkpt lat="43.70291" lon="5.01711">
        <ele>178.60000610352</ele>
        <time>2021-03-06T07:56:36.000Z</time>
      </trkpt>
      <trkpt lat="43.70297" lon="5.01708">
        <ele>179.39999389648</ele>
        <time>2021-03-06T07:56:42.000Z</time>
      </trkpt>
      <trkpt lat="43.70303" lon="5.01705">
        <ele>180</ele>
        <time>2021-03-06T07:56:46.000Z</time>
      </trkpt>
      <trkpt lat="43.70309" lon="5.01703">
        <ele>180.80000305176</ele>
        <time>2021-03-06T07:56:49.000Z</time>
      </trkpt>
      <trkpt lat="43.70314" lon="5.01701">
        <ele>181.39999389648</ele>
        <time>2021-03-06T07:56:52.000Z</time>
      </trkpt>
      <trkpt lat="43.7032" lon="5.01698">
        <ele>182.19999694824</ele>
        <time>2021-03-06T07:56:55.000Z</time>
      </trkpt>
      <trkpt lat="43.70327" lon="5.01697">
        <ele>182.80000305176</ele>
        <time>2021-03-06T07:56:58.000Z</time>
      </trkpt>
      <trkpt lat="43.70331" lon="5.01697">
        <ele>183.19999694824</ele>
        <time>2021-03-06T07:57:00.000Z</time>
      </trkpt>
      <trkpt lat="43.70337" lon="5.01698">
        <ele>183.60000610352</ele>
        <time>2021-03-06T07:57:03.000Z</time>
      </trkpt>
      <trkpt lat="43.70343" lon="5.01701">
        <ele>184</ele>
        <time>2021-03-06T07:57:06.000Z</time>
      </trkpt>
      <trkpt lat="43.70348" lon="5.01706">
        <ele>183.80000305176</ele>
        <time>2021-03-06T07:57:09.000Z</time>
      </trkpt>
      <trkpt lat="43.7035" lon="5.01714">
        <ele>183.60000610352</ele>
        <time>2021-03-06T07:57:12.000Z</time>
      </trkpt>
      <trkpt lat="43.70351" lon="5.01724">
        <ele>183.19999694824</ele>
        <time>2021-03-06T07:57:16.000Z</time>
      </trkpt>
      <trkpt lat="43.7035" lon="5.01732">
        <ele>182.80000305176</ele>
        <time>2021-03-06T07:57:19.000Z</time>
      </trkpt>
      <trkpt lat="43.70349" lon="5.01742">
        <ele>182.39999389648</ele>
        <time>2021-03-06T07:57:22.000Z</time>
      </trkpt>
      <trkpt lat="43.70348" lon="5.01752">
        <ele>182</ele>
        <time>2021-03-06T07:57:25.000Z</time>
      </trkpt>
      <trkpt lat="43.70348" lon="5.01762">
        <ele>181.60000610352</ele>
        <time>2021-03-06T07:57:28.000Z</time>
      </trkpt>
      <trkpt lat="43.70348" lon="5.01769">
        <ele>181.39999389648</ele>
        <time>2021-03-06T07:57:30.000Z</time>
      </trkpt>
      <trkpt lat="43.70348" lon="5.01778">
        <ele>181</ele>
        <time>2021-03-06T07:57:33.000Z</time>
      </trkpt>
      <trkpt lat="43.70348" lon="5.01785">
        <ele>180.80000305176</ele>
        <time>2021-03-06T07:57:35.000Z</time>
      </trkpt>
      <trkpt lat="43.70348" lon="5.01795">
        <ele>180.39999389648</ele>
        <time>2021-03-06T07:57:38.000Z</time>
      </trkpt>
      <trkpt lat="43.70348" lon="5.01805">
        <ele>179.80000305176</ele>
        <time>2021-03-06T07:57:41.000Z</time>
      </trkpt>
      <trkpt lat="43.70347" lon="5.01816">
        <ele>179</ele>
        <time>2021-03-06T07:57:44.000Z</time>
      </trkpt>
      <trkpt lat="43.70346" lon="5.01823">
        <ele>178.39999389648</ele>
        <time>2021-03-06T07:57:46.000Z</time>
      </trkpt>
      <trkpt lat="43.70346" lon="5.0183">
        <ele>177.80000305176</ele>
        <time>2021-03-06T07:57:48.000Z</time>
      </trkpt>
      <trkpt lat="43.70348" lon="5.01838">
        <ele>177.39999389648</ele>
        <time>2021-03-06T07:57:50.000Z</time>
      </trkpt>
      <trkpt lat="43.70349" lon="5.01845">
        <ele>177</ele>
        <time>2021-03-06T07:57:52.000Z</time>
      </trkpt>
      <trkpt lat="43.70351" lon="5.01851">
        <ele>176.60000610352</ele>
        <time>2021-03-06T07:57:54.000Z</time>
      </trkpt>
      <trkpt lat="43.70353" lon="5.01859">
        <ele>176.19999694824</ele>
        <time>2021-03-06T07:57:57.000Z</time>
      </trkpt>
      <trkpt lat="43.70356" lon="5.01868">
        <ele>175.60000610352</ele>
        <time>2021-03-06T07:58:00.000Z</time>
      </trkpt>
      <trkpt lat="43.70359" lon="5.01877">
        <ele>175.19999694824</ele>
        <time>2021-03-06T07:58:03.000Z</time>
      </trkpt>
      <trkpt lat="43.70362" lon="5.01886">
        <ele>174.80000305176</ele>
        <time>2021-03-06T07:58:06.000Z</time>
      </trkpt>
      <trkpt lat="43.70364" lon="5.01893">
        <ele>174.39999389648</ele>
        <time>2021-03-06T07:58:09.000Z</time>
      </trkpt>
      <trkpt lat="43.70367" lon="5.019">
        <ele>174</ele>
        <time>2021-03-06T07:58:13.000Z</time>
      </trkpt>
      <trkpt lat="43.70369" lon="5.01908">
        <ele>173.60000610352</ele>
        <time>2021-03-06T07:58:17.000Z</time>
      </trkpt>
      <trkpt lat="43.7037" lon="5.01917">
        <ele>172.80000305176</ele>
        <time>2021-03-06T07:58:21.000Z</time>
      </trkpt>
      <trkpt lat="43.7037" lon="5.01925">
        <ele>172</ele>
        <time>2021-03-06T07:58:25.000Z</time>
      </trkpt>
      <trkpt lat="43.70372" lon="5.01933">
        <ele>171.39999389648</ele>
        <time>2021-03-06T07:58:29.000Z</time>
      </trkpt>
      <trkpt lat="43.70375" lon="5.01941">
        <ele>171</ele>
        <time>2021-03-06T07:58:33.000Z</time>
      </trkpt>
      <trkpt lat="43.70379" lon="5.01948">
        <ele>170.80000305176</ele>
        <time>2021-03-06T07:58:37.000Z</time>
      </trkpt>
      <trkpt lat="43.70383" lon="5.01952">
        <ele>170.80000305176</ele>
        <time>2021-03-06T07:58:40.000Z</time>
      </trkpt>
      <trkpt lat="43.70388" lon="5.01954">
        <ele>171.19999694824</ele>
        <time>2021-03-06T07:58:43.000Z</time>
      </trkpt>
      <trkpt lat="43.70394" lon="5.01955">
        <ele>171.60000610352</ele>
        <time>2021-03-06T07:58:46.000Z</time>
      </trkpt>
      <trkpt lat="43.704" lon="5.0196">
        <ele>172</ele>
        <time>2021-03-06T07:58:49.000Z</time>
      </trkpt>
      <trkpt lat="43.70405" lon="5.01965">
        <ele>172.19999694824</ele>
        <time>2021-03-06T07:58:52.000Z</time>
      </trkpt>
      <trkpt lat="43.70409" lon="5.01969">
        <ele>172.19999694824</ele>
        <time>2021-03-06T07:58:54.000Z</time>
      </trkpt>
      <trkpt lat="43.70415" lon="5.01975">
        <ele>172.60000610352</ele>
        <time>2021-03-06T07:58:57.000Z</time>
      </trkpt>
      <trkpt lat="43.70422" lon="5.0198">
        <ele>172.80000305176</ele>
        <time>2021-03-06T07:59:00.000Z</time>
      </trkpt>
      <trkpt lat="43.70428" lon="5.01983">
        <ele>173.19999694824</ele>
        <time>2021-03-06T07:59:03.000Z</time>
      </trkpt>
      <trkpt lat="43.70434" lon="5.01986">
        <ele>173.80000305176</ele>
        <time>2021-03-06T07:59:06.000Z</time>
      </trkpt>
      <trkpt lat="43.70439" lon="5.01989">
        <ele>173.80000305176</ele>
        <time>2021-03-06T07:59:09.000Z</time>
      </trkpt>
      <trkpt lat="43.70445" lon="5.01994">
        <ele>173.60000610352</ele>
        <time>2021-03-06T07:59:12.000Z</time>
      </trkpt>
      <trkpt lat="43.70449" lon="5.02001">
        <ele>173.19999694824</ele>
        <time>2021-03-06T07:59:15.000Z</time>
      </trkpt>
      <trkpt lat="43.70454" lon="5.02008">
        <ele>172.80000305176</ele>
        <time>2021-03-06T07:59:18.000Z</time>
      </trkpt>
      <trkpt lat="43.70457" lon="5.02015">
        <ele>172.39999389648</ele>
        <time>2021-03-06T07:59:21.000Z</time>
      </trkpt>
      <trkpt lat="43.70461" lon="5.02029">
        <ele>171.60000610352</ele>
        <time>2021-03-06T07:59:25.000Z</time>
      </trkpt>
      <trkpt lat="43.70463" lon="5.02038">
        <ele>171</ele>
        <time>2021-03-06T07:59:29.000Z</time>
      </trkpt>
      <trkpt lat="43.70465" lon="5.02046">
        <ele>170.19999694824</ele>
        <time>2021-03-06T07:59:32.000Z</time>
      </trkpt>
      <trkpt lat="43.70466" lon="5.02055">
        <ele>169.19999694824</ele>
        <time>2021-03-06T07:59:35.000Z</time>
      </trkpt>
      <trkpt lat="43.70466" lon="5.02064">
        <ele>168</ele>
        <time>2021-03-06T07:59:38.000Z</time>
      </trkpt>
      <trkpt lat="43.70466" lon="5.02073">
        <ele>167</ele>
        <time>2021-03-06T07:59:41.000Z</time>
      </trkpt>
      <trkpt lat="43.70467" lon="5.02083">
        <ele>166</ele>
        <time>2021-03-06T07:59:44.000Z</time>
      </trkpt>
      <trkpt lat="43.70467" lon="5.02092">
        <ele>165</ele>
        <time>2021-03-06T07:59:47.000Z</time>
      </trkpt>
      <trkpt lat="43.70469" lon="5.02102">
        <ele>164</ele>
        <time>2021-03-06T07:59:50.000Z</time>
      </trkpt>
      <trkpt lat="43.70472" lon="5.02111">
        <ele>163</ele>
        <time>2021-03-06T07:59:53.000Z</time>
      </trkpt>
      <trkpt lat="43.70476" lon="5.02119">
        <ele>162.19999694824</ele>
        <time>2021-03-06T07:59:56.000Z</time>
      </trkpt>
      <trkpt lat="43.70478" lon="5.02128">
        <ele>161.19999694824</ele>
        <time>2021-03-06T07:59:59.000Z</time>
      </trkpt>
      <trkpt lat="43.70478" lon="5.02137">
        <ele>160.39999389648</ele>
        <time>2021-03-06T08:00:02.000Z</time>
      </trkpt>
      <trkpt lat="43.70477" lon="5.02146">
        <ele>159.60000610352</ele>
        <time>2021-03-06T08:00:05.000Z</time>
      </trkpt>
      <trkpt lat="43.70475" lon="5.02157">
        <ele>158.39999389648</ele>
        <time>2021-03-06T08:00:08.000Z</time>
      </trkpt>
      <trkpt lat="43.70473" lon="5.02164">
        <ele>157.80000305176</ele>
        <time>2021-03-06T08:00:10.000Z</time>
      </trkpt>
      <trkpt lat="43.70472" lon="5.02171">
        <ele>157</ele>
        <time>2021-03-06T08:00:12.000Z</time>
      </trkpt>
      <trkpt lat="43.70469" lon="5.02178">
        <ele>156.39999389648</ele>
        <time>2021-03-06T08:00:14.000Z</time>
      </trkpt>
      <trkpt lat="43.70467" lon="5.02185">
        <ele>155.60000610352</ele>
        <time>2021-03-06T08:00:16.000Z</time>
      </trkpt>
      <trkpt lat="43.70465" lon="5.02192">
        <ele>155</ele>
        <time>2021-03-06T08:00:18.000Z</time>
      </trkpt>
      <trkpt lat="43.70463" lon="5.02199">
        <ele>154.19999694824</ele>
        <time>2021-03-06T08:00:20.000Z</time>
      </trkpt>
      <trkpt lat="43.70462" lon="5.02205">
        <ele>153.60000610352</ele>
        <time>2021-03-06T08:00:22.000Z</time>
      </trkpt>
      <trkpt lat="43.7046" lon="5.02212">
        <ele>153</ele>
        <time>2021-03-06T08:00:24.000Z</time>
      </trkpt>
      <trkpt lat="43.7046" lon="5.02223">
        <ele>152</ele>
        <time>2021-03-06T08:00:27.000Z</time>
      </trkpt>
      <trkpt lat="43.70458" lon="5.0223">
        <ele>151.39999389648</ele>
        <time>2021-03-06T08:00:29.000Z</time>
      </trkpt>
      <trkpt lat="43.70457" lon="5.02236">
        <ele>151.39999389648</ele>
        <time>2021-03-06T08:00:31.000Z</time>
      </trkpt>
      <trkpt lat="43.70456" lon="5.02247">
        <ele>151.39999389648</ele>
        <time>2021-03-06T08:00:34.000Z</time>
      </trkpt>
      <trkpt lat="43.70454" lon="5.02254">
        <ele>151.39999389648</ele>
        <time>2021-03-06T08:00:36.000Z</time>
      </trkpt>
      <trkpt lat="43.70454" lon="5.02261">
        <ele>151.39999389648</ele>
        <time>2021-03-06T08:00:38.000Z</time>
      </trkpt>
      <trkpt lat="43.70455" lon="5.02268">
        <ele>151.19999694824</ele>
        <time>2021-03-06T08:00:40.000Z</time>
      </trkpt>
      <trkpt lat="43.70459" lon="5.02277">
        <ele>150.80000305176</ele>
        <time>2021-03-06T08:00:43.000Z</time>
      </trkpt>
      <trkpt lat="43.70463" lon="5.02282">
        <ele>150.60000610352</ele>
        <time>2021-03-06T08:00:45.000Z</time>
      </trkpt>
      <trkpt lat="43.70468" lon="5.02291">
        <ele>150.19999694824</ele>
        <time>2021-03-06T08:00:48.000Z</time>
      </trkpt>
      <trkpt lat="43.7047" lon="5.02298">
        <ele>149.19999694824</ele>
        <time>2021-03-06T08:00:50.000Z</time>
      </trkpt>
      <trkpt lat="43.70472" lon="5.02305">
        <ele>148.39999389648</ele>
        <time>2021-03-06T08:00:52.000Z</time>
      </trkpt>
      <trkpt lat="43.70471" lon="5.02312">
        <ele>147.60000610352</ele>
        <time>2021-03-06T08:00:54.000Z</time>
      </trkpt>
      <trkpt lat="43.7047" lon="5.02322">
        <ele>146.39999389648</ele>
        <time>2021-03-06T08:00:57.000Z</time>
      </trkpt>
      <trkpt lat="43.7047" lon="5.02329">
        <ele>145.80000305176</ele>
        <time>2021-03-06T08:00:59.000Z</time>
      </trkpt>
      <trkpt lat="43.70469" lon="5.02339">
        <ele>145.39999389648</ele>
        <time>2021-03-06T08:01:02.000Z</time>
      </trkpt>
      <trkpt lat="43.70469" lon="5.02349">
        <ele>144.80000305176</ele>
        <time>2021-03-06T08:01:05.000Z</time>
      </trkpt>
      <trkpt lat="43.7047" lon="5.02359">
        <ele>144</ele>
        <time>2021-03-06T08:01:08.000Z</time>
      </trkpt>
      <trkpt lat="43.70472" lon="5.02368">
        <ele>143.19999694824</ele>
        <time>2021-03-06T08:01:11.000Z</time>
      </trkpt>
      <trkpt lat="43.70475" lon="5.02374">
        <ele>142.60000610352</ele>
        <time>2021-03-06T08:01:13.000Z</time>
      </trkpt>
      <trkpt lat="43.70479" lon="5.0238">
        <ele>141.19999694824</ele>
        <time>2021-03-06T08:01:16.000Z</time>
      </trkpt>
      <trkpt lat="43.70483" lon="5.02387">
        <ele>140</ele>
        <time>2021-03-06T08:01:19.000Z</time>
      </trkpt>
      <trkpt lat="43.70489" lon="5.02394">
        <ele>138.19999694824</ele>
        <time>2021-03-06T08:01:22.000Z</time>
      </trkpt>
      <trkpt lat="43.70493" lon="5.02398">
        <ele>137.19999694824</ele>
        <time>2021-03-06T08:01:24.000Z</time>
      </trkpt>
      <trkpt lat="43.70498" lon="5.02403">
        <ele>136</ele>
        <time>2021-03-06T08:01:26.000Z</time>
      </trkpt>
      <trkpt lat="43.70502" lon="5.02407">
        <ele>134.80000305176</ele>
        <time>2021-03-06T08:01:28.000Z</time>
      </trkpt>
      <trkpt lat="43.70507" lon="5.02413">
        <ele>133.60000610352</ele>
        <time>2021-03-06T08:01:30.000Z</time>
      </trkpt>
      <trkpt lat="43.70512" lon="5.02417">
        <ele>132.39999389648</ele>
        <time>2021-03-06T08:01:32.000Z</time>
      </trkpt>
      <trkpt lat="43.70517" lon="5.02421">
        <ele>131.39999389648</ele>
        <time>2021-03-06T08:01:34.000Z</time>
      </trkpt>
      <trkpt lat="43.7052" lon="5.02425">
        <ele>130.60000610352</ele>
        <time>2021-03-06T08:01:36.000Z</time>
      </trkpt>
      <trkpt lat="43.70525" lon="5.02428">
        <ele>130.19999694824</ele>
        <time>2021-03-06T08:01:38.000Z</time>
      </trkpt>
      <trkpt lat="43.7053" lon="5.02432">
        <ele>129.80000305176</ele>
        <time>2021-03-06T08:01:40.000Z</time>
      </trkpt>
      <trkpt lat="43.70534" lon="5.02436">
        <ele>129.60000610352</ele>
        <time>2021-03-06T08:01:42.000Z</time>
      </trkpt>
      <trkpt lat="43.7054" lon="5.02441">
        <ele>129</ele>
        <time>2021-03-06T08:01:45.000Z</time>
      </trkpt>
      <trkpt lat="43.70545" lon="5.02445">
        <ele>128.60000610352</ele>
        <time>2021-03-06T08:01:47.000Z</time>
      </trkpt>
      <trkpt lat="43.70549" lon="5.02449">
        <ele>128.39999389648</ele>
        <time>2021-03-06T08:01:49.000Z</time>
      </trkpt>
      <trkpt lat="43.70555" lon="5.02455">
        <ele>127.80000305176</ele>
        <time>2021-03-06T08:01:52.000Z</time>
      </trkpt>
      <trkpt lat="43.70558" lon="5.02463">
        <ele>127</ele>
        <time>2021-03-06T08:01:55.000Z</time>
      </trkpt>
      <trkpt lat="43.70558" lon="5.02474">
        <ele>126.40000152588</ele>
        <time>2021-03-06T08:01:58.000Z</time>
      </trkpt>
      <trkpt lat="43.70558" lon="5.0248">
        <ele>126</ele>
        <time>2021-03-06T08:02:00.000Z</time>
      </trkpt>
      <trkpt lat="43.70559" lon="5.0249">
        <ele>125.59999847412</ele>
        <time>2021-03-06T08:02:03.000Z</time>
      </trkpt>
      <trkpt lat="43.70558" lon="5.02497">
        <ele>125</ele>
        <time>2021-03-06T08:02:05.000Z</time>
      </trkpt>
      <trkpt lat="43.70556" lon="5.02507">
        <ele>124</ele>
        <time>2021-03-06T08:02:08.000Z</time>
      </trkpt>
      <trkpt lat="43.70555" lon="5.02517">
        <ele>122.80000305176</ele>
        <time>2021-03-06T08:02:11.000Z</time>
      </trkpt>
      <trkpt lat="43.70554" lon="5.02524">
        <ele>122.19999694824</ele>
        <time>2021-03-06T08:02:13.000Z</time>
      </trkpt>
      <trkpt lat="43.70552" lon="5.02534">
        <ele>121</ele>
        <time>2021-03-06T08:02:16.000Z</time>
      </trkpt>
      <trkpt lat="43.70551" lon="5.02544">
        <ele>120</ele>
        <time>2021-03-06T08:02:19.000Z</time>
      </trkpt>
      <trkpt lat="43.7055" lon="5.02553">
        <ele>119</ele>
        <time>2021-03-06T08:02:22.000Z</time>
      </trkpt>
      <trkpt lat="43.7055" lon="5.02563">
        <ele>118.19999694824</ele>
        <time>2021-03-06T08:02:25.000Z</time>
      </trkpt>
      <trkpt lat="43.70549" lon="5.0257">
        <ele>117.40000152588</ele>
        <time>2021-03-06T08:02:27.000Z</time>
      </trkpt>
      <trkpt lat="43.7055" lon="5.02579">
        <ele>117</ele>
        <time>2021-03-06T08:02:30.000Z</time>
      </trkpt>
      <trkpt lat="43.70553" lon="5.0259">
        <ele>116.59999847412</ele>
        <time>2021-03-06T08:02:33.000Z</time>
      </trkpt>
      <trkpt lat="43.70555" lon="5.02596">
        <ele>116.19999694824</ele>
        <time>2021-03-06T08:02:35.000Z</time>
      </trkpt>
      <trkpt lat="43.70558" lon="5.026">
        <ele>116.19999694824</ele>
        <time>2021-03-06T08:02:37.000Z</time>
      </trkpt>
      <trkpt lat="43.70565" lon="5.02603">
        <ele>116.19999694824</ele>
        <time>2021-03-06T08:02:40.000Z</time>
      </trkpt>
      <trkpt lat="43.70572" lon="5.02604">
        <ele>116.19999694824</ele>
        <time>2021-03-06T08:02:43.000Z</time>
      </trkpt>
      <trkpt lat="43.70579" lon="5.02603">
        <ele>116.40000152588</ele>
        <time>2021-03-06T08:02:46.000Z</time>
      </trkpt>
      <trkpt lat="43.70586" lon="5.026">
        <ele>117.19999694824</ele>
        <time>2021-03-06T08:02:49.000Z</time>
      </trkpt>
      <trkpt lat="43.70591" lon="5.02598">
        <ele>117.80000305176</ele>
        <time>2021-03-06T08:02:51.000Z</time>
      </trkpt>
      <trkpt lat="43.70598" lon="5.02595">
        <ele>118.59999847412</ele>
        <time>2021-03-06T08:02:54.000Z</time>
      </trkpt>
      <trkpt lat="43.70605" lon="5.02592">
        <ele>119.19999694824</ele>
        <time>2021-03-06T08:02:57.000Z</time>
      </trkpt>
      <trkpt lat="43.70611" lon="5.02588">
        <ele>119.59999847412</ele>
        <time>2021-03-06T08:03:00.000Z</time>
      </trkpt>
      <trkpt lat="43.70617" lon="5.02585">
        <ele>120</ele>
        <time>2021-03-06T08:03:03.000Z</time>
      </trkpt>
      <trkpt lat="43.70623" lon="5.02581">
        <ele>120.40000152588</ele>
        <time>2021-03-06T08:03:06.000Z</time>
      </trkpt>
      <trkpt lat="43.70628" lon="5.02574">
        <ele>121.19999694824</ele>
        <time>2021-03-06T08:03:09.000Z</time>
      </trkpt>
      <trkpt lat="43.70631" lon="5.02565">
        <ele>122</ele>
        <time>2021-03-06T08:03:12.000Z</time>
      </trkpt>
      <trkpt lat="43.70632" lon="5.02559">
        <ele>122.40000152588</ele>
        <time>2021-03-06T08:03:14.000Z</time>
      </trkpt>
      <trkpt lat="43.70633" lon="5.0255">
        <ele>123</ele>
        <time>2021-03-06T08:03:17.000Z</time>
      </trkpt>
      <trkpt lat="43.70635" lon="5.02541">
        <ele>123.59999847412</ele>
        <time>2021-03-06T08:03:20.000Z</time>
      </trkpt>
      <trkpt lat="43.70636" lon="5.02531">
        <ele>124.19999694824</ele>
        <time>2021-03-06T08:03:23.000Z</time>
      </trkpt>
      <trkpt lat="43.70638" lon="5.02523">
        <ele>124.80000305176</ele>
        <time>2021-03-06T08:03:26.000Z</time>
      </trkpt>
      <trkpt lat="43.70641" lon="5.02515">
        <ele>125.19999694824</ele>
        <time>2021-03-06T08:03:29.000Z</time>
      </trkpt>
      <trkpt lat="43.70646" lon="5.02509">
        <ele>125.40000152588</ele>
        <time>2021-03-06T08:03:32.000Z</time>
      </trkpt>
      <trkpt lat="43.7065" lon="5.02501">
        <ele>126</ele>
        <time>2021-03-06T08:03:35.000Z</time>
      </trkpt>
      <trkpt lat="43.7065" lon="5.02493">
        <ele>126.59999847412</ele>
        <time>2021-03-06T08:03:38.000Z</time>
      </trkpt>
      <trkpt lat="43.70648" lon="5.02486">
        <ele>127</ele>
        <time>2021-03-06T08:03:41.000Z</time>
      </trkpt>
      <trkpt lat="43.70645" lon="5.0248">
        <ele>127.40000152588</ele>
        <time>2021-03-06T08:03:44.000Z</time>
      </trkpt>
      <trkpt lat="43.70643" lon="5.02471">
        <ele>128</ele>
        <time>2021-03-06T08:03:48.000Z</time>
      </trkpt>
      <trkpt lat="43.70642" lon="5.02463">
        <ele>128.60000610352</ele>
        <time>2021-03-06T08:03:52.000Z</time>
      </trkpt>
      <trkpt lat="43.70641" lon="5.02456">
        <ele>129.19999694824</ele>
        <time>2021-03-06T08:03:56.000Z</time>
      </trkpt>
      <trkpt lat="43.70642" lon="5.02447">
        <ele>130.19999694824</ele>
        <time>2021-03-06T08:04:00.000Z</time>
      </trkpt>
      <trkpt lat="43.70645" lon="5.02438">
        <ele>131</ele>
        <time>2021-03-06T08:04:03.000Z</time>
      </trkpt>
      <trkpt lat="43.70647" lon="5.02431">
        <ele>131.60000610352</ele>
        <time>2021-03-06T08:04:05.000Z</time>
      </trkpt>
      <trkpt lat="43.7065" lon="5.02422">
        <ele>132.39999389648</ele>
        <time>2021-03-06T08:04:08.000Z</time>
      </trkpt>
      <trkpt lat="43.70653" lon="5.02415">
        <ele>133.39999389648</ele>
        <time>2021-03-06T08:04:11.000Z</time>
      </trkpt>
      <trkpt lat="43.70653" lon="5.02406">
        <ele>134.19999694824</ele>
        <time>2021-03-06T08:04:14.000Z</time>
      </trkpt>
      <trkpt lat="43.70655" lon="5.02399">
        <ele>135</ele>
        <time>2021-03-06T08:04:17.000Z</time>
      </trkpt>
      <trkpt lat="43.70657" lon="5.02391">
        <ele>136</ele>
        <time>2021-03-06T08:04:21.000Z</time>
      </trkpt>
      <trkpt lat="43.70656" lon="5.02382">
        <ele>137</ele>
        <time>2021-03-06T08:04:25.000Z</time>
      </trkpt>
      <trkpt lat="43.70656" lon="5.02374">
        <ele>137.80000305176</ele>
        <time>2021-03-06T08:04:28.000Z</time>
      </trkpt>
      <trkpt lat="43.70658" lon="5.02365">
        <ele>138.80000305176</ele>
        <time>2021-03-06T08:04:31.000Z</time>
      </trkpt>
      <trkpt lat="43.70659" lon="5.02358">
        <ele>139.60000610352</ele>
        <time>2021-03-06T08:04:33.000Z</time>
      </trkpt>
      <trkpt lat="43.70658" lon="5.02348">
        <ele>140.60000610352</ele>
        <time>2021-03-06T08:04:36.000Z</time>
      </trkpt>
      <trkpt lat="43.70656" lon="5.02339">
        <ele>141.19999694824</ele>
        <time>2021-03-06T08:04:39.000Z</time>
      </trkpt>
      <trkpt lat="43.70655" lon="5.02331">
        <ele>141.80000305176</ele>
        <time>2021-03-06T08:04:42.000Z</time>
      </trkpt>
      <trkpt lat="43.70653" lon="5.02321">
        <ele>142.39999389648</ele>
        <time>2021-03-06T08:04:45.000Z</time>
      </trkpt>
      <trkpt lat="43.70653" lon="5.02315">
        <ele>142.80000305176</ele>
        <time>2021-03-06T08:04:47.000Z</time>
      </trkpt>
      <trkpt lat="43.70651" lon="5.02306">
        <ele>143.39999389648</ele>
        <time>2021-03-06T08:04:50.000Z</time>
      </trkpt>
      <trkpt lat="43.7065" lon="5.02297">
        <ele>144</ele>
        <time>2021-03-06T08:04:53.000Z</time>
      </trkpt>
      <trkpt lat="43.70649" lon="5.02287">
        <ele>144.80000305176</ele>
        <time>2021-03-06T08:04:56.000Z</time>
      </trkpt>
      <trkpt lat="43.70648" lon="5.0228">
        <ele>145.19999694824</ele>
        <time>2021-03-06T08:04:58.000Z</time>
      </trkpt>
      <trkpt lat="43.70647" lon="5.02271">
        <ele>146</ele>
        <time>2021-03-06T08:05:01.000Z</time>
      </trkpt>
      <trkpt lat="43.70647" lon="5.02262">
        <ele>146.60000610352</ele>
        <time>2021-03-06T08:05:04.000Z</time>
      </trkpt>
      <trkpt lat="43.7065" lon="5.02253">
        <ele>147</ele>
        <time>2021-03-06T08:05:07.000Z</time>
      </trkpt>
      <trkpt lat="43.70653" lon="5.02245">
        <ele>147.19999694824</ele>
        <time>2021-03-06T08:05:10.000Z</time>
      </trkpt>
      <trkpt lat="43.70654" lon="5.02236">
        <ele>147.39999389648</ele>
        <time>2021-03-06T08:05:13.000Z</time>
      </trkpt>
      <trkpt lat="43.70655" lon="5.02229">
        <ele>147.60000610352</ele>
        <time>2021-03-06T08:05:15.000Z</time>
      </trkpt>
      <trkpt lat="43.70657" lon="5.02219">
        <ele>147.80000305176</ele>
        <time>2021-03-06T08:05:18.000Z</time>
      </trkpt>
      <trkpt lat="43.70658" lon="5.02212">
        <ele>148</ele>
        <time>2021-03-06T08:05:20.000Z</time>
      </trkpt>
      <trkpt lat="43.70658" lon="5.02202">
        <ele>148.80000305176</ele>
        <time>2021-03-06T08:05:23.000Z</time>
      </trkpt>
      <trkpt lat="43.70657" lon="5.02192">
        <ele>149.80000305176</ele>
        <time>2021-03-06T08:05:26.000Z</time>
      </trkpt>
      <trkpt lat="43.70657" lon="5.02184">
        <ele>150.39999389648</ele>
        <time>2021-03-06T08:05:28.000Z</time>
      </trkpt>
      <trkpt lat="43.70658" lon="5.02176">
        <ele>151</ele>
        <time>2021-03-06T08:05:30.000Z</time>
      </trkpt>
      <trkpt lat="43.70658" lon="5.02169">
        <ele>151.60000610352</ele>
        <time>2021-03-06T08:05:32.000Z</time>
      </trkpt>
      <trkpt lat="43.70658" lon="5.02162">
        <ele>152</ele>
        <time>2021-03-06T08:05:34.000Z</time>
      </trkpt>
      <trkpt lat="43.70657" lon="5.02153">
        <ele>152.60000610352</ele>
        <time>2021-03-06T08:05:37.000Z</time>
      </trkpt>
      <trkpt lat="43.70659" lon="5.02144">
        <ele>153</ele>
        <time>2021-03-06T08:05:40.000Z</time>
      </trkpt>
      <trkpt lat="43.70659" lon="5.02136">
        <ele>153.39999389648</ele>
        <time>2021-03-06T08:05:43.000Z</time>
      </trkpt>
      <trkpt lat="43.70659" lon="5.02128">
        <ele>153.80000305176</ele>
        <time>2021-03-06T08:05:46.000Z</time>
      </trkpt>
      <trkpt lat="43.7066" lon="5.0212">
        <ele>154.39999389648</ele>
        <time>2021-03-06T08:05:49.000Z</time>
      </trkpt>
      <trkpt lat="43.7066" lon="5.02113">
        <ele>155</ele>
        <time>2021-03-06T08:05:52.000Z</time>
      </trkpt>
      <trkpt lat="43.70658" lon="5.02105">
        <ele>156</ele>
        <time>2021-03-06T08:05:56.000Z</time>
      </trkpt>
      <trkpt lat="43.70657" lon="5.02097">
        <ele>157</ele>
        <time>2021-03-06T08:05:59.000Z</time>
      </trkpt>
      <trkpt lat="43.70657" lon="5.0209">
        <ele>157.60000610352</ele>
        <time>2021-03-06T08:06:02.000Z</time>
      </trkpt>
      <trkpt lat="43.70658" lon="5.02083">
        <ele>158.19999694824</ele>
        <time>2021-03-06T08:06:05.000Z</time>
      </trkpt>
      <trkpt lat="43.70657" lon="5.02075">
        <ele>159</ele>
        <time>2021-03-06T08:06:09.000Z</time>
      </trkpt>
      <trkpt lat="43.70655" lon="5.02068">
        <ele>160</ele>
        <time>2021-03-06T08:06:13.000Z</time>
      </trkpt>
      <trkpt lat="43.70653" lon="5.02062">
        <ele>160.60000610352</ele>
        <time>2021-03-06T08:06:19.000Z</time>
      </trkpt>
      <trkpt lat="43.70658" lon="5.02064">
        <ele>160</ele>
        <time>2021-03-06T08:06:29.000Z</time>
      </trkpt>
      <trkpt lat="43.70663" lon="5.02061">
        <ele>159.80000305176</ele>
        <time>2021-03-06T08:06:36.000Z</time>
      </trkpt>
      <trkpt lat="43.70665" lon="5.02052">
        <ele>160.39999389648</ele>
        <time>2021-03-06T08:06:41.000Z</time>
      </trkpt>
      <trkpt lat="43.70668" lon="5.02046">
        <ele>160.60000610352</ele>
        <time>2021-03-06T08:06:45.000Z</time>
      </trkpt>
      <trkpt lat="43.70672" lon="5.02042">
        <ele>160.60000610352</ele>
        <time>2021-03-06T08:06:51.000Z</time>
      </trkpt>
      <trkpt lat="43.70677" lon="5.0204">
        <ele>160</ele>
        <time>2021-03-06T08:06:57.000Z</time>
      </trkpt>
      <trkpt lat="43.70682" lon="5.02038">
        <ele>159.39999389648</ele>
        <time>2021-03-06T08:07:03.000Z</time>
      </trkpt>
      <trkpt lat="43.70687" lon="5.02035">
        <ele>159.39999389648</ele>
        <time>2021-03-06T08:07:08.000Z</time>
      </trkpt>
      <trkpt lat="43.70692" lon="5.02032">
        <ele>160</ele>
        <time>2021-03-06T08:07:15.000Z</time>
      </trkpt>
      <trkpt lat="43.70699" lon="5.02032">
        <ele>160.39999389648</ele>
        <time>2021-03-06T08:07:21.000Z</time>
      </trkpt>
      <trkpt lat="43.70704" lon="5.0203">
        <ele>161</ele>
        <time>2021-03-06T08:07:29.000Z</time>
      </trkpt>
      <trkpt lat="43.7071" lon="5.02029">
        <ele>161.39999389648</ele>
        <time>2021-03-06T08:08:02.000Z</time>
      </trkpt>
      <trkpt lat="43.70717" lon="5.02027">
        <ele>162.19999694824</ele>
        <time>2021-03-06T08:08:07.000Z</time>
      </trkpt>
      <trkpt lat="43.70722" lon="5.02021">
        <ele>162.80000305176</ele>
        <time>2021-03-06T08:08:11.000Z</time>
      </trkpt>
      <trkpt lat="43.70725" lon="5.02014">
        <ele>163.39999389648</ele>
        <time>2021-03-06T08:08:14.000Z</time>
      </trkpt>
      <trkpt lat="43.70726" lon="5.02007">
        <ele>164</ele>
        <time>2021-03-06T08:08:17.000Z</time>
      </trkpt>
      <trkpt lat="43.70726" lon="5.02">
        <ele>164.39999389648</ele>
        <time>2021-03-06T08:08:20.000Z</time>
      </trkpt>
      <trkpt lat="43.70727" lon="5.01993">
        <ele>164.39999389648</ele>
        <time>2021-03-06T08:08:24.000Z</time>
      </trkpt>
      <trkpt lat="43.70731" lon="5.01985">
        <ele>164.60000610352</ele>
        <time>2021-03-06T08:08:28.000Z</time>
      </trkpt>
      <trkpt lat="43.70734" lon="5.01982">
        <ele>164.60000610352</ele>
        <time>2021-03-06T08:08:31.000Z</time>
      </trkpt>
      <trkpt lat="43.70742" lon="5.01982">
        <ele>164.60000610352</ele>
        <time>2021-03-06T08:08:36.000Z</time>
      </trkpt>
      <trkpt lat="43.70748" lon="5.01983">
        <ele>164.80000305176</ele>
        <time>2021-03-06T08:08:40.000Z</time>
      </trkpt>
      <trkpt lat="43.70752" lon="5.01983">
        <ele>164.80000305176</ele>
        <time>2021-03-06T08:08:46.000Z</time>
      </trkpt>
      <trkpt lat="43.70756" lon="5.01978">
        <ele>164.80000305176</ele>
        <time>2021-03-06T08:08:56.000Z</time>
      </trkpt>
      <trkpt lat="43.7076" lon="5.01973">
        <ele>164.80000305176</ele>
        <time>2021-03-06T08:09:01.000Z</time>
      </trkpt>
      <trkpt lat="43.70764" lon="5.01968">
        <ele>165</ele>
        <time>2021-03-06T08:09:05.000Z</time>
      </trkpt>
      <trkpt lat="43.70769" lon="5.01965">
        <ele>165</ele>
        <time>2021-03-06T08:09:09.000Z</time>
      </trkpt>
      <trkpt lat="43.70774" lon="5.01963">
        <ele>164.60000610352</ele>
        <time>2021-03-06T08:09:13.000Z</time>
      </trkpt>
      <trkpt lat="43.7078" lon="5.0196">
        <ele>164.60000610352</ele>
        <time>2021-03-06T08:09:18.000Z</time>
      </trkpt>
      <trkpt lat="43.70784" lon="5.01955">
        <ele>165</ele>
        <time>2021-03-06T08:09:24.000Z</time>
      </trkpt>
      <trkpt lat="43.70787" lon="5.01949">
        <ele>165.39999389648</ele>
        <time>2021-03-06T08:09:30.000Z</time>
      </trkpt>
      <trkpt lat="43.70793" lon="5.0195">
        <ele>165.19999694824</ele>
        <time>2021-03-06T08:09:36.000Z</time>
      </trkpt>
      <trkpt lat="43.70798" lon="5.01947">
        <ele>165.39999389648</ele>
        <time>2021-03-06T08:09:42.000Z</time>
      </trkpt>
      <trkpt lat="43.70805" lon="5.01944">
        <ele>165.60000610352</ele>
        <time>2021-03-06T08:09:49.000Z</time>
      </trkpt>
      <trkpt lat="43.7081" lon="5.01941">
        <ele>165.80000305176</ele>
        <time>2021-03-06T08:09:54.000Z</time>
      </trkpt>
      <trkpt lat="43.70816" lon="5.01942">
        <ele>165.60000610352</ele>
        <time>2021-03-06T08:10:00.000Z</time>
      </trkpt>
      <trkpt lat="43.70821" lon="5.01939">
        <ele>165.60000610352</ele>
        <time>2021-03-06T08:10:07.000Z</time>
      </trkpt>
      <trkpt lat="43.70826" lon="5.01941">
        <ele>165.39999389648</ele>
        <time>2021-03-06T08:10:12.000Z</time>
      </trkpt>
      <trkpt lat="43.70832" lon="5.01947">
        <ele>164.60000610352</ele>
        <time>2021-03-06T08:10:16.000Z</time>
      </trkpt>
      <trkpt lat="43.70836" lon="5.01951">
        <ele>164.19999694824</ele>
        <time>2021-03-06T08:10:19.000Z</time>
      </trkpt>
      <trkpt lat="43.7084" lon="5.01955">
        <ele>163.80000305176</ele>
        <time>2021-03-06T08:10:22.000Z</time>
      </trkpt>
      <trkpt lat="43.70845" lon="5.0196">
        <ele>163.19999694824</ele>
        <time>2021-03-06T08:10:26.000Z</time>
      </trkpt>
      <trkpt lat="43.7085" lon="5.01962">
        <ele>162.80000305176</ele>
        <time>2021-03-06T08:10:30.000Z</time>
      </trkpt>
      <trkpt lat="43.70855" lon="5.01959">
        <ele>162.80000305176</ele>
        <time>2021-03-06T08:10:35.000Z</time>
      </trkpt>
      <trkpt lat="43.70856" lon="5.01954">
        <ele>163.39999389648</ele>
        <time>2021-03-06T08:10:41.000Z</time>
      </trkpt>
      <trkpt lat="43.70852" lon="5.01951">
        <ele>164</ele>
        <time>2021-03-06T08:10:56.000Z</time>
      </trkpt>
      <trkpt lat="43.70847" lon="5.01951">
        <ele>164</ele>
        <time>2021-03-06T08:11:02.000Z</time>
      </trkpt>
      <trkpt lat="43.70843" lon="5.01946">
        <ele>164.39999389648</ele>
        <time>2021-03-06T08:11:08.000Z</time>
      </trkpt>
      <trkpt lat="43.70845" lon="5.01938">
        <ele>165.60000610352</ele>
        <time>2021-03-06T08:11:13.000Z</time>
      </trkpt>
      <trkpt lat="43.70849" lon="5.01931">
        <ele>166.60000610352</ele>
        <time>2021-03-06T08:11:17.000Z</time>
      </trkpt>
      <trkpt lat="43.70853" lon="5.01926">
        <ele>167.19999694824</ele>
        <time>2021-03-06T08:11:20.000Z</time>
      </trkpt>
      <trkpt lat="43.70858" lon="5.01922">
        <ele>167.39999389648</ele>
        <time>2021-03-06T08:11:23.000Z</time>
      </trkpt>
      <trkpt lat="43.70863" lon="5.0192">
        <ele>167.39999389648</ele>
        <time>2021-03-06T08:11:26.000Z</time>
      </trkpt>
      <trkpt lat="43.70868" lon="5.0192">
        <ele>167</ele>
        <time>2021-03-06T08:11:31.000Z</time>
      </trkpt>
      <trkpt lat="43.70873" lon="5.0192">
        <ele>166.39999389648</ele>
        <time>2021-03-06T08:11:35.000Z</time>
      </trkpt>
      <trkpt lat="43.70876" lon="5.01919">
        <ele>166.39999389648</ele>
        <time>2021-03-06T08:11:45.000Z</time>
      </trkpt>
      <trkpt lat="43.70873" lon="5.0191">
        <ele>167.80000305176</ele>
        <time>2021-03-06T08:11:52.000Z</time>
      </trkpt>
      <trkpt lat="43.70872" lon="5.01902">
        <ele>169</ele>
        <time>2021-03-06T08:11:56.000Z</time>
      </trkpt>
      <trkpt lat="43.70872" lon="5.01894">
        <ele>170</ele>
        <time>2021-03-06T08:11:59.000Z</time>
      </trkpt>
      <trkpt lat="43.70873" lon="5.01889">
        <ele>170.39999389648</ele>
        <time>2021-03-06T08:12:02.000Z</time>
      </trkpt>
      <trkpt lat="43.70873" lon="5.01881">
        <ele>170.80000305176</ele>
        <time>2021-03-06T08:12:09.000Z</time>
      </trkpt>
      <trkpt lat="43.70875" lon="5.0188">
        <ele>170.60000610352</ele>
        <time>2021-03-06T08:12:24.000Z</time>
      </trkpt>
      <trkpt lat="43.70881" lon="5.01882">
        <ele>169.80000305176</ele>
        <time>2021-03-06T08:12:30.000Z</time>
      </trkpt>
      <trkpt lat="43.70887" lon="5.01885">
        <ele>168.80000305176</ele>
        <time>2021-03-06T08:12:35.000Z</time>
      </trkpt>
      <trkpt lat="43.70892" lon="5.01887">
        <ele>168</ele>
        <time>2021-03-06T08:12:39.000Z</time>
      </trkpt>
      <trkpt lat="43.70897" lon="5.01889">
        <ele>167</ele>
        <time>2021-03-06T08:12:45.000Z</time>
      </trkpt>
      <trkpt lat="43.70901" lon="5.01892">
        <ele>166.39999389648</ele>
        <time>2021-03-06T08:12:50.000Z</time>
      </trkpt>
      <trkpt lat="43.70903" lon="5.01899">
        <ele>165.39999389648</ele>
        <time>2021-03-06T08:12:55.000Z</time>
      </trkpt>
      <trkpt lat="43.70906" lon="5.01905">
        <ele>164.60000610352</ele>
        <time>2021-03-06T08:12:59.000Z</time>
      </trkpt>
      <trkpt lat="43.70911" lon="5.01909">
        <ele>163.60000610352</ele>
        <time>2021-03-06T08:13:03.000Z</time>
      </trkpt>
      <trkpt lat="43.70916" lon="5.01915">
        <ele>162.39999389648</ele>
        <time>2021-03-06T08:13:07.000Z</time>
      </trkpt>
      <trkpt lat="43.70921" lon="5.01919">
        <ele>161.39999389648</ele>
        <time>2021-03-06T08:13:11.000Z</time>
      </trkpt>
      <trkpt lat="43.70927" lon="5.01916">
        <ele>160.80000305176</ele>
        <time>2021-03-06T08:13:16.000Z</time>
      </trkpt>
      <trkpt lat="43.70931" lon="5.01912">
        <ele>160.60000610352</ele>
        <time>2021-03-06T08:13:21.000Z</time>
      </trkpt>
      <trkpt lat="43.70936" lon="5.01908">
        <ele>160.39999389648</ele>
        <time>2021-03-06T08:13:25.000Z</time>
      </trkpt>
      <trkpt lat="43.70941" lon="5.01905">
        <ele>160.60000610352</ele>
        <time>2021-03-06T08:13:36.000Z</time>
      </trkpt>
      <trkpt lat="43.70947" lon="5.01904">
        <ele>160.60000610352</ele>
        <time>2021-03-06T08:13:41.000Z</time>
      </trkpt>
      <trkpt lat="43.70952" lon="5.01906">
        <ele>160.39999389648</ele>
        <time>2021-03-06T08:13:45.000Z</time>
      </trkpt>
      <trkpt lat="43.70958" lon="5.01906">
        <ele>160.39999389648</ele>
        <time>2021-03-06T08:13:49.000Z</time>
      </trkpt>
      <trkpt lat="43.70964" lon="5.01908">
        <ele>160.19999694824</ele>
        <time>2021-03-06T08:13:53.000Z</time>
      </trkpt>
      <trkpt lat="43.7097" lon="5.01911">
        <ele>160</ele>
        <time>2021-03-06T08:13:56.000Z</time>
      </trkpt>
      <trkpt lat="43.70976" lon="5.01914">
        <ele>159.80000305176</ele>
        <time>2021-03-06T08:13:59.000Z</time>
      </trkpt>
      <trkpt lat="43.7098" lon="5.01916">
        <ele>159.39999389648</ele>
        <time>2021-03-06T08:14:02.000Z</time>
      </trkpt>
      <trkpt lat="43.70984" lon="5.01912">
        <ele>159.60000610352</ele>
        <time>2021-03-06T08:14:07.000Z</time>
      </trkpt>
      <trkpt lat="43.70984" lon="5.01905">
        <ele>159.80000305176</ele>
        <time>2021-03-06T08:14:11.000Z</time>
      </trkpt>
      <trkpt lat="43.70983" lon="5.01896">
        <ele>160.39999389648</ele>
        <time>2021-03-06T08:14:16.000Z</time>
      </trkpt>
      <trkpt lat="43.70983" lon="5.01889">
        <ele>160.80000305176</ele>
        <time>2021-03-06T08:14:20.000Z</time>
      </trkpt>
      <trkpt lat="43.70984" lon="5.01883">
        <ele>161</ele>
        <time>2021-03-06T08:14:24.000Z</time>
      </trkpt>
      <trkpt lat="43.70987" lon="5.01873">
        <ele>161.39999389648</ele>
        <time>2021-03-06T08:14:57.000Z</time>
      </trkpt>
      <trkpt lat="43.70988" lon="5.01866">
        <ele>162.39999389648</ele>
        <time>2021-03-06T08:15:01.000Z</time>
      </trkpt>
      <trkpt lat="43.70991" lon="5.01858">
        <ele>163.19999694824</ele>
        <time>2021-03-06T08:15:05.000Z</time>
      </trkpt>
      <trkpt lat="43.70991" lon="5.01851">
        <ele>164</ele>
        <time>2021-03-06T08:15:09.000Z</time>
      </trkpt>
      <trkpt lat="43.70991" lon="5.01843">
        <ele>164.60000610352</ele>
        <time>2021-03-06T08:15:13.000Z</time>
      </trkpt>
      <trkpt lat="43.70992" lon="5.01835">
        <ele>164.80000305176</ele>
        <time>2021-03-06T08:15:17.000Z</time>
      </trkpt>
      <trkpt lat="43.70993" lon="5.01828">
        <ele>165</ele>
        <time>2021-03-06T08:15:21.000Z</time>
      </trkpt>
      <trkpt lat="43.70996" lon="5.01821">
        <ele>165</ele>
        <time>2021-03-06T08:15:25.000Z</time>
      </trkpt>
      <trkpt lat="43.70999" lon="5.01814">
        <ele>164.80000305176</ele>
        <time>2021-03-06T08:15:28.000Z</time>
      </trkpt>
      <trkpt lat="43.71003" lon="5.01808">
        <ele>164.39999389648</ele>
        <time>2021-03-06T08:15:31.000Z</time>
      </trkpt>
      <trkpt lat="43.71008" lon="5.01803">
        <ele>164</ele>
        <time>2021-03-06T08:15:34.000Z</time>
      </trkpt>
      <trkpt lat="43.71012" lon="5.01797">
        <ele>163.80000305176</ele>
        <time>2021-03-06T08:15:37.000Z</time>
      </trkpt>
      <trkpt lat="43.71017" lon="5.01791">
        <ele>163.39999389648</ele>
        <time>2021-03-06T08:15:40.000Z</time>
      </trkpt>
      <trkpt lat="43.71021" lon="5.01784">
        <ele>163.60000610352</ele>
        <time>2021-03-06T08:15:43.000Z</time>
      </trkpt>
      <trkpt lat="43.71024" lon="5.01777">
        <ele>164.60000610352</ele>
        <time>2021-03-06T08:15:46.000Z</time>
      </trkpt>
      <trkpt lat="43.71027" lon="5.01769">
        <ele>165.60000610352</ele>
        <time>2021-03-06T08:15:49.000Z</time>
      </trkpt>
      <trkpt lat="43.71032" lon="5.01762">
        <ele>166.80000305176</ele>
        <time>2021-03-06T08:15:52.000Z</time>
      </trkpt>
      <trkpt lat="43.71036" lon="5.01756">
        <ele>168</ele>
        <time>2021-03-06T08:15:55.000Z</time>
      </trkpt>
      <trkpt lat="43.71041" lon="5.0175">
        <ele>169.19999694824</ele>
        <time>2021-03-06T08:15:58.000Z</time>
      </trkpt>
      <trkpt lat="43.71046" lon="5.01746">
        <ele>170.39999389648</ele>
        <time>2021-03-06T08:16:01.000Z</time>
      </trkpt>
      <trkpt lat="43.71051" lon="5.01742">
        <ele>171.60000610352</ele>
        <time>2021-03-06T08:16:05.000Z</time>
      </trkpt>
      <trkpt lat="43.71057" lon="5.01736">
        <ele>172.39999389648</ele>
        <time>2021-03-06T08:16:10.000Z</time>
      </trkpt>
      <trkpt lat="43.71062" lon="5.01732">
        <ele>173</ele>
        <time>2021-03-06T08:16:13.000Z</time>
      </trkpt>
      <trkpt lat="43.71066" lon="5.01728">
        <ele>173.60000610352</ele>
        <time>2021-03-06T08:16:16.000Z</time>
      </trkpt>
      <trkpt lat="43.71072" lon="5.01724">
        <ele>174.19999694824</ele>
        <time>2021-03-06T08:16:19.000Z</time>
      </trkpt>
      <trkpt lat="43.71078" lon="5.01722">
        <ele>174.80000305176</ele>
        <time>2021-03-06T08:16:22.000Z</time>
      </trkpt>
      <trkpt lat="43.71084" lon="5.01721">
        <ele>175.60000610352</ele>
        <time>2021-03-06T08:16:25.000Z</time>
      </trkpt>
      <trkpt lat="43.71089" lon="5.01719">
        <ele>176.19999694824</ele>
        <time>2021-03-06T08:16:28.000Z</time>
      </trkpt>
      <trkpt lat="43.71094" lon="5.01718">
        <ele>176.80000305176</ele>
        <time>2021-03-06T08:16:31.000Z</time>
      </trkpt>
      <trkpt lat="43.71099" lon="5.01715">
        <ele>177.39999389648</ele>
        <time>2021-03-06T08:16:34.000Z</time>
      </trkpt>
      <trkpt lat="43.71104" lon="5.01712">
        <ele>178.19999694824</ele>
        <time>2021-03-06T08:16:37.000Z</time>
      </trkpt>
      <trkpt lat="43.7111" lon="5.01711">
        <ele>179.19999694824</ele>
        <time>2021-03-06T08:16:40.000Z</time>
      </trkpt>
      <trkpt lat="43.71115" lon="5.0171">
        <ele>180.19999694824</ele>
        <time>2021-03-06T08:16:43.000Z</time>
      </trkpt>
      <trkpt lat="43.71121" lon="5.0171">
        <ele>181.39999389648</ele>
        <time>2021-03-06T08:16:46.000Z</time>
      </trkpt>
      <trkpt lat="43.71127" lon="5.0171">
        <ele>182.60000610352</ele>
        <time>2021-03-06T08:16:50.000Z</time>
      </trkpt>
      <trkpt lat="43.71132" lon="5.0171">
        <ele>183.60000610352</ele>
        <time>2021-03-06T08:16:55.000Z</time>
      </trkpt>
      <trkpt lat="43.71138" lon="5.01712">
        <ele>184.60000610352</ele>
        <time>2021-03-06T08:17:00.000Z</time>
      </trkpt>
      <trkpt lat="43.71143" lon="5.01715">
        <ele>185.80000305176</ele>
        <time>2021-03-06T08:17:05.000Z</time>
      </trkpt>
      <trkpt lat="43.71148" lon="5.01715">
        <ele>186.60000610352</ele>
        <time>2021-03-06T08:17:10.000Z</time>
      </trkpt>
      <trkpt lat="43.71154" lon="5.01713">
        <ele>187.80000305176</ele>
        <time>2021-03-06T08:17:15.000Z</time>
      </trkpt>
      <trkpt lat="43.71158" lon="5.01709">
        <ele>188.39999389648</ele>
        <time>2021-03-06T08:17:20.000Z</time>
      </trkpt>
      <trkpt lat="43.71161" lon="5.01702">
        <ele>189.80000305176</ele>
        <time>2021-03-06T08:17:25.000Z</time>
      </trkpt>
      <trkpt lat="43.71164" lon="5.01694">
        <ele>191</ele>
        <time>2021-03-06T08:17:30.000Z</time>
      </trkpt>
      <trkpt lat="43.71166" lon="5.01688">
        <ele>192</ele>
        <time>2021-03-06T08:17:35.000Z</time>
      </trkpt>
      <trkpt lat="43.71167" lon="5.01682">
        <ele>191.80000305176</ele>
        <time>2021-03-06T08:17:41.000Z</time>
      </trkpt>
      <trkpt lat="43.71174" lon="5.0168">
        <ele>191.80000305176</ele>
        <time>2021-03-06T08:18:13.000Z</time>
      </trkpt>
      <trkpt lat="43.7118" lon="5.01679">
        <ele>192</ele>
        <time>2021-03-06T08:18:17.000Z</time>
      </trkpt>
      <trkpt lat="43.71185" lon="5.01679">
        <ele>192.19999694824</ele>
        <time>2021-03-06T08:18:21.000Z</time>
      </trkpt>
      <trkpt lat="43.7119" lon="5.01678">
        <ele>192.39999389648</ele>
        <time>2021-03-06T08:18:25.000Z</time>
      </trkpt>
      <trkpt lat="43.71195" lon="5.01677">
        <ele>192.60000610352</ele>
        <time>2021-03-06T08:18:29.000Z</time>
      </trkpt>
      <trkpt lat="43.71202" lon="5.01678">
        <ele>192.80000305176</ele>
        <time>2021-03-06T08:18:33.000Z</time>
      </trkpt>
      <trkpt lat="43.71208" lon="5.01681">
        <ele>193.39999389648</ele>
        <time>2021-03-06T08:18:36.000Z</time>
      </trkpt>
      <trkpt lat="43.71214" lon="5.01684">
        <ele>193.80000305176</ele>
        <time>2021-03-06T08:18:39.000Z</time>
      </trkpt>
      <trkpt lat="43.71219" lon="5.01688">
        <ele>194.39999389648</ele>
        <time>2021-03-06T08:18:42.000Z</time>
      </trkpt>
      <trkpt lat="43.71224" lon="5.01693">
        <ele>194.80000305176</ele>
        <time>2021-03-06T08:18:45.000Z</time>
      </trkpt>
      <trkpt lat="43.7123" lon="5.01698">
        <ele>195.39999389648</ele>
        <time>2021-03-06T08:18:48.000Z</time>
      </trkpt>
      <trkpt lat="43.71235" lon="5.01704">
        <ele>196</ele>
        <time>2021-03-06T08:18:51.000Z</time>
      </trkpt>
      <trkpt lat="43.71241" lon="5.01708">
        <ele>196.60000610352</ele>
        <time>2021-03-06T08:18:54.000Z</time>
      </trkpt>
      <trkpt lat="43.71247" lon="5.01712">
        <ele>196.80000305176</ele>
        <time>2021-03-06T08:18:57.000Z</time>
      </trkpt>
      <trkpt lat="43.71252" lon="5.01715">
        <ele>196.80000305176</ele>
        <time>2021-03-06T08:19:00.000Z</time>
      </trkpt>
      <trkpt lat="43.71256" lon="5.01719">
        <ele>196.80000305176</ele>
        <time>2021-03-06T08:19:04.000Z</time>
      </trkpt>
      <trkpt lat="43.7126" lon="5.01724">
        <ele>196.80000305176</ele>
        <time>2021-03-06T08:19:10.000Z</time>
      </trkpt>
      <trkpt lat="43.71263" lon="5.01729">
        <ele>196.60000610352</ele>
        <time>2021-03-06T08:19:16.000Z</time>
      </trkpt>
      <trkpt lat="43.71265" lon="5.01736">
        <ele>196.39999389648</ele>
        <time>2021-03-06T08:19:22.000Z</time>
      </trkpt>
      <trkpt lat="43.71266" lon="5.01743">
        <ele>196.19999694824</ele>
        <time>2021-03-06T08:19:27.000Z</time>
      </trkpt>
      <trkpt lat="43.71265" lon="5.01751">
        <ele>195.80000305176</ele>
        <time>2021-03-06T08:19:32.000Z</time>
      </trkpt>
      <trkpt lat="43.71264" lon="5.01758">
        <ele>195.39999389648</ele>
        <time>2021-03-06T08:19:37.000Z</time>
      </trkpt>
      <trkpt lat="43.71262" lon="5.01764">
        <ele>195</ele>
        <time>2021-03-06T08:19:43.000Z</time>
      </trkpt>
      <trkpt lat="43.71259" lon="5.0177">
        <ele>194.60000610352</ele>
        <time>2021-03-06T08:19:58.000Z</time>
      </trkpt>
      <trkpt lat="43.71254" lon="5.01771">
        <ele>194.19999694824</ele>
        <time>2021-03-06T08:20:39.000Z</time>
      </trkpt>
      <trkpt lat="43.71247" lon="5.01775">
        <ele>194</ele>
        <time>2021-03-06T08:20:46.000Z</time>
      </trkpt>
      <trkpt lat="43.71241" lon="5.0178">
        <ele>194.19999694824</ele>
        <time>2021-03-06T08:20:51.000Z</time>
      </trkpt>
      <trkpt lat="43.71238" lon="5.01786">
        <ele>194.39999389648</ele>
        <time>2021-03-06T08:20:55.000Z</time>
      </trkpt>
      <trkpt lat="43.71236" lon="5.01794">
        <ele>194.19999694824</ele>
        <time>2021-03-06T08:20:59.000Z</time>
      </trkpt>
      <trkpt lat="43.71239" lon="5.01802">
        <ele>193</ele>
        <time>2021-03-06T08:21:03.000Z</time>
      </trkpt>
      <trkpt lat="43.71241" lon="5.01809">
        <ele>192.19999694824</ele>
        <time>2021-03-06T08:21:06.000Z</time>
      </trkpt>
      <trkpt lat="43.71245" lon="5.01817">
        <ele>191</ele>
        <time>2021-03-06T08:21:09.000Z</time>
      </trkpt>
      <trkpt lat="43.71247" lon="5.01822">
        <ele>190.19999694824</ele>
        <time>2021-03-06T08:21:11.000Z</time>
      </trkpt>
      <trkpt lat="43.71252" lon="5.01831">
        <ele>189.19999694824</ele>
        <time>2021-03-06T08:21:14.000Z</time>
      </trkpt>
      <trkpt lat="43.71256" lon="5.01836">
        <ele>188.39999389648</ele>
        <time>2021-03-06T08:21:16.000Z</time>
      </trkpt>
      <trkpt lat="43.71259" lon="5.01841">
        <ele>187.60000610352</ele>
        <time>2021-03-06T08:21:18.000Z</time>
      </trkpt>
      <trkpt lat="43.71264" lon="5.01845">
        <ele>187</ele>
        <time>2021-03-06T08:21:20.000Z</time>
      </trkpt>
      <trkpt lat="43.71271" lon="5.01851">
        <ele>186.19999694824</ele>
        <time>2021-03-06T08:21:23.000Z</time>
      </trkpt>
      <trkpt lat="43.71277" lon="5.01857">
        <ele>185.60000610352</ele>
        <time>2021-03-06T08:21:26.000Z</time>
      </trkpt>
      <trkpt lat="43.71281" lon="5.01861">
        <ele>185.19999694824</ele>
        <time>2021-03-06T08:21:28.000Z</time>
      </trkpt>
      <trkpt lat="43.71286" lon="5.01869">
        <ele>184.19999694824</ele>
        <time>2021-03-06T08:21:31.000Z</time>
      </trkpt>
      <trkpt lat="43.71289" lon="5.01875">
        <ele>183.39999389648</ele>
        <time>2021-03-06T08:21:33.000Z</time>
      </trkpt>
      <trkpt lat="43.71293" lon="5.01885">
        <ele>182.39999389648</ele>
        <time>2021-03-06T08:21:36.000Z</time>
      </trkpt>
      <trkpt lat="43.71294" lon="5.01895">
        <ele>181</ele>
        <time>2021-03-06T08:21:39.000Z</time>
      </trkpt>
      <trkpt lat="43.71292" lon="5.01903">
        <ele>180.39999389648</ele>
        <time>2021-03-06T08:21:42.000Z</time>
      </trkpt>
      <trkpt lat="43.71291" lon="5.01913">
        <ele>180.19999694824</ele>
        <time>2021-03-06T08:21:45.000Z</time>
      </trkpt>
      <trkpt lat="43.71289" lon="5.01922">
        <ele>180</ele>
        <time>2021-03-06T08:21:48.000Z</time>
      </trkpt>
      <trkpt lat="43.71287" lon="5.0193">
        <ele>179.80000305176</ele>
        <time>2021-03-06T08:21:51.000Z</time>
      </trkpt>
      <trkpt lat="43.71284" lon="5.01938">
        <ele>179.80000305176</ele>
        <time>2021-03-06T08:21:54.000Z</time>
      </trkpt>
      <trkpt lat="43.71284" lon="5.01946">
        <ele>179.39999389648</ele>
        <time>2021-03-06T08:21:57.000Z</time>
      </trkpt>
      <trkpt lat="43.71286" lon="5.01956">
        <ele>179</ele>
        <time>2021-03-06T08:22:00.000Z</time>
      </trkpt>
      <trkpt lat="43.71287" lon="5.01963">
        <ele>178.19999694824</ele>
        <time>2021-03-06T08:22:02.000Z</time>
      </trkpt>
      <trkpt lat="43.71287" lon="5.01971">
        <ele>177.39999389648</ele>
        <time>2021-03-06T08:22:04.000Z</time>
      </trkpt>
      <trkpt lat="43.71288" lon="5.01978">
        <ele>176.60000610352</ele>
        <time>2021-03-06T08:22:06.000Z</time>
      </trkpt>
      <trkpt lat="43.71289" lon="5.01985">
        <ele>176</ele>
        <time>2021-03-06T08:22:08.000Z</time>
      </trkpt>
      <trkpt lat="43.71292" lon="5.01994">
        <ele>175.19999694824</ele>
        <time>2021-03-06T08:22:11.000Z</time>
      </trkpt>
      <trkpt lat="43.71294" lon="5.02">
        <ele>174.60000610352</ele>
        <time>2021-03-06T08:22:13.000Z</time>
      </trkpt>
      <trkpt lat="43.71296" lon="5.0201">
        <ele>173.80000305176</ele>
        <time>2021-03-06T08:22:16.000Z</time>
      </trkpt>
      <trkpt lat="43.71299" lon="5.02018">
        <ele>173</ele>
        <time>2021-03-06T08:22:19.000Z</time>
      </trkpt>
      <trkpt lat="43.71305" lon="5.02024">
        <ele>171.80000305176</ele>
        <time>2021-03-06T08:22:22.000Z</time>
      </trkpt>
      <trkpt lat="43.7131" lon="5.02032">
        <ele>170.80000305176</ele>
        <time>2021-03-06T08:22:25.000Z</time>
      </trkpt>
      <trkpt lat="43.71313" lon="5.02037">
        <ele>170</ele>
        <time>2021-03-06T08:22:27.000Z</time>
      </trkpt>
      <trkpt lat="43.71318" lon="5.02044">
        <ele>168.80000305176</ele>
        <time>2021-03-06T08:22:30.000Z</time>
      </trkpt>
      <trkpt lat="43.71323" lon="5.0205">
        <ele>167.39999389648</ele>
        <time>2021-03-06T08:22:33.000Z</time>
      </trkpt>
      <trkpt lat="43.71328" lon="5.02056">
        <ele>166</ele>
        <time>2021-03-06T08:22:36.000Z</time>
      </trkpt>
      <trkpt lat="43.71333" lon="5.02063">
        <ele>164.60000610352</ele>
        <time>2021-03-06T08:22:39.000Z</time>
      </trkpt>
      <trkpt lat="43.71339" lon="5.02076">
        <ele>162.19999694824</ele>
        <time>2021-03-06T08:22:43.000Z</time>
      </trkpt>
      <trkpt lat="43.71338" lon="5.02086">
        <ele>161</ele>
        <time>2021-03-06T08:22:48.000Z</time>
      </trkpt>
      <trkpt lat="43.71338" lon="5.02094">
        <ele>160</ele>
        <time>2021-03-06T08:22:51.000Z</time>
      </trkpt>
      <trkpt lat="43.71339" lon="5.02104">
        <ele>158.60000610352</ele>
        <time>2021-03-06T08:22:54.000Z</time>
      </trkpt>
      <trkpt lat="43.71339" lon="5.02114">
        <ele>157.60000610352</ele>
        <time>2021-03-06T08:22:57.000Z</time>
      </trkpt>
      <trkpt lat="43.71342" lon="5.0212">
        <ele>156.60000610352</ele>
        <time>2021-03-06T08:23:00.000Z</time>
      </trkpt>
      <trkpt lat="43.71348" lon="5.02125">
        <ele>155</ele>
        <time>2021-03-06T08:23:05.000Z</time>
      </trkpt>
      <trkpt lat="43.71353" lon="5.0213">
        <ele>153.60000610352</ele>
        <time>2021-03-06T08:23:08.000Z</time>
      </trkpt>
      <trkpt lat="43.71358" lon="5.02137">
        <ele>152</ele>
        <time>2021-03-06T08:23:11.000Z</time>
      </trkpt>
      <trkpt lat="43.71362" lon="5.02143">
        <ele>150.80000305176</ele>
        <time>2021-03-06T08:23:13.000Z</time>
      </trkpt>
      <trkpt lat="43.71365" lon="5.02149">
        <ele>149.60000610352</ele>
        <time>2021-03-06T08:23:15.000Z</time>
      </trkpt>
      <trkpt lat="43.71367" lon="5.02155">
        <ele>148.60000610352</ele>
        <time>2021-03-06T08:23:17.000Z</time>
      </trkpt>
      <trkpt lat="43.71369" lon="5.02162">
        <ele>147.60000610352</ele>
        <time>2021-03-06T08:23:20.000Z</time>
      </trkpt>
      <trkpt lat="43.7137" lon="5.02169">
        <ele>146.60000610352</ele>
        <time>2021-03-06T08:23:23.000Z</time>
      </trkpt>
      <trkpt lat="43.71373" lon="5.02176">
        <ele>145.39999389648</ele>
        <time>2021-03-06T08:23:26.000Z</time>
      </trkpt>
      <trkpt lat="43.71376" lon="5.02185">
        <ele>144</ele>
        <time>2021-03-06T08:23:29.000Z</time>
      </trkpt>
      <trkpt lat="43.71379" lon="5.02193">
        <ele>142.60000610352</ele>
        <time>2021-03-06T08:23:32.000Z</time>
      </trkpt>
      <trkpt lat="43.71384" lon="5.022">
        <ele>141</ele>
        <time>2021-03-06T08:23:35.000Z</time>
      </trkpt>
      <trkpt lat="43.7139" lon="5.02205">
        <ele>139.60000610352</ele>
        <time>2021-03-06T08:23:38.000Z</time>
      </trkpt>
      <trkpt lat="43.71397" lon="5.02209">
        <ele>138.19999694824</ele>
        <time>2021-03-06T08:23:41.000Z</time>
      </trkpt>
      <trkpt lat="43.71404" lon="5.02214">
        <ele>137</ele>
        <time>2021-03-06T08:23:44.000Z</time>
      </trkpt>
      <trkpt lat="43.71409" lon="5.02218">
        <ele>136.19999694824</ele>
        <time>2021-03-06T08:23:46.000Z</time>
      </trkpt>
      <trkpt lat="43.71413" lon="5.02223">
        <ele>135.39999389648</ele>
        <time>2021-03-06T08:23:48.000Z</time>
      </trkpt>
      <trkpt lat="43.71418" lon="5.0223">
        <ele>134.60000610352</ele>
        <time>2021-03-06T08:23:51.000Z</time>
      </trkpt>
      <trkpt lat="43.71424" lon="5.02237">
        <ele>133.39999389648</ele>
        <time>2021-03-06T08:23:54.000Z</time>
      </trkpt>
      <trkpt lat="43.71431" lon="5.02242">
        <ele>132.19999694824</ele>
        <time>2021-03-06T08:23:58.000Z</time>
      </trkpt>
      <trkpt lat="43.71436" lon="5.02246">
        <ele>131.39999389648</ele>
        <time>2021-03-06T08:24:00.000Z</time>
      </trkpt>
      <trkpt lat="43.7144" lon="5.02251">
        <ele>130.80000305176</ele>
        <time>2021-03-06T08:24:02.000Z</time>
      </trkpt>
      <trkpt lat="43.71445" lon="5.02256">
        <ele>130.39999389648</ele>
        <time>2021-03-06T08:24:04.000Z</time>
      </trkpt>
      <trkpt lat="43.7145" lon="5.02261">
        <ele>130</ele>
        <time>2021-03-06T08:24:06.000Z</time>
      </trkpt>
      <trkpt lat="43.71455" lon="5.02262">
        <ele>129.80000305176</ele>
        <time>2021-03-06T08:24:08.000Z</time>
      </trkpt>
      <trkpt lat="43.71461" lon="5.02259">
        <ele>129.80000305176</ele>
        <time>2021-03-06T08:24:11.000Z</time>
      </trkpt>
      <trkpt lat="43.71465" lon="5.02251">
        <ele>130</ele>
        <time>2021-03-06T08:24:14.000Z</time>
      </trkpt>
      <trkpt lat="43.71468" lon="5.02245">
        <ele>130.19999694824</ele>
        <time>2021-03-06T08:24:17.000Z</time>
      </trkpt>
      <trkpt lat="43.7147" lon="5.02238">
        <ele>130.19999694824</ele>
        <time>2021-03-06T08:24:21.000Z</time>
      </trkpt>
      <trkpt lat="43.71473" lon="5.02232">
        <ele>130.19999694824</ele>
        <time>2021-03-06T08:24:25.000Z</time>
      </trkpt>
      <trkpt lat="43.71476" lon="5.02224">
        <ele>130</ele>
        <time>2021-03-06T08:24:29.000Z</time>
      </trkpt>
      <trkpt lat="43.71479" lon="5.02216">
        <ele>130</ele>
        <time>2021-03-06T08:24:33.000Z</time>
      </trkpt>
      <trkpt lat="43.71481" lon="5.02208">
        <ele>129.80000305176</ele>
        <time>2021-03-06T08:24:37.000Z</time>
      </trkpt>
      <trkpt lat="43.71484" lon="5.02199">
        <ele>130.80000305176</ele>
        <time>2021-03-06T08:24:41.000Z</time>
      </trkpt>
      <trkpt lat="43.71487" lon="5.02191">
        <ele>131.60000610352</ele>
        <time>2021-03-06T08:24:44.000Z</time>
      </trkpt>
      <trkpt lat="43.71491" lon="5.02182">
        <ele>132.39999389648</ele>
        <time>2021-03-06T08:24:47.000Z</time>
      </trkpt>
      <trkpt lat="43.71493" lon="5.02176">
        <ele>132.39999389648</ele>
        <time>2021-03-06T08:24:49.000Z</time>
      </trkpt>
      <trkpt lat="43.71497" lon="5.02166">
        <ele>132.19999694824</ele>
        <time>2021-03-06T08:24:52.000Z</time>
      </trkpt>
      <trkpt lat="43.715" lon="5.02156">
        <ele>132.19999694824</ele>
        <time>2021-03-06T08:24:55.000Z</time>
      </trkpt>
      <trkpt lat="43.71501" lon="5.02149">
        <ele>132</ele>
        <time>2021-03-06T08:24:57.000Z</time>
      </trkpt>
      <trkpt lat="43.71503" lon="5.02139">
        <ele>132.19999694824</ele>
        <time>2021-03-06T08:25:00.000Z</time>
      </trkpt>
      <trkpt lat="43.71505" lon="5.02132">
        <ele>132.19999694824</ele>
        <time>2021-03-06T08:25:02.000Z</time>
      </trkpt>
      <trkpt lat="43.71506" lon="5.02125">
        <ele>132.19999694824</ele>
        <time>2021-03-06T08:25:04.000Z</time>
      </trkpt>
      <trkpt lat="43.71508" lon="5.02119">
        <ele>132.80000305176</ele>
        <time>2021-03-06T08:25:06.000Z</time>
      </trkpt>
      <trkpt lat="43.71509" lon="5.02105">
        <ele>133.60000610352</ele>
        <time>2021-03-06T08:25:10.000Z</time>
      </trkpt>
      <trkpt lat="43.71511" lon="5.02095">
        <ele>133.60000610352</ele>
        <time>2021-03-06T08:25:13.000Z</time>
      </trkpt>
      <trkpt lat="43.71512" lon="5.02087">
        <ele>133.80000305176</ele>
        <time>2021-03-06T08:25:15.000Z</time>
      </trkpt>
      <trkpt lat="43.71513" lon="5.0208">
        <ele>133.80000305176</ele>
        <time>2021-03-06T08:25:17.000Z</time>
      </trkpt>
      <trkpt lat="43.71514" lon="5.02072">
        <ele>134</ele>
        <time>2021-03-06T08:25:19.000Z</time>
      </trkpt>
      <trkpt lat="43.71515" lon="5.02065">
        <ele>134</ele>
        <time>2021-03-06T08:25:21.000Z</time>
      </trkpt>
      <trkpt lat="43.71516" lon="5.02058">
        <ele>134</ele>
        <time>2021-03-06T08:25:23.000Z</time>
      </trkpt>
      <trkpt lat="43.71518" lon="5.02051">
        <ele>134</ele>
        <time>2021-03-06T08:25:25.000Z</time>
      </trkpt>
      <trkpt lat="43.71519" lon="5.02044">
        <ele>134</ele>
        <time>2021-03-06T08:25:27.000Z</time>
      </trkpt>
      <trkpt lat="43.71521" lon="5.02037">
        <ele>134.19999694824</ele>
        <time>2021-03-06T08:25:29.000Z</time>
      </trkpt>
      <trkpt lat="43.71523" lon="5.0203">
        <ele>134.60000610352</ele>
        <time>2021-03-06T08:25:31.000Z</time>
      </trkpt>
      <trkpt lat="43.71525" lon="5.02024">
        <ele>135</ele>
        <time>2021-03-06T08:25:33.000Z</time>
      </trkpt>
      <trkpt lat="43.71527" lon="5.02017">
        <ele>135.39999389648</ele>
        <time>2021-03-06T08:25:35.000Z</time>
      </trkpt>
      <trkpt lat="43.71531" lon="5.02008">
        <ele>135.80000305176</ele>
        <time>2021-03-06T08:25:38.000Z</time>
      </trkpt>
      <trkpt lat="43.71533" lon="5.02002">
        <ele>136.19999694824</ele>
        <time>2021-03-06T08:25:40.000Z</time>
      </trkpt>
      <trkpt lat="43.71535" lon="5.01993">
        <ele>136.60000610352</ele>
        <time>2021-03-06T08:25:43.000Z</time>
      </trkpt>
      <trkpt lat="43.71539" lon="5.01981">
        <ele>137.19999694824</ele>
        <time>2021-03-06T08:25:47.000Z</time>
      </trkpt>
      <trkpt lat="43.71541" lon="5.01971">
        <ele>137.39999389648</ele>
        <time>2021-03-06T08:25:50.000Z</time>
      </trkpt>
      <trkpt lat="43.71543" lon="5.01962">
        <ele>137.19999694824</ele>
        <time>2021-03-06T08:25:53.000Z</time>
      </trkpt>
      <trkpt lat="43.71545" lon="5.01953">
        <ele>137.60000610352</ele>
        <time>2021-03-06T08:25:56.000Z</time>
      </trkpt>
      <trkpt lat="43.71546" lon="5.01943">
        <ele>138.19999694824</ele>
        <time>2021-03-06T08:25:59.000Z</time>
      </trkpt>
      <trkpt lat="43.71548" lon="5.01932">
        <ele>139</ele>
        <time>2021-03-06T08:26:02.000Z</time>
      </trkpt>
      <trkpt lat="43.71549" lon="5.01923">
        <ele>139.60000610352</ele>
        <time>2021-03-06T08:26:05.000Z</time>
      </trkpt>
      <trkpt lat="43.7155" lon="5.01914">
        <ele>140.19999694824</ele>
        <time>2021-03-06T08:26:08.000Z</time>
      </trkpt>
      <trkpt lat="43.71551" lon="5.01907">
        <ele>140.60000610352</ele>
        <time>2021-03-06T08:26:10.000Z</time>
      </trkpt>
      <trkpt lat="43.71552" lon="5.01898">
        <ele>140.80000305176</ele>
        <time>2021-03-06T08:26:13.000Z</time>
      </trkpt>
      <trkpt lat="43.71554" lon="5.01889">
        <ele>140.80000305176</ele>
        <time>2021-03-06T08:26:16.000Z</time>
      </trkpt>
      <trkpt lat="43.71555" lon="5.0188">
        <ele>141</ele>
        <time>2021-03-06T08:26:19.000Z</time>
      </trkpt>
      <trkpt lat="43.71556" lon="5.01873">
        <ele>140.80000305176</ele>
        <time>2021-03-06T08:26:21.000Z</time>
      </trkpt>
      <trkpt lat="43.71557" lon="5.01864">
        <ele>140.60000610352</ele>
        <time>2021-03-06T08:26:24.000Z</time>
      </trkpt>
      <trkpt lat="43.71558" lon="5.01857">
        <ele>140.39999389648</ele>
        <time>2021-03-06T08:26:27.000Z</time>
      </trkpt>
      <trkpt lat="43.71559" lon="5.01848">
        <ele>140</ele>
        <time>2021-03-06T08:26:31.000Z</time>
      </trkpt>
      <trkpt lat="43.7156" lon="5.01839">
        <ele>139.80000305176</ele>
        <time>2021-03-06T08:26:34.000Z</time>
      </trkpt>
      <trkpt lat="43.7156" lon="5.01829">
        <ele>139.80000305176</ele>
        <time>2021-03-06T08:26:37.000Z</time>
      </trkpt>
      <trkpt lat="43.7156" lon="5.01818">
        <ele>140.19999694824</ele>
        <time>2021-03-06T08:26:40.000Z</time>
      </trkpt>
      <trkpt lat="43.71559" lon="5.01812">
        <ele>140.39999389648</ele>
        <time>2021-03-06T08:26:42.000Z</time>
      </trkpt>
      <trkpt lat="43.71558" lon="5.01802">
        <ele>140.80000305176</ele>
        <time>2021-03-06T08:26:45.000Z</time>
      </trkpt>
      <trkpt lat="43.71557" lon="5.01791">
        <ele>141.19999694824</ele>
        <time>2021-03-06T08:26:48.000Z</time>
      </trkpt>
      <trkpt lat="43.71556" lon="5.01784">
        <ele>141.19999694824</ele>
        <time>2021-03-06T08:26:50.000Z</time>
      </trkpt>
      <trkpt lat="43.71556" lon="5.01774">
        <ele>141.39999389648</ele>
        <time>2021-03-06T08:26:53.000Z</time>
      </trkpt>
      <trkpt lat="43.71555" lon="5.01764">
        <ele>141.39999389648</ele>
        <time>2021-03-06T08:26:56.000Z</time>
      </trkpt>
      <trkpt lat="43.71555" lon="5.01757">
        <ele>141.39999389648</ele>
        <time>2021-03-06T08:26:58.000Z</time>
      </trkpt>
      <trkpt lat="43.71555" lon="5.01747">
        <ele>141.39999389648</ele>
        <time>2021-03-06T08:27:01.000Z</time>
      </trkpt>
      <trkpt lat="43.71555" lon="5.01738">
        <ele>141.39999389648</ele>
        <time>2021-03-06T08:27:04.000Z</time>
      </trkpt>
      <trkpt lat="43.71555" lon="5.01727">
        <ele>141.39999389648</ele>
        <time>2021-03-06T08:27:07.000Z</time>
      </trkpt>
      <trkpt lat="43.71556" lon="5.01717">
        <ele>141.39999389648</ele>
        <time>2021-03-06T08:27:10.000Z</time>
      </trkpt>
      <trkpt lat="43.71556" lon="5.0171">
        <ele>141.39999389648</ele>
        <time>2021-03-06T08:27:12.000Z</time>
      </trkpt>
      <trkpt lat="43.71556" lon="5.01703">
        <ele>141</ele>
        <time>2021-03-06T08:27:14.000Z</time>
      </trkpt>
      <trkpt lat="43.71556" lon="5.01692">
        <ele>140.60000610352</ele>
        <time>2021-03-06T08:27:17.000Z</time>
      </trkpt>
      <trkpt lat="43.71557" lon="5.01685">
        <ele>140.19999694824</ele>
        <time>2021-03-06T08:27:19.000Z</time>
      </trkpt>
      <trkpt lat="43.71557" lon="5.01677">
        <ele>140</ele>
        <time>2021-03-06T08:27:21.000Z</time>
      </trkpt>
      <trkpt lat="43.71557" lon="5.01671">
        <ele>139.80000305176</ele>
        <time>2021-03-06T08:27:23.000Z</time>
      </trkpt>
      <trkpt lat="43.71558" lon="5.01661">
        <ele>139.39999389648</ele>
        <time>2021-03-06T08:27:26.000Z</time>
      </trkpt>
      <trkpt lat="43.71558" lon="5.01651">
        <ele>139.60000610352</ele>
        <time>2021-03-06T08:27:29.000Z</time>
      </trkpt>
      <trkpt lat="43.71558" lon="5.01645">
        <ele>139.80000305176</ele>
        <time>2021-03-06T08:27:31.000Z</time>
      </trkpt>
      <trkpt lat="43.71559" lon="5.01635">
        <ele>140</ele>
        <time>2021-03-06T08:27:34.000Z</time>
      </trkpt>
      <trkpt lat="43.71559" lon="5.01624">
        <ele>140.39999389648</ele>
        <time>2021-03-06T08:27:37.000Z</time>
      </trkpt>
      <trkpt lat="43.71559" lon="5.01617">
        <ele>141</ele>
        <time>2021-03-06T08:27:39.000Z</time>
      </trkpt>
      <trkpt lat="43.7156" lon="5.0161">
        <ele>141.60000610352</ele>
        <time>2021-03-06T08:27:41.000Z</time>
      </trkpt>
      <trkpt lat="43.7156" lon="5.01603">
        <ele>142.19999694824</ele>
        <time>2021-03-06T08:27:43.000Z</time>
      </trkpt>
      <trkpt lat="43.7156" lon="5.01593">
        <ele>143.19999694824</ele>
        <time>2021-03-06T08:27:46.000Z</time>
      </trkpt>
      <trkpt lat="43.7156" lon="5.01585">
        <ele>144</ele>
        <time>2021-03-06T08:27:49.000Z</time>
      </trkpt>
      <trkpt lat="43.71561" lon="5.01577">
        <ele>144.19999694824</ele>
        <time>2021-03-06T08:27:52.000Z</time>
      </trkpt>
      <trkpt lat="43.71562" lon="5.01568">
        <ele>144.39999389648</ele>
        <time>2021-03-06T08:27:55.000Z</time>
      </trkpt>
      <trkpt lat="43.71563" lon="5.01558">
        <ele>144.39999389648</ele>
        <time>2021-03-06T08:27:58.000Z</time>
      </trkpt>
      <trkpt lat="43.71564" lon="5.01549">
        <ele>144.39999389648</ele>
        <time>2021-03-06T08:28:01.000Z</time>
      </trkpt>
      <trkpt lat="43.71566" lon="5.01543">
        <ele>144.39999389648</ele>
        <time>2021-03-06T08:28:03.000Z</time>
      </trkpt>
      <trkpt lat="43.71566" lon="5.01534">
        <ele>145.19999694824</ele>
        <time>2021-03-06T08:28:06.000Z</time>
      </trkpt>
      <trkpt lat="43.71567" lon="5.01525">
        <ele>145.80000305176</ele>
        <time>2021-03-06T08:28:09.000Z</time>
      </trkpt>
      <trkpt lat="43.71567" lon="5.01516">
        <ele>146.60000610352</ele>
        <time>2021-03-06T08:28:12.000Z</time>
      </trkpt>
      <trkpt lat="43.71566" lon="5.01508">
        <ele>147.60000610352</ele>
        <time>2021-03-06T08:28:15.000Z</time>
      </trkpt>
      <trkpt lat="43.71563" lon="5.01504">
        <ele>148.39999389648</ele>
        <time>2021-03-06T08:28:18.000Z</time>
      </trkpt>
      <trkpt lat="43.71556" lon="5.015">
        <ele>150</ele>
        <time>2021-03-06T08:28:23.000Z</time>
      </trkpt>
      <trkpt lat="43.71551" lon="5.01498">
        <ele>150.80000305176</ele>
        <time>2021-03-06T08:28:27.000Z</time>
      </trkpt>
      <trkpt lat="43.71546" lon="5.01493">
        <ele>152</ele>
        <time>2021-03-06T08:28:32.000Z</time>
      </trkpt>
      <trkpt lat="43.71543" lon="5.01486">
        <ele>153.19999694824</ele>
        <time>2021-03-06T08:28:37.000Z</time>
      </trkpt>
      <trkpt lat="43.71542" lon="5.01478">
        <ele>154</ele>
        <time>2021-03-06T08:28:42.000Z</time>
      </trkpt>
      <trkpt lat="43.71541" lon="5.0147">
        <ele>154.19999694824</ele>
        <time>2021-03-06T08:28:46.000Z</time>
      </trkpt>
      <trkpt lat="43.7154" lon="5.01461">
        <ele>154.39999389648</ele>
        <time>2021-03-06T08:28:50.000Z</time>
      </trkpt>
      <trkpt lat="43.7154" lon="5.01452">
        <ele>154.39999389648</ele>
        <time>2021-03-06T08:28:53.000Z</time>
      </trkpt>
      <trkpt lat="43.71541" lon="5.01443">
        <ele>154.39999389648</ele>
        <time>2021-03-06T08:28:56.000Z</time>
      </trkpt>
      <trkpt lat="43.7154" lon="5.01433">
        <ele>154.60000610352</ele>
        <time>2021-03-06T08:28:59.000Z</time>
      </trkpt>
      <trkpt lat="43.7154" lon="5.01427">
        <ele>154.80000305176</ele>
        <time>2021-03-06T08:29:01.000Z</time>
      </trkpt>
      <trkpt lat="43.71538" lon="5.01418">
        <ele>155.39999389648</ele>
        <time>2021-03-06T08:29:04.000Z</time>
      </trkpt>
      <trkpt lat="43.71536" lon="5.01409">
        <ele>156</ele>
        <time>2021-03-06T08:29:07.000Z</time>
      </trkpt>
      <trkpt lat="43.71534" lon="5.01399">
        <ele>156.60000610352</ele>
        <time>2021-03-06T08:29:10.000Z</time>
      </trkpt>
      <trkpt lat="43.71532" lon="5.01391">
        <ele>157</ele>
        <time>2021-03-06T08:29:13.000Z</time>
      </trkpt>
      <trkpt lat="43.7153" lon="5.01383">
        <ele>157.80000305176</ele>
        <time>2021-03-06T08:29:16.000Z</time>
      </trkpt>
      <trkpt lat="43.71527" lon="5.01374">
        <ele>158.39999389648</ele>
        <time>2021-03-06T08:29:19.000Z</time>
      </trkpt>
      <trkpt lat="43.71524" lon="5.01366">
        <ele>158.60000610352</ele>
        <time>2021-03-06T08:29:22.000Z</time>
      </trkpt>
      <trkpt lat="43.7152" lon="5.0136">
        <ele>158.80000305176</ele>
        <time>2021-03-06T08:29:25.000Z</time>
      </trkpt>
      <trkpt lat="43.71516" lon="5.01354">
        <ele>159.19999694824</ele>
        <time>2021-03-06T08:29:28.000Z</time>
      </trkpt>
      <trkpt lat="43.71512" lon="5.01348">
        <ele>159.39999389648</ele>
        <time>2021-03-06T08:29:31.000Z</time>
      </trkpt>
      <trkpt lat="43.71507" lon="5.01342">
        <ele>160</ele>
        <time>2021-03-06T08:29:34.000Z</time>
      </trkpt>
      <trkpt lat="43.71503" lon="5.01334">
        <ele>160.39999389648</ele>
        <time>2021-03-06T08:29:37.000Z</time>
      </trkpt>
      <trkpt lat="43.715" lon="5.01329">
        <ele>160.60000610352</ele>
        <time>2021-03-06T08:29:39.000Z</time>
      </trkpt>
      <trkpt lat="43.71496" lon="5.01322">
        <ele>160.80000305176</ele>
        <time>2021-03-06T08:29:42.000Z</time>
      </trkpt>
      <trkpt lat="43.71491" lon="5.01314">
        <ele>161.19999694824</ele>
        <time>2021-03-06T08:29:45.000Z</time>
      </trkpt>
      <trkpt lat="43.71487" lon="5.01307">
        <ele>161.60000610352</ele>
        <time>2021-03-06T08:29:48.000Z</time>
      </trkpt>
      <trkpt lat="43.71482" lon="5.01302">
        <ele>162.19999694824</ele>
        <time>2021-03-06T08:29:51.000Z</time>
      </trkpt>
      <trkpt lat="43.71479" lon="5.01298">
        <ele>162.39999389648</ele>
        <time>2021-03-06T08:29:54.000Z</time>
      </trkpt>
      <trkpt lat="43.71473" lon="5.01295">
        <ele>163.39999389648</ele>
        <time>2021-03-06T08:29:58.000Z</time>
      </trkpt>
      <trkpt lat="43.71468" lon="5.01292">
        <ele>164.39999389648</ele>
        <time>2021-03-06T08:30:02.000Z</time>
      </trkpt>
      <trkpt lat="43.71463" lon="5.01289">
        <ele>165.19999694824</ele>
        <time>2021-03-06T08:30:06.000Z</time>
      </trkpt>
      <trkpt lat="43.71458" lon="5.01288">
        <ele>166.19999694824</ele>
        <time>2021-03-06T08:30:10.000Z</time>
      </trkpt>
      <trkpt lat="43.71453" lon="5.01285">
        <ele>166.80000305176</ele>
        <time>2021-03-06T08:30:14.000Z</time>
      </trkpt>
      <trkpt lat="43.71449" lon="5.01281">
        <ele>167.39999389648</ele>
        <time>2021-03-06T08:30:20.000Z</time>
      </trkpt>
      <trkpt lat="43.71443" lon="5.01277">
        <ele>168.19999694824</ele>
        <time>2021-03-06T08:30:27.000Z</time>
      </trkpt>
      <trkpt lat="43.71438" lon="5.01274">
        <ele>169</ele>
        <time>2021-03-06T08:30:32.000Z</time>
      </trkpt>
      <trkpt lat="43.71434" lon="5.0127">
        <ele>169.60000610352</ele>
        <time>2021-03-06T08:30:36.000Z</time>
      </trkpt>
      <trkpt lat="43.7143" lon="5.01265">
        <ele>170.19999694824</ele>
        <time>2021-03-06T08:30:41.000Z</time>
      </trkpt>
      <trkpt lat="43.71426" lon="5.01261">
        <ele>170.80000305176</ele>
        <time>2021-03-06T08:30:46.000Z</time>
      </trkpt>
      <trkpt lat="43.71419" lon="5.01259">
        <ele>172.39999389648</ele>
        <time>2021-03-06T08:30:53.000Z</time>
      </trkpt>
      <trkpt lat="43.71413" lon="5.01257">
        <ele>173.60000610352</ele>
        <time>2021-03-06T08:30:58.000Z</time>
      </trkpt>
      <trkpt lat="43.71407" lon="5.01255">
        <ele>175</ele>
        <time>2021-03-06T08:31:03.000Z</time>
      </trkpt>
      <trkpt lat="43.71404" lon="5.01251">
        <ele>175.39999389648</ele>
        <time>2021-03-06T08:31:07.000Z</time>
      </trkpt>
      <trkpt lat="43.714" lon="5.01245">
        <ele>175.80000305176</ele>
        <time>2021-03-06T08:31:11.000Z</time>
      </trkpt>
      <trkpt lat="43.71398" lon="5.01238">
        <ele>175.39999389648</ele>
        <time>2021-03-06T08:31:15.000Z</time>
      </trkpt>
      <trkpt lat="43.71397" lon="5.01231">
        <ele>175.39999389648</ele>
        <time>2021-03-06T08:31:19.000Z</time>
      </trkpt>
      <trkpt lat="43.71395" lon="5.01224">
        <ele>175.19999694824</ele>
        <time>2021-03-06T08:31:24.000Z</time>
      </trkpt>
      <trkpt lat="43.71391" lon="5.01219">
        <ele>175.60000610352</ele>
        <time>2021-03-06T08:31:28.000Z</time>
      </trkpt>
      <trkpt lat="43.71387" lon="5.01213">
        <ele>176.19999694824</ele>
        <time>2021-03-06T08:31:32.000Z</time>
      </trkpt>
      <trkpt lat="43.71383" lon="5.01208">
        <ele>176.60000610352</ele>
        <time>2021-03-06T08:31:36.000Z</time>
      </trkpt>
      <trkpt lat="43.71377" lon="5.01204">
        <ele>177.80000305176</ele>
        <time>2021-03-06T08:31:40.000Z</time>
      </trkpt>
      <trkpt lat="43.71373" lon="5.01201">
        <ele>178.80000305176</ele>
        <time>2021-03-06T08:31:43.000Z</time>
      </trkpt>
      <trkpt lat="43.71368" lon="5.01196">
        <ele>179.60000610352</ele>
        <time>2021-03-06T08:31:46.000Z</time>
      </trkpt>
      <trkpt lat="43.71363" lon="5.01192">
        <ele>180.80000305176</ele>
        <time>2021-03-06T08:31:49.000Z</time>
      </trkpt>
      <trkpt lat="43.71358" lon="5.01187">
        <ele>181.60000610352</ele>
        <time>2021-03-06T08:31:52.000Z</time>
      </trkpt>
      <trkpt lat="43.71354" lon="5.0118">
        <ele>182.19999694824</ele>
        <time>2021-03-06T08:31:55.000Z</time>
      </trkpt>
      <trkpt lat="43.7135" lon="5.01173">
        <ele>182.80000305176</ele>
        <time>2021-03-06T08:31:58.000Z</time>
      </trkpt>
      <trkpt lat="43.71346" lon="5.01165">
        <ele>183.80000305176</ele>
        <time>2021-03-06T08:32:01.000Z</time>
      </trkpt>
      <trkpt lat="43.71344" lon="5.01157">
        <ele>183.80000305176</ele>
        <time>2021-03-06T08:32:04.000Z</time>
      </trkpt>
      <trkpt lat="43.71342" lon="5.01149">
        <ele>184</ele>
        <time>2021-03-06T08:32:07.000Z</time>
      </trkpt>
      <trkpt lat="43.71341" lon="5.01141">
        <ele>184</ele>
        <time>2021-03-06T08:32:10.000Z</time>
      </trkpt>
      <trkpt lat="43.71339" lon="5.01134">
        <ele>184.19999694824</ele>
        <time>2021-03-06T08:32:13.000Z</time>
      </trkpt>
      <trkpt lat="43.71338" lon="5.01127">
        <ele>184</ele>
        <time>2021-03-06T08:32:16.000Z</time>
      </trkpt>
      <trkpt lat="43.71338" lon="5.01119">
        <ele>183.19999694824</ele>
        <time>2021-03-06T08:32:20.000Z</time>
      </trkpt>
      <trkpt lat="43.7134" lon="5.01111">
        <ele>181.60000610352</ele>
        <time>2021-03-06T08:32:25.000Z</time>
      </trkpt>
      <trkpt lat="43.71342" lon="5.01104">
        <ele>180.80000305176</ele>
        <time>2021-03-06T08:32:29.000Z</time>
      </trkpt>
      <trkpt lat="43.71345" lon="5.01097">
        <ele>179.80000305176</ele>
        <time>2021-03-06T08:32:34.000Z</time>
      </trkpt>
      <trkpt lat="43.71346" lon="5.01089">
        <ele>179.39999389648</ele>
        <time>2021-03-06T08:32:40.000Z</time>
      </trkpt>
      <trkpt lat="43.71344" lon="5.01082">
        <ele>179.60000610352</ele>
        <time>2021-03-06T08:32:46.000Z</time>
      </trkpt>
      <trkpt lat="43.71343" lon="5.01074">
        <ele>179.60000610352</ele>
        <time>2021-03-06T08:32:51.000Z</time>
      </trkpt>
      <trkpt lat="43.71342" lon="5.01065">
        <ele>179.39999389648</ele>
        <time>2021-03-06T08:32:56.000Z</time>
      </trkpt>
      <trkpt lat="43.71341" lon="5.01056">
        <ele>179.19999694824</ele>
        <time>2021-03-06T08:32:59.000Z</time>
      </trkpt>
      <trkpt lat="43.71339" lon="5.01049">
        <ele>179.60000610352</ele>
        <time>2021-03-06T08:33:01.000Z</time>
      </trkpt>
      <trkpt lat="43.71335" lon="5.01042">
        <ele>180.19999694824</ele>
        <time>2021-03-06T08:33:03.000Z</time>
      </trkpt>
      <trkpt lat="43.71332" lon="5.01037">
        <ele>180.19999694824</ele>
        <time>2021-03-06T08:33:05.000Z</time>
      </trkpt>
      <trkpt lat="43.71328" lon="5.01027">
        <ele>179.80000305176</ele>
        <time>2021-03-06T08:33:08.000Z</time>
      </trkpt>
      <trkpt lat="43.71326" lon="5.0102">
        <ele>179.39999389648</ele>
        <time>2021-03-06T08:33:10.000Z</time>
      </trkpt>
      <trkpt lat="43.71325" lon="5.01012">
        <ele>178.60000610352</ele>
        <time>2021-03-06T08:33:12.000Z</time>
      </trkpt>
      <trkpt lat="43.71323" lon="5.01005">
        <ele>178.39999389648</ele>
        <time>2021-03-06T08:33:14.000Z</time>
      </trkpt>
      <trkpt lat="43.71322" lon="5.00998">
        <ele>178</ele>
        <time>2021-03-06T08:33:16.000Z</time>
      </trkpt>
      <trkpt lat="43.7132" lon="5.00991">
        <ele>177.80000305176</ele>
        <time>2021-03-06T08:33:18.000Z</time>
      </trkpt>
      <trkpt lat="43.71318" lon="5.00982">
        <ele>177.39999389648</ele>
        <time>2021-03-06T08:33:21.000Z</time>
      </trkpt>
      <trkpt lat="43.71316" lon="5.00973">
        <ele>177</ele>
        <time>2021-03-06T08:33:24.000Z</time>
      </trkpt>
      <trkpt lat="43.71313" lon="5.00963">
        <ele>176.80000305176</ele>
        <time>2021-03-06T08:33:27.000Z</time>
      </trkpt>
      <trkpt lat="43.7131" lon="5.00954">
        <ele>176.19999694824</ele>
        <time>2021-03-06T08:33:30.000Z</time>
      </trkpt>
      <trkpt lat="43.71307" lon="5.00948">
        <ele>175.80000305176</ele>
        <time>2021-03-06T08:33:32.000Z</time>
      </trkpt>
      <trkpt lat="43.71304" lon="5.00938">
        <ele>175</ele>
        <time>2021-03-06T08:33:35.000Z</time>
      </trkpt>
      <trkpt lat="43.71303" lon="5.0093">
        <ele>174</ele>
        <time>2021-03-06T08:33:38.000Z</time>
      </trkpt>
      <trkpt lat="43.71301" lon="5.00921">
        <ele>173</ele>
        <time>2021-03-06T08:33:41.000Z</time>
      </trkpt>
      <trkpt lat="43.71298" lon="5.00912">
        <ele>172.39999389648</ele>
        <time>2021-03-06T08:33:44.000Z</time>
      </trkpt>
      <trkpt lat="43.71294" lon="5.00907">
        <ele>172.39999389648</ele>
        <time>2021-03-06T08:33:46.000Z</time>
      </trkpt>
      <trkpt lat="43.71291" lon="5.00901">
        <ele>172</ele>
        <time>2021-03-06T08:33:48.000Z</time>
      </trkpt>
      <trkpt lat="43.71288" lon="5.00894">
        <ele>171.39999389648</ele>
        <time>2021-03-06T08:33:50.000Z</time>
      </trkpt>
      <trkpt lat="43.71285" lon="5.00887">
        <ele>171.19999694824</ele>
        <time>2021-03-06T08:33:52.000Z</time>
      </trkpt>
      <trkpt lat="43.71283" lon="5.0088">
        <ele>171</ele>
        <time>2021-03-06T08:33:54.000Z</time>
      </trkpt>
      <trkpt lat="43.7128" lon="5.00873">
        <ele>170.60000610352</ele>
        <time>2021-03-06T08:33:56.000Z</time>
      </trkpt>
      <trkpt lat="43.71278" lon="5.00866">
        <ele>170.19999694824</ele>
        <time>2021-03-06T08:33:58.000Z</time>
      </trkpt>
      <trkpt lat="43.71275" lon="5.00858">
        <ele>169.80000305176</ele>
        <time>2021-03-06T08:34:00.000Z</time>
      </trkpt>
      <trkpt lat="43.71271" lon="5.00852">
        <ele>169.60000610352</ele>
        <time>2021-03-06T08:34:02.000Z</time>
      </trkpt>
      <trkpt lat="43.71267" lon="5.00849">
        <ele>169.80000305176</ele>
        <time>2021-03-06T08:34:04.000Z</time>
      </trkpt>
      <trkpt lat="43.71262" lon="5.00846">
        <ele>170</ele>
        <time>2021-03-06T08:34:06.000Z</time>
      </trkpt>
      <trkpt lat="43.71257" lon="5.00843">
        <ele>170.19999694824</ele>
        <time>2021-03-06T08:34:08.000Z</time>
      </trkpt>
      <trkpt lat="43.7125" lon="5.00834">
        <ele>170</ele>
        <time>2021-03-06T08:34:11.000Z</time>
      </trkpt>
      <trkpt lat="43.71247" lon="5.00827">
        <ele>169.60000610352</ele>
        <time>2021-03-06T08:34:13.000Z</time>
      </trkpt>
      <trkpt lat="43.71244" lon="5.0082">
        <ele>169.19999694824</ele>
        <time>2021-03-06T08:34:15.000Z</time>
      </trkpt>
      <trkpt lat="43.71239" lon="5.00812">
        <ele>169</ele>
        <time>2021-03-06T08:34:18.000Z</time>
      </trkpt>
      <trkpt lat="43.71235" lon="5.00807">
        <ele>168.80000305176</ele>
        <time>2021-03-06T08:34:20.000Z</time>
      </trkpt>
      <trkpt lat="43.71232" lon="5.00801">
        <ele>168.60000610352</ele>
        <time>2021-03-06T08:34:22.000Z</time>
      </trkpt>
      <trkpt lat="43.71231" lon="5.00791">
        <ele>167.80000305176</ele>
        <time>2021-03-06T08:34:25.000Z</time>
      </trkpt>
      <trkpt lat="43.7123" lon="5.00785">
        <ele>166.60000610352</ele>
        <time>2021-03-06T08:34:27.000Z</time>
      </trkpt>
      <trkpt lat="43.71228" lon="5.00774">
        <ele>165</ele>
        <time>2021-03-06T08:34:30.000Z</time>
      </trkpt>
      <trkpt lat="43.71228" lon="5.00767">
        <ele>163.60000610352</ele>
        <time>2021-03-06T08:34:32.000Z</time>
      </trkpt>
      <trkpt lat="43.71229" lon="5.0076">
        <ele>162.19999694824</ele>
        <time>2021-03-06T08:34:34.000Z</time>
      </trkpt>
      <trkpt lat="43.7123" lon="5.00751">
        <ele>160.60000610352</ele>
        <time>2021-03-06T08:34:37.000Z</time>
      </trkpt>
      <trkpt lat="43.71231" lon="5.00743">
        <ele>159.80000305176</ele>
        <time>2021-03-06T08:34:40.000Z</time>
      </trkpt>
      <trkpt lat="43.71233" lon="5.00736">
        <ele>159.19999694824</ele>
        <time>2021-03-06T08:34:43.000Z</time>
      </trkpt>
      <trkpt lat="43.71234" lon="5.00728">
        <ele>158.60000610352</ele>
        <time>2021-03-06T08:34:47.000Z</time>
      </trkpt>
      <trkpt lat="43.71235" lon="5.00719">
        <ele>158</ele>
        <time>2021-03-06T08:34:51.000Z</time>
      </trkpt>
      <trkpt lat="43.71235" lon="5.00712">
        <ele>157.19999694824</ele>
        <time>2021-03-06T08:34:55.000Z</time>
      </trkpt>
      <trkpt lat="43.71235" lon="5.00702">
        <ele>156.39999389648</ele>
        <time>2021-03-06T08:34:59.000Z</time>
      </trkpt>
      <trkpt lat="43.71235" lon="5.00693">
        <ele>155.80000305176</ele>
        <time>2021-03-06T08:35:02.000Z</time>
      </trkpt>
      <trkpt lat="43.71235" lon="5.00684">
        <ele>155</ele>
        <time>2021-03-06T08:35:05.000Z</time>
      </trkpt>
      <trkpt lat="43.71235" lon="5.00678">
        <ele>154.39999389648</ele>
        <time>2021-03-06T08:35:07.000Z</time>
      </trkpt>
      <trkpt lat="43.71238" lon="5.0067">
        <ele>154</ele>
        <time>2021-03-06T08:35:10.000Z</time>
      </trkpt>
      <trkpt lat="43.71241" lon="5.00665">
        <ele>153.60000610352</ele>
        <time>2021-03-06T08:35:12.000Z</time>
      </trkpt>
      <trkpt lat="43.71245" lon="5.00656">
        <ele>153.19999694824</ele>
        <time>2021-03-06T08:35:15.000Z</time>
      </trkpt>
      <trkpt lat="43.71248" lon="5.00645">
        <ele>152.60000610352</ele>
        <time>2021-03-06T08:35:18.000Z</time>
      </trkpt>
      <trkpt lat="43.71249" lon="5.00638">
        <ele>152.19999694824</ele>
        <time>2021-03-06T08:35:20.000Z</time>
      </trkpt>
      <trkpt lat="43.7125" lon="5.00631">
        <ele>151.80000305176</ele>
        <time>2021-03-06T08:35:22.000Z</time>
      </trkpt>
      <trkpt lat="43.71252" lon="5.00623">
        <ele>151.60000610352</ele>
        <time>2021-03-06T08:35:24.000Z</time>
      </trkpt>
      <trkpt lat="43.71253" lon="5.00617">
        <ele>151.39999389648</ele>
        <time>2021-03-06T08:35:26.000Z</time>
      </trkpt>
      <trkpt lat="43.71255" lon="5.0061">
        <ele>151.39999389648</ele>
        <time>2021-03-06T08:35:29.000Z</time>
      </trkpt>
      <trkpt lat="43.71258" lon="5.00603">
        <ele>151.39999389648</ele>
        <time>2021-03-06T08:35:32.000Z</time>
      </trkpt>
      <trkpt lat="43.71261" lon="5.00596">
        <ele>151.39999389648</ele>
        <time>2021-03-06T08:35:35.000Z</time>
      </trkpt>
      <trkpt lat="43.71265" lon="5.00589">
        <ele>151.39999389648</ele>
        <time>2021-03-06T08:35:38.000Z</time>
      </trkpt>
      <trkpt lat="43.71271" lon="5.00583">
        <ele>151.39999389648</ele>
        <time>2021-03-06T08:35:41.000Z</time>
      </trkpt>
      <trkpt lat="43.71275" lon="5.00576">
        <ele>151.39999389648</ele>
        <time>2021-03-06T08:35:44.000Z</time>
      </trkpt>
      <trkpt lat="43.71277" lon="5.0057">
        <ele>151.19999694824</ele>
        <time>2021-03-06T08:35:47.000Z</time>
      </trkpt>
      <trkpt lat="43.71278" lon="5.0056">
        <ele>151</ele>
        <time>2021-03-06T08:35:51.000Z</time>
      </trkpt>
      <trkpt lat="43.71279" lon="5.00553">
        <ele>151</ele>
        <time>2021-03-06T08:35:53.000Z</time>
      </trkpt>
      <trkpt lat="43.71281" lon="5.00542">
        <ele>150.80000305176</ele>
        <time>2021-03-06T08:35:56.000Z</time>
      </trkpt>
      <trkpt lat="43.71283" lon="5.00535">
        <ele>150.80000305176</ele>
        <time>2021-03-06T08:35:58.000Z</time>
      </trkpt>
      <trkpt lat="43.71285" lon="5.00528">
        <ele>150.80000305176</ele>
        <time>2021-03-06T08:36:00.000Z</time>
      </trkpt>
      <trkpt lat="43.71286" lon="5.00522">
        <ele>150.80000305176</ele>
        <time>2021-03-06T08:36:02.000Z</time>
      </trkpt>
      <trkpt lat="43.71287" lon="5.00512">
        <ele>151</ele>
        <time>2021-03-06T08:36:05.000Z</time>
      </trkpt>
      <trkpt lat="43.71286" lon="5.00505">
        <ele>151</ele>
        <time>2021-03-06T08:36:07.000Z</time>
      </trkpt>
      <trkpt lat="43.71284" lon="5.00495">
        <ele>151.19999694824</ele>
        <time>2021-03-06T08:36:10.000Z</time>
      </trkpt>
      <trkpt lat="43.71283" lon="5.00489">
        <ele>151.39999389648</ele>
        <time>2021-03-06T08:36:12.000Z</time>
      </trkpt>
      <trkpt lat="43.71283" lon="5.00481">
        <ele>151.39999389648</ele>
        <time>2021-03-06T08:36:15.000Z</time>
      </trkpt>
      <trkpt lat="43.71284" lon="5.00473">
        <ele>151.39999389648</ele>
        <time>2021-03-06T08:36:19.000Z</time>
      </trkpt>
      <trkpt lat="43.71282" lon="5.00468">
        <ele>151.60000610352</ele>
        <time>2021-03-06T08:36:23.000Z</time>
      </trkpt>
      <trkpt lat="43.71278" lon="5.00459">
        <ele>151.80000305176</ele>
        <time>2021-03-06T08:36:28.000Z</time>
      </trkpt>
      <trkpt lat="43.71277" lon="5.00455">
        <ele>151.80000305176</ele>
        <time>2021-03-06T08:36:34.000Z</time>
      </trkpt>
      <trkpt lat="43.71283" lon="5.00454">
        <ele>151.80000305176</ele>
        <time>2021-03-06T08:36:40.000Z</time>
      </trkpt>
      <trkpt lat="43.71286" lon="5.00446">
        <ele>151.80000305176</ele>
        <time>2021-03-06T08:36:47.000Z</time>
      </trkpt>
      <trkpt lat="43.71287" lon="5.00439">
        <ele>151.80000305176</ele>
        <time>2021-03-06T08:36:50.000Z</time>
      </trkpt>
      <trkpt lat="43.71281" lon="5.00434">
        <ele>152</ele>
        <time>2021-03-06T08:36:54.000Z</time>
      </trkpt>
      <trkpt lat="43.71275" lon="5.00428">
        <ele>152.19999694824</ele>
        <time>2021-03-06T08:36:57.000Z</time>
      </trkpt>
      <trkpt lat="43.7127" lon="5.00422">
        <ele>152.39999389648</ele>
        <time>2021-03-06T08:37:00.000Z</time>
      </trkpt>
      <trkpt lat="43.71265" lon="5.00418">
        <ele>152.39999389648</ele>
        <time>2021-03-06T08:37:03.000Z</time>
      </trkpt>
      <trkpt lat="43.7126" lon="5.00411">
        <ele>152.60000610352</ele>
        <time>2021-03-06T08:37:06.000Z</time>
      </trkpt>
      <trkpt lat="43.71257" lon="5.00404">
        <ele>152.60000610352</ele>
        <time>2021-03-06T08:37:09.000Z</time>
      </trkpt>
      <trkpt lat="43.71254" lon="5.00398">
        <ele>152.80000305176</ele>
        <time>2021-03-06T08:37:12.000Z</time>
      </trkpt>
      <trkpt lat="43.7125" lon="5.00393">
        <ele>152.80000305176</ele>
        <time>2021-03-06T08:37:16.000Z</time>
      </trkpt>
      <trkpt lat="43.71247" lon="5.00389">
        <ele>152.80000305176</ele>
        <time>2021-03-06T08:37:20.000Z</time>
      </trkpt>
      <trkpt lat="43.71243" lon="5.00388">
        <ele>152.80000305176</ele>
        <time>2021-03-06T08:38:07.000Z</time>
      </trkpt>
      <trkpt lat="43.71249" lon="5.00391">
        <ele>152.80000305176</ele>
        <time>2021-03-06T08:38:11.000Z</time>
      </trkpt>
      <trkpt lat="43.71255" lon="5.00394">
        <ele>152.80000305176</ele>
        <time>2021-03-06T08:38:15.000Z</time>
      </trkpt>
      <trkpt lat="43.71259" lon="5.00395">
        <ele>152.80000305176</ele>
        <time>2021-03-06T08:38:20.000Z</time>
      </trkpt>
      <trkpt lat="43.71265" lon="5.00394">
        <ele>152.80000305176</ele>
        <time>2021-03-06T08:38:25.000Z</time>
      </trkpt>
      <trkpt lat="43.71271" lon="5.00397">
        <ele>152.80000305176</ele>
        <time>2021-03-06T08:38:52.000Z</time>
      </trkpt>
      <trkpt lat="43.71277" lon="5.00401">
        <ele>152.60000610352</ele>
        <time>2021-03-06T08:38:55.000Z</time>
      </trkpt>
      <trkpt lat="43.71281" lon="5.00405">
        <ele>152.39999389648</ele>
        <time>2021-03-06T08:38:57.000Z</time>
      </trkpt>
      <trkpt lat="43.71284" lon="5.00411">
        <ele>152.19999694824</ele>
        <time>2021-03-06T08:39:00.000Z</time>
      </trkpt>
      <trkpt lat="43.71288" lon="5.00417">
        <ele>152</ele>
        <time>2021-03-06T08:39:04.000Z</time>
      </trkpt>
      <trkpt lat="43.71291" lon="5.00424">
        <ele>152</ele>
        <time>2021-03-06T08:39:08.000Z</time>
      </trkpt>
      <trkpt lat="43.71291" lon="5.00432">
        <ele>151.80000305176</ele>
        <time>2021-03-06T08:39:12.000Z</time>
      </trkpt>
      <trkpt lat="43.7129" lon="5.0044">
        <ele>151.80000305176</ele>
        <time>2021-03-06T08:39:16.000Z</time>
      </trkpt>
      <trkpt lat="43.71288" lon="5.00447">
        <ele>151.80000305176</ele>
        <time>2021-03-06T08:39:20.000Z</time>
      </trkpt>
      <trkpt lat="43.71286" lon="5.00452">
        <ele>151.80000305176</ele>
        <time>2021-03-06T08:39:25.000Z</time>
      </trkpt>
      <trkpt lat="43.71286" lon="5.0046">
        <ele>151.60000610352</ele>
        <time>2021-03-06T08:39:31.000Z</time>
      </trkpt>
      <trkpt lat="43.71292" lon="5.00464">
        <ele>151.39999389648</ele>
        <time>2021-03-06T08:39:35.000Z</time>
      </trkpt>
      <trkpt lat="43.71298" lon="5.00463">
        <ele>151.19999694824</ele>
        <time>2021-03-06T08:39:38.000Z</time>
      </trkpt>
      <trkpt lat="43.71304" lon="5.00461">
        <ele>151.19999694824</ele>
        <time>2021-03-06T08:39:40.000Z</time>
      </trkpt>
      <trkpt lat="43.7131" lon="5.00459">
        <ele>151</ele>
        <time>2021-03-06T08:39:43.000Z</time>
      </trkpt>
      <trkpt lat="43.71316" lon="5.00459">
        <ele>151</ele>
        <time>2021-03-06T08:39:45.000Z</time>
      </trkpt>
      <trkpt lat="43.71321" lon="5.00459">
        <ele>150.80000305176</ele>
        <time>2021-03-06T08:39:47.000Z</time>
      </trkpt>
      <trkpt lat="43.71326" lon="5.00459">
        <ele>150.60000610352</ele>
        <time>2021-03-06T08:39:49.000Z</time>
      </trkpt>
      <trkpt lat="43.71334" lon="5.00459">
        <ele>150.39999389648</ele>
        <time>2021-03-06T08:39:52.000Z</time>
      </trkpt>
      <trkpt lat="43.71339" lon="5.00459">
        <ele>150.39999389648</ele>
        <time>2021-03-06T08:39:54.000Z</time>
      </trkpt>
      <trkpt lat="43.71344" lon="5.00457">
        <ele>150.19999694824</ele>
        <time>2021-03-06T08:39:56.000Z</time>
      </trkpt>
      <trkpt lat="43.71351" lon="5.00453">
        <ele>150.19999694824</ele>
        <time>2021-03-06T08:39:59.000Z</time>
      </trkpt>
      <trkpt lat="43.71356" lon="5.00449">
        <ele>150.19999694824</ele>
        <time>2021-03-06T08:40:02.000Z</time>
      </trkpt>
      <trkpt lat="43.7136" lon="5.00445">
        <ele>150.19999694824</ele>
        <time>2021-03-06T08:40:05.000Z</time>
      </trkpt>
      <trkpt lat="43.71365" lon="5.00437">
        <ele>150.39999389648</ele>
        <time>2021-03-06T08:40:09.000Z</time>
      </trkpt>
      <trkpt lat="43.71369" lon="5.00429">
        <ele>150.60000610352</ele>
        <time>2021-03-06T08:40:12.000Z</time>
      </trkpt>
      <trkpt lat="43.71373" lon="5.00421">
        <ele>150.60000610352</ele>
        <time>2021-03-06T08:40:15.000Z</time>
      </trkpt>
      <trkpt lat="43.71377" lon="5.00413">
        <ele>150.80000305176</ele>
        <time>2021-03-06T08:40:18.000Z</time>
      </trkpt>
      <trkpt lat="43.7138" lon="5.00404">
        <ele>151</ele>
        <time>2021-03-06T08:40:21.000Z</time>
      </trkpt>
      <trkpt lat="43.71383" lon="5.00395">
        <ele>151.19999694824</ele>
        <time>2021-03-06T08:40:24.000Z</time>
      </trkpt>
      <trkpt lat="43.71385" lon="5.0039">
        <ele>151.19999694824</ele>
        <time>2021-03-06T08:40:29.000Z</time>
      </trkpt>
      <trkpt lat="43.71384" lon="5.00382">
        <ele>151.39999389648</ele>
        <time>2021-03-06T08:40:35.000Z</time>
      </trkpt>
      <trkpt lat="43.71381" lon="5.00375">
        <ele>151.60000610352</ele>
        <time>2021-03-06T08:40:39.000Z</time>
      </trkpt>
      <trkpt lat="43.7138" lon="5.00366">
        <ele>151.60000610352</ele>
        <time>2021-03-06T08:40:42.000Z</time>
      </trkpt>
      <trkpt lat="43.71378" lon="5.00357">
        <ele>151.39999389648</ele>
        <time>2021-03-06T08:40:45.000Z</time>
      </trkpt>
      <trkpt lat="43.71377" lon="5.00348">
        <ele>151.39999389648</ele>
        <time>2021-03-06T08:40:48.000Z</time>
      </trkpt>
      <trkpt lat="43.71376" lon="5.0034">
        <ele>151.39999389648</ele>
        <time>2021-03-06T08:40:51.000Z</time>
      </trkpt>
      <trkpt lat="43.71376" lon="5.00332">
        <ele>151.19999694824</ele>
        <time>2021-03-06T08:40:55.000Z</time>
      </trkpt>
      <trkpt lat="43.71381" lon="5.00325">
        <ele>151</ele>
        <time>2021-03-06T08:40:59.000Z</time>
      </trkpt>
      <trkpt lat="43.71386" lon="5.0032">
        <ele>151.19999694824</ele>
        <time>2021-03-06T08:41:02.000Z</time>
      </trkpt>
      <trkpt lat="43.71393" lon="5.00315">
        <ele>151.39999389648</ele>
        <time>2021-03-06T08:41:05.000Z</time>
      </trkpt>
      <trkpt lat="43.71398" lon="5.00314">
        <ele>151.60000610352</ele>
        <time>2021-03-06T08:41:07.000Z</time>
      </trkpt>
      <trkpt lat="43.71403" lon="5.00314">
        <ele>151.60000610352</ele>
        <time>2021-03-06T08:41:09.000Z</time>
      </trkpt>
      <trkpt lat="43.71408" lon="5.00315">
        <ele>151.80000305176</ele>
        <time>2021-03-06T08:41:11.000Z</time>
      </trkpt>
      <trkpt lat="43.71414" lon="5.00317">
        <ele>151.80000305176</ele>
        <time>2021-03-06T08:41:13.000Z</time>
      </trkpt>
      <trkpt lat="43.71421" lon="5.00316">
        <ele>152</ele>
        <time>2021-03-06T08:41:16.000Z</time>
      </trkpt>
      <trkpt lat="43.71426" lon="5.00314">
        <ele>152.19999694824</ele>
        <time>2021-03-06T08:41:18.000Z</time>
      </trkpt>
      <trkpt lat="43.71433" lon="5.00309">
        <ele>152.60000610352</ele>
        <time>2021-03-06T08:41:21.000Z</time>
      </trkpt>
      <trkpt lat="43.71437" lon="5.00304">
        <ele>152.80000305176</ele>
        <time>2021-03-06T08:41:23.000Z</time>
      </trkpt>
      <trkpt lat="43.7144" lon="5.00298">
        <ele>152.80000305176</ele>
        <time>2021-03-06T08:41:25.000Z</time>
      </trkpt>
      <trkpt lat="43.71444" lon="5.00294">
        <ele>152.60000610352</ele>
        <time>2021-03-06T08:41:27.000Z</time>
      </trkpt>
      <trkpt lat="43.7145" lon="5.00288">
        <ele>152.80000305176</ele>
        <time>2021-03-06T08:41:30.000Z</time>
      </trkpt>
      <trkpt lat="43.71455" lon="5.00284">
        <ele>153</ele>
        <time>2021-03-06T08:41:32.000Z</time>
      </trkpt>
      <trkpt lat="43.71459" lon="5.0028">
        <ele>153.19999694824</ele>
        <time>2021-03-06T08:41:34.000Z</time>
      </trkpt>
      <trkpt lat="43.71464" lon="5.00277">
        <ele>153.39999389648</ele>
        <time>2021-03-06T08:41:36.000Z</time>
      </trkpt>
      <trkpt lat="43.71469" lon="5.00274">
        <ele>153.39999389648</ele>
        <time>2021-03-06T08:41:38.000Z</time>
      </trkpt>
      <trkpt lat="43.71475" lon="5.0027">
        <ele>153.60000610352</ele>
        <time>2021-03-06T08:41:41.000Z</time>
      </trkpt>
      <trkpt lat="43.71479" lon="5.00266">
        <ele>153.80000305176</ele>
        <time>2021-03-06T08:41:45.000Z</time>
      </trkpt>
      <trkpt lat="43.71481" lon="5.00256">
        <ele>154.80000305176</ele>
        <time>2021-03-06T08:41:50.000Z</time>
      </trkpt>
      <trkpt lat="43.71485" lon="5.00251">
        <ele>154.80000305176</ele>
        <time>2021-03-06T08:41:54.000Z</time>
      </trkpt>
      <trkpt lat="43.71492" lon="5.00249">
        <ele>154.19999694824</ele>
        <time>2021-03-06T08:41:58.000Z</time>
      </trkpt>
      <trkpt lat="43.71498" lon="5.00247">
        <ele>153.60000610352</ele>
        <time>2021-03-06T08:42:01.000Z</time>
      </trkpt>
      <trkpt lat="43.71503" lon="5.00242">
        <ele>153.19999694824</ele>
        <time>2021-03-06T08:42:04.000Z</time>
      </trkpt>
      <trkpt lat="43.71509" lon="5.00235">
        <ele>153</ele>
        <time>2021-03-06T08:42:07.000Z</time>
      </trkpt>
      <trkpt lat="43.71512" lon="5.0023">
        <ele>152.80000305176</ele>
        <time>2021-03-06T08:42:09.000Z</time>
      </trkpt>
      <trkpt lat="43.71514" lon="5.00224">
        <ele>152.80000305176</ele>
        <time>2021-03-06T08:42:11.000Z</time>
      </trkpt>
      <trkpt lat="43.71518" lon="5.00216">
        <ele>153</ele>
        <time>2021-03-06T08:42:14.000Z</time>
      </trkpt>
      <trkpt lat="43.71521" lon="5.00208">
        <ele>153</ele>
        <time>2021-03-06T08:42:17.000Z</time>
      </trkpt>
      <trkpt lat="43.71525" lon="5.002">
        <ele>153.60000610352</ele>
        <time>2021-03-06T08:42:20.000Z</time>
      </trkpt>
      <trkpt lat="43.71529" lon="5.00193">
        <ele>154.19999694824</ele>
        <time>2021-03-06T08:42:23.000Z</time>
      </trkpt>
      <trkpt lat="43.71534" lon="5.00187">
        <ele>154.80000305176</ele>
        <time>2021-03-06T08:42:26.000Z</time>
      </trkpt>
      <trkpt lat="43.71538" lon="5.0018">
        <ele>155.39999389648</ele>
        <time>2021-03-06T08:42:29.000Z</time>
      </trkpt>
      <trkpt lat="43.71542" lon="5.00172">
        <ele>156</ele>
        <time>2021-03-06T08:42:32.000Z</time>
      </trkpt>
      <trkpt lat="43.71544" lon="5.00163">
        <ele>156.80000305176</ele>
        <time>2021-03-06T08:42:35.000Z</time>
      </trkpt>
      <trkpt lat="43.71548" lon="5.00155">
        <ele>157.60000610352</ele>
        <time>2021-03-06T08:42:38.000Z</time>
      </trkpt>
      <trkpt lat="43.71551" lon="5.00149">
        <ele>157.80000305176</ele>
        <time>2021-03-06T08:42:40.000Z</time>
      </trkpt>
      <trkpt lat="43.71555" lon="5.00142">
        <ele>157.80000305176</ele>
        <time>2021-03-06T08:42:43.000Z</time>
      </trkpt>
      <trkpt lat="43.71559" lon="5.00137">
        <ele>158</ele>
        <time>2021-03-06T08:42:45.000Z</time>
      </trkpt>
      <trkpt lat="43.71563" lon="5.00133">
        <ele>158</ele>
        <time>2021-03-06T08:42:47.000Z</time>
      </trkpt>
      <trkpt lat="43.71568" lon="5.00127">
        <ele>158</ele>
        <time>2021-03-06T08:42:50.000Z</time>
      </trkpt>
      <trkpt lat="43.71574" lon="5.00122">
        <ele>158.19999694824</ele>
        <time>2021-03-06T08:42:53.000Z</time>
      </trkpt>
      <trkpt lat="43.71578" lon="5.00119">
        <ele>158.39999389648</ele>
        <time>2021-03-06T08:42:55.000Z</time>
      </trkpt>
      <trkpt lat="43.71584" lon="5.00115">
        <ele>158.60000610352</ele>
        <time>2021-03-06T08:42:58.000Z</time>
      </trkpt>
      <trkpt lat="43.71591" lon="5.00111">
        <ele>158.80000305176</ele>
        <time>2021-03-06T08:43:01.000Z</time>
      </trkpt>
      <trkpt lat="43.71597" lon="5.00107">
        <ele>158.60000610352</ele>
        <time>2021-03-06T08:43:04.000Z</time>
      </trkpt>
      <trkpt lat="43.71602" lon="5.00105">
        <ele>158.60000610352</ele>
        <time>2021-03-06T08:43:06.000Z</time>
      </trkpt>
      <trkpt lat="43.71609" lon="5.00103">
        <ele>158.60000610352</ele>
        <time>2021-03-06T08:43:09.000Z</time>
      </trkpt>
      <trkpt lat="43.71614" lon="5.00103">
        <ele>158.60000610352</ele>
        <time>2021-03-06T08:43:11.000Z</time>
      </trkpt>
      <trkpt lat="43.71621" lon="5.00104">
        <ele>158.60000610352</ele>
        <time>2021-03-06T08:43:14.000Z</time>
      </trkpt>
      <trkpt lat="43.71629" lon="5.00106">
        <ele>158.39999389648</ele>
        <time>2021-03-06T08:43:17.000Z</time>
      </trkpt>
      <trkpt lat="43.71636" lon="5.00108">
        <ele>158</ele>
        <time>2021-03-06T08:43:20.000Z</time>
      </trkpt>
      <trkpt lat="43.71641" lon="5.0011">
        <ele>157.80000305176</ele>
        <time>2021-03-06T08:43:22.000Z</time>
      </trkpt>
      <trkpt lat="43.71646" lon="5.00112">
        <ele>157.60000610352</ele>
        <time>2021-03-06T08:43:24.000Z</time>
      </trkpt>
      <trkpt lat="43.71652" lon="5.00113">
        <ele>157.39999389648</ele>
        <time>2021-03-06T08:43:26.000Z</time>
      </trkpt>
      <trkpt lat="43.71658" lon="5.00114">
        <ele>157.39999389648</ele>
        <time>2021-03-06T08:43:28.000Z</time>
      </trkpt>
      <trkpt lat="43.71664" lon="5.00113">
        <ele>157.39999389648</ele>
        <time>2021-03-06T08:43:31.000Z</time>
      </trkpt>
      <trkpt lat="43.7167" lon="5.00114">
        <ele>157.39999389648</ele>
        <time>2021-03-06T08:43:34.000Z</time>
      </trkpt>
      <trkpt lat="43.71677" lon="5.00114">
        <ele>157.19999694824</ele>
        <time>2021-03-06T08:43:37.000Z</time>
      </trkpt>
      <trkpt lat="43.71684" lon="5.00114">
        <ele>157.39999389648</ele>
        <time>2021-03-06T08:43:40.000Z</time>
      </trkpt>
      <trkpt lat="43.71691" lon="5.00114">
        <ele>157.60000610352</ele>
        <time>2021-03-06T08:43:43.000Z</time>
      </trkpt>
      <trkpt lat="43.71698" lon="5.00114">
        <ele>157.80000305176</ele>
        <time>2021-03-06T08:43:46.000Z</time>
      </trkpt>
      <trkpt lat="43.71703" lon="5.00114">
        <ele>158</ele>
        <time>2021-03-06T08:43:48.000Z</time>
      </trkpt>
      <trkpt lat="43.71711" lon="5.00115">
        <ele>158</ele>
        <time>2021-03-06T08:43:51.000Z</time>
      </trkpt>
      <trkpt lat="43.71715" lon="5.00115">
        <ele>158</ele>
        <time>2021-03-06T08:43:53.000Z</time>
      </trkpt>
      <trkpt lat="43.71723" lon="5.00117">
        <ele>158</ele>
        <time>2021-03-06T08:43:56.000Z</time>
      </trkpt>
      <trkpt lat="43.71729" lon="5.00118">
        <ele>158</ele>
        <time>2021-03-06T08:43:59.000Z</time>
      </trkpt>
      <trkpt lat="43.71735" lon="5.00118">
        <ele>158.19999694824</ele>
        <time>2021-03-06T08:44:01.000Z</time>
      </trkpt>
      <trkpt lat="43.71742" lon="5.00118">
        <ele>158.19999694824</ele>
        <time>2021-03-06T08:44:04.000Z</time>
      </trkpt>
      <trkpt lat="43.71748" lon="5.00121">
        <ele>158</ele>
        <time>2021-03-06T08:44:07.000Z</time>
      </trkpt>
      <trkpt lat="43.71754" lon="5.00124">
        <ele>157.80000305176</ele>
        <time>2021-03-06T08:44:10.000Z</time>
      </trkpt>
      <trkpt lat="43.71761" lon="5.00129">
        <ele>157.60000610352</ele>
        <time>2021-03-06T08:44:13.000Z</time>
      </trkpt>
      <trkpt lat="43.71767" lon="5.00135">
        <ele>157.19999694824</ele>
        <time>2021-03-06T08:44:16.000Z</time>
      </trkpt>
      <trkpt lat="43.7177" lon="5.00141">
        <ele>156.80000305176</ele>
        <time>2021-03-06T08:44:18.000Z</time>
      </trkpt>
      <trkpt lat="43.71772" lon="5.00147">
        <ele>156.39999389648</ele>
        <time>2021-03-06T08:44:20.000Z</time>
      </trkpt>
      <trkpt lat="43.71774" lon="5.00158">
        <ele>155.80000305176</ele>
        <time>2021-03-06T08:44:23.000Z</time>
      </trkpt>
      <trkpt lat="43.71775" lon="5.00166">
        <ele>155.39999389648</ele>
        <time>2021-03-06T08:44:25.000Z</time>
      </trkpt>
      <trkpt lat="43.71776" lon="5.00173">
        <ele>154.80000305176</ele>
        <time>2021-03-06T08:44:27.000Z</time>
      </trkpt>
      <trkpt lat="43.71777" lon="5.00181">
        <ele>154.39999389648</ele>
        <time>2021-03-06T08:44:29.000Z</time>
      </trkpt>
      <trkpt lat="43.71776" lon="5.00188">
        <ele>153.80000305176</ele>
        <time>2021-03-06T08:44:31.000Z</time>
      </trkpt>
      <trkpt lat="43.71776" lon="5.00197">
        <ele>153.19999694824</ele>
        <time>2021-03-06T08:44:34.000Z</time>
      </trkpt>
      <trkpt lat="43.71778" lon="5.00207">
        <ele>152.60000610352</ele>
        <time>2021-03-06T08:44:37.000Z</time>
      </trkpt>
      <trkpt lat="43.71778" lon="5.00214">
        <ele>152.39999389648</ele>
        <time>2021-03-06T08:44:39.000Z</time>
      </trkpt>
      <trkpt lat="43.7178" lon="5.0022">
        <ele>152.39999389648</ele>
        <time>2021-03-06T08:44:41.000Z</time>
      </trkpt>
      <trkpt lat="43.71781" lon="5.00226">
        <ele>152.19999694824</ele>
        <time>2021-03-06T08:44:45.000Z</time>
      </trkpt>
      <trkpt lat="43.71777" lon="5.00232">
        <ele>152</ele>
        <time>2021-03-06T08:44:51.000Z</time>
      </trkpt>
      <trkpt lat="43.71777" lon="5.00242">
        <ele>151.80000305176</ele>
        <time>2021-03-06T08:44:55.000Z</time>
      </trkpt>
      <trkpt lat="43.71778" lon="5.00252">
        <ele>151.80000305176</ele>
        <time>2021-03-06T08:44:58.000Z</time>
      </trkpt>
      <trkpt lat="43.7178" lon="5.00258">
        <ele>151.80000305176</ele>
        <time>2021-03-06T08:45:00.000Z</time>
      </trkpt>
      <trkpt lat="43.71781" lon="5.00268">
        <ele>151.80000305176</ele>
        <time>2021-03-06T08:45:03.000Z</time>
      </trkpt>
      <trkpt lat="43.71784" lon="5.00278">
        <ele>151.80000305176</ele>
        <time>2021-03-06T08:45:06.000Z</time>
      </trkpt>
      <trkpt lat="43.71786" lon="5.00284">
        <ele>151.80000305176</ele>
        <time>2021-03-06T08:45:08.000Z</time>
      </trkpt>
      <trkpt lat="43.71792" lon="5.00289">
        <ele>152</ele>
        <time>2021-03-06T08:45:11.000Z</time>
      </trkpt>
      <trkpt lat="43.71799" lon="5.00289">
        <ele>152.39999389648</ele>
        <time>2021-03-06T08:45:14.000Z</time>
      </trkpt>
      <trkpt lat="43.71805" lon="5.00285">
        <ele>152.80000305176</ele>
        <time>2021-03-06T08:45:17.000Z</time>
      </trkpt>
      <trkpt lat="43.7181" lon="5.00279">
        <ele>153</ele>
        <time>2021-03-06T08:45:20.000Z</time>
      </trkpt>
      <trkpt lat="43.71814" lon="5.00272">
        <ele>153.39999389648</ele>
        <time>2021-03-06T08:45:23.000Z</time>
      </trkpt>
      <trkpt lat="43.71818" lon="5.00264">
        <ele>153.60000610352</ele>
        <time>2021-03-06T08:45:26.000Z</time>
      </trkpt>
      <trkpt lat="43.71821" lon="5.00255">
        <ele>154</ele>
        <time>2021-03-06T08:45:29.000Z</time>
      </trkpt>
      <trkpt lat="43.71823" lon="5.00249">
        <ele>154.19999694824</ele>
        <time>2021-03-06T08:45:31.000Z</time>
      </trkpt>
      <trkpt lat="43.71826" lon="5.00239">
        <ele>154.60000610352</ele>
        <time>2021-03-06T08:45:34.000Z</time>
      </trkpt>
      <trkpt lat="43.71828" lon="5.00233">
        <ele>154.80000305176</ele>
        <time>2021-03-06T08:45:36.000Z</time>
      </trkpt>
      <trkpt lat="43.7183" lon="5.00223">
        <ele>155.19999694824</ele>
        <time>2021-03-06T08:45:39.000Z</time>
      </trkpt>
      <trkpt lat="43.71832" lon="5.00212">
        <ele>155.60000610352</ele>
        <time>2021-03-06T08:45:42.000Z</time>
      </trkpt>
      <trkpt lat="43.71833" lon="5.00205">
        <ele>156</ele>
        <time>2021-03-06T08:45:44.000Z</time>
      </trkpt>
      <trkpt lat="43.71835" lon="5.00198">
        <ele>156.60000610352</ele>
        <time>2021-03-06T08:45:46.000Z</time>
      </trkpt>
      <trkpt lat="43.71837" lon="5.00188">
        <ele>157.19999694824</ele>
        <time>2021-03-06T08:45:49.000Z</time>
      </trkpt>
      <trkpt lat="43.71838" lon="5.00181">
        <ele>157.39999389648</ele>
        <time>2021-03-06T08:45:51.000Z</time>
      </trkpt>
      <trkpt lat="43.71839" lon="5.00171">
        <ele>157.80000305176</ele>
        <time>2021-03-06T08:45:54.000Z</time>
      </trkpt>
      <trkpt lat="43.7184" lon="5.00164">
        <ele>157.80000305176</ele>
        <time>2021-03-06T08:45:56.000Z</time>
      </trkpt>
      <trkpt lat="43.71841" lon="5.00157">
        <ele>158</ele>
        <time>2021-03-06T08:45:58.000Z</time>
      </trkpt>
      <trkpt lat="43.71841" lon="5.00149">
        <ele>158.19999694824</ele>
        <time>2021-03-06T08:46:00.000Z</time>
      </trkpt>
      <trkpt lat="43.71842" lon="5.00141">
        <ele>158.39999389648</ele>
        <time>2021-03-06T08:46:02.000Z</time>
      </trkpt>
      <trkpt lat="43.71844" lon="5.00133">
        <ele>158.60000610352</ele>
        <time>2021-03-06T08:46:04.000Z</time>
      </trkpt>
      <trkpt lat="43.71845" lon="5.00126">
        <ele>158.80000305176</ele>
        <time>2021-03-06T08:46:06.000Z</time>
      </trkpt>
      <trkpt lat="43.71847" lon="5.00119">
        <ele>159.80000305176</ele>
        <time>2021-03-06T08:46:08.000Z</time>
      </trkpt>
      <trkpt lat="43.71848" lon="5.00112">
        <ele>160.19999694824</ele>
        <time>2021-03-06T08:46:10.000Z</time>
      </trkpt>
      <trkpt lat="43.7185" lon="5.00105">
        <ele>160.80000305176</ele>
        <time>2021-03-06T08:46:12.000Z</time>
      </trkpt>
      <trkpt lat="43.71852" lon="5.00095">
        <ele>161.60000610352</ele>
        <time>2021-03-06T08:46:15.000Z</time>
      </trkpt>
      <trkpt lat="43.71853" lon="5.00088">
        <ele>162.19999694824</ele>
        <time>2021-03-06T08:46:17.000Z</time>
      </trkpt>
      <trkpt lat="43.71855" lon="5.00081">
        <ele>162.60000610352</ele>
        <time>2021-03-06T08:46:19.000Z</time>
      </trkpt>
      <trkpt lat="43.71857" lon="5.00075">
        <ele>163</ele>
        <time>2021-03-06T08:46:21.000Z</time>
      </trkpt>
      <trkpt lat="43.7186" lon="5.00067">
        <ele>163.80000305176</ele>
        <time>2021-03-06T08:46:24.000Z</time>
      </trkpt>
      <trkpt lat="43.71863" lon="5.00058">
        <ele>164.39999389648</ele>
        <time>2021-03-06T08:46:27.000Z</time>
      </trkpt>
      <trkpt lat="43.71867" lon="5.0005">
        <ele>164.80000305176</ele>
        <time>2021-03-06T08:46:30.000Z</time>
      </trkpt>
      <trkpt lat="43.7187" lon="5.00043">
        <ele>165</ele>
        <time>2021-03-06T08:46:32.000Z</time>
      </trkpt>
      <trkpt lat="43.71874" lon="5.00034">
        <ele>165.39999389648</ele>
        <time>2021-03-06T08:46:35.000Z</time>
      </trkpt>
      <trkpt lat="43.71877" lon="5.00028">
        <ele>165.80000305176</ele>
        <time>2021-03-06T08:46:37.000Z</time>
      </trkpt>
      <trkpt lat="43.7188" lon="5.00022">
        <ele>166</ele>
        <time>2021-03-06T08:46:39.000Z</time>
      </trkpt>
      <trkpt lat="43.71885" lon="5.00013">
        <ele>166.39999389648</ele>
        <time>2021-03-06T08:46:42.000Z</time>
      </trkpt>
      <trkpt lat="43.71889" lon="5.00008">
        <ele>166.80000305176</ele>
        <time>2021-03-06T08:46:44.000Z</time>
      </trkpt>
      <trkpt lat="43.71892" lon="5.00002">
        <ele>167</ele>
        <time>2021-03-06T08:46:46.000Z</time>
      </trkpt>
      <trkpt lat="43.71895" lon="4.99996">
        <ele>167.19999694824</ele>
        <time>2021-03-06T08:46:48.000Z</time>
      </trkpt>
      <trkpt lat="43.71898" lon="4.99991">
        <ele>167</ele>
        <time>2021-03-06T08:46:50.000Z</time>
      </trkpt>
      <trkpt lat="43.71902" lon="4.99983">
        <ele>166.80000305176</ele>
        <time>2021-03-06T08:46:53.000Z</time>
      </trkpt>
      <trkpt lat="43.71907" lon="4.99975">
        <ele>166.60000610352</ele>
        <time>2021-03-06T08:46:56.000Z</time>
      </trkpt>
      <trkpt lat="43.7191" lon="4.99969">
        <ele>166.39999389648</ele>
        <time>2021-03-06T08:46:58.000Z</time>
      </trkpt>
      <trkpt lat="43.71914" lon="4.99964">
        <ele>166.19999694824</ele>
        <time>2021-03-06T08:47:00.000Z</time>
      </trkpt>
      <trkpt lat="43.71919" lon="4.99955">
        <ele>170.39999389648</ele>
        <time>2021-03-06T08:47:03.000Z</time>
      </trkpt>
      <trkpt lat="43.71922" lon="4.99949">
        <ele>170.60000610352</ele>
        <time>2021-03-06T08:47:05.000Z</time>
      </trkpt>
      <trkpt lat="43.71925" lon="4.99943">
        <ele>170.80000305176</ele>
        <time>2021-03-06T08:47:07.000Z</time>
      </trkpt>
      <trkpt lat="43.71928" lon="4.99937">
        <ele>171</ele>
        <time>2021-03-06T08:47:09.000Z</time>
      </trkpt>
      <trkpt lat="43.71934" lon="4.9993">
        <ele>171.39999389648</ele>
        <time>2021-03-06T08:47:12.000Z</time>
      </trkpt>
      <trkpt lat="43.71938" lon="4.99922">
        <ele>172</ele>
        <time>2021-03-06T08:47:15.000Z</time>
      </trkpt>
      <trkpt lat="43.71941" lon="4.99916">
        <ele>172.60000610352</ele>
        <time>2021-03-06T08:47:17.000Z</time>
      </trkpt>
      <trkpt lat="43.71944" lon="4.9991">
        <ele>173.19999694824</ele>
        <time>2021-03-06T08:47:19.000Z</time>
      </trkpt>
      <trkpt lat="43.71947" lon="4.99905">
        <ele>173.80000305176</ele>
        <time>2021-03-06T08:47:21.000Z</time>
      </trkpt>
      <trkpt lat="43.71953" lon="4.99896">
        <ele>174.80000305176</ele>
        <time>2021-03-06T08:47:24.000Z</time>
      </trkpt>
      <trkpt lat="43.71956" lon="4.9989">
        <ele>175.19999694824</ele>
        <time>2021-03-06T08:47:26.000Z</time>
      </trkpt>
      <trkpt lat="43.71959" lon="4.99884">
        <ele>175.19999694824</ele>
        <time>2021-03-06T08:47:28.000Z</time>
      </trkpt>
      <trkpt lat="43.71962" lon="4.99879">
        <ele>175.19999694824</ele>
        <time>2021-03-06T08:47:30.000Z</time>
      </trkpt>
      <trkpt lat="43.71965" lon="4.99873">
        <ele>175.39999389648</ele>
        <time>2021-03-06T08:47:32.000Z</time>
      </trkpt>
      <trkpt lat="43.71971" lon="4.99865">
        <ele>175.39999389648</ele>
        <time>2021-03-06T08:47:35.000Z</time>
      </trkpt>
      <trkpt lat="43.71973" lon="4.9986">
        <ele>175.60000610352</ele>
        <time>2021-03-06T08:47:37.000Z</time>
      </trkpt>
      <trkpt lat="43.71977" lon="4.99852">
        <ele>175.80000305176</ele>
        <time>2021-03-06T08:47:40.000Z</time>
      </trkpt>
      <trkpt lat="43.7198" lon="4.99843">
        <ele>176</ele>
        <time>2021-03-06T08:47:43.000Z</time>
      </trkpt>
      <trkpt lat="43.71983" lon="4.99835">
        <ele>176.19999694824</ele>
        <time>2021-03-06T08:47:46.000Z</time>
      </trkpt>
      <trkpt lat="43.71987" lon="4.99827">
        <ele>176.19999694824</ele>
        <time>2021-03-06T08:47:49.000Z</time>
      </trkpt>
      <trkpt lat="43.71991" lon="4.99817">
        <ele>176.60000610352</ele>
        <time>2021-03-06T08:47:53.000Z</time>
      </trkpt>
      <trkpt lat="43.71987" lon="4.9981">
        <ele>177.19999694824</ele>
        <time>2021-03-06T08:47:56.000Z</time>
      </trkpt>
      <trkpt lat="43.71982" lon="4.99803">
        <ele>177.80000305176</ele>
        <time>2021-03-06T08:47:59.000Z</time>
      </trkpt>
      <trkpt lat="43.7198" lon="4.99793">
        <ele>178.39999389648</ele>
        <time>2021-03-06T08:48:02.000Z</time>
      </trkpt>
      <trkpt lat="43.7198" lon="4.99783">
        <ele>178.80000305176</ele>
        <time>2021-03-06T08:48:05.000Z</time>
      </trkpt>
      <trkpt lat="43.7198" lon="4.99776">
        <ele>179.19999694824</ele>
        <time>2021-03-06T08:48:07.000Z</time>
      </trkpt>
      <trkpt lat="43.7198" lon="4.99766">
        <ele>179.60000610352</ele>
        <time>2021-03-06T08:48:10.000Z</time>
      </trkpt>
      <trkpt lat="43.7198" lon="4.99757">
        <ele>180</ele>
        <time>2021-03-06T08:48:13.000Z</time>
      </trkpt>
      <trkpt lat="43.71982" lon="4.99748">
        <ele>180.39999389648</ele>
        <time>2021-03-06T08:48:16.000Z</time>
      </trkpt>
      <trkpt lat="43.71985" lon="4.99738">
        <ele>180.60000610352</ele>
        <time>2021-03-06T08:48:19.000Z</time>
      </trkpt>
      <trkpt lat="43.71987" lon="4.99731">
        <ele>181</ele>
        <time>2021-03-06T08:48:21.000Z</time>
      </trkpt>
      <trkpt lat="43.71988" lon="4.99724">
        <ele>181.19999694824</ele>
        <time>2021-03-06T08:48:23.000Z</time>
      </trkpt>
      <trkpt lat="43.71989" lon="4.99717">
        <ele>181.39999389648</ele>
        <time>2021-03-06T08:48:25.000Z</time>
      </trkpt>
      <trkpt lat="43.71991" lon="4.99708">
        <ele>181.80000305176</ele>
        <time>2021-03-06T08:48:28.000Z</time>
      </trkpt>
      <trkpt lat="43.71993" lon="4.99698">
        <ele>182.19999694824</ele>
        <time>2021-03-06T08:48:31.000Z</time>
      </trkpt>
      <trkpt lat="43.71995" lon="4.9969">
        <ele>182.60000610352</ele>
        <time>2021-03-06T08:48:34.000Z</time>
      </trkpt>
      <trkpt lat="43.71997" lon="4.99681">
        <ele>183</ele>
        <time>2021-03-06T08:48:37.000Z</time>
      </trkpt>
      <trkpt lat="43.71997" lon="4.99674">
        <ele>183.39999389648</ele>
        <time>2021-03-06T08:48:40.000Z</time>
      </trkpt>
      <trkpt lat="43.71995" lon="4.99667">
        <ele>184</ele>
        <time>2021-03-06T08:48:43.000Z</time>
      </trkpt>
      <trkpt lat="43.71994" lon="4.9966">
        <ele>184.39999389648</ele>
        <time>2021-03-06T08:48:47.000Z</time>
      </trkpt>
      <trkpt lat="43.71993" lon="4.99654">
        <ele>184.80000305176</ele>
        <time>2021-03-06T08:48:54.000Z</time>
      </trkpt>
      <trkpt lat="43.71996" lon="4.99647">
        <ele>185.19999694824</ele>
        <time>2021-03-06T08:49:00.000Z</time>
      </trkpt>
      <trkpt lat="43.71999" lon="4.9964">
        <ele>185.39999389648</ele>
        <time>2021-03-06T08:49:04.000Z</time>
      </trkpt>
      <trkpt lat="43.72001" lon="4.99633">
        <ele>185.60000610352</ele>
        <time>2021-03-06T08:49:07.000Z</time>
      </trkpt>
      <trkpt lat="43.72002" lon="4.99624">
        <ele>186.19999694824</ele>
        <time>2021-03-06T08:49:10.000Z</time>
      </trkpt>
      <trkpt lat="43.72004" lon="4.99614">
        <ele>186.39999389648</ele>
        <time>2021-03-06T08:49:13.000Z</time>
      </trkpt>
      <trkpt lat="43.72007" lon="4.99606">
        <ele>186.80000305176</ele>
        <time>2021-03-06T08:49:16.000Z</time>
      </trkpt>
      <trkpt lat="43.72012" lon="4.99597">
        <ele>187.39999389648</ele>
        <time>2021-03-06T08:49:19.000Z</time>
      </trkpt>
      <trkpt lat="43.72014" lon="4.99591">
        <ele>187.60000610352</ele>
        <time>2021-03-06T08:49:21.000Z</time>
      </trkpt>
      <trkpt lat="43.72018" lon="4.99584">
        <ele>188</ele>
        <time>2021-03-06T08:49:23.000Z</time>
      </trkpt>
      <trkpt lat="43.72022" lon="4.99579">
        <ele>188.19999694824</ele>
        <time>2021-03-06T08:49:25.000Z</time>
      </trkpt>
      <trkpt lat="43.72026" lon="4.99573">
        <ele>188.39999389648</ele>
        <time>2021-03-06T08:49:27.000Z</time>
      </trkpt>
      <trkpt lat="43.7203" lon="4.99569">
        <ele>188.60000610352</ele>
        <time>2021-03-06T08:49:29.000Z</time>
      </trkpt>
      <trkpt lat="43.72035" lon="4.99566">
        <ele>188.60000610352</ele>
        <time>2021-03-06T08:49:31.000Z</time>
      </trkpt>
      <trkpt lat="43.7204" lon="4.99564">
        <ele>188.39999389648</ele>
        <time>2021-03-06T08:49:33.000Z</time>
      </trkpt>
      <trkpt lat="43.72046" lon="4.99562">
        <ele>188.39999389648</ele>
        <time>2021-03-06T08:49:35.000Z</time>
      </trkpt>
      <trkpt lat="43.7205" lon="4.9956">
        <ele>188.39999389648</ele>
        <time>2021-03-06T08:49:37.000Z</time>
      </trkpt>
      <trkpt lat="43.72055" lon="4.99554">
        <ele>188.80000305176</ele>
        <time>2021-03-06T08:49:40.000Z</time>
      </trkpt>
      <trkpt lat="43.72058" lon="4.99545">
        <ele>189.39999389648</ele>
        <time>2021-03-06T08:49:43.000Z</time>
      </trkpt>
      <trkpt lat="43.72058" lon="4.99537">
        <ele>190</ele>
        <time>2021-03-06T08:49:46.000Z</time>
      </trkpt>
      <trkpt lat="43.72058" lon="4.99529">
        <ele>190.60000610352</ele>
        <time>2021-03-06T08:49:49.000Z</time>
      </trkpt>
      <trkpt lat="43.72058" lon="4.99521">
        <ele>191</ele>
        <time>2021-03-06T08:49:52.000Z</time>
      </trkpt>
      <trkpt lat="43.72058" lon="4.99513">
        <ele>191.60000610352</ele>
        <time>2021-03-06T08:49:55.000Z</time>
      </trkpt>
      <trkpt lat="43.72059" lon="4.99507">
        <ele>192</ele>
        <time>2021-03-06T08:49:58.000Z</time>
      </trkpt>
      <trkpt lat="43.72059" lon="4.995">
        <ele>192.60000610352</ele>
        <time>2021-03-06T08:50:02.000Z</time>
      </trkpt>
      <trkpt lat="43.72058" lon="4.99492">
        <ele>193</ele>
        <time>2021-03-06T08:50:06.000Z</time>
      </trkpt>
      <trkpt lat="43.72057" lon="4.99484">
        <ele>193.39999389648</ele>
        <time>2021-03-06T08:50:10.000Z</time>
      </trkpt>
      <trkpt lat="43.72057" lon="4.99477">
        <ele>193.80000305176</ele>
        <time>2021-03-06T08:50:14.000Z</time>
      </trkpt>
      <trkpt lat="43.72055" lon="4.99469">
        <ele>194</ele>
        <time>2021-03-06T08:50:18.000Z</time>
      </trkpt>
      <trkpt lat="43.72053" lon="4.99463">
        <ele>194.39999389648</ele>
        <time>2021-03-06T08:50:22.000Z</time>
      </trkpt>
      <trkpt lat="43.72052" lon="4.99455">
        <ele>195</ele>
        <time>2021-03-06T08:50:27.000Z</time>
      </trkpt>
      <trkpt lat="43.72051" lon="4.99447">
        <ele>196</ele>
        <time>2021-03-06T08:50:32.000Z</time>
      </trkpt>
      <trkpt lat="43.72049" lon="4.9944">
        <ele>196.80000305176</ele>
        <time>2021-03-06T08:50:36.000Z</time>
      </trkpt>
      <trkpt lat="43.72048" lon="4.99434">
        <ele>197.60000610352</ele>
        <time>2021-03-06T08:50:40.000Z</time>
      </trkpt>
      <trkpt lat="43.72046" lon="4.99426">
        <ele>198.60000610352</ele>
        <time>2021-03-06T08:50:45.000Z</time>
      </trkpt>
      <trkpt lat="43.72044" lon="4.9942">
        <ele>199.39999389648</ele>
        <time>2021-03-06T08:50:49.000Z</time>
      </trkpt>
      <trkpt lat="43.72042" lon="4.99413">
        <ele>200.39999389648</ele>
        <time>2021-03-06T08:50:54.000Z</time>
      </trkpt>
      <trkpt lat="43.72037" lon="4.99404">
        <ele>201.60000610352</ele>
        <time>2021-03-06T08:50:59.000Z</time>
      </trkpt>
      <trkpt lat="43.72035" lon="4.99397">
        <ele>202.60000610352</ele>
        <time>2021-03-06T08:51:02.000Z</time>
      </trkpt>
      <trkpt lat="43.72033" lon="4.9939">
        <ele>203.39999389648</ele>
        <time>2021-03-06T08:51:05.000Z</time>
      </trkpt>
      <trkpt lat="43.72031" lon="4.99384">
        <ele>204</ele>
        <time>2021-03-06T08:51:08.000Z</time>
      </trkpt>
      <trkpt lat="43.72029" lon="4.99378">
        <ele>204.60000610352</ele>
        <time>2021-03-06T08:51:13.000Z</time>
      </trkpt>
      <trkpt lat="43.72026" lon="4.99374">
        <ele>205.19999694824</ele>
        <time>2021-03-06T08:51:20.000Z</time>
      </trkpt>
      <trkpt lat="43.7202" lon="4.99369">
        <ele>206.19999694824</ele>
        <time>2021-03-06T08:51:30.000Z</time>
      </trkpt>
      <trkpt lat="43.72016" lon="4.99364">
        <ele>206.60000610352</ele>
        <time>2021-03-06T08:51:34.000Z</time>
      </trkpt>
      <trkpt lat="43.72014" lon="4.99357">
        <ele>207</ele>
        <time>2021-03-06T08:51:38.000Z</time>
      </trkpt>
      <trkpt lat="43.72011" lon="4.99351">
        <ele>207.60000610352</ele>
        <time>2021-03-06T08:51:42.000Z</time>
      </trkpt>
      <trkpt lat="43.72008" lon="4.99344">
        <ele>208</ele>
        <time>2021-03-06T08:51:46.000Z</time>
      </trkpt>
      <trkpt lat="43.72006" lon="4.99336">
        <ele>208.39999389648</ele>
        <time>2021-03-06T08:51:50.000Z</time>
      </trkpt>
      <trkpt lat="43.72005" lon="4.99329">
        <ele>208.80000305176</ele>
        <time>2021-03-06T08:51:54.000Z</time>
      </trkpt>
      <trkpt lat="43.72004" lon="4.99322">
        <ele>209</ele>
        <time>2021-03-06T08:51:58.000Z</time>
      </trkpt>
      <trkpt lat="43.72002" lon="4.99314">
        <ele>209.39999389648</ele>
        <time>2021-03-06T08:52:02.000Z</time>
      </trkpt>
      <trkpt lat="43.71999" lon="4.99308">
        <ele>209.80000305176</ele>
        <time>2021-03-06T08:52:06.000Z</time>
      </trkpt>
      <trkpt lat="43.71995" lon="4.99303">
        <ele>210.39999389648</ele>
        <time>2021-03-06T08:52:10.000Z</time>
      </trkpt>
      <trkpt lat="43.71992" lon="4.99298">
        <ele>210.80000305176</ele>
        <time>2021-03-06T08:52:14.000Z</time>
      </trkpt>
      <trkpt lat="43.71992" lon="4.9929">
        <ele>211.19999694824</ele>
        <time>2021-03-06T08:52:19.000Z</time>
      </trkpt>
      <trkpt lat="43.71989" lon="4.99285">
        <ele>212.39999389648</ele>
        <time>2021-03-06T08:52:25.000Z</time>
      </trkpt>
      <trkpt lat="43.71985" lon="4.99279">
        <ele>213.80000305176</ele>
        <time>2021-03-06T08:52:29.000Z</time>
      </trkpt>
      <trkpt lat="43.71982" lon="4.99273">
        <ele>215.39999389648</ele>
        <time>2021-03-06T08:52:33.000Z</time>
      </trkpt>
      <trkpt lat="43.71979" lon="4.99267">
        <ele>216.60000610352</ele>
        <time>2021-03-06T08:52:37.000Z</time>
      </trkpt>
      <trkpt lat="43.71976" lon="4.9926">
        <ele>218</ele>
        <time>2021-03-06T08:52:40.000Z</time>
      </trkpt>
      <trkpt lat="43.71974" lon="4.99251">
        <ele>219.80000305176</ele>
        <time>2021-03-06T08:52:43.000Z</time>
      </trkpt>
      <trkpt lat="43.71974" lon="4.99242">
        <ele>221</ele>
        <time>2021-03-06T08:52:46.000Z</time>
      </trkpt>
      <trkpt lat="43.71976" lon="4.99233">
        <ele>221</ele>
        <time>2021-03-06T08:52:49.000Z</time>
      </trkpt>
      <trkpt lat="43.71978" lon="4.99222">
        <ele>220.80000305176</ele>
        <time>2021-03-06T08:52:52.000Z</time>
      </trkpt>
      <trkpt lat="43.7198" lon="4.99216">
        <ele>220.80000305176</ele>
        <time>2021-03-06T08:52:54.000Z</time>
      </trkpt>
      <trkpt lat="43.71981" lon="4.99209">
        <ele>220.80000305176</ele>
        <time>2021-03-06T08:52:56.000Z</time>
      </trkpt>
      <trkpt lat="43.71983" lon="4.99197">
        <ele>222.19999694824</ele>
        <time>2021-03-06T08:53:00.000Z</time>
      </trkpt>
      <trkpt lat="43.71985" lon="4.99189">
        <ele>223.19999694824</ele>
        <time>2021-03-06T08:53:03.000Z</time>
      </trkpt>
      <trkpt lat="43.71986" lon="4.9918">
        <ele>224.19999694824</ele>
        <time>2021-03-06T08:53:06.000Z</time>
      </trkpt>
      <trkpt lat="43.71986" lon="4.99173">
        <ele>225.19999694824</ele>
        <time>2021-03-06T08:53:08.000Z</time>
      </trkpt>
      <trkpt lat="43.71987" lon="4.99165">
        <ele>226</ele>
        <time>2021-03-06T08:53:11.000Z</time>
      </trkpt>
      <trkpt lat="43.71987" lon="4.99157">
        <ele>226.80000305176</ele>
        <time>2021-03-06T08:53:14.000Z</time>
      </trkpt>
      <trkpt lat="43.71988" lon="4.99148">
        <ele>227.80000305176</ele>
        <time>2021-03-06T08:53:17.000Z</time>
      </trkpt>
      <trkpt lat="43.71988" lon="4.99138">
        <ele>229</ele>
        <time>2021-03-06T08:53:20.000Z</time>
      </trkpt>
      <trkpt lat="43.71989" lon="4.99129">
        <ele>229.60000610352</ele>
        <time>2021-03-06T08:53:23.000Z</time>
      </trkpt>
      <trkpt lat="43.71991" lon="4.9912">
        <ele>230.80000305176</ele>
        <time>2021-03-06T08:53:26.000Z</time>
      </trkpt>
      <trkpt lat="43.71992" lon="4.99112">
        <ele>232.39999389648</ele>
        <time>2021-03-06T08:53:29.000Z</time>
      </trkpt>
      <trkpt lat="43.71994" lon="4.99104">
        <ele>233.60000610352</ele>
        <time>2021-03-06T08:53:32.000Z</time>
      </trkpt>
      <trkpt lat="43.71995" lon="4.99096">
        <ele>234.80000305176</ele>
        <time>2021-03-06T08:53:35.000Z</time>
      </trkpt>
      <trkpt lat="43.71996" lon="4.99089">
        <ele>235.80000305176</ele>
        <time>2021-03-06T08:53:38.000Z</time>
      </trkpt>
      <trkpt lat="43.71997" lon="4.9908">
        <ele>236.80000305176</ele>
        <time>2021-03-06T08:53:41.000Z</time>
      </trkpt>
      <trkpt lat="43.71998" lon="4.99072">
        <ele>237.80000305176</ele>
        <time>2021-03-06T08:53:44.000Z</time>
      </trkpt>
      <trkpt lat="43.72" lon="4.99063">
        <ele>238.60000610352</ele>
        <time>2021-03-06T08:53:47.000Z</time>
      </trkpt>
      <trkpt lat="43.72002" lon="4.99054">
        <ele>239</ele>
        <time>2021-03-06T08:53:50.000Z</time>
      </trkpt>
      <trkpt lat="43.72004" lon="4.99046">
        <ele>239.80000305176</ele>
        <time>2021-03-06T08:53:53.000Z</time>
      </trkpt>
      <trkpt lat="43.72005" lon="4.99037">
        <ele>241.39999389648</ele>
        <time>2021-03-06T08:53:56.000Z</time>
      </trkpt>
      <trkpt lat="43.72006" lon="4.99028">
        <ele>243.60000610352</ele>
        <time>2021-03-06T08:53:59.000Z</time>
      </trkpt>
      <trkpt lat="43.72007" lon="4.9902">
        <ele>244.19999694824</ele>
        <time>2021-03-06T08:54:02.000Z</time>
      </trkpt>
      <trkpt lat="43.7201" lon="4.99012">
        <ele>243.39999389648</ele>
        <time>2021-03-06T08:54:05.000Z</time>
      </trkpt>
      <trkpt lat="43.72013" lon="4.99004">
        <ele>242.60000610352</ele>
        <time>2021-03-06T08:54:08.000Z</time>
      </trkpt>
      <trkpt lat="43.72014" lon="4.98995">
        <ele>242.60000610352</ele>
        <time>2021-03-06T08:54:11.000Z</time>
      </trkpt>
      <trkpt lat="43.72016" lon="4.98983">
        <ele>242.80000305176</ele>
        <time>2021-03-06T08:54:15.000Z</time>
      </trkpt>
      <trkpt lat="43.72019" lon="4.98974">
        <ele>242.19999694824</ele>
        <time>2021-03-06T08:54:18.000Z</time>
      </trkpt>
      <trkpt lat="43.72021" lon="4.98967">
        <ele>242</ele>
        <time>2021-03-06T08:54:20.000Z</time>
      </trkpt>
      <trkpt lat="43.72023" lon="4.98961">
        <ele>242.19999694824</ele>
        <time>2021-03-06T08:54:22.000Z</time>
      </trkpt>
      <trkpt lat="43.72025" lon="4.98951">
        <ele>243.19999694824</ele>
        <time>2021-03-06T08:54:25.000Z</time>
      </trkpt>
      <trkpt lat="43.72027" lon="4.98945">
        <ele>244</ele>
        <time>2021-03-06T08:54:27.000Z</time>
      </trkpt>
      <trkpt lat="43.7203" lon="4.98936">
        <ele>245.19999694824</ele>
        <time>2021-03-06T08:54:30.000Z</time>
      </trkpt>
      <trkpt lat="43.72032" lon="4.98928">
        <ele>246.39999389648</ele>
        <time>2021-03-06T08:54:33.000Z</time>
      </trkpt>
      <trkpt lat="43.72037" lon="4.9892">
        <ele>247</ele>
        <time>2021-03-06T08:54:36.000Z</time>
      </trkpt>
      <trkpt lat="43.7204" lon="4.98914">
        <ele>247.39999389648</ele>
        <time>2021-03-06T08:54:38.000Z</time>
      </trkpt>
      <trkpt lat="43.72044" lon="4.98906">
        <ele>248.19999694824</ele>
        <time>2021-03-06T08:54:41.000Z</time>
      </trkpt>
      <trkpt lat="43.72047" lon="4.989">
        <ele>248.60000610352</ele>
        <time>2021-03-06T08:54:43.000Z</time>
      </trkpt>
      <trkpt lat="43.7205" lon="4.98891">
        <ele>248</ele>
        <time>2021-03-06T08:54:46.000Z</time>
      </trkpt>
      <trkpt lat="43.72052" lon="4.98884">
        <ele>247.80000305176</ele>
        <time>2021-03-06T08:54:48.000Z</time>
      </trkpt>
      <trkpt lat="43.72056" lon="4.98875">
        <ele>247.39999389648</ele>
        <time>2021-03-06T08:54:51.000Z</time>
      </trkpt>
      <trkpt lat="43.72059" lon="4.98868">
        <ele>248</ele>
        <time>2021-03-06T08:54:53.000Z</time>
      </trkpt>
      <trkpt lat="43.72061" lon="4.98863">
        <ele>248.80000305176</ele>
        <time>2021-03-06T08:54:55.000Z</time>
      </trkpt>
      <trkpt lat="43.72065" lon="4.98857">
        <ele>249</ele>
        <time>2021-03-06T08:54:57.000Z</time>
      </trkpt>
      <trkpt lat="43.72069" lon="4.98851">
        <ele>249.60000610352</ele>
        <time>2021-03-06T08:54:59.000Z</time>
      </trkpt>
      <trkpt lat="43.72073" lon="4.98845">
        <ele>249.80000305176</ele>
        <time>2021-03-06T08:55:01.000Z</time>
      </trkpt>
      <trkpt lat="43.72076" lon="4.9884">
        <ele>249.19999694824</ele>
        <time>2021-03-06T08:55:03.000Z</time>
      </trkpt>
      <trkpt lat="43.72079" lon="4.98834">
        <ele>248.19999694824</ele>
        <time>2021-03-06T08:55:05.000Z</time>
      </trkpt>
      <trkpt lat="43.72083" lon="4.98829">
        <ele>246.60000610352</ele>
        <time>2021-03-06T08:55:07.000Z</time>
      </trkpt>
      <trkpt lat="43.72087" lon="4.98824">
        <ele>245</ele>
        <time>2021-03-06T08:55:09.000Z</time>
      </trkpt>
      <trkpt lat="43.72091" lon="4.9882">
        <ele>243.60000610352</ele>
        <time>2021-03-06T08:55:11.000Z</time>
      </trkpt>
      <trkpt lat="43.72097" lon="4.98813">
        <ele>241.60000610352</ele>
        <time>2021-03-06T08:55:14.000Z</time>
      </trkpt>
      <trkpt lat="43.721" lon="4.98807">
        <ele>240.60000610352</ele>
        <time>2021-03-06T08:55:16.000Z</time>
      </trkpt>
      <trkpt lat="43.72104" lon="4.98801">
        <ele>239.60000610352</ele>
        <time>2021-03-06T08:55:18.000Z</time>
      </trkpt>
      <trkpt lat="43.72108" lon="4.98795">
        <ele>239.60000610352</ele>
        <time>2021-03-06T08:55:20.000Z</time>
      </trkpt>
      <trkpt lat="43.72111" lon="4.98788">
        <ele>239.60000610352</ele>
        <time>2021-03-06T08:55:22.000Z</time>
      </trkpt>
      <trkpt lat="43.72115" lon="4.98783">
        <ele>239.19999694824</ele>
        <time>2021-03-06T08:55:24.000Z</time>
      </trkpt>
      <trkpt lat="43.72118" lon="4.98777">
        <ele>239</ele>
        <time>2021-03-06T08:55:26.000Z</time>
      </trkpt>
      <trkpt lat="43.72121" lon="4.98771">
        <ele>238.80000305176</ele>
        <time>2021-03-06T08:55:28.000Z</time>
      </trkpt>
      <trkpt lat="43.72126" lon="4.98763">
        <ele>238.39999389648</ele>
        <time>2021-03-06T08:55:31.000Z</time>
      </trkpt>
      <trkpt lat="43.7213" lon="4.98756">
        <ele>238.19999694824</ele>
        <time>2021-03-06T08:55:33.000Z</time>
      </trkpt>
      <trkpt lat="43.72133" lon="4.9875">
        <ele>238.19999694824</ele>
        <time>2021-03-06T08:55:35.000Z</time>
      </trkpt>
      <trkpt lat="43.72137" lon="4.98743">
        <ele>237.80000305176</ele>
        <time>2021-03-06T08:55:37.000Z</time>
      </trkpt>
      <trkpt lat="43.72143" lon="4.98733">
        <ele>236.80000305176</ele>
        <time>2021-03-06T08:55:40.000Z</time>
      </trkpt>
      <trkpt lat="43.72147" lon="4.98726">
        <ele>236</ele>
        <time>2021-03-06T08:55:42.000Z</time>
      </trkpt>
      <trkpt lat="43.7215" lon="4.98721">
        <ele>235.19999694824</ele>
        <time>2021-03-06T08:55:44.000Z</time>
      </trkpt>
      <trkpt lat="43.72152" lon="4.98714">
        <ele>235</ele>
        <time>2021-03-06T08:55:46.000Z</time>
      </trkpt>
      <trkpt lat="43.72153" lon="4.98705">
        <ele>235.80000305176</ele>
        <time>2021-03-06T08:55:49.000Z</time>
      </trkpt>
      <trkpt lat="43.72152" lon="4.98695">
        <ele>237</ele>
        <time>2021-03-06T08:55:52.000Z</time>
      </trkpt>
      <trkpt lat="43.72151" lon="4.98686">
        <ele>238.39999389648</ele>
        <time>2021-03-06T08:55:55.000Z</time>
      </trkpt>
      <trkpt lat="43.7215" lon="4.98677">
        <ele>240</ele>
        <time>2021-03-06T08:55:58.000Z</time>
      </trkpt>
      <trkpt lat="43.72149" lon="4.98667">
        <ele>241.19999694824</ele>
        <time>2021-03-06T08:56:01.000Z</time>
      </trkpt>
      <trkpt lat="43.72148" lon="4.98661">
        <ele>242</ele>
        <time>2021-03-06T08:56:03.000Z</time>
      </trkpt>
      <trkpt lat="43.72146" lon="4.9865">
        <ele>243.39999389648</ele>
        <time>2021-03-06T08:56:06.000Z</time>
      </trkpt>
      <trkpt lat="43.72146" lon="4.98643">
        <ele>244</ele>
        <time>2021-03-06T08:56:08.000Z</time>
      </trkpt>
      <trkpt lat="43.72146" lon="4.98635">
        <ele>244.60000610352</ele>
        <time>2021-03-06T08:56:10.000Z</time>
      </trkpt>
      <trkpt lat="43.72146" lon="4.98628">
        <ele>245</ele>
        <time>2021-03-06T08:56:12.000Z</time>
      </trkpt>
      <trkpt lat="43.72148" lon="4.9862">
        <ele>244.60000610352</ele>
        <time>2021-03-06T08:56:14.000Z</time>
      </trkpt>
      <trkpt lat="43.72149" lon="4.98613">
        <ele>244.19999694824</ele>
        <time>2021-03-06T08:56:16.000Z</time>
      </trkpt>
      <trkpt lat="43.72151" lon="4.98605">
        <ele>243.60000610352</ele>
        <time>2021-03-06T08:56:18.000Z</time>
      </trkpt>
      <trkpt lat="43.72154" lon="4.98598">
        <ele>242.60000610352</ele>
        <time>2021-03-06T08:56:20.000Z</time>
      </trkpt>
      <trkpt lat="43.72156" lon="4.98591">
        <ele>241.80000305176</ele>
        <time>2021-03-06T08:56:22.000Z</time>
      </trkpt>
      <trkpt lat="43.72159" lon="4.98579">
        <ele>241.60000610352</ele>
        <time>2021-03-06T08:56:25.000Z</time>
      </trkpt>
      <trkpt lat="43.72161" lon="4.98572">
        <ele>241.39999389648</ele>
        <time>2021-03-06T08:56:27.000Z</time>
      </trkpt>
      <trkpt lat="43.72163" lon="4.98565">
        <ele>241</ele>
        <time>2021-03-06T08:56:29.000Z</time>
      </trkpt>
      <trkpt lat="43.72164" lon="4.98558">
        <ele>241.19999694824</ele>
        <time>2021-03-06T08:56:31.000Z</time>
      </trkpt>
      <trkpt lat="43.72164" lon="4.98551">
        <ele>241.39999389648</ele>
        <time>2021-03-06T08:56:33.000Z</time>
      </trkpt>
      <trkpt lat="43.72164" lon="4.98544">
        <ele>241.60000610352</ele>
        <time>2021-03-06T08:56:35.000Z</time>
      </trkpt>
      <trkpt lat="43.72164" lon="4.98536">
        <ele>241.39999389648</ele>
        <time>2021-03-06T08:56:38.000Z</time>
      </trkpt>
      <trkpt lat="43.72161" lon="4.98528">
        <ele>241.60000610352</ele>
        <time>2021-03-06T08:56:41.000Z</time>
      </trkpt>
      <trkpt lat="43.7216" lon="4.98519">
        <ele>241.19999694824</ele>
        <time>2021-03-06T08:56:44.000Z</time>
      </trkpt>
      <trkpt lat="43.72157" lon="4.9851">
        <ele>241.60000610352</ele>
        <time>2021-03-06T08:56:47.000Z</time>
      </trkpt>
      <trkpt lat="43.72153" lon="4.98504">
        <ele>242.19999694824</ele>
        <time>2021-03-06T08:56:49.000Z</time>
      </trkpt>
      <trkpt lat="43.72152" lon="4.98497">
        <ele>242.60000610352</ele>
        <time>2021-03-06T08:56:51.000Z</time>
      </trkpt>
      <trkpt lat="43.72149" lon="4.98488">
        <ele>243.39999389648</ele>
        <time>2021-03-06T08:56:54.000Z</time>
      </trkpt>
      <trkpt lat="43.72147" lon="4.98478">
        <ele>244</ele>
        <time>2021-03-06T08:56:57.000Z</time>
      </trkpt>
      <trkpt lat="43.72145" lon="4.98468">
        <ele>244.60000610352</ele>
        <time>2021-03-06T08:57:00.000Z</time>
      </trkpt>
      <trkpt lat="43.72144" lon="4.98462">
        <ele>244.80000305176</ele>
        <time>2021-03-06T08:57:02.000Z</time>
      </trkpt>
      <trkpt lat="43.72145" lon="4.98453">
        <ele>244.19999694824</ele>
        <time>2021-03-06T08:57:05.000Z</time>
      </trkpt>
      <trkpt lat="43.72149" lon="4.98446">
        <ele>242.80000305176</ele>
        <time>2021-03-06T08:57:08.000Z</time>
      </trkpt>
      <trkpt lat="43.72152" lon="4.98437">
        <ele>241.60000610352</ele>
        <time>2021-03-06T08:57:11.000Z</time>
      </trkpt>
      <trkpt lat="43.72153" lon="4.98427">
        <ele>240.60000610352</ele>
        <time>2021-03-06T08:57:14.000Z</time>
      </trkpt>
      <trkpt lat="43.72153" lon="4.98417">
        <ele>240.19999694824</ele>
        <time>2021-03-06T08:57:17.000Z</time>
      </trkpt>
      <trkpt lat="43.72152" lon="4.9841">
        <ele>240</ele>
        <time>2021-03-06T08:57:19.000Z</time>
      </trkpt>
      <trkpt lat="43.72151" lon="4.98399">
        <ele>239.60000610352</ele>
        <time>2021-03-06T08:57:22.000Z</time>
      </trkpt>
      <trkpt lat="43.72151" lon="4.98392">
        <ele>239.39999389648</ele>
        <time>2021-03-06T08:57:24.000Z</time>
      </trkpt>
      <trkpt lat="43.72151" lon="4.98384">
        <ele>239</ele>
        <time>2021-03-06T08:57:26.000Z</time>
      </trkpt>
      <trkpt lat="43.7215" lon="4.98376">
        <ele>238.60000610352</ele>
        <time>2021-03-06T08:57:28.000Z</time>
      </trkpt>
      <trkpt lat="43.72151" lon="4.98368">
        <ele>238.60000610352</ele>
        <time>2021-03-06T08:57:30.000Z</time>
      </trkpt>
      <trkpt lat="43.7215" lon="4.9836">
        <ele>238.80000305176</ele>
        <time>2021-03-06T08:57:32.000Z</time>
      </trkpt>
      <trkpt lat="43.72148" lon="4.98353">
        <ele>239</ele>
        <time>2021-03-06T08:57:34.000Z</time>
      </trkpt>
      <trkpt lat="43.72146" lon="4.9834">
        <ele>239.39999389648</ele>
        <time>2021-03-06T08:57:37.000Z</time>
      </trkpt>
      <trkpt lat="43.72147" lon="4.98332">
        <ele>239.39999389648</ele>
        <time>2021-03-06T08:57:39.000Z</time>
      </trkpt>
      <trkpt lat="43.72148" lon="4.98324">
        <ele>240</ele>
        <time>2021-03-06T08:57:41.000Z</time>
      </trkpt>
      <trkpt lat="43.72149" lon="4.98317">
        <ele>240.19999694824</ele>
        <time>2021-03-06T08:57:43.000Z</time>
      </trkpt>
      <trkpt lat="43.72153" lon="4.98309">
        <ele>240.39999389648</ele>
        <time>2021-03-06T08:57:46.000Z</time>
      </trkpt>
      <trkpt lat="43.72157" lon="4.98303">
        <ele>240.39999389648</ele>
        <time>2021-03-06T08:57:49.000Z</time>
      </trkpt>
      <trkpt lat="43.72158" lon="4.98298">
        <ele>240.60000610352</ele>
        <time>2021-03-06T08:57:57.000Z</time>
      </trkpt>
      <trkpt lat="43.72163" lon="4.98292">
        <ele>240.60000610352</ele>
        <time>2021-03-06T08:58:05.000Z</time>
      </trkpt>
      <trkpt lat="43.72168" lon="4.98289">
        <ele>240.39999389648</ele>
        <time>2021-03-06T08:58:13.000Z</time>
      </trkpt>
      <trkpt lat="43.72173" lon="4.98286">
        <ele>240</ele>
        <time>2021-03-06T08:58:18.000Z</time>
      </trkpt>
      <trkpt lat="43.72178" lon="4.98282">
        <ele>240</ele>
        <time>2021-03-06T08:58:22.000Z</time>
      </trkpt>
      <trkpt lat="43.72181" lon="4.98277">
        <ele>240.60000610352</ele>
        <time>2021-03-06T08:58:28.000Z</time>
      </trkpt>
      <trkpt lat="43.72186" lon="4.98271">
        <ele>241</ele>
        <time>2021-03-06T08:58:33.000Z</time>
      </trkpt>
      <trkpt lat="43.7219" lon="4.98266">
        <ele>241.39999389648</ele>
        <time>2021-03-06T08:58:37.000Z</time>
      </trkpt>
      <trkpt lat="43.72194" lon="4.98259">
        <ele>242</ele>
        <time>2021-03-06T08:58:42.000Z</time>
      </trkpt>
      <trkpt lat="43.72198" lon="4.98252">
        <ele>242.60000610352</ele>
        <time>2021-03-06T08:58:46.000Z</time>
      </trkpt>
      <trkpt lat="43.722" lon="4.98246">
        <ele>243.19999694824</ele>
        <time>2021-03-06T08:58:51.000Z</time>
      </trkpt>
      <trkpt lat="43.72205" lon="4.98239">
        <ele>243.80000305176</ele>
        <time>2021-03-06T08:58:56.000Z</time>
      </trkpt>
      <trkpt lat="43.72208" lon="4.9823">
        <ele>244.80000305176</ele>
        <time>2021-03-06T08:59:00.000Z</time>
      </trkpt>
      <trkpt lat="43.72212" lon="4.98224">
        <ele>244.60000610352</ele>
        <time>2021-03-06T08:59:03.000Z</time>
      </trkpt>
      <trkpt lat="43.72215" lon="4.98216">
        <ele>244.80000305176</ele>
        <time>2021-03-06T08:59:06.000Z</time>
      </trkpt>
      <trkpt lat="43.72219" lon="4.9821">
        <ele>244.60000610352</ele>
        <time>2021-03-06T08:59:09.000Z</time>
      </trkpt>
      <trkpt lat="43.72222" lon="4.98204">
        <ele>244.60000610352</ele>
        <time>2021-03-06T08:59:12.000Z</time>
      </trkpt>
      <trkpt lat="43.72224" lon="4.98197">
        <ele>245.39999389648</ele>
        <time>2021-03-06T08:59:15.000Z</time>
      </trkpt>
      <trkpt lat="43.72227" lon="4.9819">
        <ele>246.19999694824</ele>
        <time>2021-03-06T08:59:18.000Z</time>
      </trkpt>
      <trkpt lat="43.7223" lon="4.98182">
        <ele>246.80000305176</ele>
        <time>2021-03-06T08:59:21.000Z</time>
      </trkpt>
      <trkpt lat="43.72235" lon="4.98173">
        <ele>247.39999389648</ele>
        <time>2021-03-06T08:59:24.000Z</time>
      </trkpt>
      <trkpt lat="43.72238" lon="4.98167">
        <ele>247.39999389648</ele>
        <time>2021-03-06T08:59:26.000Z</time>
      </trkpt>
      <trkpt lat="43.72241" lon="4.98159">
        <ele>247.39999389648</ele>
        <time>2021-03-06T08:59:29.000Z</time>
      </trkpt>
      <trkpt lat="43.72243" lon="4.9815">
        <ele>247.60000610352</ele>
        <time>2021-03-06T08:59:32.000Z</time>
      </trkpt>
      <trkpt lat="43.72247" lon="4.98142">
        <ele>247.80000305176</ele>
        <time>2021-03-06T08:59:35.000Z</time>
      </trkpt>
      <trkpt lat="43.7225" lon="4.98133">
        <ele>248</ele>
        <time>2021-03-06T08:59:38.000Z</time>
      </trkpt>
      <trkpt lat="43.72254" lon="4.98126">
        <ele>247.60000610352</ele>
        <time>2021-03-06T08:59:41.000Z</time>
      </trkpt>
      <trkpt lat="43.72258" lon="4.98119">
        <ele>248</ele>
        <time>2021-03-06T08:59:44.000Z</time>
      </trkpt>
      <trkpt lat="43.7226" lon="4.98113">
        <ele>248.39999389648</ele>
        <time>2021-03-06T08:59:47.000Z</time>
      </trkpt>
      <trkpt lat="43.72263" lon="4.98105">
        <ele>248.39999389648</ele>
        <time>2021-03-06T08:59:50.000Z</time>
      </trkpt>
      <trkpt lat="43.72266" lon="4.98097">
        <ele>248.19999694824</ele>
        <time>2021-03-06T08:59:53.000Z</time>
      </trkpt>
      <trkpt lat="43.72269" lon="4.98091">
        <ele>248</ele>
        <time>2021-03-06T08:59:55.000Z</time>
      </trkpt>
      <trkpt lat="43.72272" lon="4.98086">
        <ele>248</ele>
        <time>2021-03-06T08:59:57.000Z</time>
      </trkpt>
      <trkpt lat="43.72275" lon="4.98079">
        <ele>248</ele>
        <time>2021-03-06T09:00:00.000Z</time>
      </trkpt>
      <trkpt lat="43.7228" lon="4.98072">
        <ele>248</ele>
        <time>2021-03-06T09:00:03.000Z</time>
      </trkpt>
      <trkpt lat="43.72285" lon="4.98066">
        <ele>248</ele>
        <time>2021-03-06T09:00:06.000Z</time>
      </trkpt>
      <trkpt lat="43.7229" lon="4.98059">
        <ele>247.80000305176</ele>
        <time>2021-03-06T09:00:09.000Z</time>
      </trkpt>
      <trkpt lat="43.72293" lon="4.98052">
        <ele>247.80000305176</ele>
        <time>2021-03-06T09:00:12.000Z</time>
      </trkpt>
      <trkpt lat="43.72298" lon="4.98046">
        <ele>247.60000610352</ele>
        <time>2021-03-06T09:00:15.000Z</time>
      </trkpt>
      <trkpt lat="43.72302" lon="4.98039">
        <ele>247.39999389648</ele>
        <time>2021-03-06T09:00:18.000Z</time>
      </trkpt>
      <trkpt lat="43.72308" lon="4.98032">
        <ele>246.80000305176</ele>
        <time>2021-03-06T09:00:21.000Z</time>
      </trkpt>
      <trkpt lat="43.72311" lon="4.98026">
        <ele>246.80000305176</ele>
        <time>2021-03-06T09:00:24.000Z</time>
      </trkpt>
      <trkpt lat="43.72314" lon="4.98019">
        <ele>246.60000610352</ele>
        <time>2021-03-06T09:00:27.000Z</time>
      </trkpt>
      <trkpt lat="43.72316" lon="4.98012">
        <ele>246.60000610352</ele>
        <time>2021-03-06T09:00:30.000Z</time>
      </trkpt>
      <trkpt lat="43.72318" lon="4.98003">
        <ele>246.60000610352</ele>
        <time>2021-03-06T09:00:33.000Z</time>
      </trkpt>
      <trkpt lat="43.72319" lon="4.97993">
        <ele>246.80000305176</ele>
        <time>2021-03-06T09:00:36.000Z</time>
      </trkpt>
      <trkpt lat="43.7232" lon="4.97984">
        <ele>246.60000610352</ele>
        <time>2021-03-06T09:00:39.000Z</time>
      </trkpt>
      <trkpt lat="43.72319" lon="4.97976">
        <ele>247</ele>
        <time>2021-03-06T09:00:42.000Z</time>
      </trkpt>
      <trkpt lat="43.72316" lon="4.9797">
        <ele>247.80000305176</ele>
        <time>2021-03-06T09:00:45.000Z</time>
      </trkpt>
      <trkpt lat="43.72312" lon="4.97965">
        <ele>248.80000305176</ele>
        <time>2021-03-06T09:00:48.000Z</time>
      </trkpt>
      <trkpt lat="43.72308" lon="4.9796">
        <ele>249.80000305176</ele>
        <time>2021-03-06T09:00:51.000Z</time>
      </trkpt>
      <trkpt lat="43.72303" lon="4.97955">
        <ele>251</ele>
        <time>2021-03-06T09:00:54.000Z</time>
      </trkpt>
      <trkpt lat="43.72298" lon="4.97949">
        <ele>252</ele>
        <time>2021-03-06T09:00:57.000Z</time>
      </trkpt>
      <trkpt lat="43.72293" lon="4.97944">
        <ele>252.80000305176</ele>
        <time>2021-03-06T09:01:00.000Z</time>
      </trkpt>
      <trkpt lat="43.7229" lon="4.97939">
        <ele>253.39999389648</ele>
        <time>2021-03-06T09:01:03.000Z</time>
      </trkpt>
      <trkpt lat="43.72287" lon="4.97933">
        <ele>254.19999694824</ele>
        <time>2021-03-06T09:01:06.000Z</time>
      </trkpt>
      <trkpt lat="43.72284" lon="4.97926">
        <ele>254.80000305176</ele>
        <time>2021-03-06T09:01:10.000Z</time>
      </trkpt>
      <trkpt lat="43.72279" lon="4.97921">
        <ele>255.80000305176</ele>
        <time>2021-03-06T09:01:13.000Z</time>
      </trkpt>
      <trkpt lat="43.72275" lon="4.97915">
        <ele>256.60000610352</ele>
        <time>2021-03-06T09:01:16.000Z</time>
      </trkpt>
      <trkpt lat="43.72271" lon="4.97908">
        <ele>257.39999389648</ele>
        <time>2021-03-06T09:01:19.000Z</time>
      </trkpt>
      <trkpt lat="43.72267" lon="4.97902">
        <ele>258</ele>
        <time>2021-03-06T09:01:22.000Z</time>
      </trkpt>
      <trkpt lat="43.72265" lon="4.97896">
        <ele>258.60000610352</ele>
        <time>2021-03-06T09:01:25.000Z</time>
      </trkpt>
      <trkpt lat="43.72262" lon="4.97888">
        <ele>259.20001220703</ele>
        <time>2021-03-06T09:01:29.000Z</time>
      </trkpt>
      <trkpt lat="43.7226" lon="4.97882">
        <ele>259.79998779297</ele>
        <time>2021-03-06T09:01:32.000Z</time>
      </trkpt>
      <trkpt lat="43.72258" lon="4.97873">
        <ele>260</ele>
        <time>2021-03-06T09:01:36.000Z</time>
      </trkpt>
      <trkpt lat="43.72253" lon="4.97866">
        <ele>260.60000610352</ele>
        <time>2021-03-06T09:01:40.000Z</time>
      </trkpt>
      <trkpt lat="43.72249" lon="4.97861">
        <ele>261.20001220703</ele>
        <time>2021-03-06T09:01:43.000Z</time>
      </trkpt>
      <trkpt lat="43.72245" lon="4.97857">
        <ele>261.79998779297</ele>
        <time>2021-03-06T09:01:46.000Z</time>
      </trkpt>
      <trkpt lat="43.72242" lon="4.97852">
        <ele>262.39999389648</ele>
        <time>2021-03-06T09:01:50.000Z</time>
      </trkpt>
      <trkpt lat="43.72238" lon="4.97846">
        <ele>262.79998779297</ele>
        <time>2021-03-06T09:01:55.000Z</time>
      </trkpt>
      <trkpt lat="43.72235" lon="4.9784">
        <ele>263</ele>
        <time>2021-03-06T09:01:59.000Z</time>
      </trkpt>
      <trkpt lat="43.72229" lon="4.97833">
        <ele>264</ele>
        <time>2021-03-06T09:02:03.000Z</time>
      </trkpt>
      <trkpt lat="43.72224" lon="4.97827">
        <ele>264.79998779297</ele>
        <time>2021-03-06T09:02:06.000Z</time>
      </trkpt>
      <trkpt lat="43.72218" lon="4.97821">
        <ele>265.79998779297</ele>
        <time>2021-03-06T09:02:09.000Z</time>
      </trkpt>
      <trkpt lat="43.72213" lon="4.97815">
        <ele>266.79998779297</ele>
        <time>2021-03-06T09:02:12.000Z</time>
      </trkpt>
      <trkpt lat="43.7221" lon="4.97808">
        <ele>267.60000610352</ele>
        <time>2021-03-06T09:02:15.000Z</time>
      </trkpt>
      <trkpt lat="43.72207" lon="4.97802">
        <ele>268.20001220703</ele>
        <time>2021-03-06T09:02:18.000Z</time>
      </trkpt>
      <trkpt lat="43.72203" lon="4.97795">
        <ele>269.20001220703</ele>
        <time>2021-03-06T09:02:21.000Z</time>
      </trkpt>
      <trkpt lat="43.722" lon="4.97787">
        <ele>269.79998779297</ele>
        <time>2021-03-06T09:02:24.000Z</time>
      </trkpt>
      <trkpt lat="43.72197" lon="4.97781">
        <ele>270.20001220703</ele>
        <time>2021-03-06T09:02:26.000Z</time>
      </trkpt>
      <trkpt lat="43.72194" lon="4.97775">
        <ele>270.60000610352</ele>
        <time>2021-03-06T09:02:28.000Z</time>
      </trkpt>
      <trkpt lat="43.7219" lon="4.97768">
        <ele>271</ele>
        <time>2021-03-06T09:02:31.000Z</time>
      </trkpt>
      <trkpt lat="43.72184" lon="4.9776">
        <ele>272.39999389648</ele>
        <time>2021-03-06T09:02:35.000Z</time>
      </trkpt>
      <trkpt lat="43.7218" lon="4.97754">
        <ele>273.39999389648</ele>
        <time>2021-03-06T09:02:38.000Z</time>
      </trkpt>
      <trkpt lat="43.72178" lon="4.97746">
        <ele>274</ele>
        <time>2021-03-06T09:02:41.000Z</time>
      </trkpt>
      <trkpt lat="43.72178" lon="4.97737">
        <ele>274.20001220703</ele>
        <time>2021-03-06T09:02:44.000Z</time>
      </trkpt>
      <trkpt lat="43.72178" lon="4.97727">
        <ele>274.20001220703</ele>
        <time>2021-03-06T09:02:47.000Z</time>
      </trkpt>
      <trkpt lat="43.72179" lon="4.97721">
        <ele>274</ele>
        <time>2021-03-06T09:02:49.000Z</time>
      </trkpt>
      <trkpt lat="43.72181" lon="4.9771">
        <ele>273.60000610352</ele>
        <time>2021-03-06T09:02:52.000Z</time>
      </trkpt>
      <trkpt lat="43.72183" lon="4.97703">
        <ele>273</ele>
        <time>2021-03-06T09:02:55.000Z</time>
      </trkpt>
      <trkpt lat="43.72185" lon="4.97695">
        <ele>272.39999389648</ele>
        <time>2021-03-06T09:02:58.000Z</time>
      </trkpt>
      <trkpt lat="43.72187" lon="4.97689">
        <ele>271.79998779297</ele>
        <time>2021-03-06T09:03:01.000Z</time>
      </trkpt>
      <trkpt lat="43.72189" lon="4.9768">
        <ele>271.60000610352</ele>
        <time>2021-03-06T09:03:05.000Z</time>
      </trkpt>
      <trkpt lat="43.7219" lon="4.97672">
        <ele>271.39999389648</ele>
        <time>2021-03-06T09:03:09.000Z</time>
      </trkpt>
      <trkpt lat="43.72191" lon="4.97667">
        <ele>271.20001220703</ele>
        <time>2021-03-06T09:03:23.000Z</time>
      </trkpt>
      <trkpt lat="43.72261" lon="4.97502">
        <ele>251.4</ele>
      </trkpt>
      <trkpt lat="43.72208" lon="4.97439">
        <ele>260.4</ele>
      </trkpt>
      <trkpt lat="43.722" lon="4.97317">
        <ele>272.2</ele>
      </trkpt>
      <trkpt lat="43.7217" lon="4.97261">
        <ele>278.7</ele>
      </trkpt>
      <trkpt lat="43.72281" lon="4.97157">
        <ele>273.7</ele>
      </trkpt>
      <trkpt lat="43.72314" lon="4.97035">
        <ele>268.5</ele>
      </trkpt>
      <trkpt lat="43.72291" lon="4.96986">
        <ele>272.6</ele>
      </trkpt>
      <trkpt lat="43.72314" lon="4.96969">
        <ele>269.6</ele>
      </trkpt>
      <trkpt lat="43.72346" lon="4.96895">
        <ele>268.8</ele>
      </trkpt>
      <trkpt lat="43.72302" lon="4.96779">
        <ele>278.4</ele>
      </trkpt>
      <trkpt lat="43.72337" lon="4.96603">
        <ele>282.8</ele>
      </trkpt>
      <trkpt lat="43.72375" lon="4.96497">
        <ele>279.5</ele>
      </trkpt>
      <trkpt lat="43.72248" lon="4.96451">
        <ele>312.8</ele>
      </trkpt>
      <trkpt lat="43.72191" lon="4.96458">
        <ele>332.7</ele>
      </trkpt>
      <trkpt lat="43.72135" lon="4.96464">
        <ele>354</ele>
      </trkpt>
      <trkpt lat="43.72055" lon="4.96477">
        <ele>368.3</ele>
      </trkpt>
      <trkpt lat="43.72022" lon="4.96633">
        <ele>362</ele>
      </trkpt>
      <trkpt lat="43.71961" lon="4.96939">
        <ele>368.6</ele>
      </trkpt>
      <trkpt lat="43.71909" lon="4.97225">
        <ele>392.8</ele>
      </trkpt>
      <trkpt lat="43.71862" lon="4.97499">
        <ele>379.7</ele>
      </trkpt>
    </trkseg>
  </trk>
  <trk>
    <name><![CDATA[Les Opies_2]]></name>
    <trkseg>
      <trkpt lat="43.71858" lon="4.97505">
        <ele>380.2</ele>
      </trkpt>
      <trkpt lat="43.71858" lon="4.97505">
        <ele>380.2</ele>
      </trkpt>
      <trkpt lat="43.71851" lon="4.97613">
        <ele>393.6</ele>
      </trkpt>
      <trkpt lat="43.71854" lon="4.9764">
        <ele>391.20001220703</ele>
        <time>2021-03-06T10:04:15.000Z</time>
      </trkpt>
      <trkpt lat="43.71856" lon="4.97644">
        <ele>391.79998779297</ele>
        <time>2021-03-06T10:04:22.000Z</time>
      </trkpt>
      <trkpt lat="43.71855" lon="4.97652">
        <ele>393.20001220703</ele>
        <time>2021-03-06T10:04:32.000Z</time>
      </trkpt>
      <trkpt lat="43.71855" lon="4.97659">
        <ele>394.20001220703</ele>
        <time>2021-03-06T10:04:41.000Z</time>
      </trkpt>
      <trkpt lat="43.71853" lon="4.97665">
        <ele>395.20001220703</ele>
        <time>2021-03-06T10:04:51.000Z</time>
      </trkpt>
      <trkpt lat="43.71852" lon="4.97671">
        <ele>395.20001220703</ele>
        <time>2021-03-06T10:05:04.000Z</time>
      </trkpt>
      <trkpt lat="43.71844" lon="4.97678">
        <ele>392</ele>
        <time>2021-03-06T10:05:18.000Z</time>
      </trkpt>
      <trkpt lat="43.71844" lon="4.97685">
        <ele>393.20001220703</ele>
        <time>2021-03-06T10:05:29.000Z</time>
      </trkpt>
      <trkpt lat="43.71841" lon="4.97691">
        <ele>393</ele>
        <time>2021-03-06T10:05:42.000Z</time>
      </trkpt>
      <trkpt lat="43.71841" lon="4.97698">
        <ele>393.79998779297</ele>
        <time>2021-03-06T10:05:52.000Z</time>
      </trkpt>
      <trkpt lat="43.71841" lon="4.97706">
        <ele>395.20001220703</ele>
        <time>2021-03-06T10:06:01.000Z</time>
      </trkpt>
      <trkpt lat="43.71841" lon="4.97713">
        <ele>396</ele>
        <time>2021-03-06T10:06:09.000Z</time>
      </trkpt>
      <trkpt lat="43.71837" lon="4.97717">
        <ele>394.39999389648</ele>
        <time>2021-03-06T10:06:17.000Z</time>
      </trkpt>
      <trkpt lat="43.71832" lon="4.97717">
        <ele>391.79998779297</ele>
        <time>2021-03-06T10:06:25.000Z</time>
      </trkpt>
      <trkpt lat="43.71826" lon="4.97721">
        <ele>389.20001220703</ele>
        <time>2021-03-06T10:06:33.000Z</time>
      </trkpt>
      <trkpt lat="43.71823" lon="4.97724">
        <ele>387.79998779297</ele>
        <time>2021-03-06T10:07:35.000Z</time>
      </trkpt>
      <trkpt lat="43.71824" lon="4.97732">
        <ele>389.39999389648</ele>
        <time>2021-03-06T10:07:42.000Z</time>
      </trkpt>
      <trkpt lat="43.71825" lon="4.97739">
        <ele>390.60000610352</ele>
        <time>2021-03-06T10:07:48.000Z</time>
      </trkpt>
      <trkpt lat="43.71822" lon="4.97747">
        <ele>389.79998779297</ele>
        <time>2021-03-06T10:07:56.000Z</time>
      </trkpt>
      <trkpt lat="43.71819" lon="4.97754">
        <ele>389</ele>
        <time>2021-03-06T10:08:01.000Z</time>
      </trkpt>
      <trkpt lat="43.71817" lon="4.9776">
        <ele>389.79998779297</ele>
        <time>2021-03-06T10:08:11.000Z</time>
      </trkpt>
      <trkpt lat="43.71817" lon="4.97768">
        <ele>391.79998779297</ele>
        <time>2021-03-06T10:08:18.000Z</time>
      </trkpt>
      <trkpt lat="43.71813" lon="4.97773">
        <ele>391.79998779297</ele>
        <time>2021-03-06T10:08:24.000Z</time>
      </trkpt>
      <trkpt lat="43.71809" lon="4.97778">
        <ele>392</ele>
        <time>2021-03-06T10:08:30.000Z</time>
      </trkpt>
      <trkpt lat="43.71804" lon="4.97784">
        <ele>391.60000610352</ele>
        <time>2021-03-06T10:08:35.000Z</time>
      </trkpt>
      <trkpt lat="43.71801" lon="4.97788">
        <ele>391.79998779297</ele>
        <time>2021-03-06T10:08:43.000Z</time>
      </trkpt>
      <trkpt lat="43.71799" lon="4.97795">
        <ele>391.79998779297</ele>
        <time>2021-03-06T10:09:01.000Z</time>
      </trkpt>
      <trkpt lat="43.71796" lon="4.97801">
        <ele>390.60000610352</ele>
        <time>2021-03-06T10:09:05.000Z</time>
      </trkpt>
      <trkpt lat="43.71793" lon="4.97807">
        <ele>389.20001220703</ele>
        <time>2021-03-06T10:09:09.000Z</time>
      </trkpt>
      <trkpt lat="43.7179" lon="4.97813">
        <ele>388.39999389648</ele>
        <time>2021-03-06T10:09:13.000Z</time>
      </trkpt>
      <trkpt lat="43.71786" lon="4.97819">
        <ele>389.39999389648</ele>
        <time>2021-03-06T10:09:18.000Z</time>
      </trkpt>
      <trkpt lat="43.71783" lon="4.97823">
        <ele>390</ele>
        <time>2021-03-06T10:09:26.000Z</time>
      </trkpt>
      <trkpt lat="43.71778" lon="4.97827">
        <ele>390.39999389648</ele>
        <time>2021-03-06T10:09:31.000Z</time>
      </trkpt>
      <trkpt lat="43.71774" lon="4.97832">
        <ele>391</ele>
        <time>2021-03-06T10:09:37.000Z</time>
      </trkpt>
      <trkpt lat="43.71769" lon="4.97838">
        <ele>391.60000610352</ele>
        <time>2021-03-06T10:09:45.000Z</time>
      </trkpt>
      <trkpt lat="43.71764" lon="4.97842">
        <ele>389.79998779297</ele>
        <time>2021-03-06T10:09:49.000Z</time>
      </trkpt>
      <trkpt lat="43.7176" lon="4.97845">
        <ele>388</ele>
        <time>2021-03-06T10:09:53.000Z</time>
      </trkpt>
      <trkpt lat="43.71754" lon="4.97851">
        <ele>386.39999389648</ele>
        <time>2021-03-06T10:09:58.000Z</time>
      </trkpt>
      <trkpt lat="43.71751" lon="4.97855">
        <ele>385.60000610352</ele>
        <time>2021-03-06T10:10:02.000Z</time>
      </trkpt>
      <trkpt lat="43.71749" lon="4.97863">
        <ele>387</ele>
        <time>2021-03-06T10:10:07.000Z</time>
      </trkpt>
      <trkpt lat="43.71748" lon="4.9787">
        <ele>388.79998779297</ele>
        <time>2021-03-06T10:10:11.000Z</time>
      </trkpt>
      <trkpt lat="43.71746" lon="4.97877">
        <ele>389.20001220703</ele>
        <time>2021-03-06T10:10:16.000Z</time>
      </trkpt>
      <trkpt lat="43.71743" lon="4.97885">
        <ele>387</ele>
        <time>2021-03-06T10:10:22.000Z</time>
      </trkpt>
      <trkpt lat="43.71741" lon="4.97893">
        <ele>385.79998779297</ele>
        <time>2021-03-06T10:10:26.000Z</time>
      </trkpt>
      <trkpt lat="43.71739" lon="4.979">
        <ele>384.60000610352</ele>
        <time>2021-03-06T10:10:29.000Z</time>
      </trkpt>
      <trkpt lat="43.71737" lon="4.97906">
        <ele>383.39999389648</ele>
        <time>2021-03-06T10:10:32.000Z</time>
      </trkpt>
      <trkpt lat="43.71735" lon="4.97914">
        <ele>382</ele>
        <time>2021-03-06T10:10:36.000Z</time>
      </trkpt>
      <trkpt lat="43.71733" lon="4.97923">
        <ele>380.79998779297</ele>
        <time>2021-03-06T10:10:40.000Z</time>
      </trkpt>
      <trkpt lat="43.71732" lon="4.9793">
        <ele>380.60000610352</ele>
        <time>2021-03-06T10:10:44.000Z</time>
      </trkpt>
      <trkpt lat="43.71732" lon="4.97938">
        <ele>381</ele>
        <time>2021-03-06T10:10:50.000Z</time>
      </trkpt>
      <trkpt lat="43.71732" lon="4.97945">
        <ele>381</ele>
        <time>2021-03-06T10:10:55.000Z</time>
      </trkpt>
      <trkpt lat="43.71728" lon="4.97952">
        <ele>380.20001220703</ele>
        <time>2021-03-06T10:11:00.000Z</time>
      </trkpt>
      <trkpt lat="43.71725" lon="4.9796">
        <ele>378.79998779297</ele>
        <time>2021-03-06T10:11:06.000Z</time>
      </trkpt>
      <trkpt lat="43.71724" lon="4.97969">
        <ele>377.39999389648</ele>
        <time>2021-03-06T10:11:11.000Z</time>
      </trkpt>
      <trkpt lat="43.71724" lon="4.97976">
        <ele>376.60000610352</ele>
        <time>2021-03-06T10:11:15.000Z</time>
      </trkpt>
      <trkpt lat="43.71725" lon="4.97982">
        <ele>376.20001220703</ele>
        <time>2021-03-06T10:11:19.000Z</time>
      </trkpt>
      <trkpt lat="43.71724" lon="4.97991">
        <ele>374.60000610352</ele>
        <time>2021-03-06T10:11:26.000Z</time>
      </trkpt>
      <trkpt lat="43.71724" lon="4.97999">
        <ele>374</ele>
        <time>2021-03-06T10:11:31.000Z</time>
      </trkpt>
      <trkpt lat="43.71723" lon="4.98006">
        <ele>373.60000610352</ele>
        <time>2021-03-06T10:11:36.000Z</time>
      </trkpt>
      <trkpt lat="43.71723" lon="4.98013">
        <ele>373.60000610352</ele>
        <time>2021-03-06T10:11:46.000Z</time>
      </trkpt>
      <trkpt lat="43.71722" lon="4.98021">
        <ele>373.39999389648</ele>
        <time>2021-03-06T10:11:53.000Z</time>
      </trkpt>
      <trkpt lat="43.71722" lon="4.98027">
        <ele>373</ele>
        <time>2021-03-06T10:12:00.000Z</time>
      </trkpt>
      <trkpt lat="43.71724" lon="4.98034">
        <ele>373.60000610352</ele>
        <time>2021-03-06T10:12:20.000Z</time>
      </trkpt>
      <trkpt lat="43.71727" lon="4.98039">
        <ele>374.20001220703</ele>
        <time>2021-03-06T10:12:27.000Z</time>
      </trkpt>
      <trkpt lat="43.71726" lon="4.98046">
        <ele>374.20001220703</ele>
        <time>2021-03-06T10:12:41.000Z</time>
      </trkpt>
      <trkpt lat="43.71725" lon="4.98054">
        <ele>374.39999389648</ele>
        <time>2021-03-06T10:12:54.000Z</time>
      </trkpt>
      <trkpt lat="43.71724" lon="4.98061">
        <ele>374.39999389648</ele>
        <time>2021-03-06T10:13:04.000Z</time>
      </trkpt>
      <trkpt lat="43.71714" lon="4.98071">
        <ele>372.60000610352</ele>
        <time>2021-03-06T10:13:52.000Z</time>
      </trkpt>
      <trkpt lat="43.71709" lon="4.98076">
        <ele>372</ele>
        <time>2021-03-06T10:14:05.000Z</time>
      </trkpt>
      <trkpt lat="43.71703" lon="4.98082">
        <ele>371.20001220703</ele>
        <time>2021-03-06T10:14:24.000Z</time>
      </trkpt>
      <trkpt lat="43.71698" lon="4.98084">
        <ele>370.39999389648</ele>
        <time>2021-03-06T10:14:33.000Z</time>
      </trkpt>
      <trkpt lat="43.71691" lon="4.98085">
        <ele>369</ele>
        <time>2021-03-06T10:14:41.000Z</time>
      </trkpt>
      <trkpt lat="43.71685" lon="4.98089">
        <ele>367.60000610352</ele>
        <time>2021-03-06T10:14:46.000Z</time>
      </trkpt>
      <trkpt lat="43.71681" lon="4.98092">
        <ele>366</ele>
        <time>2021-03-06T10:14:49.000Z</time>
      </trkpt>
      <trkpt lat="43.71675" lon="4.98097">
        <ele>364</ele>
        <time>2021-03-06T10:14:53.000Z</time>
      </trkpt>
      <trkpt lat="43.71671" lon="4.981">
        <ele>362.20001220703</ele>
        <time>2021-03-06T10:14:57.000Z</time>
      </trkpt>
      <trkpt lat="43.71666" lon="4.98106">
        <ele>360.60000610352</ele>
        <time>2021-03-06T10:15:03.000Z</time>
      </trkpt>
      <trkpt lat="43.71661" lon="4.98111">
        <ele>359.20001220703</ele>
        <time>2021-03-06T10:15:07.000Z</time>
      </trkpt>
      <trkpt lat="43.71656" lon="4.98116">
        <ele>357.39999389648</ele>
        <time>2021-03-06T10:15:11.000Z</time>
      </trkpt>
      <trkpt lat="43.71652" lon="4.9812">
        <ele>356.39999389648</ele>
        <time>2021-03-06T10:15:14.000Z</time>
      </trkpt>
      <trkpt lat="43.71646" lon="4.98125">
        <ele>354.60000610352</ele>
        <time>2021-03-06T10:15:18.000Z</time>
      </trkpt>
      <trkpt lat="43.71642" lon="4.98129">
        <ele>354</ele>
        <time>2021-03-06T10:15:21.000Z</time>
      </trkpt>
      <trkpt lat="43.71635" lon="4.98134">
        <ele>352.60000610352</ele>
        <time>2021-03-06T10:15:25.000Z</time>
      </trkpt>
      <trkpt lat="43.71631" lon="4.98138">
        <ele>352.20001220703</ele>
        <time>2021-03-06T10:15:28.000Z</time>
      </trkpt>
      <trkpt lat="43.71627" lon="4.98143">
        <ele>352.20001220703</ele>
        <time>2021-03-06T10:15:32.000Z</time>
      </trkpt>
      <trkpt lat="43.71622" lon="4.9815">
        <ele>352</ele>
        <time>2021-03-06T10:15:36.000Z</time>
      </trkpt>
      <trkpt lat="43.71618" lon="4.98155">
        <ele>351.39999389648</ele>
        <time>2021-03-06T10:15:39.000Z</time>
      </trkpt>
      <trkpt lat="43.71611" lon="4.98157">
        <ele>348.60000610352</ele>
        <time>2021-03-06T10:15:42.000Z</time>
      </trkpt>
      <trkpt lat="43.71606" lon="4.98158">
        <ele>346.79998779297</ele>
        <time>2021-03-06T10:15:44.000Z</time>
      </trkpt>
      <trkpt lat="43.71599" lon="4.9816">
        <ele>345.60000610352</ele>
        <time>2021-03-06T10:15:46.000Z</time>
      </trkpt>
      <trkpt lat="43.71594" lon="4.98162">
        <ele>345.39999389648</ele>
        <time>2021-03-06T10:15:48.000Z</time>
      </trkpt>
      <trkpt lat="43.71588" lon="4.98164">
        <ele>344.79998779297</ele>
        <time>2021-03-06T10:15:51.000Z</time>
      </trkpt>
      <trkpt lat="43.71584" lon="4.98167">
        <ele>345.20001220703</ele>
        <time>2021-03-06T10:15:54.000Z</time>
      </trkpt>
      <trkpt lat="43.71582" lon="4.98174">
        <ele>346.60000610352</ele>
        <time>2021-03-06T10:15:59.000Z</time>
      </trkpt>
      <trkpt lat="43.7158" lon="4.98181">
        <ele>348.20001220703</ele>
        <time>2021-03-06T10:16:06.000Z</time>
      </trkpt>
      <trkpt lat="43.71578" lon="4.98187">
        <ele>349.20001220703</ele>
        <time>2021-03-06T10:16:11.000Z</time>
      </trkpt>
      <trkpt lat="43.71575" lon="4.98195">
        <ele>349.79998779297</ele>
        <time>2021-03-06T10:16:17.000Z</time>
      </trkpt>
      <trkpt lat="43.71573" lon="4.98202">
        <ele>350.60000610352</ele>
        <time>2021-03-06T10:16:22.000Z</time>
      </trkpt>
      <trkpt lat="43.71568" lon="4.98208">
        <ele>350.60000610352</ele>
        <time>2021-03-06T10:16:27.000Z</time>
      </trkpt>
      <trkpt lat="43.71563" lon="4.98211">
        <ele>349.39999389648</ele>
        <time>2021-03-06T10:16:31.000Z</time>
      </trkpt>
      <trkpt lat="43.71558" lon="4.98212">
        <ele>348.39999389648</ele>
        <time>2021-03-06T10:16:36.000Z</time>
      </trkpt>
      <trkpt lat="43.71553" lon="4.98212">
        <ele>347</ele>
        <time>2021-03-06T10:16:43.000Z</time>
      </trkpt>
      <trkpt lat="43.71554" lon="4.98217">
        <ele>347.79998779297</ele>
        <time>2021-03-06T10:17:02.000Z</time>
      </trkpt>
      <trkpt lat="43.71554" lon="4.98223">
        <ele>348.39999389648</ele>
        <time>2021-03-06T10:17:07.000Z</time>
      </trkpt>
      <trkpt lat="43.7155" lon="4.98228">
        <ele>348</ele>
        <time>2021-03-06T10:17:15.000Z</time>
      </trkpt>
      <trkpt lat="43.71545" lon="4.98227">
        <ele>346.39999389648</ele>
        <time>2021-03-06T10:17:38.000Z</time>
      </trkpt>
      <trkpt lat="43.7154" lon="4.98224">
        <ele>345</ele>
        <time>2021-03-06T10:17:42.000Z</time>
      </trkpt>
      <trkpt lat="43.71535" lon="4.9822">
        <ele>343.60000610352</ele>
        <time>2021-03-06T10:17:47.000Z</time>
      </trkpt>
      <trkpt lat="43.71532" lon="4.98212">
        <ele>342.20001220703</ele>
        <time>2021-03-06T10:17:53.000Z</time>
      </trkpt>
      <trkpt lat="43.71527" lon="4.9821">
        <ele>340.79998779297</ele>
        <time>2021-03-06T10:17:57.000Z</time>
      </trkpt>
      <trkpt lat="43.71522" lon="4.98212">
        <ele>339.79998779297</ele>
        <time>2021-03-06T10:18:00.000Z</time>
      </trkpt>
      <trkpt lat="43.71518" lon="4.98213">
        <ele>339.60000610352</ele>
        <time>2021-03-06T10:18:04.000Z</time>
      </trkpt>
      <trkpt lat="43.71513" lon="4.98218">
        <ele>340</ele>
        <time>2021-03-06T10:18:10.000Z</time>
      </trkpt>
      <trkpt lat="43.71507" lon="4.9822">
        <ele>340.39999389648</ele>
        <time>2021-03-06T10:18:16.000Z</time>
      </trkpt>
      <trkpt lat="43.71503" lon="4.98223">
        <ele>340.79998779297</ele>
        <time>2021-03-06T10:18:22.000Z</time>
      </trkpt>
      <trkpt lat="43.71501" lon="4.98231">
        <ele>341.60000610352</ele>
        <time>2021-03-06T10:18:28.000Z</time>
      </trkpt>
      <trkpt lat="43.71497" lon="4.98237">
        <ele>342.20001220703</ele>
        <time>2021-03-06T10:18:32.000Z</time>
      </trkpt>
      <trkpt lat="43.71494" lon="4.98241">
        <ele>342.79998779297</ele>
        <time>2021-03-06T10:18:36.000Z</time>
      </trkpt>
      <trkpt lat="43.71489" lon="4.98247">
        <ele>343.39999389648</ele>
        <time>2021-03-06T10:18:41.000Z</time>
      </trkpt>
      <trkpt lat="43.71485" lon="4.98249">
        <ele>343.60000610352</ele>
        <time>2021-03-06T10:18:45.000Z</time>
      </trkpt>
      <trkpt lat="43.71478" lon="4.98249">
        <ele>344</ele>
        <time>2021-03-06T10:18:51.000Z</time>
      </trkpt>
      <trkpt lat="43.71472" lon="4.98247">
        <ele>344.20001220703</ele>
        <time>2021-03-06T10:18:56.000Z</time>
      </trkpt>
      <trkpt lat="43.71467" lon="4.98243">
        <ele>344.20001220703</ele>
        <time>2021-03-06T10:19:02.000Z</time>
      </trkpt>
      <trkpt lat="43.71461" lon="4.98239">
        <ele>344</ele>
        <time>2021-03-06T10:19:42.000Z</time>
      </trkpt>
      <trkpt lat="43.71455" lon="4.98236">
        <ele>344.20001220703</ele>
        <time>2021-03-06T10:19:49.000Z</time>
      </trkpt>
      <trkpt lat="43.71438" lon="4.98217">
        <ele>343</ele>
        <time>2021-03-06T10:20:14.000Z</time>
      </trkpt>
      <trkpt lat="43.71432" lon="4.98209">
        <ele>344</ele>
        <time>2021-03-06T10:20:19.000Z</time>
      </trkpt>
      <trkpt lat="43.71428" lon="4.98201">
        <ele>344.60000610352</ele>
        <time>2021-03-06T10:20:22.000Z</time>
      </trkpt>
      <trkpt lat="43.71425" lon="4.98195">
        <ele>344.79998779297</ele>
        <time>2021-03-06T10:20:25.000Z</time>
      </trkpt>
      <trkpt lat="43.71421" lon="4.98189">
        <ele>345.60000610352</ele>
        <time>2021-03-06T10:20:28.000Z</time>
      </trkpt>
      <trkpt lat="43.71416" lon="4.98184">
        <ele>346.79998779297</ele>
        <time>2021-03-06T10:20:31.000Z</time>
      </trkpt>
      <trkpt lat="43.71411" lon="4.98178">
        <ele>348</ele>
        <time>2021-03-06T10:20:34.000Z</time>
      </trkpt>
      <trkpt lat="43.71406" lon="4.98172">
        <ele>349.39999389648</ele>
        <time>2021-03-06T10:20:37.000Z</time>
      </trkpt>
      <trkpt lat="43.71402" lon="4.98166">
        <ele>350</ele>
        <time>2021-03-06T10:20:39.000Z</time>
      </trkpt>
      <trkpt lat="43.71398" lon="4.98159">
        <ele>350.79998779297</ele>
        <time>2021-03-06T10:20:42.000Z</time>
      </trkpt>
      <trkpt lat="43.71395" lon="4.98151">
        <ele>351.20001220703</ele>
        <time>2021-03-06T10:20:45.000Z</time>
      </trkpt>
      <trkpt lat="43.71392" lon="4.98144">
        <ele>351.60000610352</ele>
        <time>2021-03-06T10:20:48.000Z</time>
      </trkpt>
      <trkpt lat="43.71388" lon="4.98138">
        <ele>352.20001220703</ele>
        <time>2021-03-06T10:20:51.000Z</time>
      </trkpt>
      <trkpt lat="43.71385" lon="4.98129">
        <ele>352.60000610352</ele>
        <time>2021-03-06T10:20:55.000Z</time>
      </trkpt>
      <trkpt lat="43.71382" lon="4.98122">
        <ele>352.79998779297</ele>
        <time>2021-03-06T10:20:58.000Z</time>
      </trkpt>
      <trkpt lat="43.71378" lon="4.98118">
        <ele>353</ele>
        <time>2021-03-06T10:21:01.000Z</time>
      </trkpt>
      <trkpt lat="43.71373" lon="4.98111">
        <ele>353.60000610352</ele>
        <time>2021-03-06T10:21:05.000Z</time>
      </trkpt>
      <trkpt lat="43.7137" lon="4.98105">
        <ele>353.60000610352</ele>
        <time>2021-03-06T10:21:09.000Z</time>
      </trkpt>
      <trkpt lat="43.71366" lon="4.98099">
        <ele>353.60000610352</ele>
        <time>2021-03-06T10:21:13.000Z</time>
      </trkpt>
      <trkpt lat="43.71363" lon="4.98092">
        <ele>353.60000610352</ele>
        <time>2021-03-06T10:21:17.000Z</time>
      </trkpt>
      <trkpt lat="43.71358" lon="4.98087">
        <ele>354.20001220703</ele>
        <time>2021-03-06T10:21:20.000Z</time>
      </trkpt>
      <trkpt lat="43.71354" lon="4.98081">
        <ele>354.39999389648</ele>
        <time>2021-03-06T10:21:23.000Z</time>
      </trkpt>
      <trkpt lat="43.71352" lon="4.98074">
        <ele>353.60000610352</ele>
        <time>2021-03-06T10:21:26.000Z</time>
      </trkpt>
      <trkpt lat="43.7135" lon="4.98066">
        <ele>352.20001220703</ele>
        <time>2021-03-06T10:21:29.000Z</time>
      </trkpt>
      <trkpt lat="43.71349" lon="4.98059">
        <ele>351.20001220703</ele>
        <time>2021-03-06T10:21:32.000Z</time>
      </trkpt>
      <trkpt lat="43.71345" lon="4.9805">
        <ele>350</ele>
        <time>2021-03-06T10:21:36.000Z</time>
      </trkpt>
      <trkpt lat="43.71341" lon="4.98044">
        <ele>349.60000610352</ele>
        <time>2021-03-06T10:21:39.000Z</time>
      </trkpt>
      <trkpt lat="43.71338" lon="4.98037">
        <ele>348.60000610352</ele>
        <time>2021-03-06T10:21:42.000Z</time>
      </trkpt>
      <trkpt lat="43.71335" lon="4.9803">
        <ele>347.79998779297</ele>
        <time>2021-03-06T10:21:45.000Z</time>
      </trkpt>
      <trkpt lat="43.7133" lon="4.98026">
        <ele>347.79998779297</ele>
        <time>2021-03-06T10:21:48.000Z</time>
      </trkpt>
      <trkpt lat="43.71325" lon="4.98024">
        <ele>348.20001220703</ele>
        <time>2021-03-06T10:21:52.000Z</time>
      </trkpt>
      <trkpt lat="43.7132" lon="4.98024">
        <ele>349</ele>
        <time>2021-03-06T10:21:56.000Z</time>
      </trkpt>
      <trkpt lat="43.71314" lon="4.98026">
        <ele>350.20001220703</ele>
        <time>2021-03-06T10:22:01.000Z</time>
      </trkpt>
      <trkpt lat="43.71309" lon="4.98029">
        <ele>351.79998779297</ele>
        <time>2021-03-06T10:22:07.000Z</time>
      </trkpt>
      <trkpt lat="43.71303" lon="4.98032">
        <ele>353.60000610352</ele>
        <time>2021-03-06T10:22:13.000Z</time>
      </trkpt>
      <trkpt lat="43.71299" lon="4.98036">
        <ele>355</ele>
        <time>2021-03-06T10:22:21.000Z</time>
      </trkpt>
      <trkpt lat="43.71294" lon="4.98039">
        <ele>356.60000610352</ele>
        <time>2021-03-06T10:22:31.000Z</time>
      </trkpt>
      <trkpt lat="43.71289" lon="4.9804">
        <ele>357.60000610352</ele>
        <time>2021-03-06T10:22:39.000Z</time>
      </trkpt>
      <trkpt lat="43.71283" lon="4.98042">
        <ele>358.79998779297</ele>
        <time>2021-03-06T10:22:52.000Z</time>
      </trkpt>
      <trkpt lat="43.71278" lon="4.98045">
        <ele>360.39999389648</ele>
        <time>2021-03-06T10:23:01.000Z</time>
      </trkpt>
      <trkpt lat="43.71274" lon="4.98046">
        <ele>361.60000610352</ele>
        <time>2021-03-06T10:23:09.000Z</time>
      </trkpt>
      <trkpt lat="43.71249" lon="4.98064">
        <ele>373.79998779297</ele>
        <time>2021-03-06T10:24:09.000Z</time>
      </trkpt>
      <trkpt lat="43.71244" lon="4.98066">
        <ele>375.60000610352</ele>
        <time>2021-03-06T10:24:14.000Z</time>
      </trkpt>
      <trkpt lat="43.71238" lon="4.98068">
        <ele>377.39999389648</ele>
        <time>2021-03-06T10:24:20.000Z</time>
      </trkpt>
      <trkpt lat="43.71234" lon="4.98071">
        <ele>379.60000610352</ele>
        <time>2021-03-06T10:24:27.000Z</time>
      </trkpt>
      <trkpt lat="43.71229" lon="4.98075">
        <ele>382</ele>
        <time>2021-03-06T10:24:34.000Z</time>
      </trkpt>
      <trkpt lat="43.71225" lon="4.98081">
        <ele>385</ele>
        <time>2021-03-06T10:24:42.000Z</time>
      </trkpt>
      <trkpt lat="43.71226" lon="4.98087">
        <ele>386.60000610352</ele>
        <time>2021-03-06T10:24:50.000Z</time>
      </trkpt>
      <trkpt lat="43.71226" lon="4.98093">
        <ele>388.60000610352</ele>
        <time>2021-03-06T10:25:01.000Z</time>
      </trkpt>
      <trkpt lat="43.7121" lon="4.98123">
        <ele>401.39999389648</ele>
        <time>2021-03-06T10:26:19.000Z</time>
      </trkpt>
      <trkpt lat="43.71205" lon="4.98121">
        <ele>401.39999389648</ele>
        <time>2021-03-06T10:26:26.000Z</time>
      </trkpt>
      <trkpt lat="43.712" lon="4.9812">
        <ele>402.20001220703</ele>
        <time>2021-03-06T10:26:35.000Z</time>
      </trkpt>
      <trkpt lat="43.71195" lon="4.98122">
        <ele>403.60000610352</ele>
        <time>2021-03-06T10:26:43.000Z</time>
      </trkpt>
      <trkpt lat="43.71189" lon="4.98123">
        <ele>405.20001220703</ele>
        <time>2021-03-06T10:26:49.000Z</time>
      </trkpt>
      <trkpt lat="43.71184" lon="4.98126">
        <ele>405.79998779297</ele>
        <time>2021-03-06T10:26:56.000Z</time>
      </trkpt>
      <trkpt lat="43.71178" lon="4.98126">
        <ele>404.60000610352</ele>
        <time>2021-03-06T10:27:02.000Z</time>
      </trkpt>
      <trkpt lat="43.71173" lon="4.98125">
        <ele>402.79998779297</ele>
        <time>2021-03-06T10:27:07.000Z</time>
      </trkpt>
      <trkpt lat="43.71167" lon="4.98124">
        <ele>401</ele>
        <time>2021-03-06T10:27:12.000Z</time>
      </trkpt>
      <trkpt lat="43.71162" lon="4.98127">
        <ele>401</ele>
        <time>2021-03-06T10:27:18.000Z</time>
      </trkpt>
      <trkpt lat="43.71156" lon="4.98129">
        <ele>400.39999389648</ele>
        <time>2021-03-06T10:27:23.000Z</time>
      </trkpt>
      <trkpt lat="43.71151" lon="4.98131">
        <ele>399.79998779297</ele>
        <time>2021-03-06T10:27:30.000Z</time>
      </trkpt>
      <trkpt lat="43.71146" lon="4.98132">
        <ele>398.79998779297</ele>
        <time>2021-03-06T10:27:37.000Z</time>
      </trkpt>
      <trkpt lat="43.71141" lon="4.98136">
        <ele>399</ele>
        <time>2021-03-06T10:27:45.000Z</time>
      </trkpt>
      <trkpt lat="43.71139" lon="4.98143">
        <ele>401.20001220703</ele>
        <time>2021-03-06T10:27:52.000Z</time>
      </trkpt>
      <trkpt lat="43.71139" lon="4.98151">
        <ele>404.60000610352</ele>
        <time>2021-03-06T10:27:58.000Z</time>
      </trkpt>
      <trkpt lat="43.71141" lon="4.98159">
        <ele>407.60000610352</ele>
        <time>2021-03-06T10:28:03.000Z</time>
      </trkpt>
      <trkpt lat="43.71143" lon="4.98166">
        <ele>410.20001220703</ele>
        <time>2021-03-06T10:28:08.000Z</time>
      </trkpt>
      <trkpt lat="43.71145" lon="4.98172">
        <ele>412.39999389648</ele>
        <time>2021-03-06T10:28:13.000Z</time>
      </trkpt>
      <trkpt lat="43.71146" lon="4.9818">
        <ele>414.20001220703</ele>
        <time>2021-03-06T10:28:20.000Z</time>
      </trkpt>
      <trkpt lat="43.71147" lon="4.98186">
        <ele>415.79998779297</ele>
        <time>2021-03-06T10:28:25.000Z</time>
      </trkpt>
      <trkpt lat="43.71153" lon="4.98188">
        <ele>418.79998779297</ele>
        <time>2021-03-06T10:28:32.000Z</time>
      </trkpt>
      <trkpt lat="43.71156" lon="4.98194">
        <ele>421.20001220703</ele>
        <time>2021-03-06T10:28:40.000Z</time>
      </trkpt>
      <trkpt lat="43.7116" lon="4.98197">
        <ele>423.60000610352</ele>
        <time>2021-03-06T10:28:46.000Z</time>
      </trkpt>
      <trkpt lat="43.71165" lon="4.982">
        <ele>426.20001220703</ele>
        <time>2021-03-06T10:28:55.000Z</time>
      </trkpt>
      <trkpt lat="43.7117" lon="4.98198">
        <ele>427.79998779297</ele>
        <time>2021-03-06T10:29:07.000Z</time>
      </trkpt>
      <trkpt lat="43.71173" lon="4.98204">
        <ele>430</ele>
        <time>2021-03-06T10:29:28.000Z</time>
      </trkpt>
      <trkpt lat="43.71176" lon="4.9821">
        <ele>432.79998779297</ele>
        <time>2021-03-06T10:29:47.000Z</time>
      </trkpt>
      <trkpt lat="43.71184" lon="4.98247">
        <ele>447</ele>
        <time>2021-03-06T10:30:59.000Z</time>
      </trkpt>
      <trkpt lat="43.71184" lon="4.98253">
        <ele>448.79998779297</ele>
        <time>2021-03-06T10:31:07.000Z</time>
      </trkpt>
      <trkpt lat="43.71184" lon="4.9826">
        <ele>450.79998779297</ele>
        <time>2021-03-06T10:31:15.000Z</time>
      </trkpt>
      <trkpt lat="43.71183" lon="4.98268">
        <ele>452.60000610352</ele>
        <time>2021-03-06T10:31:21.000Z</time>
      </trkpt>
      <trkpt lat="43.71186" lon="4.98274">
        <ele>455.79998779297</ele>
        <time>2021-03-06T10:31:27.000Z</time>
      </trkpt>
      <trkpt lat="43.71191" lon="4.98275">
        <ele>455.79998779297</ele>
        <time>2021-03-06T10:31:34.000Z</time>
      </trkpt>
      <trkpt lat="43.71195" lon="4.98272">
        <ele>454.60000610352</ele>
        <time>2021-03-06T10:31:43.000Z</time>
      </trkpt>
      <trkpt lat="43.71216" lon="4.98339">
        <ele>463</ele>
        <time>2021-03-06T10:40:58.000Z</time>
      </trkpt>
      <trkpt lat="43.71216" lon="4.9834">
        <ele>463</ele>
        <time>2021-03-06T10:40:59.000Z</time>
      </trkpt>
      <trkpt lat="43.71213" lon="4.98346">
        <ele>463.20001220703</ele>
        <time>2021-03-06T10:41:16.000Z</time>
      </trkpt>
      <trkpt lat="43.71212" lon="4.98353">
        <ele>463.60000610352</ele>
        <time>2021-03-06T10:41:23.000Z</time>
      </trkpt>
      <trkpt lat="43.71208" lon="4.98353">
        <ele>463.39999389648</ele>
        <time>2021-03-06T10:41:31.000Z</time>
      </trkpt>
      <trkpt lat="43.71173" lon="4.98337">
        <ele>456.20001220703</ele>
        <time>2021-03-06T10:44:53.000Z</time>
      </trkpt>
      <trkpt lat="43.71167" lon="4.98339">
        <ele>453.39999389648</ele>
        <time>2021-03-06T10:44:58.000Z</time>
      </trkpt>
      <trkpt lat="43.71163" lon="4.98342">
        <ele>451.20001220703</ele>
        <time>2021-03-06T10:45:02.000Z</time>
      </trkpt>
      <trkpt lat="43.71159" lon="4.98346">
        <ele>449.60000610352</ele>
        <time>2021-03-06T10:45:06.000Z</time>
      </trkpt>
      <trkpt lat="43.71154" lon="4.98349">
        <ele>449</ele>
        <time>2021-03-06T10:45:13.000Z</time>
      </trkpt>
      <trkpt lat="43.71149" lon="4.98349">
        <ele>447.79998779297</ele>
        <time>2021-03-06T10:45:21.000Z</time>
      </trkpt>
      <trkpt lat="43.71145" lon="4.98352">
        <ele>447.60000610352</ele>
        <time>2021-03-06T10:45:28.000Z</time>
      </trkpt>
      <trkpt lat="43.71147" lon="4.98361">
        <ele>450.39999389648</ele>
        <time>2021-03-06T10:45:36.000Z</time>
      </trkpt>
      <trkpt lat="43.71142" lon="4.98363">
        <ele>449.79998779297</ele>
        <time>2021-03-06T10:45:42.000Z</time>
      </trkpt>
      <trkpt lat="43.71136" lon="4.98365">
        <ele>448.60000610352</ele>
        <time>2021-03-06T10:45:47.000Z</time>
      </trkpt>
      <trkpt lat="43.7113" lon="4.98365">
        <ele>447.20001220703</ele>
        <time>2021-03-06T10:45:51.000Z</time>
      </trkpt>
      <trkpt lat="43.71125" lon="4.98367">
        <ele>446.60000610352</ele>
        <time>2021-03-06T10:45:56.000Z</time>
      </trkpt>
      <trkpt lat="43.7112" lon="4.98372">
        <ele>446.39999389648</ele>
        <time>2021-03-06T10:46:01.000Z</time>
      </trkpt>
      <trkpt lat="43.71118" lon="4.98377">
        <ele>446.20001220703</ele>
        <time>2021-03-06T10:46:13.000Z</time>
      </trkpt>
      <trkpt lat="43.71118" lon="4.98385">
        <ele>444.60000610352</ele>
        <time>2021-03-06T10:46:20.000Z</time>
      </trkpt>
      <trkpt lat="43.71117" lon="4.98393">
        <ele>443.60000610352</ele>
        <time>2021-03-06T10:46:25.000Z</time>
      </trkpt>
      <trkpt lat="43.71114" lon="4.98399">
        <ele>443</ele>
        <time>2021-03-06T10:46:30.000Z</time>
      </trkpt>
      <trkpt lat="43.71114" lon="4.98407">
        <ele>442.60000610352</ele>
        <time>2021-03-06T10:46:35.000Z</time>
      </trkpt>
      <trkpt lat="43.71115" lon="4.98414">
        <ele>442.39999389648</ele>
        <time>2021-03-06T10:46:41.000Z</time>
      </trkpt>
      <trkpt lat="43.71117" lon="4.98422">
        <ele>442.20001220703</ele>
        <time>2021-03-06T10:46:47.000Z</time>
      </trkpt>
      <trkpt lat="43.7112" lon="4.9843">
        <ele>442.20001220703</ele>
        <time>2021-03-06T10:46:51.000Z</time>
      </trkpt>
      <trkpt lat="43.71126" lon="4.98436">
        <ele>442.39999389648</ele>
        <time>2021-03-06T10:46:54.000Z</time>
      </trkpt>
      <trkpt lat="43.71131" lon="4.98445">
        <ele>442.60000610352</ele>
        <time>2021-03-06T10:46:58.000Z</time>
      </trkpt>
      <trkpt lat="43.71135" lon="4.98451">
        <ele>442.79998779297</ele>
        <time>2021-03-06T10:47:01.000Z</time>
      </trkpt>
      <trkpt lat="43.71135" lon="4.98459">
        <ele>442.20001220703</ele>
        <time>2021-03-06T10:47:04.000Z</time>
      </trkpt>
      <trkpt lat="43.71135" lon="4.98467">
        <ele>440.20001220703</ele>
        <time>2021-03-06T10:47:07.000Z</time>
      </trkpt>
      <trkpt lat="43.71138" lon="4.98474">
        <ele>438.60000610352</ele>
        <time>2021-03-06T10:47:10.000Z</time>
      </trkpt>
      <trkpt lat="43.71142" lon="4.98479">
        <ele>437.79998779297</ele>
        <time>2021-03-06T10:47:13.000Z</time>
      </trkpt>
      <trkpt lat="43.71147" lon="4.98483">
        <ele>437.39999389648</ele>
        <time>2021-03-06T10:47:16.000Z</time>
      </trkpt>
      <trkpt lat="43.71152" lon="4.98489">
        <ele>436.60000610352</ele>
        <time>2021-03-06T10:47:19.000Z</time>
      </trkpt>
      <trkpt lat="43.71156" lon="4.98495">
        <ele>435.39999389648</ele>
        <time>2021-03-06T10:47:22.000Z</time>
      </trkpt>
      <trkpt lat="43.71159" lon="4.98504">
        <ele>433.39999389648</ele>
        <time>2021-03-06T10:47:25.000Z</time>
      </trkpt>
      <trkpt lat="43.71162" lon="4.98512">
        <ele>431.79998779297</ele>
        <time>2021-03-06T10:47:28.000Z</time>
      </trkpt>
      <trkpt lat="43.71164" lon="4.98519">
        <ele>430.20001220703</ele>
        <time>2021-03-06T10:47:31.000Z</time>
      </trkpt>
      <trkpt lat="43.71168" lon="4.98525">
        <ele>430</ele>
        <time>2021-03-06T10:47:34.000Z</time>
      </trkpt>
      <trkpt lat="43.71172" lon="4.98531">
        <ele>429.39999389648</ele>
        <time>2021-03-06T10:47:37.000Z</time>
      </trkpt>
      <trkpt lat="43.71177" lon="4.98536">
        <ele>428.60000610352</ele>
        <time>2021-03-06T10:47:40.000Z</time>
      </trkpt>
      <trkpt lat="43.71182" lon="4.9854">
        <ele>427.79998779297</ele>
        <time>2021-03-06T10:47:43.000Z</time>
      </trkpt>
      <trkpt lat="43.71186" lon="4.98545">
        <ele>426.79998779297</ele>
        <time>2021-03-06T10:47:46.000Z</time>
      </trkpt>
      <trkpt lat="43.71192" lon="4.9855">
        <ele>425</ele>
        <time>2021-03-06T10:47:49.000Z</time>
      </trkpt>
      <trkpt lat="43.71199" lon="4.98553">
        <ele>423.20001220703</ele>
        <time>2021-03-06T10:47:52.000Z</time>
      </trkpt>
      <trkpt lat="43.71202" lon="4.98557">
        <ele>422.20001220703</ele>
        <time>2021-03-06T10:47:54.000Z</time>
      </trkpt>
      <trkpt lat="43.71206" lon="4.98564">
        <ele>420.60000610352</ele>
        <time>2021-03-06T10:47:57.000Z</time>
      </trkpt>
      <trkpt lat="43.7121" lon="4.98569">
        <ele>419.20001220703</ele>
        <time>2021-03-06T10:48:00.000Z</time>
      </trkpt>
      <trkpt lat="43.71215" lon="4.98574">
        <ele>417.79998779297</ele>
        <time>2021-03-06T10:48:03.000Z</time>
      </trkpt>
      <trkpt lat="43.7122" lon="4.98576">
        <ele>416.60000610352</ele>
        <time>2021-03-06T10:48:06.000Z</time>
      </trkpt>
      <trkpt lat="43.71226" lon="4.98578">
        <ele>415.60000610352</ele>
        <time>2021-03-06T10:48:09.000Z</time>
      </trkpt>
      <trkpt lat="43.71231" lon="4.98581">
        <ele>414.39999389648</ele>
        <time>2021-03-06T10:48:12.000Z</time>
      </trkpt>
      <trkpt lat="43.71236" lon="4.98585">
        <ele>413</ele>
        <time>2021-03-06T10:48:15.000Z</time>
      </trkpt>
      <trkpt lat="43.71242" lon="4.98589">
        <ele>411.79998779297</ele>
        <time>2021-03-06T10:48:18.000Z</time>
      </trkpt>
      <trkpt lat="43.71248" lon="4.98592">
        <ele>410.79998779297</ele>
        <time>2021-03-06T10:48:21.000Z</time>
      </trkpt>
      <trkpt lat="43.71253" lon="4.98594">
        <ele>410</ele>
        <time>2021-03-06T10:48:24.000Z</time>
      </trkpt>
      <trkpt lat="43.71257" lon="4.98598">
        <ele>408.79998779297</ele>
        <time>2021-03-06T10:48:27.000Z</time>
      </trkpt>
      <trkpt lat="43.71262" lon="4.98601">
        <ele>407.79998779297</ele>
        <time>2021-03-06T10:48:30.000Z</time>
      </trkpt>
      <trkpt lat="43.71268" lon="4.98605">
        <ele>406.60000610352</ele>
        <time>2021-03-06T10:48:34.000Z</time>
      </trkpt>
      <trkpt lat="43.71271" lon="4.98612">
        <ele>404.60000610352</ele>
        <time>2021-03-06T10:48:38.000Z</time>
      </trkpt>
      <trkpt lat="43.71277" lon="4.98616">
        <ele>402.20001220703</ele>
        <time>2021-03-06T10:48:43.000Z</time>
      </trkpt>
      <trkpt lat="43.71282" lon="4.98618">
        <ele>400.39999389648</ele>
        <time>2021-03-06T10:48:47.000Z</time>
      </trkpt>
      <trkpt lat="43.71284" lon="4.98625">
        <ele>398</ele>
        <time>2021-03-06T10:48:51.000Z</time>
      </trkpt>
      <trkpt lat="43.71288" lon="4.9863">
        <ele>396</ele>
        <time>2021-03-06T10:48:55.000Z</time>
      </trkpt>
      <trkpt lat="43.71292" lon="4.98634">
        <ele>394.20001220703</ele>
        <time>2021-03-06T10:48:59.000Z</time>
      </trkpt>
      <trkpt lat="43.71297" lon="4.98638">
        <ele>391.79998779297</ele>
        <time>2021-03-06T10:49:04.000Z</time>
      </trkpt>
      <trkpt lat="43.71299" lon="4.98644">
        <ele>389.79998779297</ele>
        <time>2021-03-06T10:49:08.000Z</time>
      </trkpt>
      <trkpt lat="43.713" lon="4.98651">
        <ele>387.60000610352</ele>
        <time>2021-03-06T10:49:12.000Z</time>
      </trkpt>
      <trkpt lat="43.71305" lon="4.98655">
        <ele>385.60000610352</ele>
        <time>2021-03-06T10:49:16.000Z</time>
      </trkpt>
      <trkpt lat="43.7131" lon="4.9866">
        <ele>383.20001220703</ele>
        <time>2021-03-06T10:49:20.000Z</time>
      </trkpt>
      <trkpt lat="43.71313" lon="4.98664">
        <ele>381.39999389648</ele>
        <time>2021-03-06T10:49:23.000Z</time>
      </trkpt>
      <trkpt lat="43.71319" lon="4.98666">
        <ele>379.60000610352</ele>
        <time>2021-03-06T10:49:27.000Z</time>
      </trkpt>
      <trkpt lat="43.71322" lon="4.98672">
        <ele>377.60000610352</ele>
        <time>2021-03-06T10:49:33.000Z</time>
      </trkpt>
      <trkpt lat="43.71328" lon="4.98676">
        <ele>375</ele>
        <time>2021-03-06T10:49:38.000Z</time>
      </trkpt>
      <trkpt lat="43.71331" lon="4.98682">
        <ele>372.79998779297</ele>
        <time>2021-03-06T10:49:42.000Z</time>
      </trkpt>
      <trkpt lat="43.71336" lon="4.98688">
        <ele>370</ele>
        <time>2021-03-06T10:49:46.000Z</time>
      </trkpt>
      <trkpt lat="43.71341" lon="4.98691">
        <ele>368.20001220703</ele>
        <time>2021-03-06T10:49:50.000Z</time>
      </trkpt>
      <trkpt lat="43.71345" lon="4.98697">
        <ele>365.60000610352</ele>
        <time>2021-03-06T10:49:54.000Z</time>
      </trkpt>
      <trkpt lat="43.7135" lon="4.98703">
        <ele>363.20001220703</ele>
        <time>2021-03-06T10:49:58.000Z</time>
      </trkpt>
      <trkpt lat="43.71355" lon="4.98705">
        <ele>361.60000610352</ele>
        <time>2021-03-06T10:50:02.000Z</time>
      </trkpt>
      <trkpt lat="43.71359" lon="4.98708">
        <ele>360.20001220703</ele>
        <time>2021-03-06T10:50:07.000Z</time>
      </trkpt>
      <trkpt lat="43.71364" lon="4.98711">
        <ele>358.79998779297</ele>
        <time>2021-03-06T10:50:13.000Z</time>
      </trkpt>
      <trkpt lat="43.71369" lon="4.98715">
        <ele>357.39999389648</ele>
        <time>2021-03-06T10:50:20.000Z</time>
      </trkpt>
      <trkpt lat="43.71373" lon="4.98719">
        <ele>356</ele>
        <time>2021-03-06T10:50:29.000Z</time>
      </trkpt>
      <trkpt lat="43.71379" lon="4.9872">
        <ele>354.79998779297</ele>
        <time>2021-03-06T10:50:37.000Z</time>
      </trkpt>
      <trkpt lat="43.71383" lon="4.98727">
        <ele>352.60000610352</ele>
        <time>2021-03-06T10:50:42.000Z</time>
      </trkpt>
      <trkpt lat="43.71387" lon="4.98733">
        <ele>351</ele>
        <time>2021-03-06T10:50:46.000Z</time>
      </trkpt>
      <trkpt lat="43.71389" lon="4.98738">
        <ele>349.60000610352</ele>
        <time>2021-03-06T10:50:51.000Z</time>
      </trkpt>
      <trkpt lat="43.71392" lon="4.98748">
        <ele>346.79998779297</ele>
        <time>2021-03-06T10:50:57.000Z</time>
      </trkpt>
      <trkpt lat="43.71393" lon="4.98755">
        <ele>344.39999389648</ele>
        <time>2021-03-06T10:51:01.000Z</time>
      </trkpt>
      <trkpt lat="43.71394" lon="4.98763">
        <ele>342</ele>
        <time>2021-03-06T10:51:05.000Z</time>
      </trkpt>
      <trkpt lat="43.71395" lon="4.98771">
        <ele>339.20001220703</ele>
        <time>2021-03-06T10:51:09.000Z</time>
      </trkpt>
      <trkpt lat="43.71395" lon="4.9878">
        <ele>336.60000610352</ele>
        <time>2021-03-06T10:51:12.000Z</time>
      </trkpt>
      <trkpt lat="43.71395" lon="4.98789">
        <ele>333.79998779297</ele>
        <time>2021-03-06T10:51:15.000Z</time>
      </trkpt>
      <trkpt lat="43.71394" lon="4.98797">
        <ele>332</ele>
        <time>2021-03-06T10:51:18.000Z</time>
      </trkpt>
      <trkpt lat="43.71392" lon="4.98805">
        <ele>330.39999389648</ele>
        <time>2021-03-06T10:51:21.000Z</time>
      </trkpt>
      <trkpt lat="43.71392" lon="4.98812">
        <ele>329.20001220703</ele>
        <time>2021-03-06T10:51:24.000Z</time>
      </trkpt>
      <trkpt lat="43.7139" lon="4.9882">
        <ele>327.79998779297</ele>
        <time>2021-03-06T10:51:28.000Z</time>
      </trkpt>
      <trkpt lat="43.71388" lon="4.98826">
        <ele>326.60000610352</ele>
        <time>2021-03-06T10:51:33.000Z</time>
      </trkpt>
      <trkpt lat="43.71388" lon="4.98832">
        <ele>325.39999389648</ele>
        <time>2021-03-06T10:51:40.000Z</time>
      </trkpt>
      <trkpt lat="43.71388" lon="4.98839">
        <ele>323.60000610352</ele>
        <time>2021-03-06T10:51:57.000Z</time>
      </trkpt>
      <trkpt lat="43.71386" lon="4.98855">
        <ele>319.79998779297</ele>
        <time>2021-03-06T10:52:06.000Z</time>
      </trkpt>
      <trkpt lat="43.71387" lon="4.98861">
        <ele>318.20001220703</ele>
        <time>2021-03-06T10:52:09.000Z</time>
      </trkpt>
      <trkpt lat="43.71385" lon="4.98869">
        <ele>316.39999389648</ele>
        <time>2021-03-06T10:52:13.000Z</time>
      </trkpt>
      <trkpt lat="43.71383" lon="4.98875">
        <ele>314.79998779297</ele>
        <time>2021-03-06T10:52:18.000Z</time>
      </trkpt>
      <trkpt lat="43.71383" lon="4.98883">
        <ele>313.39999389648</ele>
        <time>2021-03-06T10:52:23.000Z</time>
      </trkpt>
      <trkpt lat="43.71382" lon="4.9889">
        <ele>312</ele>
        <time>2021-03-06T10:52:28.000Z</time>
      </trkpt>
      <trkpt lat="43.71383" lon="4.98897">
        <ele>310.79998779297</ele>
        <time>2021-03-06T10:52:37.000Z</time>
      </trkpt>
      <trkpt lat="43.71384" lon="4.98904">
        <ele>309.39999389648</ele>
        <time>2021-03-06T10:52:45.000Z</time>
      </trkpt>
      <trkpt lat="43.71383" lon="4.98912">
        <ele>308.20001220703</ele>
        <time>2021-03-06T10:52:51.000Z</time>
      </trkpt>
      <trkpt lat="43.71383" lon="4.98919">
        <ele>307.20001220703</ele>
        <time>2021-03-06T10:52:56.000Z</time>
      </trkpt>
      <trkpt lat="43.71383" lon="4.98927">
        <ele>306</ele>
        <time>2021-03-06T10:53:04.000Z</time>
      </trkpt>
      <trkpt lat="43.71382" lon="4.98936">
        <ele>304.79998779297</ele>
        <time>2021-03-06T10:53:09.000Z</time>
      </trkpt>
      <trkpt lat="43.7138" lon="4.98944">
        <ele>303.79998779297</ele>
        <time>2021-03-06T10:53:12.000Z</time>
      </trkpt>
      <trkpt lat="43.71378" lon="4.9895">
        <ele>303</ele>
        <time>2021-03-06T10:53:14.000Z</time>
      </trkpt>
      <trkpt lat="43.71377" lon="4.98959">
        <ele>301.79998779297</ele>
        <time>2021-03-06T10:53:17.000Z</time>
      </trkpt>
      <trkpt lat="43.71379" lon="4.98967">
        <ele>300</ele>
        <time>2021-03-06T10:53:21.000Z</time>
      </trkpt>
      <trkpt lat="43.71381" lon="4.98975">
        <ele>298</ele>
        <time>2021-03-06T10:53:25.000Z</time>
      </trkpt>
      <trkpt lat="43.71383" lon="4.98982">
        <ele>296.39999389648</ele>
        <time>2021-03-06T10:53:28.000Z</time>
      </trkpt>
      <trkpt lat="43.71385" lon="4.9899">
        <ele>294.60000610352</ele>
        <time>2021-03-06T10:53:31.000Z</time>
      </trkpt>
      <trkpt lat="43.71387" lon="4.98997">
        <ele>293.39999389648</ele>
        <time>2021-03-06T10:53:34.000Z</time>
      </trkpt>
      <trkpt lat="43.7139" lon="4.99004">
        <ele>292.20001220703</ele>
        <time>2021-03-06T10:53:38.000Z</time>
      </trkpt>
      <trkpt lat="43.71394" lon="4.9901">
        <ele>291</ele>
        <time>2021-03-06T10:53:42.000Z</time>
      </trkpt>
      <trkpt lat="43.71398" lon="4.99016">
        <ele>289.79998779297</ele>
        <time>2021-03-06T10:53:46.000Z</time>
      </trkpt>
      <trkpt lat="43.71401" lon="4.99022">
        <ele>288.60000610352</ele>
        <time>2021-03-06T10:53:51.000Z</time>
      </trkpt>
      <trkpt lat="43.71406" lon="4.99028">
        <ele>287</ele>
        <time>2021-03-06T10:53:56.000Z</time>
      </trkpt>
      <trkpt lat="43.7141" lon="4.99033">
        <ele>286</ele>
        <time>2021-03-06T10:54:00.000Z</time>
      </trkpt>
      <trkpt lat="43.71412" lon="4.9904">
        <ele>284.79998779297</ele>
        <time>2021-03-06T10:54:07.000Z</time>
      </trkpt>
      <trkpt lat="43.71413" lon="4.99048">
        <ele>282.60000610352</ele>
        <time>2021-03-06T10:54:11.000Z</time>
      </trkpt>
      <trkpt lat="43.71416" lon="4.99056">
        <ele>279.79998779297</ele>
        <time>2021-03-06T10:54:15.000Z</time>
      </trkpt>
      <trkpt lat="43.71417" lon="4.99064">
        <ele>277.39999389648</ele>
        <time>2021-03-06T10:54:19.000Z</time>
      </trkpt>
      <trkpt lat="43.71419" lon="4.99072">
        <ele>274.79998779297</ele>
        <time>2021-03-06T10:54:23.000Z</time>
      </trkpt>
      <trkpt lat="43.71419" lon="4.99079">
        <ele>272.79998779297</ele>
        <time>2021-03-06T10:54:26.000Z</time>
      </trkpt>
      <trkpt lat="43.71419" lon="4.99085">
        <ele>270.79998779297</ele>
        <time>2021-03-06T10:54:30.000Z</time>
      </trkpt>
      <trkpt lat="43.71421" lon="4.99093">
        <ele>268.60000610352</ele>
        <time>2021-03-06T10:54:34.000Z</time>
      </trkpt>
      <trkpt lat="43.71423" lon="4.991">
        <ele>266.20001220703</ele>
        <time>2021-03-06T10:54:40.000Z</time>
      </trkpt>
      <trkpt lat="43.71425" lon="4.99106">
        <ele>264</ele>
        <time>2021-03-06T10:54:45.000Z</time>
      </trkpt>
      <trkpt lat="43.71429" lon="4.99112">
        <ele>262</ele>
        <time>2021-03-06T10:54:50.000Z</time>
      </trkpt>
      <trkpt lat="43.71428" lon="4.99119">
        <ele>260.20001220703</ele>
        <time>2021-03-06T10:54:57.000Z</time>
      </trkpt>
      <trkpt lat="43.71428" lon="4.99127">
        <ele>258.79998779297</ele>
        <time>2021-03-06T10:55:03.000Z</time>
      </trkpt>
      <trkpt lat="43.71429" lon="4.99135">
        <ele>256.79998779297</ele>
        <time>2021-03-06T10:55:07.000Z</time>
      </trkpt>
      <trkpt lat="43.71431" lon="4.99143">
        <ele>254.60000610352</ele>
        <time>2021-03-06T10:55:11.000Z</time>
      </trkpt>
      <trkpt lat="43.71434" lon="4.99151">
        <ele>252.19999694824</ele>
        <time>2021-03-06T10:55:15.000Z</time>
      </trkpt>
      <trkpt lat="43.71435" lon="4.99158">
        <ele>250.39999389648</ele>
        <time>2021-03-06T10:55:18.000Z</time>
      </trkpt>
      <trkpt lat="43.71434" lon="4.99166">
        <ele>249</ele>
        <time>2021-03-06T10:55:21.000Z</time>
      </trkpt>
      <trkpt lat="43.71432" lon="4.99172">
        <ele>247.80000305176</ele>
        <time>2021-03-06T10:55:24.000Z</time>
      </trkpt>
      <trkpt lat="43.71429" lon="4.9918">
        <ele>247.19999694824</ele>
        <time>2021-03-06T10:55:27.000Z</time>
      </trkpt>
      <trkpt lat="43.71426" lon="4.99189">
        <ele>245.80000305176</ele>
        <time>2021-03-06T10:55:30.000Z</time>
      </trkpt>
      <trkpt lat="43.71425" lon="4.99197">
        <ele>244.39999389648</ele>
        <time>2021-03-06T10:55:33.000Z</time>
      </trkpt>
      <trkpt lat="43.71422" lon="4.99206">
        <ele>244.39999389648</ele>
        <time>2021-03-06T10:55:36.000Z</time>
      </trkpt>
      <trkpt lat="43.71421" lon="4.99213">
        <ele>244</ele>
        <time>2021-03-06T10:55:38.000Z</time>
      </trkpt>
      <trkpt lat="43.71418" lon="4.99222">
        <ele>243.80000305176</ele>
        <time>2021-03-06T10:55:41.000Z</time>
      </trkpt>
      <trkpt lat="43.71417" lon="4.99227">
        <ele>243.39999389648</ele>
        <time>2021-03-06T10:55:43.000Z</time>
      </trkpt>
      <trkpt lat="43.71419" lon="4.99236">
        <ele>241.60000610352</ele>
        <time>2021-03-06T10:55:47.000Z</time>
      </trkpt>
      <trkpt lat="43.71424" lon="4.99242">
        <ele>239</ele>
        <time>2021-03-06T10:55:50.000Z</time>
      </trkpt>
      <trkpt lat="43.71431" lon="4.99247">
        <ele>236</ele>
        <time>2021-03-06T10:55:53.000Z</time>
      </trkpt>
      <trkpt lat="43.71436" lon="4.99254">
        <ele>233.19999694824</ele>
        <time>2021-03-06T10:55:56.000Z</time>
      </trkpt>
      <trkpt lat="43.71442" lon="4.99261">
        <ele>231.60000610352</ele>
        <time>2021-03-06T10:55:59.000Z</time>
      </trkpt>
      <trkpt lat="43.71445" lon="4.99266">
        <ele>230.60000610352</ele>
        <time>2021-03-06T10:56:01.000Z</time>
      </trkpt>
      <trkpt lat="43.71449" lon="4.9927">
        <ele>229.80000305176</ele>
        <time>2021-03-06T10:56:03.000Z</time>
      </trkpt>
      <trkpt lat="43.71455" lon="4.99276">
        <ele>228.60000610352</ele>
        <time>2021-03-06T10:56:06.000Z</time>
      </trkpt>
      <trkpt lat="43.71457" lon="4.99281">
        <ele>227.60000610352</ele>
        <time>2021-03-06T10:56:08.000Z</time>
      </trkpt>
      <trkpt lat="43.7146" lon="4.9929">
        <ele>226.19999694824</ele>
        <time>2021-03-06T10:56:11.000Z</time>
      </trkpt>
      <trkpt lat="43.71461" lon="4.99299">
        <ele>224.19999694824</ele>
        <time>2021-03-06T10:56:14.000Z</time>
      </trkpt>
      <trkpt lat="43.71465" lon="4.99305">
        <ele>222.60000610352</ele>
        <time>2021-03-06T10:56:17.000Z</time>
      </trkpt>
      <trkpt lat="43.71471" lon="4.99309">
        <ele>221.19999694824</ele>
        <time>2021-03-06T10:56:20.000Z</time>
      </trkpt>
      <trkpt lat="43.71476" lon="4.99315">
        <ele>219.60000610352</ele>
        <time>2021-03-06T10:56:23.000Z</time>
      </trkpt>
      <trkpt lat="43.71481" lon="4.9932">
        <ele>218.19999694824</ele>
        <time>2021-03-06T10:56:25.000Z</time>
      </trkpt>
      <trkpt lat="43.71485" lon="4.99324">
        <ele>216.80000305176</ele>
        <time>2021-03-06T10:56:27.000Z</time>
      </trkpt>
      <trkpt lat="43.71489" lon="4.99329">
        <ele>215.60000610352</ele>
        <time>2021-03-06T10:56:29.000Z</time>
      </trkpt>
      <trkpt lat="43.71496" lon="4.99333">
        <ele>214</ele>
        <time>2021-03-06T10:56:32.000Z</time>
      </trkpt>
      <trkpt lat="43.715" lon="4.99336">
        <ele>213.19999694824</ele>
        <time>2021-03-06T10:56:34.000Z</time>
      </trkpt>
      <trkpt lat="43.71506" lon="4.9934">
        <ele>211.80000305176</ele>
        <time>2021-03-06T10:56:37.000Z</time>
      </trkpt>
      <trkpt lat="43.71512" lon="4.99346">
        <ele>210</ele>
        <time>2021-03-06T10:56:40.000Z</time>
      </trkpt>
      <trkpt lat="43.71517" lon="4.99353">
        <ele>208</ele>
        <time>2021-03-06T10:56:43.000Z</time>
      </trkpt>
      <trkpt lat="43.71521" lon="4.9936">
        <ele>206</ele>
        <time>2021-03-06T10:56:46.000Z</time>
      </trkpt>
      <trkpt lat="43.71524" lon="4.99367">
        <ele>204.39999389648</ele>
        <time>2021-03-06T10:56:49.000Z</time>
      </trkpt>
      <trkpt lat="43.71527" lon="4.99375">
        <ele>202.60000610352</ele>
        <time>2021-03-06T10:56:52.000Z</time>
      </trkpt>
      <trkpt lat="43.71528" lon="4.99387">
        <ele>202</ele>
        <time>2021-03-06T10:56:56.000Z</time>
      </trkpt>
      <trkpt lat="43.7153" lon="4.99396">
        <ele>201.39999389648</ele>
        <time>2021-03-06T10:56:59.000Z</time>
      </trkpt>
      <trkpt lat="43.71532" lon="4.99403">
        <ele>200.80000305176</ele>
        <time>2021-03-06T10:57:01.000Z</time>
      </trkpt>
      <trkpt lat="43.71535" lon="4.99409">
        <ele>200.39999389648</ele>
        <time>2021-03-06T10:57:03.000Z</time>
      </trkpt>
      <trkpt lat="43.71538" lon="4.99415">
        <ele>199.80000305176</ele>
        <time>2021-03-06T10:57:05.000Z</time>
      </trkpt>
      <trkpt lat="43.71542" lon="4.99423">
        <ele>199.19999694824</ele>
        <time>2021-03-06T10:57:08.000Z</time>
      </trkpt>
      <trkpt lat="43.71547" lon="4.99432">
        <ele>198.60000610352</ele>
        <time>2021-03-06T10:57:11.000Z</time>
      </trkpt>
      <trkpt lat="43.7155" lon="4.99438">
        <ele>198.19999694824</ele>
        <time>2021-03-06T10:57:13.000Z</time>
      </trkpt>
      <trkpt lat="43.71552" lon="4.99446">
        <ele>197.39999389648</ele>
        <time>2021-03-06T10:57:16.000Z</time>
      </trkpt>
      <trkpt lat="43.71553" lon="4.99453">
        <ele>197</ele>
        <time>2021-03-06T10:57:20.000Z</time>
      </trkpt>
      <trkpt lat="43.71552" lon="4.99459">
        <ele>196.60000610352</ele>
        <time>2021-03-06T10:57:29.000Z</time>
      </trkpt>
      <trkpt lat="43.71552" lon="4.99464">
        <ele>196.60000610352</ele>
        <time>2021-03-06T11:00:16.000Z</time>
      </trkpt>
      <trkpt lat="43.71551" lon="4.99474">
        <ele>196.39999389648</ele>
        <time>2021-03-06T11:00:20.000Z</time>
      </trkpt>
      <trkpt lat="43.71549" lon="4.99482">
        <ele>196.39999389648</ele>
        <time>2021-03-06T11:00:23.000Z</time>
      </trkpt>
      <trkpt lat="43.71547" lon="4.99489">
        <ele>196</ele>
        <time>2021-03-06T11:00:27.000Z</time>
      </trkpt>
      <trkpt lat="43.71544" lon="4.99494">
        <ele>195</ele>
        <time>2021-03-06T11:00:31.000Z</time>
      </trkpt>
      <trkpt lat="43.71541" lon="4.995">
        <ele>194.19999694824</ele>
        <time>2021-03-06T11:00:35.000Z</time>
      </trkpt>
      <trkpt lat="43.71535" lon="4.99507">
        <ele>193</ele>
        <time>2021-03-06T11:00:40.000Z</time>
      </trkpt>
      <trkpt lat="43.71529" lon="4.99512">
        <ele>192</ele>
        <time>2021-03-06T11:00:43.000Z</time>
      </trkpt>
      <trkpt lat="43.71523" lon="4.99518">
        <ele>190.80000305176</ele>
        <time>2021-03-06T11:00:46.000Z</time>
      </trkpt>
      <trkpt lat="43.71518" lon="4.99523">
        <ele>190.60000610352</ele>
        <time>2021-03-06T11:00:49.000Z</time>
      </trkpt>
      <trkpt lat="43.71512" lon="4.99529">
        <ele>191.39999389648</ele>
        <time>2021-03-06T11:00:52.000Z</time>
      </trkpt>
      <trkpt lat="43.71508" lon="4.99533">
        <ele>191.60000610352</ele>
        <time>2021-03-06T11:00:55.000Z</time>
      </trkpt>
      <trkpt lat="43.71503" lon="4.99538">
        <ele>191.60000610352</ele>
        <time>2021-03-06T11:00:58.000Z</time>
      </trkpt>
      <trkpt lat="43.71499" lon="4.99543">
        <ele>191.60000610352</ele>
        <time>2021-03-06T11:01:01.000Z</time>
      </trkpt>
      <trkpt lat="43.71493" lon="4.99549">
        <ele>192.39999389648</ele>
        <time>2021-03-06T11:01:05.000Z</time>
      </trkpt>
      <trkpt lat="43.71488" lon="4.99554">
        <ele>193.19999694824</ele>
        <time>2021-03-06T11:01:08.000Z</time>
      </trkpt>
      <trkpt lat="43.71483" lon="4.9956">
        <ele>193.80000305176</ele>
        <time>2021-03-06T11:01:11.000Z</time>
      </trkpt>
      <trkpt lat="43.71479" lon="4.99565">
        <ele>194.39999389648</ele>
        <time>2021-03-06T11:01:14.000Z</time>
      </trkpt>
      <trkpt lat="43.71476" lon="4.9957">
        <ele>194.80000305176</ele>
        <time>2021-03-06T11:01:17.000Z</time>
      </trkpt>
      <trkpt lat="43.71473" lon="4.99578">
        <ele>195</ele>
        <time>2021-03-06T11:01:20.000Z</time>
      </trkpt>
      <trkpt lat="43.7147" lon="4.99587">
        <ele>194.19999694824</ele>
        <time>2021-03-06T11:01:23.000Z</time>
      </trkpt>
      <trkpt lat="43.71468" lon="4.99596">
        <ele>193.19999694824</ele>
        <time>2021-03-06T11:01:26.000Z</time>
      </trkpt>
      <trkpt lat="43.71466" lon="4.99603">
        <ele>192.60000610352</ele>
        <time>2021-03-06T11:01:28.000Z</time>
      </trkpt>
      <trkpt lat="43.71464" lon="4.99613">
        <ele>191.60000610352</ele>
        <time>2021-03-06T11:01:31.000Z</time>
      </trkpt>
      <trkpt lat="43.71461" lon="4.99619">
        <ele>191</ele>
        <time>2021-03-06T11:01:33.000Z</time>
      </trkpt>
      <trkpt lat="43.71458" lon="4.99629">
        <ele>190.39999389648</ele>
        <time>2021-03-06T11:01:36.000Z</time>
      </trkpt>
      <trkpt lat="43.71458" lon="4.99636">
        <ele>190</ele>
        <time>2021-03-06T11:01:38.000Z</time>
      </trkpt>
      <trkpt lat="43.71458" lon="4.99645">
        <ele>189.80000305176</ele>
        <time>2021-03-06T11:01:41.000Z</time>
      </trkpt>
      <trkpt lat="43.71461" lon="4.99655">
        <ele>189.19999694824</ele>
        <time>2021-03-06T11:01:44.000Z</time>
      </trkpt>
      <trkpt lat="43.71464" lon="4.99661">
        <ele>188.80000305176</ele>
        <time>2021-03-06T11:01:46.000Z</time>
      </trkpt>
      <trkpt lat="43.71468" lon="4.99668">
        <ele>188.19999694824</ele>
        <time>2021-03-06T11:01:49.000Z</time>
      </trkpt>
      <trkpt lat="43.71473" lon="4.99675">
        <ele>187.60000610352</ele>
        <time>2021-03-06T11:01:52.000Z</time>
      </trkpt>
      <trkpt lat="43.71477" lon="4.99681">
        <ele>187.19999694824</ele>
        <time>2021-03-06T11:01:54.000Z</time>
      </trkpt>
      <trkpt lat="43.7148" lon="4.99686">
        <ele>186.80000305176</ele>
        <time>2021-03-06T11:01:56.000Z</time>
      </trkpt>
      <trkpt lat="43.71485" lon="4.99693">
        <ele>186</ele>
        <time>2021-03-06T11:01:59.000Z</time>
      </trkpt>
      <trkpt lat="43.7149" lon="4.99701">
        <ele>185.39999389648</ele>
        <time>2021-03-06T11:02:02.000Z</time>
      </trkpt>
      <trkpt lat="43.71493" lon="4.99707">
        <ele>185</ele>
        <time>2021-03-06T11:02:04.000Z</time>
      </trkpt>
      <trkpt lat="43.71497" lon="4.99716">
        <ele>184.39999389648</ele>
        <time>2021-03-06T11:02:07.000Z</time>
      </trkpt>
      <trkpt lat="43.71499" lon="4.99722">
        <ele>183.80000305176</ele>
        <time>2021-03-06T11:02:09.000Z</time>
      </trkpt>
      <trkpt lat="43.71501" lon="4.99732">
        <ele>183.19999694824</ele>
        <time>2021-03-06T11:02:12.000Z</time>
      </trkpt>
      <trkpt lat="43.71503" lon="4.99738">
        <ele>182.80000305176</ele>
        <time>2021-03-06T11:02:14.000Z</time>
      </trkpt>
      <trkpt lat="43.71505" lon="4.99747">
        <ele>182.19999694824</ele>
        <time>2021-03-06T11:02:17.000Z</time>
      </trkpt>
      <trkpt lat="43.71505" lon="4.99757">
        <ele>181.80000305176</ele>
        <time>2021-03-06T11:02:20.000Z</time>
      </trkpt>
      <trkpt lat="43.71503" lon="4.99766">
        <ele>181.39999389648</ele>
        <time>2021-03-06T11:02:23.000Z</time>
      </trkpt>
      <trkpt lat="43.71503" lon="4.99776">
        <ele>181</ele>
        <time>2021-03-06T11:02:26.000Z</time>
      </trkpt>
      <trkpt lat="43.71501" lon="4.99783">
        <ele>180.80000305176</ele>
        <time>2021-03-06T11:02:28.000Z</time>
      </trkpt>
      <trkpt lat="43.715" lon="4.99791">
        <ele>180.39999389648</ele>
        <time>2021-03-06T11:02:30.000Z</time>
      </trkpt>
      <trkpt lat="43.71499" lon="4.99798">
        <ele>180.39999389648</ele>
        <time>2021-03-06T11:02:32.000Z</time>
      </trkpt>
      <trkpt lat="43.71497" lon="4.99804">
        <ele>180.60000610352</ele>
        <time>2021-03-06T11:02:34.000Z</time>
      </trkpt>
      <trkpt lat="43.71493" lon="4.99818">
        <ele>180.60000610352</ele>
        <time>2021-03-06T11:02:38.000Z</time>
      </trkpt>
      <trkpt lat="43.71491" lon="4.99825">
        <ele>180.80000305176</ele>
        <time>2021-03-06T11:02:40.000Z</time>
      </trkpt>
      <trkpt lat="43.71488" lon="4.99831">
        <ele>180.80000305176</ele>
        <time>2021-03-06T11:02:42.000Z</time>
      </trkpt>
      <trkpt lat="43.71485" lon="4.99838">
        <ele>181</ele>
        <time>2021-03-06T11:02:44.000Z</time>
      </trkpt>
      <trkpt lat="43.71482" lon="4.99843">
        <ele>180.60000610352</ele>
        <time>2021-03-06T11:02:46.000Z</time>
      </trkpt>
      <trkpt lat="43.71477" lon="4.99852">
        <ele>179.80000305176</ele>
        <time>2021-03-06T11:02:49.000Z</time>
      </trkpt>
      <trkpt lat="43.71475" lon="4.99857">
        <ele>179.19999694824</ele>
        <time>2021-03-06T11:02:51.000Z</time>
      </trkpt>
      <trkpt lat="43.71471" lon="4.99863">
        <ele>178.60000610352</ele>
        <time>2021-03-06T11:02:53.000Z</time>
      </trkpt>
      <trkpt lat="43.71468" lon="4.99868">
        <ele>178</ele>
        <time>2021-03-06T11:02:55.000Z</time>
      </trkpt>
      <trkpt lat="43.71462" lon="4.99876">
        <ele>177.39999389648</ele>
        <time>2021-03-06T11:02:58.000Z</time>
      </trkpt>
      <trkpt lat="43.71458" lon="4.99882">
        <ele>177.39999389648</ele>
        <time>2021-03-06T11:03:00.000Z</time>
      </trkpt>
      <trkpt lat="43.71455" lon="4.99887">
        <ele>177.60000610352</ele>
        <time>2021-03-06T11:03:02.000Z</time>
      </trkpt>
      <trkpt lat="43.71451" lon="4.99891">
        <ele>177.60000610352</ele>
        <time>2021-03-06T11:03:04.000Z</time>
      </trkpt>
      <trkpt lat="43.71446" lon="4.99899">
        <ele>176.39999389648</ele>
        <time>2021-03-06T11:03:07.000Z</time>
      </trkpt>
      <trkpt lat="43.71443" lon="4.99905">
        <ele>175.60000610352</ele>
        <time>2021-03-06T11:03:09.000Z</time>
      </trkpt>
      <trkpt lat="43.7144" lon="4.99912">
        <ele>174.80000305176</ele>
        <time>2021-03-06T11:03:11.000Z</time>
      </trkpt>
      <trkpt lat="43.71437" lon="4.99919">
        <ele>173.80000305176</ele>
        <time>2021-03-06T11:03:13.000Z</time>
      </trkpt>
      <trkpt lat="43.71435" lon="4.99926">
        <ele>173.80000305176</ele>
        <time>2021-03-06T11:03:15.000Z</time>
      </trkpt>
      <trkpt lat="43.71433" lon="4.99932">
        <ele>173.80000305176</ele>
        <time>2021-03-06T11:03:17.000Z</time>
      </trkpt>
      <trkpt lat="43.71428" lon="4.99942">
        <ele>174.19999694824</ele>
        <time>2021-03-06T11:03:20.000Z</time>
      </trkpt>
      <trkpt lat="43.71425" lon="4.99949">
        <ele>174.39999389648</ele>
        <time>2021-03-06T11:03:22.000Z</time>
      </trkpt>
      <trkpt lat="43.71423" lon="4.99956">
        <ele>174.60000610352</ele>
        <time>2021-03-06T11:03:24.000Z</time>
      </trkpt>
      <trkpt lat="43.71421" lon="4.99962">
        <ele>172.80000305176</ele>
        <time>2021-03-06T11:03:26.000Z</time>
      </trkpt>
      <trkpt lat="43.71419" lon="4.99969">
        <ele>172.80000305176</ele>
        <time>2021-03-06T11:03:28.000Z</time>
      </trkpt>
      <trkpt lat="43.71417" lon="4.99979">
        <ele>173.19999694824</ele>
        <time>2021-03-06T11:03:31.000Z</time>
      </trkpt>
      <trkpt lat="43.71415" lon="4.99987">
        <ele>173.39999389648</ele>
        <time>2021-03-06T11:03:33.000Z</time>
      </trkpt>
      <trkpt lat="43.71413" lon="4.99994">
        <ele>173.60000610352</ele>
        <time>2021-03-06T11:03:35.000Z</time>
      </trkpt>
      <trkpt lat="43.7141" lon="5.00001">
        <ele>174</ele>
        <time>2021-03-06T11:03:37.000Z</time>
      </trkpt>
      <trkpt lat="43.71408" lon="5.00008">
        <ele>174</ele>
        <time>2021-03-06T11:03:39.000Z</time>
      </trkpt>
      <trkpt lat="43.71406" lon="5.00015">
        <ele>173.80000305176</ele>
        <time>2021-03-06T11:03:41.000Z</time>
      </trkpt>
      <trkpt lat="43.71405" lon="5.00023">
        <ele>172.80000305176</ele>
        <time>2021-03-06T11:03:43.000Z</time>
      </trkpt>
      <trkpt lat="43.71404" lon="5.0003">
        <ele>172</ele>
        <time>2021-03-06T11:03:45.000Z</time>
      </trkpt>
      <trkpt lat="43.71403" lon="5.00037">
        <ele>171.19999694824</ele>
        <time>2021-03-06T11:03:47.000Z</time>
      </trkpt>
      <trkpt lat="43.714" lon="5.00047">
        <ele>170.39999389648</ele>
        <time>2021-03-06T11:03:50.000Z</time>
      </trkpt>
      <trkpt lat="43.71398" lon="5.00054">
        <ele>170</ele>
        <time>2021-03-06T11:03:52.000Z</time>
      </trkpt>
      <trkpt lat="43.71396" lon="5.00061">
        <ele>169.80000305176</ele>
        <time>2021-03-06T11:03:54.000Z</time>
      </trkpt>
      <trkpt lat="43.71394" lon="5.00069">
        <ele>169.60000610352</ele>
        <time>2021-03-06T11:03:56.000Z</time>
      </trkpt>
      <trkpt lat="43.71392" lon="5.00077">
        <ele>169.19999694824</ele>
        <time>2021-03-06T11:03:58.000Z</time>
      </trkpt>
      <trkpt lat="43.71388" lon="5.00084">
        <ele>168.39999389648</ele>
        <time>2021-03-06T11:04:00.000Z</time>
      </trkpt>
      <trkpt lat="43.71384" lon="5.00091">
        <ele>167.60000610352</ele>
        <time>2021-03-06T11:04:02.000Z</time>
      </trkpt>
      <trkpt lat="43.71381" lon="5.00098">
        <ele>167</ele>
        <time>2021-03-06T11:04:04.000Z</time>
      </trkpt>
      <trkpt lat="43.71378" lon="5.00106">
        <ele>166</ele>
        <time>2021-03-06T11:04:06.000Z</time>
      </trkpt>
      <trkpt lat="43.71374" lon="5.00113">
        <ele>165.19999694824</ele>
        <time>2021-03-06T11:04:08.000Z</time>
      </trkpt>
      <trkpt lat="43.71371" lon="5.00119">
        <ele>164.60000610352</ele>
        <time>2021-03-06T11:04:10.000Z</time>
      </trkpt>
      <trkpt lat="43.71369" lon="5.00126">
        <ele>163.80000305176</ele>
        <time>2021-03-06T11:04:12.000Z</time>
      </trkpt>
      <trkpt lat="43.71366" lon="5.00132">
        <ele>163.19999694824</ele>
        <time>2021-03-06T11:04:14.000Z</time>
      </trkpt>
      <trkpt lat="43.71363" lon="5.00138">
        <ele>162.60000610352</ele>
        <time>2021-03-06T11:04:16.000Z</time>
      </trkpt>
      <trkpt lat="43.71359" lon="5.00144">
        <ele>162</ele>
        <time>2021-03-06T11:04:18.000Z</time>
      </trkpt>
      <trkpt lat="43.71356" lon="5.00151">
        <ele>161.19999694824</ele>
        <time>2021-03-06T11:04:20.000Z</time>
      </trkpt>
      <trkpt lat="43.71353" lon="5.00158">
        <ele>160.60000610352</ele>
        <time>2021-03-06T11:04:22.000Z</time>
      </trkpt>
      <trkpt lat="43.71352" lon="5.00165">
        <ele>160.19999694824</ele>
        <time>2021-03-06T11:04:24.000Z</time>
      </trkpt>
      <trkpt lat="43.7135" lon="5.00172">
        <ele>160</ele>
        <time>2021-03-06T11:04:26.000Z</time>
      </trkpt>
      <trkpt lat="43.71347" lon="5.00178">
        <ele>159.80000305176</ele>
        <time>2021-03-06T11:04:28.000Z</time>
      </trkpt>
      <trkpt lat="43.71344" lon="5.00185">
        <ele>159.60000610352</ele>
        <time>2021-03-06T11:04:30.000Z</time>
      </trkpt>
      <trkpt lat="43.71341" lon="5.00192">
        <ele>159.19999694824</ele>
        <time>2021-03-06T11:04:32.000Z</time>
      </trkpt>
      <trkpt lat="43.7134" lon="5.00199">
        <ele>158.19999694824</ele>
        <time>2021-03-06T11:04:34.000Z</time>
      </trkpt>
      <trkpt lat="43.71339" lon="5.00207">
        <ele>156.60000610352</ele>
        <time>2021-03-06T11:04:36.000Z</time>
      </trkpt>
      <trkpt lat="43.7134" lon="5.00214">
        <ele>155.80000305176</ele>
        <time>2021-03-06T11:04:38.000Z</time>
      </trkpt>
      <trkpt lat="43.71342" lon="5.00224">
        <ele>155.19999694824</ele>
        <time>2021-03-06T11:04:41.000Z</time>
      </trkpt>
      <trkpt lat="43.71344" lon="5.00231">
        <ele>154.80000305176</ele>
        <time>2021-03-06T11:04:43.000Z</time>
      </trkpt>
      <trkpt lat="43.71346" lon="5.00238">
        <ele>154.39999389648</ele>
        <time>2021-03-06T11:04:45.000Z</time>
      </trkpt>
      <trkpt lat="43.7135" lon="5.00244">
        <ele>154.19999694824</ele>
        <time>2021-03-06T11:04:47.000Z</time>
      </trkpt>
      <trkpt lat="43.71353" lon="5.0025">
        <ele>154</ele>
        <time>2021-03-06T11:04:49.000Z</time>
      </trkpt>
      <trkpt lat="43.71357" lon="5.00256">
        <ele>153.60000610352</ele>
        <time>2021-03-06T11:04:51.000Z</time>
      </trkpt>
      <trkpt lat="43.7136" lon="5.00261">
        <ele>153.39999389648</ele>
        <time>2021-03-06T11:04:53.000Z</time>
      </trkpt>
      <trkpt lat="43.71363" lon="5.00268">
        <ele>153</ele>
        <time>2021-03-06T11:04:56.000Z</time>
      </trkpt>
      <trkpt lat="43.71366" lon="5.00275">
        <ele>152.60000610352</ele>
        <time>2021-03-06T11:05:00.000Z</time>
      </trkpt>
      <trkpt lat="43.71368" lon="5.00282">
        <ele>152</ele>
        <time>2021-03-06T11:05:04.000Z</time>
      </trkpt>
      <trkpt lat="43.7137" lon="5.00289">
        <ele>151.60000610352</ele>
        <time>2021-03-06T11:05:08.000Z</time>
      </trkpt>
      <trkpt lat="43.71371" lon="5.00296">
        <ele>151.39999389648</ele>
        <time>2021-03-06T11:05:11.000Z</time>
      </trkpt>
      <trkpt lat="43.71374" lon="5.00303">
        <ele>151.19999694824</ele>
        <time>2021-03-06T11:05:15.000Z</time>
      </trkpt>
      <trkpt lat="43.71376" lon="5.0031">
        <ele>151.19999694824</ele>
        <time>2021-03-06T11:05:19.000Z</time>
      </trkpt>
      <trkpt lat="43.71378" lon="5.00319">
        <ele>151</ele>
        <time>2021-03-06T11:05:24.000Z</time>
      </trkpt>
      <trkpt lat="43.71378" lon="5.00327">
        <ele>151.19999694824</ele>
        <time>2021-03-06T11:05:27.000Z</time>
      </trkpt>
      <trkpt lat="43.71378" lon="5.00334">
        <ele>151.19999694824</ele>
        <time>2021-03-06T11:05:30.000Z</time>
      </trkpt>
      <trkpt lat="43.71378" lon="5.00341">
        <ele>151.19999694824</ele>
        <time>2021-03-06T11:05:34.000Z</time>
      </trkpt>
      <trkpt lat="43.71378" lon="5.00349">
        <ele>151.39999389648</ele>
        <time>2021-03-06T11:05:39.000Z</time>
      </trkpt>
      <trkpt lat="43.71379" lon="5.00358">
        <ele>151.39999389648</ele>
        <time>2021-03-06T11:05:43.000Z</time>
      </trkpt>
      <trkpt lat="43.7138" lon="5.00366">
        <ele>151.60000610352</ele>
        <time>2021-03-06T11:05:47.000Z</time>
      </trkpt>
      <trkpt lat="43.71383" lon="5.00374">
        <ele>151.60000610352</ele>
        <time>2021-03-06T11:05:51.000Z</time>
      </trkpt>
      <trkpt lat="43.71385" lon="5.00382">
        <ele>151.39999389648</ele>
        <time>2021-03-06T11:05:55.000Z</time>
      </trkpt>
      <trkpt lat="43.71386" lon="5.00389">
        <ele>151.19999694824</ele>
        <time>2021-03-06T11:05:59.000Z</time>
      </trkpt>
      <trkpt lat="43.71385" lon="5.00396">
        <ele>151.19999694824</ele>
        <time>2021-03-06T11:06:04.000Z</time>
      </trkpt>
      <trkpt lat="43.71381" lon="5.00403">
        <ele>151</ele>
        <time>2021-03-06T11:06:08.000Z</time>
      </trkpt>
      <trkpt lat="43.71377" lon="5.00411">
        <ele>150.80000305176</ele>
        <time>2021-03-06T11:06:11.000Z</time>
      </trkpt>
      <trkpt lat="43.71374" lon="5.00417">
        <ele>150.80000305176</ele>
        <time>2021-03-06T11:06:13.000Z</time>
      </trkpt>
      <trkpt lat="43.71368" lon="5.00427">
        <ele>150.60000610352</ele>
        <time>2021-03-06T11:06:17.000Z</time>
      </trkpt>
      <trkpt lat="43.71363" lon="5.00435">
        <ele>150.39999389648</ele>
        <time>2021-03-06T11:06:20.000Z</time>
      </trkpt>
      <trkpt lat="43.7136" lon="5.0044">
        <ele>150.39999389648</ele>
        <time>2021-03-06T11:06:22.000Z</time>
      </trkpt>
      <trkpt lat="43.71355" lon="5.00445">
        <ele>150.19999694824</ele>
        <time>2021-03-06T11:06:25.000Z</time>
      </trkpt>
      <trkpt lat="43.7135" lon="5.00449">
        <ele>150.19999694824</ele>
        <time>2021-03-06T11:06:27.000Z</time>
      </trkpt>
      <trkpt lat="43.71344" lon="5.00453">
        <ele>150.19999694824</ele>
        <time>2021-03-06T11:06:30.000Z</time>
      </trkpt>
      <trkpt lat="43.71337" lon="5.00455">
        <ele>150.39999389648</ele>
        <time>2021-03-06T11:06:33.000Z</time>
      </trkpt>
      <trkpt lat="43.71333" lon="5.00455">
        <ele>150.60000610352</ele>
        <time>2021-03-06T11:06:36.000Z</time>
      </trkpt>
      <trkpt lat="43.71326" lon="5.00456">
        <ele>150.60000610352</ele>
        <time>2021-03-06T11:06:39.000Z</time>
      </trkpt>
      <trkpt lat="43.71319" lon="5.00457">
        <ele>150.80000305176</ele>
        <time>2021-03-06T11:06:42.000Z</time>
      </trkpt>
      <trkpt lat="43.71313" lon="5.00458">
        <ele>151</ele>
        <time>2021-03-06T11:06:44.000Z</time>
      </trkpt>
      <trkpt lat="43.71309" lon="5.00459">
        <ele>151</ele>
        <time>2021-03-06T11:06:46.000Z</time>
      </trkpt>
      <trkpt lat="43.71302" lon="5.0046">
        <ele>151.19999694824</ele>
        <time>2021-03-06T11:06:49.000Z</time>
      </trkpt>
      <trkpt lat="43.71295" lon="5.00462">
        <ele>151.39999389648</ele>
        <time>2021-03-06T11:06:52.000Z</time>
      </trkpt>
      <trkpt lat="43.71289" lon="5.00467">
        <ele>151.39999389648</ele>
        <time>2021-03-06T11:06:55.000Z</time>
      </trkpt>
      <trkpt lat="43.71284" lon="5.00474">
        <ele>151.39999389648</ele>
        <time>2021-03-06T11:06:58.000Z</time>
      </trkpt>
      <trkpt lat="43.71283" lon="5.00484">
        <ele>151.39999389648</ele>
        <time>2021-03-06T11:07:01.000Z</time>
      </trkpt>
      <trkpt lat="43.71285" lon="5.00494">
        <ele>151.19999694824</ele>
        <time>2021-03-06T11:07:04.000Z</time>
      </trkpt>
      <trkpt lat="43.71286" lon="5.00501">
        <ele>151</ele>
        <time>2021-03-06T11:07:06.000Z</time>
      </trkpt>
      <trkpt lat="43.71286" lon="5.00509">
        <ele>151</ele>
        <time>2021-03-06T11:07:08.000Z</time>
      </trkpt>
      <trkpt lat="43.71285" lon="5.00517">
        <ele>151</ele>
        <time>2021-03-06T11:07:10.000Z</time>
      </trkpt>
      <trkpt lat="43.71283" lon="5.00524">
        <ele>151</ele>
        <time>2021-03-06T11:07:12.000Z</time>
      </trkpt>
      <trkpt lat="43.71281" lon="5.00531">
        <ele>150.80000305176</ele>
        <time>2021-03-06T11:07:14.000Z</time>
      </trkpt>
      <trkpt lat="43.71281" lon="5.00538">
        <ele>150.80000305176</ele>
        <time>2021-03-06T11:07:16.000Z</time>
      </trkpt>
      <trkpt lat="43.7128" lon="5.00547">
        <ele>150.80000305176</ele>
        <time>2021-03-06T11:07:19.000Z</time>
      </trkpt>
      <trkpt lat="43.71279" lon="5.00557">
        <ele>151</ele>
        <time>2021-03-06T11:07:22.000Z</time>
      </trkpt>
      <trkpt lat="43.71277" lon="5.00564">
        <ele>151</ele>
        <time>2021-03-06T11:07:24.000Z</time>
      </trkpt>
      <trkpt lat="43.71273" lon="5.00571">
        <ele>151.19999694824</ele>
        <time>2021-03-06T11:07:27.000Z</time>
      </trkpt>
      <trkpt lat="43.71267" lon="5.00576">
        <ele>151.39999389648</ele>
        <time>2021-03-06T11:07:30.000Z</time>
      </trkpt>
      <trkpt lat="43.71263" lon="5.00582">
        <ele>151.39999389648</ele>
        <time>2021-03-06T11:07:33.000Z</time>
      </trkpt>
      <trkpt lat="43.71262" lon="5.0059">
        <ele>151.39999389648</ele>
        <time>2021-03-06T11:07:36.000Z</time>
      </trkpt>
      <trkpt lat="43.7126" lon="5.00598">
        <ele>151.39999389648</ele>
        <time>2021-03-06T11:07:40.000Z</time>
      </trkpt>
      <trkpt lat="43.71257" lon="5.00603">
        <ele>151.39999389648</ele>
        <time>2021-03-06T11:07:45.000Z</time>
      </trkpt>
      <trkpt lat="43.71253" lon="5.00612">
        <ele>151.39999389648</ele>
        <time>2021-03-06T11:07:50.000Z</time>
      </trkpt>
      <trkpt lat="43.71251" lon="5.00618">
        <ele>151.39999389648</ele>
        <time>2021-03-06T11:07:53.000Z</time>
      </trkpt>
      <trkpt lat="43.71248" lon="5.00626">
        <ele>151.60000610352</ele>
        <time>2021-03-06T11:07:57.000Z</time>
      </trkpt>
      <trkpt lat="43.71248" lon="5.00634">
        <ele>152</ele>
        <time>2021-03-06T11:08:02.000Z</time>
      </trkpt>
      <trkpt lat="43.71247" lon="5.00642">
        <ele>152.39999389648</ele>
        <time>2021-03-06T11:08:06.000Z</time>
      </trkpt>
      <trkpt lat="43.71244" lon="5.00649">
        <ele>152.80000305176</ele>
        <time>2021-03-06T11:08:10.000Z</time>
      </trkpt>
      <trkpt lat="43.71241" lon="5.00656">
        <ele>153.19999694824</ele>
        <time>2021-03-06T11:08:15.000Z</time>
      </trkpt>
      <trkpt lat="43.71238" lon="5.00665">
        <ele>153.60000610352</ele>
        <time>2021-03-06T11:08:19.000Z</time>
      </trkpt>
      <trkpt lat="43.71238" lon="5.00671">
        <ele>154</ele>
        <time>2021-03-06T11:08:22.000Z</time>
      </trkpt>
      <trkpt lat="43.71236" lon="5.00679">
        <ele>154.60000610352</ele>
        <time>2021-03-06T11:08:26.000Z</time>
      </trkpt>
      <trkpt lat="43.71235" lon="5.00686">
        <ele>155.19999694824</ele>
        <time>2021-03-06T11:08:30.000Z</time>
      </trkpt>
      <trkpt lat="43.71235" lon="5.00693">
        <ele>155.80000305176</ele>
        <time>2021-03-06T11:08:34.000Z</time>
      </trkpt>
      <trkpt lat="43.71236" lon="5.00701">
        <ele>156.39999389648</ele>
        <time>2021-03-06T11:08:38.000Z</time>
      </trkpt>
      <trkpt lat="43.71236" lon="5.00708">
        <ele>157</ele>
        <time>2021-03-06T11:08:43.000Z</time>
      </trkpt>
      <trkpt lat="43.71234" lon="5.00717">
        <ele>157.60000610352</ele>
        <time>2021-03-06T11:08:48.000Z</time>
      </trkpt>
      <trkpt lat="43.71234" lon="5.00724">
        <ele>158.19999694824</ele>
        <time>2021-03-06T11:08:52.000Z</time>
      </trkpt>
      <trkpt lat="43.71233" lon="5.00731">
        <ele>158.80000305176</ele>
        <time>2021-03-06T11:08:56.000Z</time>
      </trkpt>
      <trkpt lat="43.71232" lon="5.0074">
        <ele>159.60000610352</ele>
        <time>2021-03-06T11:09:01.000Z</time>
      </trkpt>
      <trkpt lat="43.7123" lon="5.00747">
        <ele>160.19999694824</ele>
        <time>2021-03-06T11:09:05.000Z</time>
      </trkpt>
      <trkpt lat="43.71229" lon="5.00755">
        <ele>161.39999389648</ele>
        <time>2021-03-06T11:09:10.000Z</time>
      </trkpt>
      <trkpt lat="43.71228" lon="5.00763">
        <ele>163</ele>
        <time>2021-03-06T11:09:15.000Z</time>
      </trkpt>
      <trkpt lat="43.71226" lon="5.00769">
        <ele>164.19999694824</ele>
        <time>2021-03-06T11:09:19.000Z</time>
      </trkpt>
      <trkpt lat="43.71226" lon="5.00777">
        <ele>165.60000610352</ele>
        <time>2021-03-06T11:09:24.000Z</time>
      </trkpt>
      <trkpt lat="43.71229" lon="5.00785">
        <ele>166.80000305176</ele>
        <time>2021-03-06T11:09:29.000Z</time>
      </trkpt>
      <trkpt lat="43.71233" lon="5.00791">
        <ele>167.60000610352</ele>
        <time>2021-03-06T11:09:32.000Z</time>
      </trkpt>
      <trkpt lat="43.71236" lon="5.00797">
        <ele>167.80000305176</ele>
        <time>2021-03-06T11:09:35.000Z</time>
      </trkpt>
      <trkpt lat="43.71241" lon="5.00804">
        <ele>168</ele>
        <time>2021-03-06T11:09:38.000Z</time>
      </trkpt>
      <trkpt lat="43.71244" lon="5.00814">
        <ele>168.60000610352</ele>
        <time>2021-03-06T11:09:41.000Z</time>
      </trkpt>
      <trkpt lat="43.71247" lon="5.00822">
        <ele>169.19999694824</ele>
        <time>2021-03-06T11:09:44.000Z</time>
      </trkpt>
      <trkpt lat="43.71251" lon="5.00829">
        <ele>169.39999389648</ele>
        <time>2021-03-06T11:09:47.000Z</time>
      </trkpt>
      <trkpt lat="43.71257" lon="5.00833">
        <ele>169.19999694824</ele>
        <time>2021-03-06T11:09:50.000Z</time>
      </trkpt>
      <trkpt lat="43.71263" lon="5.00836">
        <ele>169</ele>
        <time>2021-03-06T11:09:53.000Z</time>
      </trkpt>
      <trkpt lat="43.71268" lon="5.00842">
        <ele>169</ele>
        <time>2021-03-06T11:09:56.000Z</time>
      </trkpt>
      <trkpt lat="43.71271" lon="5.00848">
        <ele>169.19999694824</ele>
        <time>2021-03-06T11:09:58.000Z</time>
      </trkpt>
      <trkpt lat="43.71275" lon="5.00856">
        <ele>169.60000610352</ele>
        <time>2021-03-06T11:10:01.000Z</time>
      </trkpt>
      <trkpt lat="43.71277" lon="5.00862">
        <ele>169.80000305176</ele>
        <time>2021-03-06T11:10:04.000Z</time>
      </trkpt>
      <trkpt lat="43.71281" lon="5.00869">
        <ele>170</ele>
        <time>2021-03-06T11:10:08.000Z</time>
      </trkpt>
      <trkpt lat="43.71285" lon="5.00875">
        <ele>170.19999694824</ele>
        <time>2021-03-06T11:10:12.000Z</time>
      </trkpt>
      <trkpt lat="43.71288" lon="5.00882">
        <ele>170.39999389648</ele>
        <time>2021-03-06T11:10:16.000Z</time>
      </trkpt>
      <trkpt lat="43.7129" lon="5.00889">
        <ele>170.80000305176</ele>
        <time>2021-03-06T11:10:20.000Z</time>
      </trkpt>
      <trkpt lat="43.71292" lon="5.00896">
        <ele>171.19999694824</ele>
        <time>2021-03-06T11:10:24.000Z</time>
      </trkpt>
      <trkpt lat="43.71297" lon="5.00901">
        <ele>171</ele>
        <time>2021-03-06T11:10:28.000Z</time>
      </trkpt>
      <trkpt lat="43.713" lon="5.0091">
        <ele>171.80000305176</ele>
        <time>2021-03-06T11:10:32.000Z</time>
      </trkpt>
      <trkpt lat="43.71302" lon="5.00918">
        <ele>172.60000610352</ele>
        <time>2021-03-06T11:10:35.000Z</time>
      </trkpt>
      <trkpt lat="43.71304" lon="5.00927">
        <ele>173.60000610352</ele>
        <time>2021-03-06T11:10:38.000Z</time>
      </trkpt>
      <trkpt lat="43.71307" lon="5.00935">
        <ele>174.19999694824</ele>
        <time>2021-03-06T11:10:41.000Z</time>
      </trkpt>
      <trkpt lat="43.7131" lon="5.00944">
        <ele>174.80000305176</ele>
        <time>2021-03-06T11:10:44.000Z</time>
      </trkpt>
      <trkpt lat="43.71312" lon="5.0095">
        <ele>175.39999389648</ele>
        <time>2021-03-06T11:10:46.000Z</time>
      </trkpt>
      <trkpt lat="43.71315" lon="5.0096">
        <ele>176.19999694824</ele>
        <time>2021-03-06T11:10:49.000Z</time>
      </trkpt>
      <trkpt lat="43.71318" lon="5.00966">
        <ele>176.19999694824</ele>
        <time>2021-03-06T11:10:51.000Z</time>
      </trkpt>
      <trkpt lat="43.7132" lon="5.00973">
        <ele>176.19999694824</ele>
        <time>2021-03-06T11:10:53.000Z</time>
      </trkpt>
      <trkpt lat="43.71321" lon="5.0098">
        <ele>176.60000610352</ele>
        <time>2021-03-06T11:10:55.000Z</time>
      </trkpt>
      <trkpt lat="43.71322" lon="5.00987">
        <ele>177</ele>
        <time>2021-03-06T11:10:57.000Z</time>
      </trkpt>
      <trkpt lat="43.71323" lon="5.00994">
        <ele>177.39999389648</ele>
        <time>2021-03-06T11:10:59.000Z</time>
      </trkpt>
      <trkpt lat="43.71325" lon="5.01001">
        <ele>177.80000305176</ele>
        <time>2021-03-06T11:11:01.000Z</time>
      </trkpt>
      <trkpt lat="43.71328" lon="5.01009">
        <ele>178</ele>
        <time>2021-03-06T11:11:04.000Z</time>
      </trkpt>
      <trkpt lat="43.71329" lon="5.01017">
        <ele>178.39999389648</ele>
        <time>2021-03-06T11:11:07.000Z</time>
      </trkpt>
      <trkpt lat="43.71331" lon="5.01024">
        <ele>178.60000610352</ele>
        <time>2021-03-06T11:11:10.000Z</time>
      </trkpt>
      <trkpt lat="43.71335" lon="5.01031">
        <ele>178.80000305176</ele>
        <time>2021-03-06T11:11:13.000Z</time>
      </trkpt>
      <trkpt lat="43.71339" lon="5.01039">
        <ele>179</ele>
        <time>2021-03-06T11:11:16.000Z</time>
      </trkpt>
      <trkpt lat="43.71342" lon="5.01046">
        <ele>178.80000305176</ele>
        <time>2021-03-06T11:11:19.000Z</time>
      </trkpt>
      <trkpt lat="43.71344" lon="5.01052">
        <ele>178.39999389648</ele>
        <time>2021-03-06T11:11:22.000Z</time>
      </trkpt>
      <trkpt lat="43.71345" lon="5.0106">
        <ele>178.60000610352</ele>
        <time>2021-03-06T11:11:26.000Z</time>
      </trkpt>
      <trkpt lat="43.71342" lon="5.01067">
        <ele>179.60000610352</ele>
        <time>2021-03-06T11:11:30.000Z</time>
      </trkpt>
      <trkpt lat="43.71337" lon="5.01072">
        <ele>180.80000305176</ele>
        <time>2021-03-06T11:11:34.000Z</time>
      </trkpt>
      <trkpt lat="43.71332" lon="5.01074">
        <ele>182</ele>
        <time>2021-03-06T11:11:38.000Z</time>
      </trkpt>
      <trkpt lat="43.71328" lon="5.01071">
        <ele>183</ele>
        <time>2021-03-06T11:11:42.000Z</time>
      </trkpt>
      <trkpt lat="43.71324" lon="5.01066">
        <ele>183.60000610352</ele>
        <time>2021-03-06T11:11:46.000Z</time>
      </trkpt>
      <trkpt lat="43.71319" lon="5.01061">
        <ele>184.60000610352</ele>
        <time>2021-03-06T11:11:49.000Z</time>
      </trkpt>
      <trkpt lat="43.71315" lon="5.01057">
        <ele>185.39999389648</ele>
        <time>2021-03-06T11:11:52.000Z</time>
      </trkpt>
      <trkpt lat="43.7131" lon="5.01053">
        <ele>186.19999694824</ele>
        <time>2021-03-06T11:11:55.000Z</time>
      </trkpt>
      <trkpt lat="43.71305" lon="5.01051">
        <ele>187.39999389648</ele>
        <time>2021-03-06T11:11:59.000Z</time>
      </trkpt>
      <trkpt lat="43.713" lon="5.01054">
        <ele>188.80000305176</ele>
        <time>2021-03-06T11:12:03.000Z</time>
      </trkpt>
      <trkpt lat="43.71295" lon="5.01052">
        <ele>189.80000305176</ele>
        <time>2021-03-06T11:12:07.000Z</time>
      </trkpt>
      <trkpt lat="43.71289" lon="5.01051">
        <ele>191.19999694824</ele>
        <time>2021-03-06T11:12:11.000Z</time>
      </trkpt>
      <trkpt lat="43.71283" lon="5.01052">
        <ele>192.39999389648</ele>
        <time>2021-03-06T11:12:15.000Z</time>
      </trkpt>
      <trkpt lat="43.71279" lon="5.01052">
        <ele>193.60000610352</ele>
        <time>2021-03-06T11:12:19.000Z</time>
      </trkpt>
      <trkpt lat="43.71274" lon="5.01055">
        <ele>195.60000610352</ele>
        <time>2021-03-06T11:12:26.000Z</time>
      </trkpt>
      <trkpt lat="43.71268" lon="5.01058">
        <ele>198.19999694824</ele>
        <time>2021-03-06T11:12:30.000Z</time>
      </trkpt>
      <trkpt lat="43.71262" lon="5.0106">
        <ele>201.39999389648</ele>
        <time>2021-03-06T11:12:34.000Z</time>
      </trkpt>
      <trkpt lat="43.71256" lon="5.01061">
        <ele>204.39999389648</ele>
        <time>2021-03-06T11:12:38.000Z</time>
      </trkpt>
      <trkpt lat="43.71252" lon="5.01065">
        <ele>207</ele>
        <time>2021-03-06T11:12:42.000Z</time>
      </trkpt>
      <trkpt lat="43.7125" lon="5.01071">
        <ele>208.60000610352</ele>
        <time>2021-03-06T11:12:46.000Z</time>
      </trkpt>
      <trkpt lat="43.71252" lon="5.01078">
        <ele>209</ele>
        <time>2021-03-06T11:12:52.000Z</time>
      </trkpt>
      <trkpt lat="43.71255" lon="5.01084">
        <ele>208.19999694824</ele>
        <time>2021-03-06T11:12:57.000Z</time>
      </trkpt>
      <trkpt lat="43.71255" lon="5.01091">
        <ele>209.19999694824</ele>
        <time>2021-03-06T11:13:04.000Z</time>
      </trkpt>
      <trkpt lat="43.71252" lon="5.01097">
        <ele>211.39999389648</ele>
        <time>2021-03-06T11:13:10.000Z</time>
      </trkpt>
      <trkpt lat="43.71247" lon="5.01099">
        <ele>214</ele>
        <time>2021-03-06T11:13:17.000Z</time>
      </trkpt>
      <trkpt lat="43.71233" lon="5.01099">
        <ele>219.80000305176</ele>
        <time>2021-03-06T11:13:50.000Z</time>
      </trkpt>
      <trkpt lat="43.71229" lon="5.01095">
        <ele>221.39999389648</ele>
        <time>2021-03-06T11:13:58.000Z</time>
      </trkpt>
      <trkpt lat="43.71226" lon="5.01088">
        <ele>222.19999694824</ele>
        <time>2021-03-06T11:14:05.000Z</time>
      </trkpt>
      <trkpt lat="43.71222" lon="5.01084">
        <ele>223.80000305176</ele>
        <time>2021-03-06T11:14:12.000Z</time>
      </trkpt>
      <trkpt lat="43.71218" lon="5.01081">
        <ele>225.19999694824</ele>
        <time>2021-03-06T11:14:20.000Z</time>
      </trkpt>
      <trkpt lat="43.7121" lon="5.01081">
        <ele>228.39999389648</ele>
        <time>2021-03-06T11:14:41.000Z</time>
      </trkpt>
      <trkpt lat="43.71205" lon="5.0108">
        <ele>230.19999694824</ele>
        <time>2021-03-06T11:14:48.000Z</time>
      </trkpt>
      <trkpt lat="43.71192" lon="5.01065">
        <ele>235</ele>
        <time>2021-03-06T11:15:27.000Z</time>
      </trkpt>
      <trkpt lat="43.71196" lon="5.01063">
        <ele>233.19999694824</ele>
        <time>2021-03-06T11:15:33.000Z</time>
      </trkpt>
      <trkpt lat="43.71181" lon="5.0107">
        <ele>239.39999389648</ele>
        <time>2021-03-06T11:16:37.000Z</time>
      </trkpt>
      <trkpt lat="43.71167" lon="5.01056">
        <ele>244</ele>
        <time>2021-03-06T11:16:49.000Z</time>
      </trkpt>
      <trkpt lat="43.71166" lon="5.01056">
        <ele>244.19999694824</ele>
        <time>2021-03-06T11:16:54.000Z</time>
      </trkpt>
      <trkpt lat="43.71173" lon="5.01049">
        <ele>241.39999389648</ele>
        <time>2021-03-06T11:17:06.000Z</time>
      </trkpt>
      <trkpt lat="43.71173" lon="5.01045">
        <ele>241.19999694824</ele>
        <time>2021-03-06T11:17:12.000Z</time>
      </trkpt>
      <trkpt lat="43.71169" lon="5.01065">
        <ele>243.39999389648</ele>
        <time>2021-03-06T11:17:16.000Z</time>
      </trkpt>
      <trkpt lat="43.71164" lon="5.01061">
        <ele>245</ele>
        <time>2021-03-06T11:17:20.000Z</time>
      </trkpt>
      <trkpt lat="43.71163" lon="5.01054">
        <ele>245.19999694824</ele>
        <time>2021-03-06T11:17:24.000Z</time>
      </trkpt>
      <trkpt lat="43.71152" lon="5.01045">
        <ele>248.60000610352</ele>
        <time>2021-03-06T11:17:50.000Z</time>
      </trkpt>
      <trkpt lat="43.71151" lon="5.01067">
        <ele>250.19999694824</ele>
        <time>2021-03-06T11:19:20.000Z</time>
      </trkpt>
      <trkpt lat="43.71148" lon="5.01072">
        <ele>251.39999389648</ele>
        <time>2021-03-06T11:19:24.000Z</time>
      </trkpt>
      <trkpt lat="43.71131" lon="5.01079">
        <ele>256.79998779297</ele>
        <time>2021-03-06T11:19:50.000Z</time>
      </trkpt>
      <trkpt lat="43.71127" lon="5.01079">
        <ele>258</ele>
        <time>2021-03-06T11:19:57.000Z</time>
      </trkpt>
      <trkpt lat="43.7112" lon="5.0108">
        <ele>259.79998779297</ele>
        <time>2021-03-06T11:20:06.000Z</time>
      </trkpt>
      <trkpt lat="43.71117" lon="5.01083">
        <ele>260.60000610352</ele>
        <time>2021-03-06T11:20:13.000Z</time>
      </trkpt>
      <trkpt lat="43.71112" lon="5.01085">
        <ele>261.79998779297</ele>
        <time>2021-03-06T11:20:21.000Z</time>
      </trkpt>
      <trkpt lat="43.71107" lon="5.01088">
        <ele>262.79998779297</ele>
        <time>2021-03-06T11:20:28.000Z</time>
      </trkpt>
      <trkpt lat="43.71102" lon="5.01091">
        <ele>263.79998779297</ele>
        <time>2021-03-06T11:20:35.000Z</time>
      </trkpt>
      <trkpt lat="43.71097" lon="5.01093">
        <ele>264.20001220703</ele>
        <time>2021-03-06T11:20:42.000Z</time>
      </trkpt>
      <trkpt lat="43.71094" lon="5.01098">
        <ele>264.20001220703</ele>
        <time>2021-03-06T11:20:51.000Z</time>
      </trkpt>
      <trkpt lat="43.71094" lon="5.01104">
        <ele>264</ele>
        <time>2021-03-06T11:21:04.000Z</time>
      </trkpt>
      <trkpt lat="43.7109" lon="5.0111">
        <ele>264</ele>
        <time>2021-03-06T11:21:11.000Z</time>
      </trkpt>
      <trkpt lat="43.71086" lon="5.01115">
        <ele>263.79998779297</ele>
        <time>2021-03-06T11:21:17.000Z</time>
      </trkpt>
      <trkpt lat="43.71082" lon="5.01118">
        <ele>263.79998779297</ele>
        <time>2021-03-06T11:21:25.000Z</time>
      </trkpt>
      <trkpt lat="43.71077" lon="5.01117">
        <ele>264</ele>
        <time>2021-03-06T11:21:32.000Z</time>
      </trkpt>
      <trkpt lat="43.71072" lon="5.01112">
        <ele>264.79998779297</ele>
        <time>2021-03-06T11:21:57.000Z</time>
      </trkpt>
      <trkpt lat="43.71067" lon="5.01108">
        <ele>265.39999389648</ele>
        <time>2021-03-06T11:22:01.000Z</time>
      </trkpt>
      <trkpt lat="43.71061" lon="5.01105">
        <ele>266</ele>
        <time>2021-03-06T11:22:05.000Z</time>
      </trkpt>
      <trkpt lat="43.71056" lon="5.01102">
        <ele>266.60000610352</ele>
        <time>2021-03-06T11:22:09.000Z</time>
      </trkpt>
      <trkpt lat="43.71051" lon="5.01103">
        <ele>266.60000610352</ele>
        <time>2021-03-06T11:22:13.000Z</time>
      </trkpt>
      <trkpt lat="43.71044" lon="5.01102">
        <ele>267</ele>
        <time>2021-03-06T11:22:20.000Z</time>
      </trkpt>
      <trkpt lat="43.71039" lon="5.01099">
        <ele>267.60000610352</ele>
        <time>2021-03-06T11:22:25.000Z</time>
      </trkpt>
      <trkpt lat="43.71035" lon="5.01095">
        <ele>268.20001220703</ele>
        <time>2021-03-06T11:22:29.000Z</time>
      </trkpt>
      <trkpt lat="43.7103" lon="5.01093">
        <ele>268.60000610352</ele>
        <time>2021-03-06T11:22:34.000Z</time>
      </trkpt>
      <trkpt lat="43.71025" lon="5.01091">
        <ele>269</ele>
        <time>2021-03-06T11:22:41.000Z</time>
      </trkpt>
      <trkpt lat="43.71021" lon="5.01087">
        <ele>269.60000610352</ele>
        <time>2021-03-06T11:22:48.000Z</time>
      </trkpt>
      <trkpt lat="43.71017" lon="5.01081">
        <ele>270</ele>
        <time>2021-03-06T11:22:58.000Z</time>
      </trkpt>
      <trkpt lat="43.71012" lon="5.01077">
        <ele>270.20001220703</ele>
        <time>2021-03-06T11:23:06.000Z</time>
      </trkpt>
      <trkpt lat="43.71007" lon="5.01075">
        <ele>270.20001220703</ele>
        <time>2021-03-06T11:23:13.000Z</time>
      </trkpt>
      <trkpt lat="43.71002" lon="5.01074">
        <ele>270</ele>
        <time>2021-03-06T11:23:18.000Z</time>
      </trkpt>
      <trkpt lat="43.70997" lon="5.01076">
        <ele>269.60000610352</ele>
        <time>2021-03-06T11:23:24.000Z</time>
      </trkpt>
      <trkpt lat="43.70991" lon="5.01075">
        <ele>269.39999389648</ele>
        <time>2021-03-06T11:23:31.000Z</time>
      </trkpt>
      <trkpt lat="43.70986" lon="5.01073">
        <ele>269.39999389648</ele>
        <time>2021-03-06T11:23:38.000Z</time>
      </trkpt>
      <trkpt lat="43.70981" lon="5.01072">
        <ele>269.20001220703</ele>
        <time>2021-03-06T11:23:44.000Z</time>
      </trkpt>
      <trkpt lat="43.70976" lon="5.01071">
        <ele>269.20001220703</ele>
        <time>2021-03-06T11:23:51.000Z</time>
      </trkpt>
      <trkpt lat="43.70974" lon="5.01076">
        <ele>268.39999389648</ele>
        <time>2021-03-06T11:24:05.000Z</time>
      </trkpt>
      <trkpt lat="43.70975" lon="5.01091">
        <ele>268.60000610352</ele>
        <time>2021-03-06T11:24:43.000Z</time>
      </trkpt>
      <trkpt lat="43.7097" lon="5.01091">
        <ele>269.20001220703</ele>
        <time>2021-03-06T11:24:50.000Z</time>
      </trkpt>
      <trkpt lat="43.70966" lon="5.01095">
        <ele>269.79998779297</ele>
        <time>2021-03-06T11:25:00.000Z</time>
      </trkpt>
      <trkpt lat="43.70962" lon="5.011">
        <ele>270.39999389648</ele>
        <time>2021-03-06T11:25:08.000Z</time>
      </trkpt>
      <trkpt lat="43.70958" lon="5.01107">
        <ele>271.20001220703</ele>
        <time>2021-03-06T11:25:23.000Z</time>
      </trkpt>
      <trkpt lat="43.70955" lon="5.01111">
        <ele>271.60000610352</ele>
        <time>2021-03-06T11:25:33.000Z</time>
      </trkpt>
      <trkpt lat="43.7095" lon="5.01115">
        <ele>272.20001220703</ele>
        <time>2021-03-06T11:25:44.000Z</time>
      </trkpt>
      <trkpt lat="43.70946" lon="5.0112">
        <ele>272.79998779297</ele>
        <time>2021-03-06T11:25:53.000Z</time>
      </trkpt>
      <trkpt lat="43.70941" lon="5.01124">
        <ele>273.60000610352</ele>
        <time>2021-03-06T11:25:58.000Z</time>
      </trkpt>
      <trkpt lat="43.70936" lon="5.01128">
        <ele>273.20001220703</ele>
        <time>2021-03-06T11:26:03.000Z</time>
      </trkpt>
      <trkpt lat="43.70932" lon="5.01132">
        <ele>272.20001220703</ele>
        <time>2021-03-06T11:26:08.000Z</time>
      </trkpt>
      <trkpt lat="43.70927" lon="5.01135">
        <ele>271</ele>
        <time>2021-03-06T11:26:13.000Z</time>
      </trkpt>
      <trkpt lat="43.70921" lon="5.01136">
        <ele>270.60000610352</ele>
        <time>2021-03-06T11:26:19.000Z</time>
      </trkpt>
      <trkpt lat="43.70916" lon="5.01137">
        <ele>269.79998779297</ele>
        <time>2021-03-06T11:26:25.000Z</time>
      </trkpt>
      <trkpt lat="43.70912" lon="5.0114">
        <ele>269</ele>
        <time>2021-03-06T11:26:30.000Z</time>
      </trkpt>
      <trkpt lat="43.70908" lon="5.01146">
        <ele>267.39999389648</ele>
        <time>2021-03-06T11:26:38.000Z</time>
      </trkpt>
      <trkpt lat="43.70904" lon="5.01151">
        <ele>265.79998779297</ele>
        <time>2021-03-06T11:26:44.000Z</time>
      </trkpt>
      <trkpt lat="43.709" lon="5.0115">
        <ele>265.79998779297</ele>
        <time>2021-03-06T11:26:50.000Z</time>
      </trkpt>
      <trkpt lat="43.70894" lon="5.01152">
        <ele>265.20001220703</ele>
        <time>2021-03-06T11:26:58.000Z</time>
      </trkpt>
      <trkpt lat="43.70892" lon="5.01147">
        <ele>266</ele>
        <time>2021-03-06T11:27:36.000Z</time>
      </trkpt>
      <trkpt lat="43.70888" lon="5.01144">
        <ele>266.39999389648</ele>
        <time>2021-03-06T11:27:45.000Z</time>
      </trkpt>
      <trkpt lat="43.70884" lon="5.0115">
        <ele>265</ele>
        <time>2021-03-06T11:27:50.000Z</time>
      </trkpt>
      <trkpt lat="43.70882" lon="5.01155">
        <ele>263.60000610352</ele>
        <time>2021-03-06T11:27:57.000Z</time>
      </trkpt>
      <trkpt lat="43.70877" lon="5.01158">
        <ele>263.39999389648</ele>
        <time>2021-03-06T11:28:08.000Z</time>
      </trkpt>
      <trkpt lat="43.70872" lon="5.01162">
        <ele>263.39999389648</ele>
        <time>2021-03-06T11:28:14.000Z</time>
      </trkpt>
      <trkpt lat="43.70866" lon="5.0116">
        <ele>263.79998779297</ele>
        <time>2021-03-06T11:28:30.000Z</time>
      </trkpt>
      <trkpt lat="43.70866" lon="5.01167">
        <ele>262.79998779297</ele>
        <time>2021-03-06T11:28:43.000Z</time>
      </trkpt>
      <trkpt lat="43.70853" lon="5.0118">
        <ele>261.60000610352</ele>
        <time>2021-03-06T11:29:45.000Z</time>
      </trkpt>
      <trkpt lat="43.70848" lon="5.01178">
        <ele>261.20001220703</ele>
        <time>2021-03-06T11:29:48.000Z</time>
      </trkpt>
      <trkpt lat="43.70843" lon="5.01175">
        <ele>260.79998779297</ele>
        <time>2021-03-06T11:29:52.000Z</time>
      </trkpt>
      <trkpt lat="43.70838" lon="5.01171">
        <ele>260.79998779297</ele>
        <time>2021-03-06T11:29:58.000Z</time>
      </trkpt>
      <trkpt lat="43.7084" lon="5.01171">
        <ele>261</ele>
        <time>2021-03-06T11:30:40.000Z</time>
      </trkpt>
      <trkpt lat="43.70836" lon="5.01173">
        <ele>260.20001220703</ele>
        <time>2021-03-06T11:30:52.000Z</time>
      </trkpt>
      <trkpt lat="43.7083" lon="5.01174">
        <ele>259.20001220703</ele>
        <time>2021-03-06T11:31:09.000Z</time>
      </trkpt>
      <trkpt lat="43.70825" lon="5.01176">
        <ele>258.20001220703</ele>
        <time>2021-03-06T11:31:24.000Z</time>
      </trkpt>
      <trkpt lat="43.70819" lon="5.01175">
        <ele>257.60000610352</ele>
        <time>2021-03-06T11:31:31.000Z</time>
      </trkpt>
      <trkpt lat="43.70816" lon="5.01177">
        <ele>258.39999389648</ele>
        <time>2021-03-06T11:31:37.000Z</time>
      </trkpt>
      <trkpt lat="43.7081" lon="5.01178">
        <ele>259.20001220703</ele>
        <time>2021-03-06T11:31:44.000Z</time>
      </trkpt>
      <trkpt lat="43.70806" lon="5.01181">
        <ele>260.20001220703</ele>
        <time>2021-03-06T11:31:53.000Z</time>
      </trkpt>
      <trkpt lat="43.70795" lon="5.01186">
        <ele>262.20001220703</ele>
        <time>2021-03-06T11:32:14.000Z</time>
      </trkpt>
      <trkpt lat="43.7079" lon="5.01191">
        <ele>263.20001220703</ele>
        <time>2021-03-06T11:32:21.000Z</time>
      </trkpt>
      <trkpt lat="43.70786" lon="5.01195">
        <ele>264.20001220703</ele>
        <time>2021-03-06T11:32:29.000Z</time>
      </trkpt>
      <trkpt lat="43.70781" lon="5.012">
        <ele>265.39999389648</ele>
        <time>2021-03-06T11:32:54.000Z</time>
      </trkpt>
      <trkpt lat="43.70766" lon="5.01207">
        <ele>267.79998779297</ele>
        <time>2021-03-06T11:33:24.000Z</time>
      </trkpt>
      <trkpt lat="43.70761" lon="5.01211">
        <ele>268</ele>
        <time>2021-03-06T11:33:31.000Z</time>
      </trkpt>
      <trkpt lat="43.70745" lon="5.0121">
        <ele>268.60000610352</ele>
        <time>2021-03-06T11:34:12.000Z</time>
      </trkpt>
      <trkpt lat="43.7074" lon="5.01208">
        <ele>269</ele>
        <time>2021-03-06T11:34:22.000Z</time>
      </trkpt>
      <trkpt lat="43.70735" lon="5.0121">
        <ele>269</ele>
        <time>2021-03-06T11:34:33.000Z</time>
      </trkpt>
      <trkpt lat="43.70731" lon="5.01214">
        <ele>268.39999389648</ele>
        <time>2021-03-06T11:34:42.000Z</time>
      </trkpt>
      <trkpt lat="43.70726" lon="5.01218">
        <ele>268</ele>
        <time>2021-03-06T11:34:47.000Z</time>
      </trkpt>
      <trkpt lat="43.70721" lon="5.01221">
        <ele>267.60000610352</ele>
        <time>2021-03-06T11:34:52.000Z</time>
      </trkpt>
      <trkpt lat="43.70716" lon="5.0122">
        <ele>268.20001220703</ele>
        <time>2021-03-06T11:34:59.000Z</time>
      </trkpt>
      <trkpt lat="43.7071" lon="5.01224">
        <ele>267.60000610352</ele>
        <time>2021-03-06T11:35:04.000Z</time>
      </trkpt>
      <trkpt lat="43.70705" lon="5.01224">
        <ele>267.79998779297</ele>
        <time>2021-03-06T11:35:09.000Z</time>
      </trkpt>
      <trkpt lat="43.707" lon="5.01224">
        <ele>268.20001220703</ele>
        <time>2021-03-06T11:35:15.000Z</time>
      </trkpt>
      <trkpt lat="43.70695" lon="5.01223">
        <ele>268.79998779297</ele>
        <time>2021-03-06T11:35:24.000Z</time>
      </trkpt>
      <trkpt lat="43.70689" lon="5.01225">
        <ele>269.39999389648</ele>
        <time>2021-03-06T11:35:31.000Z</time>
      </trkpt>
      <trkpt lat="43.70683" lon="5.01228">
        <ele>269</ele>
        <time>2021-03-06T11:35:37.000Z</time>
      </trkpt>
      <trkpt lat="43.70678" lon="5.01228">
        <ele>268.39999389648</ele>
        <time>2021-03-06T11:35:42.000Z</time>
      </trkpt>
      <trkpt lat="43.70673" lon="5.01226">
        <ele>267.79998779297</ele>
        <time>2021-03-06T11:35:47.000Z</time>
      </trkpt>
      <trkpt lat="43.70668" lon="5.01226">
        <ele>267.20001220703</ele>
        <time>2021-03-06T11:36:09.000Z</time>
      </trkpt>
      <trkpt lat="43.70663" lon="5.01227">
        <ele>266.60000610352</ele>
        <time>2021-03-06T11:36:20.000Z</time>
      </trkpt>
      <trkpt lat="43.70658" lon="5.0123">
        <ele>265.79998779297</ele>
        <time>2021-03-06T11:36:34.000Z</time>
      </trkpt>
      <trkpt lat="43.70653" lon="5.01234">
        <ele>264.79998779297</ele>
        <time>2021-03-06T11:36:42.000Z</time>
      </trkpt>
      <trkpt lat="43.70648" lon="5.01235">
        <ele>264.20001220703</ele>
        <time>2021-03-06T11:36:48.000Z</time>
      </trkpt>
      <trkpt lat="43.70644" lon="5.01239">
        <ele>263.39999389648</ele>
        <time>2021-03-06T11:36:57.000Z</time>
      </trkpt>
      <trkpt lat="43.7064" lon="5.01243">
        <ele>262.39999389648</ele>
        <time>2021-03-06T11:37:05.000Z</time>
      </trkpt>
      <trkpt lat="43.70636" lon="5.01248">
        <ele>262</ele>
        <time>2021-03-06T11:37:11.000Z</time>
      </trkpt>
      <trkpt lat="43.70631" lon="5.01253">
        <ele>261.60000610352</ele>
        <time>2021-03-06T11:37:17.000Z</time>
      </trkpt>
      <trkpt lat="43.70626" lon="5.01256">
        <ele>261.20001220703</ele>
        <time>2021-03-06T11:37:23.000Z</time>
      </trkpt>
      <trkpt lat="43.70622" lon="5.01261">
        <ele>260.79998779297</ele>
        <time>2021-03-06T11:37:29.000Z</time>
      </trkpt>
      <trkpt lat="43.70616" lon="5.01261">
        <ele>260.39999389648</ele>
        <time>2021-03-06T11:37:36.000Z</time>
      </trkpt>
      <trkpt lat="43.70612" lon="5.0126">
        <ele>260.20001220703</ele>
        <time>2021-03-06T11:37:43.000Z</time>
      </trkpt>
      <trkpt lat="43.70607" lon="5.01265">
        <ele>259.79998779297</ele>
        <time>2021-03-06T11:37:51.000Z</time>
      </trkpt>
      <trkpt lat="43.70602" lon="5.01268">
        <ele>259.60000610352</ele>
        <time>2021-03-06T11:37:56.000Z</time>
      </trkpt>
      <trkpt lat="43.70596" lon="5.01266">
        <ele>259.20001220703</ele>
        <time>2021-03-06T11:38:03.000Z</time>
      </trkpt>
      <trkpt lat="43.70591" lon="5.01266">
        <ele>259</ele>
        <time>2021-03-06T11:38:09.000Z</time>
      </trkpt>
      <trkpt lat="43.70584" lon="5.01266">
        <ele>258.60000610352</ele>
        <time>2021-03-06T11:38:15.000Z</time>
      </trkpt>
      <trkpt lat="43.70579" lon="5.01264">
        <ele>258.60000610352</ele>
        <time>2021-03-06T11:38:20.000Z</time>
      </trkpt>
      <trkpt lat="43.70574" lon="5.01262">
        <ele>258.39999389648</ele>
        <time>2021-03-06T11:38:32.000Z</time>
      </trkpt>
      <trkpt lat="43.70569" lon="5.01264">
        <ele>258</ele>
        <time>2021-03-06T11:38:38.000Z</time>
      </trkpt>
      <trkpt lat="43.70564" lon="5.01266">
        <ele>257.60000610352</ele>
        <time>2021-03-06T11:38:43.000Z</time>
      </trkpt>
      <trkpt lat="43.70559" lon="5.0127">
        <ele>257.20001220703</ele>
        <time>2021-03-06T11:38:48.000Z</time>
      </trkpt>
      <trkpt lat="43.70554" lon="5.01269">
        <ele>256.79998779297</ele>
        <time>2021-03-06T11:38:53.000Z</time>
      </trkpt>
      <trkpt lat="43.7055" lon="5.01263">
        <ele>256.79998779297</ele>
        <time>2021-03-06T11:38:59.000Z</time>
      </trkpt>
      <trkpt lat="43.70546" lon="5.01262">
        <ele>256.60000610352</ele>
        <time>2021-03-06T11:39:06.000Z</time>
      </trkpt>
      <trkpt lat="43.7054" lon="5.01266">
        <ele>256.20001220703</ele>
        <time>2021-03-06T11:39:16.000Z</time>
      </trkpt>
      <trkpt lat="43.70534" lon="5.01265">
        <ele>255.80000305176</ele>
        <time>2021-03-06T11:39:22.000Z</time>
      </trkpt>
      <trkpt lat="43.7053" lon="5.01262">
        <ele>255.60000610352</ele>
        <time>2021-03-06T11:39:27.000Z</time>
      </trkpt>
      <trkpt lat="43.70523" lon="5.01262">
        <ele>255.19999694824</ele>
        <time>2021-03-06T11:39:32.000Z</time>
      </trkpt>
      <trkpt lat="43.70517" lon="5.0126">
        <ele>255</ele>
        <time>2021-03-06T11:39:37.000Z</time>
      </trkpt>
      <trkpt lat="43.70513" lon="5.0126">
        <ele>254.80000305176</ele>
        <time>2021-03-06T11:39:41.000Z</time>
      </trkpt>
      <trkpt lat="43.70508" lon="5.01256">
        <ele>254.60000610352</ele>
        <time>2021-03-06T11:39:47.000Z</time>
      </trkpt>
      <trkpt lat="43.70502" lon="5.01254">
        <ele>254.19999694824</ele>
        <time>2021-03-06T11:39:53.000Z</time>
      </trkpt>
      <trkpt lat="43.70496" lon="5.01253">
        <ele>254</ele>
        <time>2021-03-06T11:39:59.000Z</time>
      </trkpt>
      <trkpt lat="43.70491" lon="5.01254">
        <ele>253.60000610352</ele>
        <time>2021-03-06T11:40:05.000Z</time>
      </trkpt>
      <trkpt lat="43.70485" lon="5.01253">
        <ele>253.39999389648</ele>
        <time>2021-03-06T11:40:10.000Z</time>
      </trkpt>
      <trkpt lat="43.7048" lon="5.01251">
        <ele>253</ele>
        <time>2021-03-06T11:40:15.000Z</time>
      </trkpt>
      <trkpt lat="43.70474" lon="5.01248">
        <ele>252.80000305176</ele>
        <time>2021-03-06T11:40:20.000Z</time>
      </trkpt>
      <trkpt lat="43.70469" lon="5.01246">
        <ele>252.39999389648</ele>
        <time>2021-03-06T11:40:24.000Z</time>
      </trkpt>
      <trkpt lat="43.70464" lon="5.01244">
        <ele>252</ele>
        <time>2021-03-06T11:40:29.000Z</time>
      </trkpt>
      <trkpt lat="43.70459" lon="5.01244">
        <ele>251.60000610352</ele>
        <time>2021-03-06T11:40:35.000Z</time>
      </trkpt>
      <trkpt lat="43.70453" lon="5.01247">
        <ele>250.80000305176</ele>
        <time>2021-03-06T11:40:41.000Z</time>
      </trkpt>
      <trkpt lat="43.70448" lon="5.01247">
        <ele>250.39999389648</ele>
        <time>2021-03-06T11:40:48.000Z</time>
      </trkpt>
      <trkpt lat="43.70444" lon="5.0125">
        <ele>249.60000610352</ele>
        <time>2021-03-06T11:41:00.000Z</time>
      </trkpt>
      <trkpt lat="43.70439" lon="5.01254">
        <ele>249</ele>
        <time>2021-03-06T11:41:07.000Z</time>
      </trkpt>
      <trkpt lat="43.70427" lon="5.01262">
        <ele>247.19999694824</ele>
        <time>2021-03-06T11:42:19.000Z</time>
      </trkpt>
      <trkpt lat="43.70421" lon="5.01259">
        <ele>246.80000305176</ele>
        <time>2021-03-06T11:42:24.000Z</time>
      </trkpt>
      <trkpt lat="43.70417" lon="5.01256">
        <ele>246.60000610352</ele>
        <time>2021-03-06T11:42:29.000Z</time>
      </trkpt>
      <trkpt lat="43.70412" lon="5.01255">
        <ele>246.19999694824</ele>
        <time>2021-03-06T11:42:38.000Z</time>
      </trkpt>
      <trkpt lat="43.70405" lon="5.01254">
        <ele>245.60000610352</ele>
        <time>2021-03-06T11:42:45.000Z</time>
      </trkpt>
      <trkpt lat="43.704" lon="5.01255">
        <ele>245.19999694824</ele>
        <time>2021-03-06T11:42:52.000Z</time>
      </trkpt>
      <trkpt lat="43.70394" lon="5.01258">
        <ele>244</ele>
        <time>2021-03-06T11:42:59.000Z</time>
      </trkpt>
      <trkpt lat="43.7039" lon="5.01262">
        <ele>243</ele>
        <time>2021-03-06T11:43:05.000Z</time>
      </trkpt>
      <trkpt lat="43.70384" lon="5.01262">
        <ele>242.19999694824</ele>
        <time>2021-03-06T11:43:10.000Z</time>
      </trkpt>
      <trkpt lat="43.70379" lon="5.0126">
        <ele>241.80000305176</ele>
        <time>2021-03-06T11:43:19.000Z</time>
      </trkpt>
      <trkpt lat="43.70367" lon="5.01258">
        <ele>240.39999389648</ele>
        <time>2021-03-06T11:43:38.000Z</time>
      </trkpt>
      <trkpt lat="43.70362" lon="5.01256">
        <ele>240</ele>
        <time>2021-03-06T11:43:51.000Z</time>
      </trkpt>
      <trkpt lat="43.70357" lon="5.01264">
        <ele>238.39999389648</ele>
        <time>2021-03-06T11:44:12.000Z</time>
      </trkpt>
      <trkpt lat="43.70351" lon="5.01255">
        <ele>238.39999389648</ele>
        <time>2021-03-06T11:44:27.000Z</time>
      </trkpt>
      <trkpt lat="43.70347" lon="5.0125">
        <ele>238.19999694824</ele>
        <time>2021-03-06T11:44:34.000Z</time>
      </trkpt>
      <trkpt lat="43.70348" lon="5.01243">
        <ele>239.19999694824</ele>
        <time>2021-03-06T11:44:42.000Z</time>
      </trkpt>
      <trkpt lat="43.7034" lon="5.01252">
        <ele>236.60000610352</ele>
        <time>2021-03-06T11:45:31.000Z</time>
      </trkpt>
      <trkpt lat="43.70335" lon="5.01254">
        <ele>235.39999389648</ele>
        <time>2021-03-06T11:45:38.000Z</time>
      </trkpt>
      <trkpt lat="43.7033" lon="5.01256">
        <ele>234</ele>
        <time>2021-03-06T11:45:46.000Z</time>
      </trkpt>
      <trkpt lat="43.70325" lon="5.01259">
        <ele>232.80000305176</ele>
        <time>2021-03-06T11:45:53.000Z</time>
      </trkpt>
      <trkpt lat="43.7032" lon="5.01262">
        <ele>232</ele>
        <time>2021-03-06T11:45:58.000Z</time>
      </trkpt>
      <trkpt lat="43.70315" lon="5.01267">
        <ele>232</ele>
        <time>2021-03-06T11:46:03.000Z</time>
      </trkpt>
      <trkpt lat="43.70311" lon="5.01271">
        <ele>232</ele>
        <time>2021-03-06T11:46:07.000Z</time>
      </trkpt>
      <trkpt lat="43.70305" lon="5.01273">
        <ele>231.80000305176</ele>
        <time>2021-03-06T11:46:11.000Z</time>
      </trkpt>
      <trkpt lat="43.703" lon="5.01274">
        <ele>231.60000610352</ele>
        <time>2021-03-06T11:46:15.000Z</time>
      </trkpt>
      <trkpt lat="43.70298" lon="5.01281">
        <ele>231.80000305176</ele>
        <time>2021-03-06T11:46:20.000Z</time>
      </trkpt>
      <trkpt lat="43.70295" lon="5.01288">
        <ele>232</ele>
        <time>2021-03-06T11:46:26.000Z</time>
      </trkpt>
      <trkpt lat="43.7029" lon="5.01292">
        <ele>232</ele>
        <time>2021-03-06T11:46:31.000Z</time>
      </trkpt>
      <trkpt lat="43.70284" lon="5.01291">
        <ele>231.60000610352</ele>
        <time>2021-03-06T11:46:36.000Z</time>
      </trkpt>
      <trkpt lat="43.70277" lon="5.01291">
        <ele>231.39999389648</ele>
        <time>2021-03-06T11:46:40.000Z</time>
      </trkpt>
      <trkpt lat="43.70272" lon="5.01291">
        <ele>231</ele>
        <time>2021-03-06T11:46:43.000Z</time>
      </trkpt>
      <trkpt lat="43.70266" lon="5.01291">
        <ele>230.39999389648</ele>
        <time>2021-03-06T11:46:46.000Z</time>
      </trkpt>
      <trkpt lat="43.7026" lon="5.01291">
        <ele>229.39999389648</ele>
        <time>2021-03-06T11:46:50.000Z</time>
      </trkpt>
      <trkpt lat="43.70253" lon="5.01291">
        <ele>228.39999389648</ele>
        <time>2021-03-06T11:46:54.000Z</time>
      </trkpt>
      <trkpt lat="43.70248" lon="5.01292">
        <ele>227.80000305176</ele>
        <time>2021-03-06T11:46:57.000Z</time>
      </trkpt>
      <trkpt lat="43.70243" lon="5.01294">
        <ele>226.80000305176</ele>
        <time>2021-03-06T11:47:00.000Z</time>
      </trkpt>
      <trkpt lat="43.70239" lon="5.01297">
        <ele>225.60000610352</ele>
        <time>2021-03-06T11:47:05.000Z</time>
      </trkpt>
      <trkpt lat="43.70234" lon="5.01302">
        <ele>224</ele>
        <time>2021-03-06T11:47:11.000Z</time>
      </trkpt>
      <trkpt lat="43.70232" lon="5.01299">
        <ele>224.19999694824</ele>
        <time>2021-03-06T11:47:22.000Z</time>
      </trkpt>
      <trkpt lat="43.70228" lon="5.01295">
        <ele>224.39999389648</ele>
        <time>2021-03-06T11:47:33.000Z</time>
      </trkpt>
      <trkpt lat="43.70225" lon="5.01299">
        <ele>223.19999694824</ele>
        <time>2021-03-06T11:47:51.000Z</time>
      </trkpt>
      <trkpt lat="43.70224" lon="5.01305">
        <ele>221.80000305176</ele>
        <time>2021-03-06T11:47:56.000Z</time>
      </trkpt>
      <trkpt lat="43.70221" lon="5.01311">
        <ele>220.19999694824</ele>
        <time>2021-03-06T11:48:03.000Z</time>
      </trkpt>
      <trkpt lat="43.70217" lon="5.01317">
        <ele>218.60000610352</ele>
        <time>2021-03-06T11:48:11.000Z</time>
      </trkpt>
      <trkpt lat="43.70212" lon="5.01315">
        <ele>218.19999694824</ele>
        <time>2021-03-06T11:48:19.000Z</time>
      </trkpt>
      <trkpt lat="43.70207" lon="5.01314">
        <ele>217.60000610352</ele>
        <time>2021-03-06T11:48:27.000Z</time>
      </trkpt>
      <trkpt lat="43.70203" lon="5.01309">
        <ele>218</ele>
        <time>2021-03-06T11:48:39.000Z</time>
      </trkpt>
      <trkpt lat="43.7019" lon="5.01309">
        <ele>216.19999694824</ele>
        <time>2021-03-06T11:49:32.000Z</time>
      </trkpt>
      <trkpt lat="43.70185" lon="5.0131">
        <ele>214.80000305176</ele>
        <time>2021-03-06T11:49:39.000Z</time>
      </trkpt>
      <trkpt lat="43.70184" lon="5.01316">
        <ele>213.60000610352</ele>
        <time>2021-03-06T11:49:50.000Z</time>
      </trkpt>
      <trkpt lat="43.70186" lon="5.01324">
        <ele>212.80000305176</ele>
        <time>2021-03-06T11:49:59.000Z</time>
      </trkpt>
      <trkpt lat="43.70185" lon="5.01332">
        <ele>210.80000305176</ele>
        <time>2021-03-06T11:50:04.000Z</time>
      </trkpt>
      <trkpt lat="43.70183" lon="5.01338">
        <ele>208.80000305176</ele>
        <time>2021-03-06T11:50:10.000Z</time>
      </trkpt>
      <trkpt lat="43.70179" lon="5.01343">
        <ele>206.60000610352</ele>
        <time>2021-03-06T11:50:15.000Z</time>
      </trkpt>
      <trkpt lat="43.70174" lon="5.01348">
        <ele>204</ele>
        <time>2021-03-06T11:50:21.000Z</time>
      </trkpt>
      <trkpt lat="43.70173" lon="5.01355">
        <ele>202.60000610352</ele>
        <time>2021-03-06T11:50:26.000Z</time>
      </trkpt>
      <trkpt lat="43.70173" lon="5.01362">
        <ele>201.19999694824</ele>
        <time>2021-03-06T11:50:35.000Z</time>
      </trkpt>
      <trkpt lat="43.70171" lon="5.0137">
        <ele>201.19999694824</ele>
        <time>2021-03-06T11:50:40.000Z</time>
      </trkpt>
      <trkpt lat="43.7017" lon="5.01377">
        <ele>201.19999694824</ele>
        <time>2021-03-06T11:50:46.000Z</time>
      </trkpt>
      <trkpt lat="43.70168" lon="5.01384">
        <ele>200.39999389648</ele>
        <time>2021-03-06T11:50:54.000Z</time>
      </trkpt>
      <trkpt lat="43.70165" lon="5.01389">
        <ele>199.80000305176</ele>
        <time>2021-03-06T11:51:01.000Z</time>
      </trkpt>
      <trkpt lat="43.70164" lon="5.01397">
        <ele>199.19999694824</ele>
        <time>2021-03-06T11:51:09.000Z</time>
      </trkpt>
      <trkpt lat="43.70161" lon="5.01405">
        <ele>198.39999389648</ele>
        <time>2021-03-06T11:51:13.000Z</time>
      </trkpt>
      <trkpt lat="43.70161" lon="5.01411">
        <ele>198</ele>
        <time>2021-03-06T11:51:22.000Z</time>
      </trkpt>
      <trkpt lat="43.7016" lon="5.01418">
        <ele>197.60000610352</ele>
        <time>2021-03-06T11:51:29.000Z</time>
      </trkpt>
      <trkpt lat="43.70156" lon="5.01424">
        <ele>196.80000305176</ele>
        <time>2021-03-06T11:51:35.000Z</time>
      </trkpt>
      <trkpt lat="43.70155" lon="5.01431">
        <ele>196.39999389648</ele>
        <time>2021-03-06T11:51:41.000Z</time>
      </trkpt>
      <trkpt lat="43.7015" lon="5.01436">
        <ele>196.19999694824</ele>
        <time>2021-03-06T11:51:47.000Z</time>
      </trkpt>
      <trkpt lat="43.70145" lon="5.01437">
        <ele>196</ele>
        <time>2021-03-06T11:51:51.000Z</time>
      </trkpt>
      <trkpt lat="43.70141" lon="5.01439">
        <ele>195.80000305176</ele>
        <time>2021-03-06T11:51:55.000Z</time>
      </trkpt>
      <trkpt lat="43.70138" lon="5.01446">
        <ele>195.60000610352</ele>
        <time>2021-03-06T11:52:01.000Z</time>
      </trkpt>
      <trkpt lat="43.70138" lon="5.01452">
        <ele>195.60000610352</ele>
        <time>2021-03-06T11:52:06.000Z</time>
      </trkpt>
      <trkpt lat="43.70139" lon="5.01459">
        <ele>195.60000610352</ele>
        <time>2021-03-06T11:52:14.000Z</time>
      </trkpt>
      <trkpt lat="43.70133" lon="5.01459">
        <ele>195.39999389648</ele>
        <time>2021-03-06T11:52:23.000Z</time>
      </trkpt>
      <trkpt lat="43.70128" lon="5.0146">
        <ele>195</ele>
        <time>2021-03-06T11:52:29.000Z</time>
      </trkpt>
      <trkpt lat="43.70124" lon="5.01464">
        <ele>194.39999389648</ele>
        <time>2021-03-06T11:52:36.000Z</time>
      </trkpt>
      <trkpt lat="43.70118" lon="5.01467">
        <ele>193.80000305176</ele>
        <time>2021-03-06T11:52:44.000Z</time>
      </trkpt>
      <trkpt lat="43.70113" lon="5.01467">
        <ele>193.39999389648</ele>
        <time>2021-03-06T11:52:50.000Z</time>
      </trkpt>
      <trkpt lat="43.70107" lon="5.01468">
        <ele>192.80000305176</ele>
        <time>2021-03-06T11:52:55.000Z</time>
      </trkpt>
      <trkpt lat="43.70103" lon="5.01471">
        <ele>192</ele>
        <time>2021-03-06T11:53:00.000Z</time>
      </trkpt>
      <trkpt lat="43.70101" lon="5.01478">
        <ele>191</ele>
        <time>2021-03-06T11:53:08.000Z</time>
      </trkpt>
      <trkpt lat="43.70104" lon="5.01484">
        <ele>190.19999694824</ele>
        <time>2021-03-06T11:53:55.000Z</time>
      </trkpt>
      <trkpt lat="43.70105" lon="5.01487">
        <ele>189.60000610352</ele>
        <time>2021-03-06T11:54:15.000Z</time>
      </trkpt>
      <trkpt lat="43.701" lon="5.0148">
        <ele>190.60000610352</ele>
        <time>2021-03-06T11:54:22.000Z</time>
      </trkpt>
      <trkpt lat="43.70094" lon="5.01478">
        <ele>190.80000305176</ele>
        <time>2021-03-06T11:54:27.000Z</time>
      </trkpt>
      <trkpt lat="43.70089" lon="5.01473">
        <ele>191.39999389648</ele>
        <time>2021-03-06T11:54:33.000Z</time>
      </trkpt>
      <trkpt lat="43.70083" lon="5.01473">
        <ele>191.19999694824</ele>
        <time>2021-03-06T11:54:39.000Z</time>
      </trkpt>
      <trkpt lat="43.70076" lon="5.01472">
        <ele>191.19999694824</ele>
        <time>2021-03-06T11:54:43.000Z</time>
      </trkpt>
      <trkpt lat="43.70071" lon="5.01471">
        <ele>191.39999389648</ele>
        <time>2021-03-06T11:54:46.000Z</time>
      </trkpt>
      <trkpt lat="43.70066" lon="5.01468">
        <ele>191.60000610352</ele>
        <time>2021-03-06T11:54:50.000Z</time>
      </trkpt>
      <trkpt lat="43.70061" lon="5.01463">
        <ele>192.19999694824</ele>
        <time>2021-03-06T11:54:55.000Z</time>
      </trkpt>
      <trkpt lat="43.70056" lon="5.01459">
        <ele>192.80000305176</ele>
        <time>2021-03-06T11:55:00.000Z</time>
      </trkpt>
      <trkpt lat="43.70051" lon="5.01457">
        <ele>192.80000305176</ele>
        <time>2021-03-06T11:55:04.000Z</time>
      </trkpt>
      <trkpt lat="43.70047" lon="5.01454">
        <ele>193</ele>
        <time>2021-03-06T11:55:09.000Z</time>
      </trkpt>
      <trkpt lat="43.70042" lon="5.01449">
        <ele>193</ele>
        <time>2021-03-06T11:55:13.000Z</time>
      </trkpt>
      <trkpt lat="43.70037" lon="5.01444">
        <ele>193.19999694824</ele>
        <time>2021-03-06T11:55:18.000Z</time>
      </trkpt>
      <trkpt lat="43.70031" lon="5.01443">
        <ele>193.19999694824</ele>
        <time>2021-03-06T11:55:23.000Z</time>
      </trkpt>
      <trkpt lat="43.70026" lon="5.01443">
        <ele>193</ele>
        <time>2021-03-06T11:55:26.000Z</time>
      </trkpt>
      <trkpt lat="43.7002" lon="5.01444">
        <ele>193</ele>
        <time>2021-03-06T11:55:29.000Z</time>
      </trkpt>
      <trkpt lat="43.70016" lon="5.01441">
        <ele>192.39999389648</ele>
        <time>2021-03-06T11:55:32.000Z</time>
      </trkpt>
      <trkpt lat="43.70013" lon="5.01434">
        <ele>192.60000610352</ele>
        <time>2021-03-06T11:55:36.000Z</time>
      </trkpt>
      <trkpt lat="43.7001" lon="5.0143">
        <ele>192.39999389648</ele>
        <time>2021-03-06T11:55:40.000Z</time>
      </trkpt>
      <trkpt lat="43.70003" lon="5.0143">
        <ele>191.60000610352</ele>
        <time>2021-03-06T11:55:45.000Z</time>
      </trkpt>
      <trkpt lat="43.69998" lon="5.01431">
        <ele>190.80000305176</ele>
        <time>2021-03-06T11:55:50.000Z</time>
      </trkpt>
      <trkpt lat="43.69993" lon="5.01428">
        <ele>190.19999694824</ele>
        <time>2021-03-06T11:55:55.000Z</time>
      </trkpt>
      <trkpt lat="43.69988" lon="5.01424">
        <ele>189.80000305176</ele>
        <time>2021-03-06T11:55:59.000Z</time>
      </trkpt>
      <trkpt lat="43.69983" lon="5.01423">
        <ele>189.19999694824</ele>
        <time>2021-03-06T11:56:03.000Z</time>
      </trkpt>
      <trkpt lat="43.69977" lon="5.0142">
        <ele>188.60000610352</ele>
        <time>2021-03-06T11:56:07.000Z</time>
      </trkpt>
      <trkpt lat="43.69972" lon="5.01416">
        <ele>188.19999694824</ele>
        <time>2021-03-06T11:56:11.000Z</time>
      </trkpt>
      <trkpt lat="43.69966" lon="5.01412">
        <ele>187.60000610352</ele>
        <time>2021-03-06T11:56:15.000Z</time>
      </trkpt>
      <trkpt lat="43.69961" lon="5.01411">
        <ele>187</ele>
        <time>2021-03-06T11:56:18.000Z</time>
      </trkpt>
      <trkpt lat="43.69955" lon="5.01413">
        <ele>186</ele>
        <time>2021-03-06T11:56:22.000Z</time>
      </trkpt>
      <trkpt lat="43.6995" lon="5.01414">
        <ele>185.19999694824</ele>
        <time>2021-03-06T11:56:25.000Z</time>
      </trkpt>
      <trkpt lat="43.69943" lon="5.01414">
        <ele>184</ele>
        <time>2021-03-06T11:56:29.000Z</time>
      </trkpt>
      <trkpt lat="43.69937" lon="5.01415">
        <ele>183.19999694824</ele>
        <time>2021-03-06T11:56:32.000Z</time>
      </trkpt>
      <trkpt lat="43.69931" lon="5.01413">
        <ele>182.60000610352</ele>
        <time>2021-03-06T11:56:36.000Z</time>
      </trkpt>
      <trkpt lat="43.69928" lon="5.01409">
        <ele>182.19999694824</ele>
        <time>2021-03-06T11:56:40.000Z</time>
      </trkpt>
      <trkpt lat="43.69923" lon="5.01404">
        <ele>182</ele>
        <time>2021-03-06T11:56:46.000Z</time>
      </trkpt>
      <trkpt lat="43.6992" lon="5.01411">
        <ele>181</ele>
        <time>2021-03-06T11:56:53.000Z</time>
      </trkpt>
      <trkpt lat="43.69916" lon="5.01417">
        <ele>180</ele>
        <time>2021-03-06T11:57:01.000Z</time>
      </trkpt>
      <trkpt lat="43.69911" lon="5.01422">
        <ele>179</ele>
        <time>2021-03-06T11:57:06.000Z</time>
      </trkpt>
      <trkpt lat="43.69907" lon="5.01425">
        <ele>178</ele>
        <time>2021-03-06T11:57:09.000Z</time>
      </trkpt>
      <trkpt lat="43.69902" lon="5.0143">
        <ele>176.80000305176</ele>
        <time>2021-03-06T11:57:13.000Z</time>
      </trkpt>
      <trkpt lat="43.69892" lon="5.01454">
        <ele>172.60000610352</ele>
        <time>2021-03-06T11:57:48.000Z</time>
      </trkpt>
      <trkpt lat="43.69888" lon="5.0146">
        <ele>171</ele>
        <time>2021-03-06T11:57:52.000Z</time>
      </trkpt>
      <trkpt lat="43.69883" lon="5.01465">
        <ele>169.60000610352</ele>
        <time>2021-03-06T11:57:55.000Z</time>
      </trkpt>
      <trkpt lat="43.6988" lon="5.01471">
        <ele>168.39999389648</ele>
        <time>2021-03-06T11:57:58.000Z</time>
      </trkpt>
      <trkpt lat="43.69877" lon="5.01478">
        <ele>167.19999694824</ele>
        <time>2021-03-06T11:58:01.000Z</time>
      </trkpt>
      <trkpt lat="43.69873" lon="5.01484">
        <ele>166</ele>
        <time>2021-03-06T11:58:04.000Z</time>
      </trkpt>
      <trkpt lat="43.69869" lon="5.01491">
        <ele>164.80000305176</ele>
        <time>2021-03-06T11:58:07.000Z</time>
      </trkpt>
      <trkpt lat="43.69866" lon="5.01496">
        <ele>163.80000305176</ele>
        <time>2021-03-06T11:58:09.000Z</time>
      </trkpt>
      <trkpt lat="43.6986" lon="5.01502">
        <ele>162.39999389648</ele>
        <time>2021-03-06T11:58:12.000Z</time>
      </trkpt>
      <trkpt lat="43.69854" lon="5.01509">
        <ele>161</ele>
        <time>2021-03-06T11:58:15.000Z</time>
      </trkpt>
      <trkpt lat="43.69849" lon="5.01515">
        <ele>160.19999694824</ele>
        <time>2021-03-06T11:58:18.000Z</time>
      </trkpt>
      <trkpt lat="43.69845" lon="5.0152">
        <ele>159.80000305176</ele>
        <time>2021-03-06T11:58:20.000Z</time>
      </trkpt>
      <trkpt lat="43.69841" lon="5.01526">
        <ele>159.19999694824</ele>
        <time>2021-03-06T11:58:23.000Z</time>
      </trkpt>
      <trkpt lat="43.69834" lon="5.0153">
        <ele>158.80000305176</ele>
        <time>2021-03-06T11:58:26.000Z</time>
      </trkpt>
      <trkpt lat="43.69826" lon="5.01532">
        <ele>158.60000610352</ele>
        <time>2021-03-06T11:58:29.000Z</time>
      </trkpt>
      <trkpt lat="43.69821" lon="5.01531">
        <ele>158.39999389648</ele>
        <time>2021-03-06T11:58:31.000Z</time>
      </trkpt>
      <trkpt lat="43.69817" lon="5.01531">
        <ele>158.39999389648</ele>
        <time>2021-03-06T11:58:33.000Z</time>
      </trkpt>
      <trkpt lat="43.69812" lon="5.0153">
        <ele>158.39999389648</ele>
        <time>2021-03-06T11:58:36.000Z</time>
      </trkpt>
      <trkpt lat="43.69805" lon="5.0153">
        <ele>158.39999389648</ele>
        <time>2021-03-06T11:58:40.000Z</time>
      </trkpt>
      <trkpt lat="43.698" lon="5.01528">
        <ele>158.39999389648</ele>
        <time>2021-03-06T11:58:44.000Z</time>
      </trkpt>
      <trkpt lat="43.69794" lon="5.01527">
        <ele>158.60000610352</ele>
        <time>2021-03-06T11:58:48.000Z</time>
      </trkpt>
      <trkpt lat="43.69787" lon="5.01529">
        <ele>158.39999389648</ele>
        <time>2021-03-06T11:58:53.000Z</time>
      </trkpt>
      <trkpt lat="43.69783" lon="5.01532">
        <ele>158</ele>
        <time>2021-03-06T11:58:57.000Z</time>
      </trkpt>
      <trkpt lat="43.69777" lon="5.01536">
        <ele>157.60000610352</ele>
        <time>2021-03-06T11:59:02.000Z</time>
      </trkpt>
      <trkpt lat="43.69772" lon="5.0154">
        <ele>157.19999694824</ele>
        <time>2021-03-06T11:59:07.000Z</time>
      </trkpt>
      <trkpt lat="43.69768" lon="5.01546">
        <ele>156.60000610352</ele>
        <time>2021-03-06T11:59:12.000Z</time>
      </trkpt>
      <trkpt lat="43.69764" lon="5.01551">
        <ele>156.19999694824</ele>
        <time>2021-03-06T11:59:16.000Z</time>
      </trkpt>
      <trkpt lat="43.69761" lon="5.01558">
        <ele>155.60000610352</ele>
        <time>2021-03-06T11:59:20.000Z</time>
      </trkpt>
      <trkpt lat="43.69761" lon="5.01566">
        <ele>154.80000305176</ele>
        <time>2021-03-06T11:59:24.000Z</time>
      </trkpt>
      <trkpt lat="43.69761" lon="5.01576">
        <ele>153.60000610352</ele>
        <time>2021-03-06T11:59:28.000Z</time>
      </trkpt>
      <trkpt lat="43.69759" lon="5.01585">
        <ele>152.60000610352</ele>
        <time>2021-03-06T11:59:31.000Z</time>
      </trkpt>
      <trkpt lat="43.69756" lon="5.01593">
        <ele>151.80000305176</ele>
        <time>2021-03-06T11:59:34.000Z</time>
      </trkpt>
      <trkpt lat="43.69753" lon="5.016">
        <ele>151.19999694824</ele>
        <time>2021-03-06T11:59:37.000Z</time>
      </trkpt>
      <trkpt lat="43.69753" lon="5.01606">
        <ele>150.60000610352</ele>
        <time>2021-03-06T11:59:46.000Z</time>
      </trkpt>
      <trkpt lat="43.69756" lon="5.01614">
        <ele>149.39999389648</ele>
        <time>2021-03-06T11:59:52.000Z</time>
      </trkpt>
      <trkpt lat="43.69761" lon="5.01621">
        <ele>148.19999694824</ele>
        <time>2021-03-06T11:59:57.000Z</time>
      </trkpt>
      <trkpt lat="43.69766" lon="5.01624">
        <ele>147.39999389648</ele>
        <time>2021-03-06T12:00:00.000Z</time>
      </trkpt>
      <trkpt lat="43.69769" lon="5.01629">
        <ele>147.19999694824</ele>
        <time>2021-03-06T12:00:03.000Z</time>
      </trkpt>
      <trkpt lat="43.69773" lon="5.01634">
        <ele>147.60000610352</ele>
        <time>2021-03-06T12:00:06.000Z</time>
      </trkpt>
      <trkpt lat="43.69777" lon="5.01639">
        <ele>148.39999389648</ele>
        <time>2021-03-06T12:00:10.000Z</time>
      </trkpt>
      <trkpt lat="43.69782" lon="5.01641">
        <ele>149.19999694824</ele>
        <time>2021-03-06T12:00:15.000Z</time>
      </trkpt>
      <trkpt lat="43.69781" lon="5.01648">
        <ele>149.19999694824</ele>
        <time>2021-03-06T12:00:37.000Z</time>
      </trkpt>
      <trkpt lat="43.69779" lon="5.01656">
        <ele>148.80000305176</ele>
        <time>2021-03-06T12:00:42.000Z</time>
      </trkpt>
      <trkpt lat="43.69776" lon="5.01663">
        <ele>148.39999389648</ele>
        <time>2021-03-06T12:00:48.000Z</time>
      </trkpt>
      <trkpt lat="43.69773" lon="5.01669">
        <ele>148</ele>
        <time>2021-03-06T12:00:54.000Z</time>
      </trkpt>
      <trkpt lat="43.69768" lon="5.01676">
        <ele>147.80000305176</ele>
        <time>2021-03-06T12:01:01.000Z</time>
      </trkpt>
      <trkpt lat="43.69766" lon="5.01679">
        <ele>148</ele>
        <time>2021-03-06T12:01:15.000Z</time>
      </trkpt>
      <trkpt lat="43.69773" lon="5.01665">
        <ele>148</ele>
        <time>2021-03-06T12:01:39.000Z</time>
      </trkpt>
      <trkpt lat="43.69776" lon="5.01659">
        <ele>148.39999389648</ele>
        <time>2021-03-06T12:01:44.000Z</time>
      </trkpt>
      <trkpt lat="43.69778" lon="5.01652">
        <ele>148.60000610352</ele>
        <time>2021-03-06T12:01:48.000Z</time>
      </trkpt>
      <trkpt lat="43.69781" lon="5.01646">
        <ele>149</ele>
        <time>2021-03-06T12:01:53.000Z</time>
      </trkpt>
      <trkpt lat="43.69783" lon="5.0164">
        <ele>149.39999389648</ele>
        <time>2021-03-06T12:01:58.000Z</time>
      </trkpt>
      <trkpt lat="43.69776" lon="5.01638">
        <ele>148.19999694824</ele>
        <time>2021-03-06T12:02:04.000Z</time>
      </trkpt>
      <trkpt lat="43.69773" lon="5.01634">
        <ele>147.60000610352</ele>
        <time>2021-03-06T12:02:09.000Z</time>
      </trkpt>
      <trkpt lat="43.6977" lon="5.01628">
        <ele>147</ele>
        <time>2021-03-06T12:02:14.000Z</time>
      </trkpt>
      <trkpt lat="43.69765" lon="5.01623">
        <ele>147.60000610352</ele>
        <time>2021-03-06T12:02:20.000Z</time>
      </trkpt>
      <trkpt lat="43.6976" lon="5.01618">
        <ele>148.60000610352</ele>
        <time>2021-03-06T12:02:25.000Z</time>
      </trkpt>
      <trkpt lat="43.69756" lon="5.01612">
        <ele>149.60000610352</ele>
        <time>2021-03-06T12:02:29.000Z</time>
      </trkpt>
      <trkpt lat="43.69752" lon="5.01607">
        <ele>150.60000610352</ele>
        <time>2021-03-06T12:02:34.000Z</time>
      </trkpt>
      <trkpt lat="43.69751" lon="5.016">
        <ele>151.39999389648</ele>
        <time>2021-03-06T12:02:39.000Z</time>
      </trkpt>
      <trkpt lat="43.69755" lon="5.01594">
        <ele>151.80000305176</ele>
        <time>2021-03-06T12:02:43.000Z</time>
      </trkpt>
      <trkpt lat="43.69757" lon="5.01588">
        <ele>152.39999389648</ele>
        <time>2021-03-06T12:02:47.000Z</time>
      </trkpt>
      <trkpt lat="43.69759" lon="5.0158">
        <ele>153.19999694824</ele>
        <time>2021-03-06T12:02:52.000Z</time>
      </trkpt>
      <trkpt lat="43.69759" lon="5.01573">
        <ele>154</ele>
        <time>2021-03-06T12:02:57.000Z</time>
      </trkpt>
      <trkpt lat="43.69759" lon="5.01566">
        <ele>154.80000305176</ele>
        <time>2021-03-06T12:03:02.000Z</time>
      </trkpt>
      <trkpt lat="43.69757" lon="5.01558">
        <ele>156</ele>
        <time>2021-03-06T12:03:09.000Z</time>
      </trkpt>
      <trkpt lat="43.69759" lon="5.01551">
        <ele>156.60000610352</ele>
        <time>2021-03-06T12:03:15.000Z</time>
      </trkpt>
      <trkpt lat="43.69761" lon="5.01546">
        <ele>157.19999694824</ele>
        <time>2021-03-06T12:03:19.000Z</time>
      </trkpt>
      <trkpt lat="43.69763" lon="5.01538">
        <ele>157.39999389648</ele>
        <time>2021-03-06T12:03:25.000Z</time>
      </trkpt>
      <trkpt lat="43.69764" lon="5.01532">
        <ele>157.60000610352</ele>
        <time>2021-03-06T12:03:30.000Z</time>
      </trkpt>
      <trkpt lat="43.69759" lon="5.01532">
        <ele>157.39999389648</ele>
        <time>2021-03-06T12:03:37.000Z</time>
      </trkpt>
      <trkpt lat="43.69753" lon="5.0153">
        <ele>157.80000305176</ele>
        <time>2021-03-06T12:03:42.000Z</time>
      </trkpt>
      <trkpt lat="43.69748" lon="5.01527">
        <ele>158</ele>
        <time>2021-03-06T12:03:47.000Z</time>
      </trkpt>
      <trkpt lat="43.69744" lon="5.01524">
        <ele>158.19999694824</ele>
        <time>2021-03-06T12:03:53.000Z</time>
      </trkpt>
      <trkpt lat="43.69738" lon="5.01524">
        <ele>158.60000610352</ele>
        <time>2021-03-06T12:03:58.000Z</time>
      </trkpt>
      <trkpt lat="43.69733" lon="5.0153">
        <ele>159.19999694824</ele>
        <time>2021-03-06T12:04:03.000Z</time>
      </trkpt>
      <trkpt lat="43.69728" lon="5.01532">
        <ele>159.60000610352</ele>
        <time>2021-03-06T12:04:07.000Z</time>
      </trkpt>
      <trkpt lat="43.69722" lon="5.01535">
        <ele>160.19999694824</ele>
        <time>2021-03-06T12:04:12.000Z</time>
      </trkpt>
      <trkpt lat="43.69717" lon="5.0154">
        <ele>160.80000305176</ele>
        <time>2021-03-06T12:04:17.000Z</time>
      </trkpt>
      <trkpt lat="43.69711" lon="5.01544">
        <ele>161</ele>
        <time>2021-03-06T12:04:22.000Z</time>
      </trkpt>
      <trkpt lat="43.69706" lon="5.01548">
        <ele>160.80000305176</ele>
        <time>2021-03-06T12:04:26.000Z</time>
      </trkpt>
      <trkpt lat="43.69702" lon="5.01555">
        <ele>160.19999694824</ele>
        <time>2021-03-06T12:04:29.000Z</time>
      </trkpt>
      <trkpt lat="43.69698" lon="5.01562">
        <ele>159.80000305176</ele>
        <time>2021-03-06T12:04:32.000Z</time>
      </trkpt>
      <trkpt lat="43.69693" lon="5.01567">
        <ele>159.80000305176</ele>
        <time>2021-03-06T12:04:35.000Z</time>
      </trkpt>
      <trkpt lat="43.69688" lon="5.01571">
        <ele>159.80000305176</ele>
        <time>2021-03-06T12:04:39.000Z</time>
      </trkpt>
      <trkpt lat="43.69685" lon="5.01571">
        <ele>159.80000305176</ele>
        <time>2021-03-06T12:04:49.000Z</time>
      </trkpt>
      <trkpt lat="43.69685" lon="5.01578">
        <ele>159</ele>
        <time>2021-03-06T12:04:58.000Z</time>
      </trkpt>
      <trkpt lat="43.69685" lon="5.01585">
        <ele>158.39999389648</ele>
        <time>2021-03-06T12:05:03.000Z</time>
      </trkpt>
      <trkpt lat="43.69688" lon="5.01582">
        <ele>158.60000610352</ele>
        <time>2021-03-06T12:05:29.000Z</time>
      </trkpt>
      <trkpt lat="43.69688" lon="5.01576">
        <ele>159.19999694824</ele>
        <time>2021-03-06T12:05:33.000Z</time>
      </trkpt>
      <trkpt lat="43.69682" lon="5.01572">
        <ele>159.60000610352</ele>
        <time>2021-03-06T12:05:39.000Z</time>
      </trkpt>
      <trkpt lat="43.69677" lon="5.01571">
        <ele>159.60000610352</ele>
        <time>2021-03-06T12:05:43.000Z</time>
      </trkpt>
      <trkpt lat="43.6967" lon="5.0157">
        <ele>159.60000610352</ele>
        <time>2021-03-06T12:05:48.000Z</time>
      </trkpt>
      <trkpt lat="43.69662" lon="5.01569">
        <ele>159.39999389648</ele>
        <time>2021-03-06T12:05:52.000Z</time>
      </trkpt>
      <trkpt lat="43.69656" lon="5.01569">
        <ele>159.39999389648</ele>
        <time>2021-03-06T12:05:55.000Z</time>
      </trkpt>
      <trkpt lat="43.69649" lon="5.01568">
        <ele>159.19999694824</ele>
        <time>2021-03-06T12:05:58.000Z</time>
      </trkpt>
      <trkpt lat="43.69643" lon="5.01567">
        <ele>159.19999694824</ele>
        <time>2021-03-06T12:06:01.000Z</time>
      </trkpt>
      <trkpt lat="43.69638" lon="5.01566">
        <ele>159.19999694824</ele>
        <time>2021-03-06T12:06:03.000Z</time>
      </trkpt>
      <trkpt lat="43.69631" lon="5.01563">
        <ele>159.39999389648</ele>
        <time>2021-03-06T12:06:06.000Z</time>
      </trkpt>
      <trkpt lat="43.69624" lon="5.01563">
        <ele>159.19999694824</ele>
        <time>2021-03-06T12:06:09.000Z</time>
      </trkpt>
      <trkpt lat="43.69617" lon="5.01563">
        <ele>159.39999389648</ele>
        <time>2021-03-06T12:06:12.000Z</time>
      </trkpt>
      <trkpt lat="43.69612" lon="5.01562">
        <ele>159.60000610352</ele>
        <time>2021-03-06T12:06:14.000Z</time>
      </trkpt>
      <trkpt lat="43.69605" lon="5.01559">
        <ele>160</ele>
        <time>2021-03-06T12:06:17.000Z</time>
      </trkpt>
      <trkpt lat="43.69598" lon="5.01555">
        <ele>160</ele>
        <time>2021-03-06T12:06:20.000Z</time>
      </trkpt>
      <trkpt lat="43.69594" lon="5.01554">
        <ele>159.80000305176</ele>
        <time>2021-03-06T12:06:22.000Z</time>
      </trkpt>
      <trkpt lat="43.69588" lon="5.01556">
        <ele>159.39999389648</ele>
        <time>2021-03-06T12:06:25.000Z</time>
      </trkpt>
      <trkpt lat="43.69582" lon="5.01561">
        <ele>158.80000305176</ele>
        <time>2021-03-06T12:06:28.000Z</time>
      </trkpt>
      <trkpt lat="43.69577" lon="5.01565">
        <ele>158.39999389648</ele>
        <time>2021-03-06T12:06:30.000Z</time>
      </trkpt>
      <trkpt lat="43.69572" lon="5.01571">
        <ele>157.80000305176</ele>
        <time>2021-03-06T12:06:33.000Z</time>
      </trkpt>
      <trkpt lat="43.69568" lon="5.01575">
        <ele>157.39999389648</ele>
        <time>2021-03-06T12:06:36.000Z</time>
      </trkpt>
      <trkpt lat="43.69562" lon="5.01578">
        <ele>156.80000305176</ele>
        <time>2021-03-06T12:06:40.000Z</time>
      </trkpt>
      <trkpt lat="43.69556" lon="5.01576">
        <ele>156.80000305176</ele>
        <time>2021-03-06T12:06:44.000Z</time>
      </trkpt>
      <trkpt lat="43.6955" lon="5.01573">
        <ele>156.60000610352</ele>
        <time>2021-03-06T12:06:48.000Z</time>
      </trkpt>
      <trkpt lat="43.69544" lon="5.01574">
        <ele>155.80000305176</ele>
        <time>2021-03-06T12:06:51.000Z</time>
      </trkpt>
      <trkpt lat="43.69537" lon="5.01575">
        <ele>155</ele>
        <time>2021-03-06T12:06:54.000Z</time>
      </trkpt>
      <trkpt lat="43.69531" lon="5.01575">
        <ele>154.19999694824</ele>
        <time>2021-03-06T12:06:57.000Z</time>
      </trkpt>
      <trkpt lat="43.69526" lon="5.01576">
        <ele>153.60000610352</ele>
        <time>2021-03-06T12:07:00.000Z</time>
      </trkpt>
      <trkpt lat="43.69519" lon="5.01573">
        <ele>153.19999694824</ele>
        <time>2021-03-06T12:07:04.000Z</time>
      </trkpt>
      <trkpt lat="43.69514" lon="5.01573">
        <ele>153.19999694824</ele>
        <time>2021-03-06T12:07:07.000Z</time>
      </trkpt>
      <trkpt lat="43.69509" lon="5.01573">
        <ele>153</ele>
        <time>2021-03-06T12:07:11.000Z</time>
      </trkpt>
      <trkpt lat="43.69503" lon="5.01571">
        <ele>153</ele>
        <time>2021-03-06T12:07:16.000Z</time>
      </trkpt>
      <trkpt lat="43.69497" lon="5.01568">
        <ele>153.19999694824</ele>
        <time>2021-03-06T12:07:21.000Z</time>
      </trkpt>
      <trkpt lat="43.69492" lon="5.01566">
        <ele>153.39999389648</ele>
        <time>2021-03-06T12:07:26.000Z</time>
      </trkpt>
      <trkpt lat="43.69486" lon="5.01569">
        <ele>152.80000305176</ele>
        <time>2021-03-06T12:07:31.000Z</time>
      </trkpt>
      <trkpt lat="43.69482" lon="5.01572">
        <ele>152.39999389648</ele>
        <time>2021-03-06T12:07:43.000Z</time>
      </trkpt>
      <trkpt lat="43.69477" lon="5.01566">
        <ele>153</ele>
        <time>2021-03-06T12:07:50.000Z</time>
      </trkpt>
      <trkpt lat="43.69471" lon="5.01562">
        <ele>153.39999389648</ele>
        <time>2021-03-06T12:07:55.000Z</time>
      </trkpt>
      <trkpt lat="43.69465" lon="5.01561">
        <ele>153.39999389648</ele>
        <time>2021-03-06T12:07:58.000Z</time>
      </trkpt>
      <trkpt lat="43.69458" lon="5.01559">
        <ele>153.39999389648</ele>
        <time>2021-03-06T12:08:01.000Z</time>
      </trkpt>
      <trkpt lat="43.69453" lon="5.01558">
        <ele>153.39999389648</ele>
        <time>2021-03-06T12:08:03.000Z</time>
      </trkpt>
      <trkpt lat="43.69447" lon="5.01556">
        <ele>153.39999389648</ele>
        <time>2021-03-06T12:08:06.000Z</time>
      </trkpt>
      <trkpt lat="43.69439" lon="5.01555">
        <ele>153.19999694824</ele>
        <time>2021-03-06T12:08:09.000Z</time>
      </trkpt>
      <trkpt lat="43.69432" lon="5.01555">
        <ele>151.80000305176</ele>
        <time>2021-03-06T12:08:12.000Z</time>
      </trkpt>
      <trkpt lat="43.69426" lon="5.01555">
        <ele>150.39999389648</ele>
        <time>2021-03-06T12:08:15.000Z</time>
      </trkpt>
      <trkpt lat="43.6942" lon="5.01556">
        <ele>148.60000610352</ele>
        <time>2021-03-06T12:08:19.000Z</time>
      </trkpt>
      <trkpt lat="43.69415" lon="5.01557">
        <ele>147.19999694824</ele>
        <time>2021-03-06T12:08:23.000Z</time>
      </trkpt>
      <trkpt lat="43.69414" lon="5.01563">
        <ele>146</ele>
        <time>2021-03-06T12:08:31.000Z</time>
      </trkpt>
      <trkpt lat="43.69414" lon="5.0157">
        <ele>145</ele>
        <time>2021-03-06T12:08:46.000Z</time>
      </trkpt>
      <trkpt lat="43.6941" lon="5.01575">
        <ele>143</ele>
        <time>2021-03-06T12:08:51.000Z</time>
      </trkpt>
      <trkpt lat="43.69406" lon="5.01584">
        <ele>141</ele>
        <time>2021-03-06T12:08:56.000Z</time>
      </trkpt>
      <trkpt lat="43.69404" lon="5.01591">
        <ele>139.39999389648</ele>
        <time>2021-03-06T12:09:00.000Z</time>
      </trkpt>
      <trkpt lat="43.69402" lon="5.01597">
        <ele>139</ele>
        <time>2021-03-06T12:09:05.000Z</time>
      </trkpt>
      <trkpt lat="43.69399" lon="5.01604">
        <ele>138.80000305176</ele>
        <time>2021-03-06T12:09:12.000Z</time>
      </trkpt>
      <trkpt lat="43.69395" lon="5.0161">
        <ele>138.39999389648</ele>
        <time>2021-03-06T12:09:17.000Z</time>
      </trkpt>
      <trkpt lat="43.6939" lon="5.01614">
        <ele>137.80000305176</ele>
        <time>2021-03-06T12:09:21.000Z</time>
      </trkpt>
      <trkpt lat="43.69387" lon="5.01621">
        <ele>137.60000610352</ele>
        <time>2021-03-06T12:09:25.000Z</time>
      </trkpt>
      <trkpt lat="43.69385" lon="5.01629">
        <ele>137</ele>
        <time>2021-03-06T12:09:28.000Z</time>
      </trkpt>
      <trkpt lat="43.69381" lon="5.01636">
        <ele>135.60000610352</ele>
        <time>2021-03-06T12:09:31.000Z</time>
      </trkpt>
      <trkpt lat="43.69376" lon="5.01642">
        <ele>134.19999694824</ele>
        <time>2021-03-06T12:09:34.000Z</time>
      </trkpt>
      <trkpt lat="43.69371" lon="5.01647">
        <ele>133.39999389648</ele>
        <time>2021-03-06T12:09:37.000Z</time>
      </trkpt>
      <trkpt lat="43.69366" lon="5.01654">
        <ele>133.39999389648</ele>
        <time>2021-03-06T12:09:40.000Z</time>
      </trkpt>
      <trkpt lat="43.69362" lon="5.01661">
        <ele>133.19999694824</ele>
        <time>2021-03-06T12:09:43.000Z</time>
      </trkpt>
      <trkpt lat="43.6936" lon="5.01667">
        <ele>133</ele>
        <time>2021-03-06T12:09:46.000Z</time>
      </trkpt>
      <trkpt lat="43.69359" lon="5.01674">
        <ele>132.80000305176</ele>
        <time>2021-03-06T12:09:50.000Z</time>
      </trkpt>
      <trkpt lat="43.69357" lon="5.01681">
        <ele>132.60000610352</ele>
        <time>2021-03-06T12:09:56.000Z</time>
      </trkpt>
      <trkpt lat="43.69355" lon="5.01687">
        <ele>132.60000610352</ele>
        <time>2021-03-06T12:10:02.000Z</time>
      </trkpt>
      <trkpt lat="43.69353" lon="5.01694">
        <ele>132.19999694824</ele>
        <time>2021-03-06T12:10:10.000Z</time>
      </trkpt>
      <trkpt lat="43.6935" lon="5.017">
        <ele>131.60000610352</ele>
        <time>2021-03-06T12:10:17.000Z</time>
      </trkpt>
      <trkpt lat="43.69345" lon="5.01696">
        <ele>130.80000305176</ele>
        <time>2021-03-06T12:10:27.000Z</time>
      </trkpt>
      <trkpt lat="43.69342" lon="5.01688">
        <ele>130.19999694824</ele>
        <time>2021-03-06T12:10:31.000Z</time>
      </trkpt>
      <trkpt lat="43.6934" lon="5.01682">
        <ele>129.80000305176</ele>
        <time>2021-03-06T12:10:34.000Z</time>
      </trkpt>
      <trkpt lat="43.69335" lon="5.01676">
        <ele>129</ele>
        <time>2021-03-06T12:10:38.000Z</time>
      </trkpt>
      <trkpt lat="43.69331" lon="5.0167">
        <ele>128.39999389648</ele>
        <time>2021-03-06T12:10:41.000Z</time>
      </trkpt>
      <trkpt lat="43.69327" lon="5.01664">
        <ele>127.80000305176</ele>
        <time>2021-03-06T12:10:44.000Z</time>
      </trkpt>
      <trkpt lat="43.69323" lon="5.01657">
        <ele>127.19999694824</ele>
        <time>2021-03-06T12:10:47.000Z</time>
      </trkpt>
      <trkpt lat="43.69319" lon="5.01652">
        <ele>126.40000152588</ele>
        <time>2021-03-06T12:10:50.000Z</time>
      </trkpt>
      <trkpt lat="43.69314" lon="5.01648">
        <ele>125.40000152588</ele>
        <time>2021-03-06T12:10:53.000Z</time>
      </trkpt>
      <trkpt lat="43.69309" lon="5.01642">
        <ele>124.59999847412</ele>
        <time>2021-03-06T12:10:56.000Z</time>
      </trkpt>
      <trkpt lat="43.69303" lon="5.01636">
        <ele>123.59999847412</ele>
        <time>2021-03-06T12:10:59.000Z</time>
      </trkpt>
      <trkpt lat="43.693" lon="5.01632">
        <ele>123</ele>
        <time>2021-03-06T12:11:02.000Z</time>
      </trkpt>
      <trkpt lat="43.69295" lon="5.01627">
        <ele>122</ele>
        <time>2021-03-06T12:11:06.000Z</time>
      </trkpt>
      <trkpt lat="43.69289" lon="5.01622">
        <ele>120.80000305176</ele>
        <time>2021-03-06T12:11:10.000Z</time>
      </trkpt>
      <trkpt lat="43.69284" lon="5.01615">
        <ele>119.19999694824</ele>
        <time>2021-03-06T12:11:14.000Z</time>
      </trkpt>
      <trkpt lat="43.69282" lon="5.01607">
        <ele>118.40000152588</ele>
        <time>2021-03-06T12:11:17.000Z</time>
      </trkpt>
      <trkpt lat="43.69282" lon="5.016">
        <ele>118</ele>
        <time>2021-03-06T12:11:19.000Z</time>
      </trkpt>
      <trkpt lat="43.69284" lon="5.0159">
        <ele>117.80000305176</ele>
        <time>2021-03-06T12:11:22.000Z</time>
      </trkpt>
      <trkpt lat="43.69287" lon="5.01584">
        <ele>118</ele>
        <time>2021-03-06T12:11:24.000Z</time>
      </trkpt>
      <trkpt lat="43.69289" lon="5.01575">
        <ele>117.80000305176</ele>
        <time>2021-03-06T12:11:27.000Z</time>
      </trkpt>
      <trkpt lat="43.69288" lon="5.01566">
        <ele>117.19999694824</ele>
        <time>2021-03-06T12:11:30.000Z</time>
      </trkpt>
      <trkpt lat="43.69287" lon="5.01558">
        <ele>116.40000152588</ele>
        <time>2021-03-06T12:11:33.000Z</time>
      </trkpt>
      <trkpt lat="43.69287" lon="5.01553">
        <ele>116.40000152588</ele>
        <time>2021-03-06T12:11:38.000Z</time>
      </trkpt>
      <trkpt lat="43.69288" lon="5.01562">
        <ele>117</ele>
        <time>2021-03-06T12:11:47.000Z</time>
      </trkpt>
      <trkpt lat="43.69288" lon="5.01571">
        <ele>117.40000152588</ele>
        <time>2021-03-06T12:11:51.000Z</time>
      </trkpt>
      <trkpt lat="43.69286" lon="5.01579">
        <ele>117.40000152588</ele>
        <time>2021-03-06T12:11:54.000Z</time>
      </trkpt>
      <trkpt lat="43.69282" lon="5.01588">
        <ele>117.40000152588</ele>
        <time>2021-03-06T12:11:57.000Z</time>
      </trkpt>
      <trkpt lat="43.6928" lon="5.01597">
        <ele>117.40000152588</ele>
        <time>2021-03-06T12:12:00.000Z</time>
      </trkpt>
      <trkpt lat="43.69276" lon="5.01606">
        <ele>117.19999694824</ele>
        <time>2021-03-06T12:12:03.000Z</time>
      </trkpt>
      <trkpt lat="43.69274" lon="5.01613">
        <ele>117.19999694824</ele>
        <time>2021-03-06T12:12:05.000Z</time>
      </trkpt>
      <trkpt lat="43.69271" lon="5.01621">
        <ele>117</ele>
        <time>2021-03-06T12:12:08.000Z</time>
      </trkpt>
      <trkpt lat="43.69266" lon="5.01632">
        <ele>117.40000152588</ele>
        <time>2021-03-06T12:12:12.000Z</time>
      </trkpt>
      <trkpt lat="43.69263" lon="5.0164">
        <ele>118</ele>
        <time>2021-03-06T12:12:15.000Z</time>
      </trkpt>
      <trkpt lat="43.69258" lon="5.01645">
        <ele>118.19999694824</ele>
        <time>2021-03-06T12:12:18.000Z</time>
      </trkpt>
      <trkpt lat="43.69257" lon="5.01651">
        <ele>118.59999847412</ele>
        <time>2021-03-06T12:12:21.000Z</time>
      </trkpt>
      <trkpt lat="43.69254" lon="5.01659">
        <ele>119.19999694824</ele>
        <time>2021-03-06T12:12:25.000Z</time>
      </trkpt>
      <trkpt lat="43.69251" lon="5.01664">
        <ele>119.59999847412</ele>
        <time>2021-03-06T12:12:28.000Z</time>
      </trkpt>
      <trkpt lat="43.69248" lon="5.01672">
        <ele>120.19999694824</ele>
        <time>2021-03-06T12:12:32.000Z</time>
      </trkpt>
      <trkpt lat="43.69243" lon="5.01678">
        <ele>120.40000152588</ele>
        <time>2021-03-06T12:12:35.000Z</time>
      </trkpt>
      <trkpt lat="43.69238" lon="5.01685">
        <ele>120.40000152588</ele>
        <time>2021-03-06T12:12:38.000Z</time>
      </trkpt>
      <trkpt lat="43.69233" lon="5.01691">
        <ele>120</ele>
        <time>2021-03-06T12:12:41.000Z</time>
      </trkpt>
      <trkpt lat="43.69227" lon="5.01693">
        <ele>119.40000152588</ele>
        <time>2021-03-06T12:12:44.000Z</time>
      </trkpt>
      <trkpt lat="43.69222" lon="5.01692">
        <ele>118.80000305176</ele>
        <time>2021-03-06T12:12:47.000Z</time>
      </trkpt>
      <trkpt lat="43.69216" lon="5.01689">
        <ele>117.80000305176</ele>
        <time>2021-03-06T12:12:52.000Z</time>
      </trkpt>
      <trkpt lat="43.69214" lon="5.01682">
        <ele>117</ele>
        <time>2021-03-06T12:12:56.000Z</time>
      </trkpt>
      <trkpt lat="43.69212" lon="5.01676">
        <ele>116.40000152588</ele>
        <time>2021-03-06T12:13:00.000Z</time>
      </trkpt>
      <trkpt lat="43.69207" lon="5.01678">
        <ele>116</ele>
        <time>2021-03-06T12:13:05.000Z</time>
      </trkpt>
      <trkpt lat="43.69204" lon="5.01686">
        <ele>115.80000305176</ele>
        <time>2021-03-06T12:13:08.000Z</time>
      </trkpt>
      <trkpt lat="43.692" lon="5.01693">
        <ele>116</ele>
        <time>2021-03-06T12:13:11.000Z</time>
      </trkpt>
      <trkpt lat="43.69197" lon="5.01701">
        <ele>116</ele>
        <time>2021-03-06T12:13:14.000Z</time>
      </trkpt>
      <trkpt lat="43.69193" lon="5.0171">
        <ele>115.80000305176</ele>
        <time>2021-03-06T12:13:17.000Z</time>
      </trkpt>
      <trkpt lat="43.6919" lon="5.01716">
        <ele>115.59999847412</ele>
        <time>2021-03-06T12:13:19.000Z</time>
      </trkpt>
      <trkpt lat="43.69187" lon="5.01721">
        <ele>115.59999847412</ele>
        <time>2021-03-06T12:13:21.000Z</time>
      </trkpt>
      <trkpt lat="43.69183" lon="5.01729">
        <ele>115.40000152588</ele>
        <time>2021-03-06T12:13:24.000Z</time>
      </trkpt>
      <trkpt lat="43.69179" lon="5.01738">
        <ele>115.40000152588</ele>
        <time>2021-03-06T12:13:27.000Z</time>
      </trkpt>
      <trkpt lat="43.69176" lon="5.01743">
        <ele>115.19999694824</ele>
        <time>2021-03-06T12:13:29.000Z</time>
      </trkpt>
      <trkpt lat="43.69171" lon="5.01752">
        <ele>115</ele>
        <time>2021-03-06T12:13:32.000Z</time>
      </trkpt>
      <trkpt lat="43.69166" lon="5.01759">
        <ele>114.80000305176</ele>
        <time>2021-03-06T12:13:35.000Z</time>
      </trkpt>
      <trkpt lat="43.69163" lon="5.01765">
        <ele>114.59999847412</ele>
        <time>2021-03-06T12:13:37.000Z</time>
      </trkpt>
      <trkpt lat="43.69159" lon="5.0177">
        <ele>114</ele>
        <time>2021-03-06T12:13:39.000Z</time>
      </trkpt>
      <trkpt lat="43.69155" lon="5.01778">
        <ele>113</ele>
        <time>2021-03-06T12:13:42.000Z</time>
      </trkpt>
      <trkpt lat="43.69149" lon="5.01785">
        <ele>111.80000305176</ele>
        <time>2021-03-06T12:13:45.000Z</time>
      </trkpt>
      <trkpt lat="43.69145" lon="5.0179">
        <ele>111</ele>
        <time>2021-03-06T12:13:47.000Z</time>
      </trkpt>
      <trkpt lat="43.69141" lon="5.01796">
        <ele>110.19999694824</ele>
        <time>2021-03-06T12:13:49.000Z</time>
      </trkpt>
      <trkpt lat="43.69138" lon="5.01803">
        <ele>109.59999847412</ele>
        <time>2021-03-06T12:13:51.000Z</time>
      </trkpt>
      <trkpt lat="43.69136" lon="5.01811">
        <ele>109</ele>
        <time>2021-03-06T12:13:54.000Z</time>
      </trkpt>
      <trkpt lat="43.69134" lon="5.01817">
        <ele>108.59999847412</ele>
        <time>2021-03-06T12:13:57.000Z</time>
      </trkpt>
      <trkpt lat="43.69131" lon="5.01826">
        <ele>108.19999694824</ele>
        <time>2021-03-06T12:14:01.000Z</time>
      </trkpt>
      <trkpt lat="43.69129" lon="5.01833">
        <ele>108</ele>
        <time>2021-03-06T12:14:04.000Z</time>
      </trkpt>
      <trkpt lat="43.69126" lon="5.0184">
        <ele>107.80000305176</ele>
        <time>2021-03-06T12:14:07.000Z</time>
      </trkpt>
      <trkpt lat="43.69124" lon="5.01845">
        <ele>107.59999847412</ele>
        <time>2021-03-06T12:14:10.000Z</time>
      </trkpt>
      <trkpt lat="43.69121" lon="5.01852">
        <ele>107.19999694824</ele>
        <time>2021-03-06T12:14:14.000Z</time>
      </trkpt>
      <trkpt lat="43.69118" lon="5.01859">
        <ele>107</ele>
        <time>2021-03-06T12:14:22.000Z</time>
      </trkpt>
      <trkpt lat="43.69115" lon="5.01866">
        <ele>106.59999847412</ele>
        <time>2021-03-06T12:14:27.000Z</time>
      </trkpt>
      <trkpt lat="43.69111" lon="5.01871">
        <ele>106.19999694824</ele>
        <time>2021-03-06T12:14:32.000Z</time>
      </trkpt>
      <trkpt lat="43.69107" lon="5.01877">
        <ele>105.40000152588</ele>
        <time>2021-03-06T12:14:37.000Z</time>
      </trkpt>
      <trkpt lat="43.69106" lon="5.01883">
        <ele>105.19999694824</ele>
        <time>2021-03-06T12:14:41.000Z</time>
      </trkpt>
      <trkpt lat="43.69103" lon="5.0189">
        <ele>105</ele>
        <time>2021-03-06T12:14:46.000Z</time>
      </trkpt>
      <trkpt lat="43.69101" lon="5.01896">
        <ele>104.80000305176</ele>
        <time>2021-03-06T12:14:54.000Z</time>
      </trkpt>
      <trkpt lat="43.69097" lon="5.01906">
        <ele>104</ele>
        <time>2021-03-06T12:15:13.000Z</time>
      </trkpt>
      <trkpt lat="43.69096" lon="5.01913">
        <ele>104</ele>
        <time>2021-03-06T12:15:16.000Z</time>
      </trkpt>
      <trkpt lat="43.69094" lon="5.01921">
        <ele>103.59999847412</ele>
        <time>2021-03-06T12:15:19.000Z</time>
      </trkpt>
      <trkpt lat="43.69094" lon="5.0193">
        <ele>103.59999847412</ele>
        <time>2021-03-06T12:15:22.000Z</time>
      </trkpt>
      <trkpt lat="43.69091" lon="5.01941">
        <ele>103.40000152588</ele>
        <time>2021-03-06T12:15:25.000Z</time>
      </trkpt>
      <trkpt lat="43.6909" lon="5.01949">
        <ele>103.19999694824</ele>
        <time>2021-03-06T12:15:27.000Z</time>
      </trkpt>
      <trkpt lat="43.69088" lon="5.01955">
        <ele>103</ele>
        <time>2021-03-06T12:15:29.000Z</time>
      </trkpt>
      <trkpt lat="43.69085" lon="5.01962">
        <ele>102.80000305176</ele>
        <time>2021-03-06T12:15:31.000Z</time>
      </trkpt>
      <trkpt lat="43.69083" lon="5.01969">
        <ele>102.40000152588</ele>
        <time>2021-03-06T12:15:33.000Z</time>
      </trkpt>
      <trkpt lat="43.69082" lon="5.01976">
        <ele>102.19999694824</ele>
        <time>2021-03-06T12:15:35.000Z</time>
      </trkpt>
      <trkpt lat="43.6908" lon="5.01982">
        <ele>102</ele>
        <time>2021-03-06T12:15:37.000Z</time>
      </trkpt>
      <trkpt lat="43.69076" lon="5.01993">
        <ele>101.40000152588</ele>
        <time>2021-03-06T12:15:40.000Z</time>
      </trkpt>
      <trkpt lat="43.69073" lon="5.02001">
        <ele>101</ele>
        <time>2021-03-06T12:15:42.000Z</time>
      </trkpt>
      <trkpt lat="43.69072" lon="5.02009">
        <ele>100.59999847412</ele>
        <time>2021-03-06T12:15:44.000Z</time>
      </trkpt>
      <trkpt lat="43.6907" lon="5.02017">
        <ele>100.80000305176</ele>
        <time>2021-03-06T12:15:46.000Z</time>
      </trkpt>
      <trkpt lat="43.69067" lon="5.02025">
        <ele>100.80000305176</ele>
        <time>2021-03-06T12:15:48.000Z</time>
      </trkpt>
      <trkpt lat="43.69064" lon="5.02033">
        <ele>100.80000305176</ele>
        <time>2021-03-06T12:15:50.000Z</time>
      </trkpt>
      <trkpt lat="43.69062" lon="5.0204">
        <ele>101</ele>
        <time>2021-03-06T12:15:52.000Z</time>
      </trkpt>
      <trkpt lat="43.6906" lon="5.02047">
        <ele>100.80000305176</ele>
        <time>2021-03-06T12:15:54.000Z</time>
      </trkpt>
      <trkpt lat="43.69059" lon="5.02055">
        <ele>100.40000152588</ele>
        <time>2021-03-06T12:15:56.000Z</time>
      </trkpt>
      <trkpt lat="43.69058" lon="5.02064">
        <ele>100.19999694824</ele>
        <time>2021-03-06T12:15:58.000Z</time>
      </trkpt>
      <trkpt lat="43.69058" lon="5.02072">
        <ele>100</ele>
        <time>2021-03-06T12:16:00.000Z</time>
      </trkpt>
      <trkpt lat="43.69058" lon="5.02081">
        <ele>99.800003051758</ele>
        <time>2021-03-06T12:16:02.000Z</time>
      </trkpt>
      <trkpt lat="43.69057" lon="5.02089">
        <ele>99.599998474121</ele>
        <time>2021-03-06T12:16:04.000Z</time>
      </trkpt>
      <trkpt lat="43.69057" lon="5.02098">
        <ele>99.400001525879</ele>
        <time>2021-03-06T12:16:06.000Z</time>
      </trkpt>
      <trkpt lat="43.69058" lon="5.02106">
        <ele>99.199996948242</ele>
        <time>2021-03-06T12:16:08.000Z</time>
      </trkpt>
      <trkpt lat="43.69059" lon="5.02114">
        <ele>99.199996948242</ele>
        <time>2021-03-06T12:16:10.000Z</time>
      </trkpt>
      <trkpt lat="43.69061" lon="5.02122">
        <ele>99</ele>
        <time>2021-03-06T12:16:12.000Z</time>
      </trkpt>
      <trkpt lat="43.69062" lon="5.0213">
        <ele>98.800003051758</ele>
        <time>2021-03-06T12:16:14.000Z</time>
      </trkpt>
      <trkpt lat="43.69064" lon="5.02138">
        <ele>98.599998474121</ele>
        <time>2021-03-06T12:16:16.000Z</time>
      </trkpt>
      <trkpt lat="43.69065" lon="5.02146">
        <ele>98.199996948242</ele>
        <time>2021-03-06T12:16:18.000Z</time>
      </trkpt>
      <trkpt lat="43.69067" lon="5.02153">
        <ele>98.199996948242</ele>
        <time>2021-03-06T12:16:20.000Z</time>
      </trkpt>
      <trkpt lat="43.69069" lon="5.0216">
        <ele>97.800003051758</ele>
        <time>2021-03-06T12:16:22.000Z</time>
      </trkpt>
      <trkpt lat="43.69072" lon="5.02166">
        <ele>97.800003051758</ele>
        <time>2021-03-06T12:16:24.000Z</time>
      </trkpt>
      <trkpt lat="43.69073" lon="5.02174">
        <ele>97.400001525879</ele>
        <time>2021-03-06T12:16:26.000Z</time>
      </trkpt>
      <trkpt lat="43.69073" lon="5.02183">
        <ele>97.199996948242</ele>
        <time>2021-03-06T12:16:28.000Z</time>
      </trkpt>
      <trkpt lat="43.69073" lon="5.02191">
        <ele>96.800003051758</ele>
        <time>2021-03-06T12:16:30.000Z</time>
      </trkpt>
      <trkpt lat="43.69073" lon="5.02199">
        <ele>96.599998474121</ele>
        <time>2021-03-06T12:16:32.000Z</time>
      </trkpt>
      <trkpt lat="43.69073" lon="5.02207">
        <ele>96.199996948242</ele>
        <time>2021-03-06T12:16:34.000Z</time>
      </trkpt>
      <trkpt lat="43.69073" lon="5.02213">
        <ele>96</ele>
        <time>2021-03-06T12:16:36.000Z</time>
      </trkpt>
      <trkpt lat="43.69073" lon="5.02219">
        <ele>95.800003051758</ele>
        <time>2021-03-06T12:16:39.000Z</time>
      </trkpt>
      <trkpt lat="43.69076" lon="5.02224">
        <ele>95.800003051758</ele>
        <time>2021-03-06T12:16:44.000Z</time>
      </trkpt>
      <trkpt lat="43.69071" lon="5.02233">
        <ele>95.199996948242</ele>
        <time>2021-03-06T12:17:29.000Z</time>
      </trkpt>
      <trkpt lat="43.6907" lon="5.02241">
        <ele>94.800003051758</ele>
        <time>2021-03-06T12:17:32.000Z</time>
      </trkpt>
      <trkpt lat="43.69067" lon="5.0225">
        <ele>94.400001525879</ele>
        <time>2021-03-06T12:17:35.000Z</time>
      </trkpt>
      <trkpt lat="43.69066" lon="5.02259">
        <ele>94</ele>
        <time>2021-03-06T12:17:38.000Z</time>
      </trkpt>
      <trkpt lat="43.69065" lon="5.02267">
        <ele>93.800003051758</ele>
        <time>2021-03-06T12:17:41.000Z</time>
      </trkpt>
      <trkpt lat="43.69065" lon="5.02277">
        <ele>93.599998474121</ele>
        <time>2021-03-06T12:17:44.000Z</time>
      </trkpt>
      <trkpt lat="43.69068" lon="5.02287">
        <ele>93.400001525879</ele>
        <time>2021-03-06T12:17:47.000Z</time>
      </trkpt>
      <trkpt lat="43.6907" lon="5.02292">
        <ele>93.400001525879</ele>
        <time>2021-03-06T12:17:49.000Z</time>
      </trkpt>
      <trkpt lat="43.69074" lon="5.02296">
        <ele>93.400001525879</ele>
        <time>2021-03-06T12:17:52.000Z</time>
      </trkpt>
    </trkseg>
  </trk>
</gpx>